<?xml version="1.0" encoding="UTF-8"?>
<gpx version="1.1" creator="Endomondo.com" xsi:schemaLocation="http://www.topografix.com/GPX/1/1 http://www.topografix.com/GPX/1/1/gpx.xsd http://www.garmin.com/xmlschemas/GpxExtensions/v3 http://www.garmin.com/xmlschemas/GpxExtensionsv3.xsd http://www.garmin.com/xmlschemas/TrackPointExtension/v1 http://www.garmin.com/xmlschemas/TrackPointExtensionv1.xsd" xmlns="http://www.topografix.com/GPX/1/1" xmlns:gpxtpx="http://www.garmin.com/xmlschemas/TrackPointExtension/v1" xmlns:gpxx="http://www.garmin.com/xmlschemas/GpxExtensions/v3" xmlns:xsi="http://www.w3.org/2001/XMLSchema-instance">
  <metadata>
    <author>
      <name>Pawel Pawlak</name>
      <email id="pap8wz" domain="gmail.com"/>
    </author>
    <link href="http://www.endomondo.com">
      <text>Endomondo</text>
    </link>
    <time>2013-09-30T08:30:31Z</time>
  </metadata>
  <trk>
    <src>http://www.endomondo.com/</src>
    <link href="http://www.endomondo.com/workouts/252277846/10086302">
      <text>endomondo</text>
    </link>
    <type>RUNNING</type>
    <trkseg>
      <trkpt lat="52.2364763" lon="21.0439554">
        <ele>82.2</ele>
        <time>2013-09-29T07:07:41Z</time>
      </trkpt>
      <trkpt lat="52.2364602" lon="21.0438807">
        <ele>81.8</ele>
        <time>2013-09-29T07:07:43Z</time>
      </trkpt>
      <trkpt lat="52.2364102" lon="21.0437006">
        <ele>81.0</ele>
        <time>2013-09-29T07:07:48Z</time>
      </trkpt>
      <trkpt lat="52.2363894" lon="21.043627">
        <ele>80.6</ele>
        <time>2013-09-29T07:07:50Z</time>
      </trkpt>
      <trkpt lat="52.2363604" lon="21.0434644">
        <ele>80.0</ele>
        <time>2013-09-29T07:07:54Z</time>
      </trkpt>
      <trkpt lat="52.2363515" lon="21.0433793">
        <ele>79.6</ele>
        <time>2013-09-29T07:07:56Z</time>
      </trkpt>
      <trkpt lat="52.2363175" lon="21.0431971">
        <ele>79.0</ele>
        <time>2013-09-29T07:08:01Z</time>
      </trkpt>
      <trkpt lat="52.23629" lon="21.0430827">
        <ele>78.6</ele>
        <time>2013-09-29T07:08:04Z</time>
      </trkpt>
      <trkpt lat="52.2362501" lon="21.0428853">
        <ele>78.0</ele>
        <time>2013-09-29T07:08:09Z</time>
      </trkpt>
      <trkpt lat="52.2362056" lon="21.0426382">
        <ele>77.6</ele>
        <time>2013-09-29T07:08:16Z</time>
      </trkpt>
      <trkpt lat="52.2361605" lon="21.0424584">
        <ele>77.4</ele>
        <time>2013-09-29T07:08:21Z</time>
      </trkpt>
      <trkpt lat="52.2361222" lon="21.0422853">
        <ele>76.8</ele>
        <time>2013-09-29T07:08:25Z</time>
      </trkpt>
      <trkpt lat="52.2360994" lon="21.0422114">
        <ele>76.6</ele>
        <time>2013-09-29T07:08:27Z</time>
      </trkpt>
      <trkpt lat="52.2360609" lon="21.0419938">
        <ele>76.0</ele>
        <time>2013-09-29T07:08:33Z</time>
      </trkpt>
      <trkpt lat="52.23603" lon="21.0417498">
        <ele>75.4</ele>
        <time>2013-09-29T07:08:39Z</time>
      </trkpt>
      <trkpt lat="52.2359769" lon="21.0415462">
        <ele>75.0</ele>
        <time>2013-09-29T07:08:44Z</time>
      </trkpt>
      <trkpt lat="52.2359422" lon="21.0413507">
        <ele>74.6</ele>
        <time>2013-09-29T07:08:49Z</time>
      </trkpt>
      <trkpt lat="52.235893" lon="21.0411412">
        <ele>74.4</ele>
        <time>2013-09-29T07:08:54Z</time>
      </trkpt>
      <trkpt lat="52.2358429" lon="21.0409381">
        <ele>74.0</ele>
        <time>2013-09-29T07:08:59Z</time>
      </trkpt>
      <trkpt lat="52.235805" lon="21.0407837">
        <ele>73.8</ele>
        <time>2013-09-29T07:09:03Z</time>
      </trkpt>
      <trkpt lat="52.2357523" lon="21.0406024">
        <ele>73.2</ele>
        <time>2013-09-29T07:09:08Z</time>
      </trkpt>
      <trkpt lat="52.2357161" lon="21.0403702">
        <ele>72.4</ele>
        <time>2013-09-29T07:09:14Z</time>
      </trkpt>
      <trkpt lat="52.2356663" lon="21.0401718">
        <ele>71.8</ele>
        <time>2013-09-29T07:09:19Z</time>
      </trkpt>
      <trkpt lat="52.235601" lon="21.0398788">
        <ele>71.6</ele>
        <time>2013-09-29T07:09:26Z</time>
      </trkpt>
      <trkpt lat="52.2355641" lon="21.0397196">
        <ele>72.0</ele>
        <time>2013-09-29T07:09:30Z</time>
      </trkpt>
      <trkpt lat="52.235532" lon="21.0395172">
        <ele>72.4</ele>
        <time>2013-09-29T07:09:35Z</time>
      </trkpt>
      <trkpt lat="52.235498" lon="21.0392758">
        <ele>72.6</ele>
        <time>2013-09-29T07:09:41Z</time>
      </trkpt>
      <trkpt lat="52.2354553" lon="21.0390012">
        <ele>74.2</ele>
        <time>2013-09-29T07:09:48Z</time>
      </trkpt>
      <trkpt lat="52.2354089" lon="21.0387526">
        <ele>76.8</ele>
        <time>2013-09-29T07:09:54Z</time>
      </trkpt>
      <trkpt lat="52.235368" lon="21.0385092">
        <ele>79.0</ele>
        <time>2013-09-29T07:10:00Z</time>
      </trkpt>
      <trkpt lat="52.2353286" lon="21.0383227">
        <ele>80.8</ele>
        <time>2013-09-29T07:10:05Z</time>
      </trkpt>
      <trkpt lat="52.2352944" lon="21.038118">
        <ele>82.4</ele>
        <time>2013-09-29T07:10:10Z</time>
      </trkpt>
      <trkpt lat="52.2352643" lon="21.0379186">
        <ele>84.0</ele>
        <time>2013-09-29T07:10:15Z</time>
      </trkpt>
      <trkpt lat="52.2352067" lon="21.0376928">
        <ele>85.8</ele>
        <time>2013-09-29T07:10:21Z</time>
      </trkpt>
      <trkpt lat="52.2351286" lon="21.0374646">
        <ele>87.2</ele>
        <time>2013-09-29T07:10:27Z</time>
      </trkpt>
      <trkpt lat="52.2350626" lon="21.0372766">
        <ele>87.6</ele>
        <time>2013-09-29T07:10:32Z</time>
      </trkpt>
      <trkpt lat="52.2350059" lon="21.0370033">
        <ele>87.8</ele>
        <time>2013-09-29T07:10:39Z</time>
      </trkpt>
      <trkpt lat="52.2349592" lon="21.0367728">
        <ele>87.6</ele>
        <time>2013-09-29T07:10:45Z</time>
      </trkpt>
      <trkpt lat="52.2349178" lon="21.0365765">
        <ele>87.4</ele>
        <time>2013-09-29T07:10:50Z</time>
      </trkpt>
      <trkpt lat="52.2349163" lon="21.0365055">
        <ele>87.2</ele>
        <time>2013-09-29T07:10:52Z</time>
      </trkpt>
      <trkpt lat="52.2348971" lon="21.0363407">
        <ele>87.2</ele>
        <time>2013-09-29T07:10:56Z</time>
      </trkpt>
      <trkpt lat="52.2348519" lon="21.0360926">
        <ele>86.8</ele>
        <time>2013-09-29T07:11:02Z</time>
      </trkpt>
      <trkpt lat="52.2348069" lon="21.0357932">
        <ele>86.6</ele>
        <time>2013-09-29T07:11:09Z</time>
      </trkpt>
      <trkpt lat="52.2347526" lon="21.0355596">
        <ele>86.2</ele>
        <time>2013-09-29T07:11:15Z</time>
      </trkpt>
      <trkpt lat="52.2347008" lon="21.035333">
        <ele>86.0</ele>
        <time>2013-09-29T07:11:21Z</time>
      </trkpt>
      <trkpt lat="52.2346298" lon="21.0350748">
        <ele>85.6</ele>
        <time>2013-09-29T07:11:28Z</time>
      </trkpt>
      <trkpt lat="52.2345707" lon="21.0348421">
        <ele>85.2</ele>
        <time>2013-09-29T07:11:34Z</time>
      </trkpt>
      <trkpt lat="52.2345329" lon="21.0346431">
        <ele>85.0</ele>
        <time>2013-09-29T07:11:39Z</time>
      </trkpt>
      <trkpt lat="52.234491" lon="21.0344442">
        <ele>84.8</ele>
        <time>2013-09-29T07:11:44Z</time>
      </trkpt>
      <trkpt lat="52.2344412" lon="21.0342081">
        <ele>84.6</ele>
        <time>2013-09-29T07:11:50Z</time>
      </trkpt>
      <trkpt lat="52.2344039" lon="21.033965">
        <ele>84.6</ele>
        <time>2013-09-29T07:11:56Z</time>
      </trkpt>
      <trkpt lat="52.234363" lon="21.0337642">
        <ele>84.8</ele>
        <time>2013-09-29T07:12:01Z</time>
      </trkpt>
      <trkpt lat="52.2343112" lon="21.0335233">
        <ele>85.2</ele>
        <time>2013-09-29T07:12:07Z</time>
      </trkpt>
      <trkpt lat="52.2342641" lon="21.0333268">
        <ele>85.6</ele>
        <time>2013-09-29T07:12:12Z</time>
      </trkpt>
      <trkpt lat="52.2342304" lon="21.0331492">
        <ele>86.2</ele>
        <time>2013-09-29T07:12:17Z</time>
      </trkpt>
      <trkpt lat="52.2341931" lon="21.032931">
        <ele>86.8</ele>
        <time>2013-09-29T07:12:23Z</time>
      </trkpt>
      <trkpt lat="52.234177" lon="21.0327326">
        <ele>87.4</ele>
        <time>2013-09-29T07:12:28Z</time>
      </trkpt>
      <trkpt lat="52.2341407" lon="21.0325182">
        <ele>87.8</ele>
        <time>2013-09-29T07:12:34Z</time>
      </trkpt>
      <trkpt lat="52.2341035" lon="21.0323278">
        <ele>87.8</ele>
        <time>2013-09-29T07:12:39Z</time>
      </trkpt>
      <trkpt lat="52.2340771" lon="21.0321006">
        <ele>88.0</ele>
        <time>2013-09-29T07:12:45Z</time>
      </trkpt>
      <trkpt lat="52.2340429" lon="21.0319148">
        <ele>88.0</ele>
        <time>2013-09-29T07:12:50Z</time>
      </trkpt>
      <trkpt lat="52.2339966" lon="21.0316973">
        <ele>88.0</ele>
        <time>2013-09-29T07:12:56Z</time>
      </trkpt>
      <trkpt lat="52.2339569" lon="21.0315186">
        <ele>87.8</ele>
        <time>2013-09-29T07:13:01Z</time>
      </trkpt>
      <trkpt lat="52.233905" lon="21.0313331">
        <ele>87.4</ele>
        <time>2013-09-29T07:13:06Z</time>
      </trkpt>
      <trkpt lat="52.2338595" lon="21.031155">
        <ele>87.2</ele>
        <time>2013-09-29T07:13:11Z</time>
      </trkpt>
      <trkpt lat="52.2337922" lon="21.0308607">
        <ele>87.0</ele>
        <time>2013-09-29T07:13:19Z</time>
      </trkpt>
      <trkpt lat="52.233749" lon="21.0306364">
        <ele>87.2</ele>
        <time>2013-09-29T07:13:25Z</time>
      </trkpt>
      <trkpt lat="52.233717" lon="21.030457">
        <ele>87.2</ele>
        <time>2013-09-29T07:13:30Z</time>
      </trkpt>
      <trkpt lat="52.2336767" lon="21.0302384">
        <ele>87.4</ele>
        <time>2013-09-29T07:13:36Z</time>
      </trkpt>
      <trkpt lat="52.233644" lon="21.0300654">
        <ele>87.6</ele>
        <time>2013-09-29T07:13:41Z</time>
      </trkpt>
      <trkpt lat="52.2336021" lon="21.029852">
        <ele>87.8</ele>
        <time>2013-09-29T07:13:47Z</time>
      </trkpt>
      <trkpt lat="52.2335663" lon="21.0296382">
        <ele>87.8</ele>
        <time>2013-09-29T07:13:53Z</time>
      </trkpt>
      <trkpt lat="52.2335363" lon="21.0294833">
        <ele>88.0</ele>
        <time>2013-09-29T07:13:57Z</time>
      </trkpt>
      <trkpt lat="52.2335009" lon="21.0293114">
        <ele>88.2</ele>
        <time>2013-09-29T07:14:02Z</time>
      </trkpt>
      <trkpt lat="52.233459" lon="21.0290516">
        <ele>88.4</ele>
        <time>2013-09-29T07:14:09Z</time>
      </trkpt>
      <trkpt lat="52.2334259" lon="21.028875">
        <ele>88.6</ele>
        <time>2013-09-29T07:14:14Z</time>
      </trkpt>
      <trkpt lat="52.2334011" lon="21.0287649">
        <ele>88.8</ele>
        <time>2013-09-29T07:14:17Z</time>
      </trkpt>
      <trkpt lat="52.2333576" lon="21.0285649">
        <ele>89.2</ele>
        <time>2013-09-29T07:14:23Z</time>
      </trkpt>
      <trkpt lat="52.2333294" lon="21.0284593">
        <ele>89.6</ele>
        <time>2013-09-29T07:14:26Z</time>
      </trkpt>
      <trkpt lat="52.2332804" lon="21.0282492">
        <ele>90.4</ele>
        <time>2013-09-29T07:14:32Z</time>
      </trkpt>
      <trkpt lat="52.2332487" lon="21.0281142">
        <ele>91.0</ele>
        <time>2013-09-29T07:14:36Z</time>
      </trkpt>
      <trkpt lat="52.2332124" lon="21.0278567">
        <ele>91.8</ele>
        <time>2013-09-29T07:14:43Z</time>
      </trkpt>
      <trkpt lat="52.2331788" lon="21.0276278">
        <ele>92.6</ele>
        <time>2013-09-29T07:14:49Z</time>
      </trkpt>
      <trkpt lat="52.233133" lon="21.0274103">
        <ele>93.6</ele>
        <time>2013-09-29T07:14:55Z</time>
      </trkpt>
      <trkpt lat="52.2330944" lon="21.0272279">
        <ele>94.6</ele>
        <time>2013-09-29T07:15:00Z</time>
      </trkpt>
      <trkpt lat="52.2330564" lon="21.0270392">
        <ele>95.8</ele>
        <time>2013-09-29T07:15:05Z</time>
      </trkpt>
      <trkpt lat="52.2330048" lon="21.0268601">
        <ele>97.0</ele>
        <time>2013-09-29T07:15:10Z</time>
      </trkpt>
      <trkpt lat="52.2329529" lon="21.0266389">
        <ele>98.4</ele>
        <time>2013-09-29T07:15:16Z</time>
      </trkpt>
      <trkpt lat="52.2328855" lon="21.0264002">
        <ele>100.4</ele>
        <time>2013-09-29T07:15:23Z</time>
      </trkpt>
      <trkpt lat="52.232854" lon="21.0262453">
        <ele>101.6</ele>
        <time>2013-09-29T07:15:27Z</time>
      </trkpt>
      <trkpt lat="52.2327826" lon="21.0259245">
        <ele>103.6</ele>
        <time>2013-09-29T07:15:35Z</time>
      </trkpt>
      <trkpt lat="52.2327525" lon="21.0258094">
        <ele>104.2</ele>
        <time>2013-09-29T07:15:38Z</time>
      </trkpt>
      <trkpt lat="52.2326992" lon="21.0255117">
        <ele>105.2</ele>
        <time>2013-09-29T07:15:46Z</time>
      </trkpt>
      <trkpt lat="52.232653" lon="21.0253304">
        <ele>105.8</ele>
        <time>2013-09-29T07:15:51Z</time>
      </trkpt>
      <trkpt lat="52.2326251" lon="21.0251865">
        <ele>106.0</ele>
        <time>2013-09-29T07:15:55Z</time>
      </trkpt>
      <trkpt lat="52.2325966" lon="21.0249886">
        <ele>106.6</ele>
        <time>2013-09-29T07:16:00Z</time>
      </trkpt>
      <trkpt lat="52.232552" lon="21.0247787">
        <ele>106.8</ele>
        <time>2013-09-29T07:16:06Z</time>
      </trkpt>
      <trkpt lat="52.232511" lon="21.0245631">
        <ele>107.0</ele>
        <time>2013-09-29T07:16:12Z</time>
      </trkpt>
      <trkpt lat="52.2324539" lon="21.0243078">
        <ele>107.6</ele>
        <time>2013-09-29T07:16:19Z</time>
      </trkpt>
      <trkpt lat="52.2324125" lon="21.0240788">
        <ele>108.0</ele>
        <time>2013-09-29T07:16:25Z</time>
      </trkpt>
      <trkpt lat="52.232364" lon="21.0238914">
        <ele>108.4</ele>
        <time>2013-09-29T07:16:30Z</time>
      </trkpt>
      <trkpt lat="52.2323178" lon="21.0236655">
        <ele>108.8</ele>
        <time>2013-09-29T07:16:36Z</time>
      </trkpt>
      <trkpt lat="52.232283" lon="21.0234484">
        <ele>109.0</ele>
        <time>2013-09-29T07:16:42Z</time>
      </trkpt>
      <trkpt lat="52.2322506" lon="21.0232833">
        <ele>109.0</ele>
        <time>2013-09-29T07:16:47Z</time>
      </trkpt>
      <trkpt lat="52.2322153" lon="21.0230963">
        <ele>108.6</ele>
        <time>2013-09-29T07:16:52Z</time>
      </trkpt>
      <trkpt lat="52.2321831" lon="21.0228725">
        <ele>108.4</ele>
        <time>2013-09-29T07:16:58Z</time>
      </trkpt>
      <trkpt lat="52.2321329" lon="21.0226615">
        <ele>108.2</ele>
        <time>2013-09-29T07:17:04Z</time>
      </trkpt>
      <trkpt lat="52.2320905" lon="21.022442">
        <ele>108.0</ele>
        <time>2013-09-29T07:17:10Z</time>
      </trkpt>
      <trkpt lat="52.2320314" lon="21.0221867">
        <ele>108.0</ele>
        <time>2013-09-29T07:17:17Z</time>
      </trkpt>
      <trkpt lat="52.2319836" lon="21.0219984">
        <ele>108.0</ele>
        <time>2013-09-29T07:17:22Z</time>
      </trkpt>
      <trkpt lat="52.2319266" lon="21.0217893">
        <ele>108.2</ele>
        <time>2013-09-29T07:17:28Z</time>
      </trkpt>
      <trkpt lat="52.231852" lon="21.0215801">
        <ele>108.4</ele>
        <time>2013-09-29T07:17:34Z</time>
      </trkpt>
      <trkpt lat="52.2317836" lon="21.0213742">
        <ele>109.0</ele>
        <time>2013-09-29T07:17:40Z</time>
      </trkpt>
      <trkpt lat="52.2316894" lon="21.0211082">
        <ele>110.0</ele>
        <time>2013-09-29T07:17:48Z</time>
      </trkpt>
      <trkpt lat="52.2316466" lon="21.0209339">
        <ele>110.6</ele>
        <time>2013-09-29T07:17:53Z</time>
      </trkpt>
      <trkpt lat="52.2316419" lon="21.0208595">
        <ele>110.8</ele>
        <time>2013-09-29T07:17:55Z</time>
      </trkpt>
      <trkpt lat="52.231646" lon="21.0206782">
        <ele>111.4</ele>
        <time>2013-09-29T07:18:00Z</time>
      </trkpt>
      <trkpt lat="52.2316839" lon="21.020543">
        <ele>111.6</ele>
        <time>2013-09-29T07:18:04Z</time>
      </trkpt>
      <trkpt lat="52.2317252" lon="21.020428">
        <ele>111.8</ele>
        <time>2013-09-29T07:18:08Z</time>
      </trkpt>
      <trkpt lat="52.2317046" lon="21.0203363">
        <ele>112.0</ele>
        <time>2013-09-29T07:18:11Z</time>
      </trkpt>
      <trkpt lat="52.2316139" lon="21.0201162">
        <ele>112.8</ele>
        <time>2013-09-29T07:18:17Z</time>
      </trkpt>
      <trkpt lat="52.2315549" lon="21.0199256">
        <ele>113.4</ele>
        <time>2013-09-29T07:18:22Z</time>
      </trkpt>
      <trkpt lat="52.2315175" lon="21.0197277">
        <ele>113.6</ele>
        <time>2013-09-29T07:18:27Z</time>
      </trkpt>
      <trkpt lat="52.2314694" lon="21.0194991">
        <ele>113.8</ele>
        <time>2013-09-29T07:18:33Z</time>
      </trkpt>
      <trkpt lat="52.231435" lon="21.0193065">
        <ele>113.8</ele>
        <time>2013-09-29T07:18:38Z</time>
      </trkpt>
      <trkpt lat="52.2313983" lon="21.0190827">
        <ele>113.8</ele>
        <time>2013-09-29T07:18:44Z</time>
      </trkpt>
      <trkpt lat="52.2313715" lon="21.0188956">
        <ele>113.8</ele>
        <time>2013-09-29T07:18:49Z</time>
      </trkpt>
      <trkpt lat="52.2313446" lon="21.0186926">
        <ele>113.6</ele>
        <time>2013-09-29T07:18:54Z</time>
      </trkpt>
      <trkpt lat="52.231314" lon="21.0185021">
        <ele>113.4</ele>
        <time>2013-09-29T07:18:59Z</time>
      </trkpt>
      <trkpt lat="52.2312741" lon="21.018285">
        <ele>113.4</ele>
        <time>2013-09-29T07:19:05Z</time>
      </trkpt>
      <trkpt lat="52.2312563" lon="21.0180809">
        <ele>114.0</ele>
        <time>2013-09-29T07:19:10Z</time>
      </trkpt>
      <trkpt lat="52.2312156" lon="21.017889">
        <ele>114.4</ele>
        <time>2013-09-29T07:19:15Z</time>
      </trkpt>
      <trkpt lat="52.2311627" lon="21.0177147">
        <ele>114.8</ele>
        <time>2013-09-29T07:19:20Z</time>
      </trkpt>
      <trkpt lat="52.2311139" lon="21.0175267">
        <ele>115.2</ele>
        <time>2013-09-29T07:19:25Z</time>
      </trkpt>
      <trkpt lat="52.2310597" lon="21.0173024">
        <ele>115.2</ele>
        <time>2013-09-29T07:19:31Z</time>
      </trkpt>
      <trkpt lat="52.2310239" lon="21.0171501">
        <ele>115.2</ele>
        <time>2013-09-29T07:19:35Z</time>
      </trkpt>
      <trkpt lat="52.2310182" lon="21.0171075">
        <ele>115.2</ele>
        <time>2013-09-29T07:19:36Z</time>
      </trkpt>
      <trkpt lat="52.2309886" lon="21.0169061">
        <ele>115.0</ele>
        <time>2013-09-29T07:19:41Z</time>
      </trkpt>
      <trkpt lat="52.2309182" lon="21.016689">
        <ele>115.0</ele>
        <time>2013-09-29T07:19:47Z</time>
      </trkpt>
      <trkpt lat="52.230857" lon="21.0164544">
        <ele>114.6</ele>
        <time>2013-09-29T07:19:53Z</time>
      </trkpt>
      <trkpt lat="52.2308404" lon="21.0162801">
        <ele>114.4</ele>
        <time>2013-09-29T07:19:57Z</time>
      </trkpt>
      <trkpt lat="52.230795" lon="21.0160052">
        <ele>114.2</ele>
        <time>2013-09-29T07:20:04Z</time>
      </trkpt>
      <trkpt lat="52.2307696" lon="21.0158373">
        <ele>114.2</ele>
        <time>2013-09-29T07:20:08Z</time>
      </trkpt>
      <trkpt lat="52.2307437" lon="21.0156737">
        <ele>114.8</ele>
        <time>2013-09-29T07:20:12Z</time>
      </trkpt>
      <trkpt lat="52.2307027" lon="21.0154852">
        <ele>115.4</ele>
        <time>2013-09-29T07:20:17Z</time>
      </trkpt>
      <trkpt lat="52.230652" lon="21.0152344">
        <ele>116.2</ele>
        <time>2013-09-29T07:20:23Z</time>
      </trkpt>
      <trkpt lat="52.2306199" lon="21.0150416">
        <ele>116.8</ele>
        <time>2013-09-29T07:20:28Z</time>
      </trkpt>
      <trkpt lat="52.2305707" lon="21.0148542">
        <ele>116.8</ele>
        <time>2013-09-29T07:20:33Z</time>
      </trkpt>
      <trkpt lat="52.2305359" lon="21.0146603">
        <ele>116.4</ele>
        <time>2013-09-29T07:20:38Z</time>
      </trkpt>
      <trkpt lat="52.230496" lon="21.0144688">
        <ele>116.2</ele>
        <time>2013-09-29T07:20:43Z</time>
      </trkpt>
      <trkpt lat="52.2304583" lon="21.0142298">
        <ele>116.0</ele>
        <time>2013-09-29T07:20:49Z</time>
      </trkpt>
      <trkpt lat="52.2304137" lon="21.0140454">
        <ele>115.8</ele>
        <time>2013-09-29T07:20:54Z</time>
      </trkpt>
      <trkpt lat="52.2303396" lon="21.0137773">
        <ele>115.6</ele>
        <time>2013-09-29T07:21:01Z</time>
      </trkpt>
      <trkpt lat="52.2302991" lon="21.0135403">
        <ele>115.4</ele>
        <time>2013-09-29T07:21:07Z</time>
      </trkpt>
      <trkpt lat="52.2302749" lon="21.013324">
        <ele>115.2</ele>
        <time>2013-09-29T07:21:12Z</time>
      </trkpt>
      <trkpt lat="52.2302363" lon="21.0130903">
        <ele>115.2</ele>
        <time>2013-09-29T07:21:18Z</time>
      </trkpt>
      <trkpt lat="52.2302049" lon="21.0128928">
        <ele>115.2</ele>
        <time>2013-09-29T07:21:23Z</time>
      </trkpt>
      <trkpt lat="52.2301775" lon="21.0126499">
        <ele>115.2</ele>
        <time>2013-09-29T07:21:29Z</time>
      </trkpt>
      <trkpt lat="52.2301521" lon="21.0125439">
        <ele>115.0</ele>
        <time>2013-09-29T07:21:32Z</time>
      </trkpt>
      <trkpt lat="52.2301505" lon="21.012337">
        <ele>114.6</ele>
        <time>2013-09-29T07:21:37Z</time>
      </trkpt>
      <trkpt lat="52.2301624" lon="21.0120854">
        <ele>113.8</ele>
        <time>2013-09-29T07:21:43Z</time>
      </trkpt>
      <trkpt lat="52.2302645" lon="21.0118669">
        <ele>113.6</ele>
        <time>2013-09-29T07:21:50Z</time>
      </trkpt>
      <trkpt lat="52.2303701" lon="21.0117664">
        <ele>113.8</ele>
        <time>2013-09-29T07:21:55Z</time>
      </trkpt>
      <trkpt lat="52.2304545" lon="21.0116781">
        <ele>114.2</ele>
        <time>2013-09-29T07:21:59Z</time>
      </trkpt>
      <trkpt lat="52.2306049" lon="21.0114947">
        <ele>114.2</ele>
        <time>2013-09-29T07:22:06Z</time>
      </trkpt>
      <trkpt lat="52.2307295" lon="21.0113758">
        <ele>114.2</ele>
        <time>2013-09-29T07:22:11Z</time>
      </trkpt>
      <trkpt lat="52.230753" lon="21.0113582">
        <ele>114.2</ele>
        <time>2013-09-29T07:22:12Z</time>
      </trkpt>
      <trkpt lat="52.2308763" lon="21.0112363">
        <ele>113.8</ele>
        <time>2013-09-29T07:22:18Z</time>
      </trkpt>
      <trkpt lat="52.2308995" lon="21.0112265">
        <ele>113.8</ele>
        <time>2013-09-29T07:22:19Z</time>
      </trkpt>
      <trkpt lat="52.2310037" lon="21.0111852">
        <ele>113.8</ele>
        <time>2013-09-29T07:22:23Z</time>
      </trkpt>
      <trkpt lat="52.2310585" lon="21.0111665">
        <ele>113.8</ele>
        <time>2013-09-29T07:22:25Z</time>
      </trkpt>
      <trkpt lat="52.2311829" lon="21.0111391">
        <ele>113.8</ele>
        <time>2013-09-29T07:22:30Z</time>
      </trkpt>
      <trkpt lat="52.2313275" lon="21.011064">
        <ele>113.8</ele>
        <time>2013-09-29T07:22:36Z</time>
      </trkpt>
      <trkpt lat="52.2314242" lon="21.0110132">
        <ele>113.8</ele>
        <time>2013-09-29T07:22:40Z</time>
      </trkpt>
      <trkpt lat="52.2315456" lon="21.0109469">
        <ele>113.8</ele>
        <time>2013-09-29T07:22:45Z</time>
      </trkpt>
      <trkpt lat="52.2315718" lon="21.0109353">
        <ele>113.8</ele>
        <time>2013-09-29T07:22:46Z</time>
      </trkpt>
      <trkpt lat="52.2317251" lon="21.010849">
        <ele>114.2</ele>
        <time>2013-09-29T07:22:52Z</time>
      </trkpt>
      <trkpt lat="52.2318225" lon="21.0107832">
        <ele>114.4</ele>
        <time>2013-09-29T07:22:56Z</time>
      </trkpt>
      <trkpt lat="52.231889" lon="21.0106993">
        <ele>114.4</ele>
        <time>2013-09-29T07:22:59Z</time>
      </trkpt>
      <trkpt lat="52.2320567" lon="21.0105856">
        <ele>114.8</ele>
        <time>2013-09-29T07:23:06Z</time>
      </trkpt>
      <trkpt lat="52.2321785" lon="21.0105012">
        <ele>115.0</ele>
        <time>2013-09-29T07:23:11Z</time>
      </trkpt>
      <trkpt lat="52.2322972" lon="21.0104289">
        <ele>115.2</ele>
        <time>2013-09-29T07:23:16Z</time>
      </trkpt>
      <trkpt lat="52.2324055" lon="21.0103517">
        <ele>115.2</ele>
        <time>2013-09-29T07:23:21Z</time>
      </trkpt>
      <trkpt lat="52.2325452" lon="21.0102859">
        <ele>115.4</ele>
        <time>2013-09-29T07:23:27Z</time>
      </trkpt>
      <trkpt lat="52.2326645" lon="21.0102217">
        <ele>115.8</ele>
        <time>2013-09-29T07:23:32Z</time>
      </trkpt>
      <trkpt lat="52.2327659" lon="21.0101936">
        <ele>116.2</ele>
        <time>2013-09-29T07:23:36Z</time>
      </trkpt>
      <trkpt lat="52.232888" lon="21.0101253">
        <ele>116.6</ele>
        <time>2013-09-29T07:23:41Z</time>
      </trkpt>
      <trkpt lat="52.2329393" lon="21.0101003">
        <ele>116.8</ele>
        <time>2013-09-29T07:23:43Z</time>
      </trkpt>
      <trkpt lat="52.2330487" lon="21.0100636">
        <ele>117.4</ele>
        <time>2013-09-29T07:23:47Z</time>
      </trkpt>
      <trkpt lat="52.2330724" lon="21.0100492">
        <ele>117.4</ele>
        <time>2013-09-29T07:23:48Z</time>
      </trkpt>
      <trkpt lat="52.2331856" lon="21.009973">
        <ele>117.8</ele>
        <time>2013-09-29T07:23:53Z</time>
      </trkpt>
      <trkpt lat="52.2333228" lon="21.0098684">
        <ele>117.8</ele>
        <time>2013-09-29T07:23:59Z</time>
      </trkpt>
      <trkpt lat="52.2334254" lon="21.0098025">
        <ele>117.6</ele>
        <time>2013-09-29T07:24:03Z</time>
      </trkpt>
      <trkpt lat="52.2335487" lon="21.0097648">
        <ele>117.4</ele>
        <time>2013-09-29T07:24:08Z</time>
      </trkpt>
      <trkpt lat="52.2336461" lon="21.0097083">
        <ele>117.0</ele>
        <time>2013-09-29T07:24:12Z</time>
      </trkpt>
      <trkpt lat="52.2337324" lon="21.0096389">
        <ele>116.8</ele>
        <time>2013-09-29T07:24:16Z</time>
      </trkpt>
      <trkpt lat="52.2338888" lon="21.0095249">
        <ele>116.2</ele>
        <time>2013-09-29T07:24:23Z</time>
      </trkpt>
      <trkpt lat="52.2340102" lon="21.009456">
        <ele>116.0</ele>
        <time>2013-09-29T07:24:28Z</time>
      </trkpt>
      <trkpt lat="52.2341719" lon="21.0093799">
        <ele>116.0</ele>
        <time>2013-09-29T07:24:34Z</time>
      </trkpt>
      <trkpt lat="52.2342975" lon="21.0093244">
        <ele>115.8</ele>
        <time>2013-09-29T07:24:39Z</time>
      </trkpt>
      <trkpt lat="52.2344116" lon="21.0092463">
        <ele>115.6</ele>
        <time>2013-09-29T07:24:44Z</time>
      </trkpt>
      <trkpt lat="52.2345169" lon="21.009225">
        <ele>115.6</ele>
        <time>2013-09-29T07:24:48Z</time>
      </trkpt>
      <trkpt lat="52.2345417" lon="21.0092141">
        <ele>115.6</ele>
        <time>2013-09-29T07:24:49Z</time>
      </trkpt>
      <trkpt lat="52.2346676" lon="21.0091339">
        <ele>115.4</ele>
        <time>2013-09-29T07:24:54Z</time>
      </trkpt>
      <trkpt lat="52.2347852" lon="21.0090629">
        <ele>115.2</ele>
        <time>2013-09-29T07:24:59Z</time>
      </trkpt>
      <trkpt lat="52.2348935" lon="21.0089804">
        <ele>115.2</ele>
        <time>2013-09-29T07:25:04Z</time>
      </trkpt>
      <trkpt lat="52.2349903" lon="21.0089167">
        <ele>115.0</ele>
        <time>2013-09-29T07:25:08Z</time>
      </trkpt>
      <trkpt lat="52.235111" lon="21.0087805">
        <ele>114.4</ele>
        <time>2013-09-29T07:25:14Z</time>
      </trkpt>
      <trkpt lat="52.2352068" lon="21.0087034">
        <ele>114.2</ele>
        <time>2013-09-29T07:25:18Z</time>
      </trkpt>
      <trkpt lat="52.2353331" lon="21.0086043">
        <ele>113.8</ele>
        <time>2013-09-29T07:25:23Z</time>
      </trkpt>
      <trkpt lat="52.2354037" lon="21.0085568">
        <ele>113.6</ele>
        <time>2013-09-29T07:25:26Z</time>
      </trkpt>
      <trkpt lat="52.2354989" lon="21.0085278">
        <ele>113.4</ele>
        <time>2013-09-29T07:25:30Z</time>
      </trkpt>
      <trkpt lat="52.2355222" lon="21.0085102">
        <ele>113.4</ele>
        <time>2013-09-29T07:25:31Z</time>
      </trkpt>
      <trkpt lat="52.235656" lon="21.0084267">
        <ele>113.2</ele>
        <time>2013-09-29T07:25:36Z</time>
      </trkpt>
      <trkpt lat="52.2358251" lon="21.0083278">
        <ele>112.8</ele>
        <time>2013-09-29T07:25:42Z</time>
      </trkpt>
      <trkpt lat="52.2359476" lon="21.0082486">
        <ele>112.8</ele>
        <time>2013-09-29T07:25:47Z</time>
      </trkpt>
      <trkpt lat="52.2360486" lon="21.0081853">
        <ele>112.8</ele>
        <time>2013-09-29T07:25:51Z</time>
      </trkpt>
      <trkpt lat="52.2361646" lon="21.0081154">
        <ele>112.6</ele>
        <time>2013-09-29T07:25:56Z</time>
      </trkpt>
      <trkpt lat="52.2362852" lon="21.0080372">
        <ele>112.6</ele>
        <time>2013-09-29T07:26:01Z</time>
      </trkpt>
      <trkpt lat="52.2364532" lon="21.0079603">
        <ele>112.4</ele>
        <time>2013-09-29T07:26:08Z</time>
      </trkpt>
      <trkpt lat="52.2365822" lon="21.0078884">
        <ele>112.2</ele>
        <time>2013-09-29T07:26:13Z</time>
      </trkpt>
      <trkpt lat="52.2366081" lon="21.0078797">
        <ele>112.2</ele>
        <time>2013-09-29T07:26:14Z</time>
      </trkpt>
      <trkpt lat="52.2367687" lon="21.0078102">
        <ele>112.0</ele>
        <time>2013-09-29T07:26:20Z</time>
      </trkpt>
      <trkpt lat="52.2368909" lon="21.0077466">
        <ele>112.0</ele>
        <time>2013-09-29T07:26:25Z</time>
      </trkpt>
      <trkpt lat="52.2370213" lon="21.0076969">
        <ele>112.0</ele>
        <time>2013-09-29T07:26:30Z</time>
      </trkpt>
      <trkpt lat="52.2371316" lon="21.0076072">
        <ele>111.8</ele>
        <time>2013-09-29T07:26:35Z</time>
      </trkpt>
      <trkpt lat="52.2372991" lon="21.0075031">
        <ele>111.6</ele>
        <time>2013-09-29T07:26:42Z</time>
      </trkpt>
      <trkpt lat="52.2374131" lon="21.0074264">
        <ele>111.8</ele>
        <time>2013-09-29T07:26:47Z</time>
      </trkpt>
      <trkpt lat="52.2375322" lon="21.007355">
        <ele>112.0</ele>
        <time>2013-09-29T07:26:52Z</time>
      </trkpt>
      <trkpt lat="52.2376518" lon="21.0072766">
        <ele>112.0</ele>
        <time>2013-09-29T07:26:57Z</time>
      </trkpt>
      <trkpt lat="52.2377751" lon="21.0071639">
        <ele>112.0</ele>
        <time>2013-09-29T07:27:02Z</time>
      </trkpt>
      <trkpt lat="52.237891" lon="21.0071064">
        <ele>112.0</ele>
        <time>2013-09-29T07:27:07Z</time>
      </trkpt>
      <trkpt lat="52.2380424" lon="21.0070291">
        <ele>112.0</ele>
        <time>2013-09-29T07:27:13Z</time>
      </trkpt>
      <trkpt lat="52.2381634" lon="21.0069773">
        <ele>112.0</ele>
        <time>2013-09-29T07:27:18Z</time>
      </trkpt>
      <trkpt lat="52.2382061" lon="21.0069743">
        <ele>112.0</ele>
        <time>2013-09-29T07:27:20Z</time>
      </trkpt>
      <trkpt lat="52.2383059" lon="21.0071297">
        <ele>112.0</ele>
        <time>2013-09-29T07:27:25Z</time>
      </trkpt>
      <trkpt lat="52.2384002" lon="21.0073384">
        <ele>112.2</ele>
        <time>2013-09-29T07:27:31Z</time>
      </trkpt>
      <trkpt lat="52.2384483" lon="21.0074922">
        <ele>112.4</ele>
        <time>2013-09-29T07:27:35Z</time>
      </trkpt>
      <trkpt lat="52.2385023" lon="21.0076383">
        <ele>112.8</ele>
        <time>2013-09-29T07:27:39Z</time>
      </trkpt>
      <trkpt lat="52.2385547" lon="21.0078212">
        <ele>113.2</ele>
        <time>2013-09-29T07:27:44Z</time>
      </trkpt>
      <trkpt lat="52.2385915" lon="21.0079331">
        <ele>113.4</ele>
        <time>2013-09-29T07:27:47Z</time>
      </trkpt>
      <trkpt lat="52.2386245" lon="21.0080056">
        <ele>113.6</ele>
        <time>2013-09-29T07:27:49Z</time>
      </trkpt>
      <trkpt lat="52.2386525" lon="21.0080761">
        <ele>113.6</ele>
        <time>2013-09-29T07:27:51Z</time>
      </trkpt>
      <trkpt lat="52.23872" lon="21.008278">
        <ele>113.8</ele>
        <time>2013-09-29T07:27:56Z</time>
      </trkpt>
      <trkpt lat="52.2387359" lon="21.008361">
        <ele>114.0</ele>
        <time>2013-09-29T07:27:58Z</time>
      </trkpt>
      <trkpt lat="52.2388157" lon="21.0086469">
        <ele>114.0</ele>
        <time>2013-09-29T07:28:05Z</time>
      </trkpt>
      <trkpt lat="52.238879" lon="21.0087868">
        <ele>114.0</ele>
        <time>2013-09-29T07:28:09Z</time>
      </trkpt>
      <trkpt lat="52.2389453" lon="21.0089826">
        <ele>114.2</ele>
        <time>2013-09-29T07:28:14Z</time>
      </trkpt>
      <trkpt lat="52.2390042" lon="21.0091385">
        <ele>114.0</ele>
        <time>2013-09-29T07:28:18Z</time>
      </trkpt>
      <trkpt lat="52.2390277" lon="21.0092218">
        <ele>114.0</ele>
        <time>2013-09-29T07:28:20Z</time>
      </trkpt>
      <trkpt lat="52.2391197" lon="21.0094866">
        <ele>113.6</ele>
        <time>2013-09-29T07:28:27Z</time>
      </trkpt>
      <trkpt lat="52.2391701" lon="21.009643">
        <ele>113.4</ele>
        <time>2013-09-29T07:28:31Z</time>
      </trkpt>
      <trkpt lat="52.2392219" lon="21.0097896">
        <ele>113.2</ele>
        <time>2013-09-29T07:28:35Z</time>
      </trkpt>
      <trkpt lat="52.2393196" lon="21.0100859">
        <ele>113.0</ele>
        <time>2013-09-29T07:28:43Z</time>
      </trkpt>
      <trkpt lat="52.2393714" lon="21.0102745">
        <ele>113.4</ele>
        <time>2013-09-29T07:28:48Z</time>
      </trkpt>
      <trkpt lat="52.239442" lon="21.0104644">
        <ele>113.6</ele>
        <time>2013-09-29T07:28:53Z</time>
      </trkpt>
      <trkpt lat="52.2394939" lon="21.0106089">
        <ele>113.8</ele>
        <time>2013-09-29T07:28:57Z</time>
      </trkpt>
      <trkpt lat="52.2395457" lon="21.0107464">
        <ele>113.8</ele>
        <time>2013-09-29T07:29:01Z</time>
      </trkpt>
      <trkpt lat="52.2396125" lon="21.0109764">
        <ele>113.8</ele>
        <time>2013-09-29T07:29:07Z</time>
      </trkpt>
      <trkpt lat="52.2396887" lon="21.0112017">
        <ele>113.8</ele>
        <time>2013-09-29T07:29:13Z</time>
      </trkpt>
      <trkpt lat="52.2397581" lon="21.0114228">
        <ele>113.4</ele>
        <time>2013-09-29T07:29:19Z</time>
      </trkpt>
      <trkpt lat="52.2398331" lon="21.0116579">
        <ele>113.0</ele>
        <time>2013-09-29T07:29:25Z</time>
      </trkpt>
      <trkpt lat="52.2398881" lon="21.011814">
        <ele>112.8</ele>
        <time>2013-09-29T07:29:29Z</time>
      </trkpt>
      <trkpt lat="52.2399062" lon="21.0118519">
        <ele>112.6</ele>
        <time>2013-09-29T07:29:30Z</time>
      </trkpt>
      <trkpt lat="52.2399777" lon="21.0120611">
        <ele>112.4</ele>
        <time>2013-09-29T07:29:35Z</time>
      </trkpt>
      <trkpt lat="52.24003" lon="21.0122107">
        <ele>112.4</ele>
        <time>2013-09-29T07:29:39Z</time>
      </trkpt>
      <trkpt lat="52.2400858" lon="21.0123952">
        <ele>112.4</ele>
        <time>2013-09-29T07:29:44Z</time>
      </trkpt>
      <trkpt lat="52.2401635" lon="21.0125667">
        <ele>112.6</ele>
        <time>2013-09-29T07:29:49Z</time>
      </trkpt>
      <trkpt lat="52.2402274" lon="21.0127516">
        <ele>112.8</ele>
        <time>2013-09-29T07:29:54Z</time>
      </trkpt>
      <trkpt lat="52.2402428" lon="21.0127837">
        <ele>112.8</ele>
        <time>2013-09-29T07:29:55Z</time>
      </trkpt>
      <trkpt lat="52.2403263" lon="21.012963">
        <ele>112.8</ele>
        <time>2013-09-29T07:30:00Z</time>
      </trkpt>
      <trkpt lat="52.2403686" lon="21.0130788">
        <ele>112.8</ele>
        <time>2013-09-29T07:30:03Z</time>
      </trkpt>
      <trkpt lat="52.2404428" lon="21.0132572">
        <ele>112.6</ele>
        <time>2013-09-29T07:30:08Z</time>
      </trkpt>
      <trkpt lat="52.2405293" lon="21.0134789">
        <ele>111.8</ele>
        <time>2013-09-29T07:30:14Z</time>
      </trkpt>
      <trkpt lat="52.2405843" lon="21.0136203">
        <ele>111.4</ele>
        <time>2013-09-29T07:30:18Z</time>
      </trkpt>
      <trkpt lat="52.2407178" lon="21.0137296">
        <ele>110.8</ele>
        <time>2013-09-29T07:30:24Z</time>
      </trkpt>
      <trkpt lat="52.2407412" lon="21.0137362">
        <ele>110.8</ele>
        <time>2013-09-29T07:30:25Z</time>
      </trkpt>
      <trkpt lat="52.2408649" lon="21.0137285">
        <ele>110.4</ele>
        <time>2013-09-29T07:30:30Z</time>
      </trkpt>
      <trkpt lat="52.2409783" lon="21.0136809">
        <ele>110.6</ele>
        <time>2013-09-29T07:30:35Z</time>
      </trkpt>
      <trkpt lat="52.2410644" lon="21.0136006">
        <ele>110.6</ele>
        <time>2013-09-29T07:30:39Z</time>
      </trkpt>
      <trkpt lat="52.2411982" lon="21.0135431">
        <ele>110.8</ele>
        <time>2013-09-29T07:30:45Z</time>
      </trkpt>
      <trkpt lat="52.2413048" lon="21.0134896">
        <ele>110.8</ele>
        <time>2013-09-29T07:30:50Z</time>
      </trkpt>
      <trkpt lat="52.2413545" lon="21.0134721">
        <ele>111.0</ele>
        <time>2013-09-29T07:30:52Z</time>
      </trkpt>
      <trkpt lat="52.2414484" lon="21.0134307">
        <ele>111.0</ele>
        <time>2013-09-29T07:30:56Z</time>
      </trkpt>
      <trkpt lat="52.2415789" lon="21.0133831">
        <ele>111.0</ele>
        <time>2013-09-29T07:31:01Z</time>
      </trkpt>
      <trkpt lat="52.2416297" lon="21.0133746">
        <ele>111.0</ele>
        <time>2013-09-29T07:31:03Z</time>
      </trkpt>
      <trkpt lat="52.2417979" lon="21.0132985">
        <ele>110.4</ele>
        <time>2013-09-29T07:31:10Z</time>
      </trkpt>
      <trkpt lat="52.2419223" lon="21.0132458">
        <ele>110.0</ele>
        <time>2013-09-29T07:31:15Z</time>
      </trkpt>
      <trkpt lat="52.2419617" lon="21.0131909">
        <ele>109.8</ele>
        <time>2013-09-29T07:31:17Z</time>
      </trkpt>
      <trkpt lat="52.2420009" lon="21.0129961">
        <ele>109.2</ele>
        <time>2013-09-29T07:31:22Z</time>
      </trkpt>
      <trkpt lat="52.2419793" lon="21.0128267">
        <ele>108.8</ele>
        <time>2013-09-29T07:31:26Z</time>
      </trkpt>
      <trkpt lat="52.2419451" lon="21.0125578">
        <ele>108.0</ele>
        <time>2013-09-29T07:31:32Z</time>
      </trkpt>
      <trkpt lat="52.2419156" lon="21.0123279">
        <ele>108.4</ele>
        <time>2013-09-29T07:31:37Z</time>
      </trkpt>
      <trkpt lat="52.2418928" lon="21.0121574">
        <ele>108.8</ele>
        <time>2013-09-29T07:31:41Z</time>
      </trkpt>
      <trkpt lat="52.2419373" lon="21.0119554">
        <ele>109.6</ele>
        <time>2013-09-29T07:31:46Z</time>
      </trkpt>
      <trkpt lat="52.2419461" lon="21.0119205">
        <ele>109.8</ele>
        <time>2013-09-29T07:31:47Z</time>
      </trkpt>
      <trkpt lat="52.2420477" lon="21.0117141">
        <ele>111.0</ele>
        <time>2013-09-29T07:31:53Z</time>
      </trkpt>
      <trkpt lat="52.2421117" lon="21.0115845">
        <ele>111.8</ele>
        <time>2013-09-29T07:31:57Z</time>
      </trkpt>
      <trkpt lat="52.242173" lon="21.0114442">
        <ele>112.4</ele>
        <time>2013-09-29T07:32:01Z</time>
      </trkpt>
      <trkpt lat="52.2422466" lon="21.0112618">
        <ele>113.4</ele>
        <time>2013-09-29T07:32:06Z</time>
      </trkpt>
      <trkpt lat="52.2423114" lon="21.0111225">
        <ele>114.0</ele>
        <time>2013-09-29T07:32:10Z</time>
      </trkpt>
      <trkpt lat="52.2423828" lon="21.0109319">
        <ele>115.0</ele>
        <time>2013-09-29T07:32:15Z</time>
      </trkpt>
      <trkpt lat="52.2424662" lon="21.0107594">
        <ele>115.8</ele>
        <time>2013-09-29T07:32:20Z</time>
      </trkpt>
      <trkpt lat="52.2425341" lon="21.0106401">
        <ele>116.6</ele>
        <time>2013-09-29T07:32:24Z</time>
      </trkpt>
      <trkpt lat="52.2426034" lon="21.0105152">
        <ele>117.4</ele>
        <time>2013-09-29T07:32:28Z</time>
      </trkpt>
      <trkpt lat="52.2426367" lon="21.0104227">
        <ele>117.8</ele>
        <time>2013-09-29T07:32:30Z</time>
      </trkpt>
      <trkpt lat="52.2427385" lon="21.0102128">
        <ele>118.6</ele>
        <time>2013-09-29T07:32:36Z</time>
      </trkpt>
      <trkpt lat="52.2428356" lon="21.0100606">
        <ele>119.2</ele>
        <time>2013-09-29T07:32:41Z</time>
      </trkpt>
      <trkpt lat="52.2429314" lon="21.0099221">
        <ele>119.2</ele>
        <time>2013-09-29T07:32:46Z</time>
      </trkpt>
      <trkpt lat="52.2430547" lon="21.0097244">
        <ele>118.2</ele>
        <time>2013-09-29T07:32:52Z</time>
      </trkpt>
      <trkpt lat="52.2431132" lon="21.0095268">
        <ele>117.0</ele>
        <time>2013-09-29T07:32:57Z</time>
      </trkpt>
      <trkpt lat="52.2432174" lon="21.0094161">
        <ele>115.8</ele>
        <time>2013-09-29T07:33:01Z</time>
      </trkpt>
      <trkpt lat="52.2432904" lon="21.0092741">
        <ele>114.2</ele>
        <time>2013-09-29T07:33:05Z</time>
      </trkpt>
      <trkpt lat="52.2433458" lon="21.0091136">
        <ele>112.8</ele>
        <time>2013-09-29T07:33:09Z</time>
      </trkpt>
      <trkpt lat="52.2433974" lon="21.0089063">
        <ele>112.8</ele>
        <time>2013-09-29T07:33:14Z</time>
      </trkpt>
      <trkpt lat="52.2434701" lon="21.008752">
        <ele>112.6</ele>
        <time>2013-09-29T07:33:19Z</time>
      </trkpt>
      <trkpt lat="52.2435846" lon="21.0085955">
        <ele>112.4</ele>
        <time>2013-09-29T07:33:25Z</time>
      </trkpt>
      <trkpt lat="52.2436856" lon="21.0085365">
        <ele>112.4</ele>
        <time>2013-09-29T07:33:29Z</time>
      </trkpt>
      <trkpt lat="52.243811" lon="21.0085532">
        <ele>112.6</ele>
        <time>2013-09-29T07:33:33Z</time>
      </trkpt>
      <trkpt lat="52.2438561" lon="21.0085899">
        <ele>112.8</ele>
        <time>2013-09-29T07:33:35Z</time>
      </trkpt>
      <trkpt lat="52.2439591" lon="21.0087521">
        <ele>113.6</ele>
        <time>2013-09-29T07:33:40Z</time>
      </trkpt>
      <trkpt lat="52.2440419" lon="21.0088871">
        <ele>114.2</ele>
        <time>2013-09-29T07:33:44Z</time>
      </trkpt>
      <trkpt lat="52.2440653" lon="21.0089187">
        <ele>114.4</ele>
        <time>2013-09-29T07:33:45Z</time>
      </trkpt>
      <trkpt lat="52.2441213" lon="21.0090282">
        <ele>115.0</ele>
        <time>2013-09-29T07:33:48Z</time>
      </trkpt>
      <trkpt lat="52.2442187" lon="21.0092064">
        <ele>115.6</ele>
        <time>2013-09-29T07:33:53Z</time>
      </trkpt>
      <trkpt lat="52.2442767" lon="21.0093504">
        <ele>115.4</ele>
        <time>2013-09-29T07:33:57Z</time>
      </trkpt>
      <trkpt lat="52.244357" lon="21.009528">
        <ele>115.0</ele>
        <time>2013-09-29T07:34:02Z</time>
      </trkpt>
      <trkpt lat="52.2444502" lon="21.0097212">
        <ele>114.6</ele>
        <time>2013-09-29T07:34:07Z</time>
      </trkpt>
      <trkpt lat="52.244547" lon="21.0099197">
        <ele>114.0</ele>
        <time>2013-09-29T07:34:13Z</time>
      </trkpt>
      <trkpt lat="52.244616" lon="21.010076">
        <ele>113.6</ele>
        <time>2013-09-29T07:34:18Z</time>
      </trkpt>
      <trkpt lat="52.2446647" lon="21.0101895">
        <ele>113.0</ele>
        <time>2013-09-29T07:34:22Z</time>
      </trkpt>
      <trkpt lat="52.2447309" lon="21.0103676">
        <ele>112.6</ele>
        <time>2013-09-29T07:34:27Z</time>
      </trkpt>
      <trkpt lat="52.244775" lon="21.0105198">
        <ele>112.4</ele>
        <time>2013-09-29T07:34:31Z</time>
      </trkpt>
      <trkpt lat="52.2447968" lon="21.0106209">
        <ele>112.2</ele>
        <time>2013-09-29T07:34:34Z</time>
      </trkpt>
      <trkpt lat="52.2448196" lon="21.0107547">
        <ele>112.2</ele>
        <time>2013-09-29T07:34:38Z</time>
      </trkpt>
      <trkpt lat="52.2448231" lon="21.0107972">
        <ele>112.2</ele>
        <time>2013-09-29T07:34:39Z</time>
      </trkpt>
      <trkpt lat="52.2447516" lon="21.0109671">
        <ele>112.2</ele>
        <time>2013-09-29T07:34:44Z</time>
      </trkpt>
      <trkpt lat="52.2446056" lon="21.0110976">
        <ele>112.0</ele>
        <time>2013-09-29T07:34:50Z</time>
      </trkpt>
      <trkpt lat="52.2444854" lon="21.0112209">
        <ele>112.0</ele>
        <time>2013-09-29T07:34:55Z</time>
      </trkpt>
      <trkpt lat="52.2443704" lon="21.0113084">
        <ele>111.8</ele>
        <time>2013-09-29T07:35:00Z</time>
      </trkpt>
      <trkpt lat="52.2442492" lon="21.011426">
        <ele>111.6</ele>
        <time>2013-09-29T07:35:06Z</time>
      </trkpt>
      <trkpt lat="52.2442108" lon="21.0114696">
        <ele>111.4</ele>
        <time>2013-09-29T07:35:08Z</time>
      </trkpt>
      <trkpt lat="52.2440362" lon="21.011641">
        <ele>111.8</ele>
        <time>2013-09-29T07:35:16Z</time>
      </trkpt>
      <trkpt lat="52.2438566" lon="21.0117736">
        <ele>112.6</ele>
        <time>2013-09-29T07:35:23Z</time>
      </trkpt>
      <trkpt lat="52.2437229" lon="21.0118627">
        <ele>113.0</ele>
        <time>2013-09-29T07:35:28Z</time>
      </trkpt>
      <trkpt lat="52.2435685" lon="21.0119622">
        <ele>113.4</ele>
        <time>2013-09-29T07:35:34Z</time>
      </trkpt>
      <trkpt lat="52.2434453" lon="21.0120361">
        <ele>113.6</ele>
        <time>2013-09-29T07:35:40Z</time>
      </trkpt>
      <trkpt lat="52.2433758" lon="21.0120915">
        <ele>113.8</ele>
        <time>2013-09-29T07:35:44Z</time>
      </trkpt>
      <trkpt lat="52.2433189" lon="21.0121518">
        <ele>113.6</ele>
        <time>2013-09-29T07:35:47Z</time>
      </trkpt>
      <trkpt lat="52.2432288" lon="21.0122435">
        <ele>112.8</ele>
        <time>2013-09-29T07:35:51Z</time>
      </trkpt>
      <trkpt lat="52.2431314" lon="21.0124003">
        <ele>111.4</ele>
        <time>2013-09-29T07:35:56Z</time>
      </trkpt>
      <trkpt lat="52.243034" lon="21.0126366">
        <ele>110.6</ele>
        <time>2013-09-29T07:36:02Z</time>
      </trkpt>
      <trkpt lat="52.2429697" lon="21.0127521">
        <ele>110.2</ele>
        <time>2013-09-29T07:36:06Z</time>
      </trkpt>
      <trkpt lat="52.2428698" lon="21.0128557">
        <ele>110.0</ele>
        <time>2013-09-29T07:36:10Z</time>
      </trkpt>
      <trkpt lat="52.2427574" lon="21.0129892">
        <ele>109.6</ele>
        <time>2013-09-29T07:36:15Z</time>
      </trkpt>
      <trkpt lat="52.2426631" lon="21.0131152">
        <ele>109.2</ele>
        <time>2013-09-29T07:36:20Z</time>
      </trkpt>
      <trkpt lat="52.2425775" lon="21.013196">
        <ele>109.0</ele>
        <time>2013-09-29T07:36:24Z</time>
      </trkpt>
      <trkpt lat="52.2424894" lon="21.0132251">
        <ele>108.8</ele>
        <time>2013-09-29T07:36:28Z</time>
      </trkpt>
      <trkpt lat="52.2424434" lon="21.013252">
        <ele>109.0</ele>
        <time>2013-09-29T07:36:30Z</time>
      </trkpt>
      <trkpt lat="52.2423739" lon="21.0133">
        <ele>109.2</ele>
        <time>2013-09-29T07:36:34Z</time>
      </trkpt>
      <trkpt lat="52.2423041" lon="21.0133064">
        <ele>109.4</ele>
        <time>2013-09-29T07:36:37Z</time>
      </trkpt>
      <trkpt lat="52.2422559" lon="21.0132914">
        <ele>109.4</ele>
        <time>2013-09-29T07:36:39Z</time>
      </trkpt>
      <trkpt lat="52.2421993" lon="21.0132892">
        <ele>109.6</ele>
        <time>2013-09-29T07:36:41Z</time>
      </trkpt>
      <trkpt lat="52.2420196" lon="21.0133929">
        <ele>110.2</ele>
        <time>2013-09-29T07:36:48Z</time>
      </trkpt>
      <trkpt lat="52.2419372" lon="21.0134256">
        <ele>110.6</ele>
        <time>2013-09-29T07:36:52Z</time>
      </trkpt>
      <trkpt lat="52.2418431" lon="21.0134696">
        <ele>111.0</ele>
        <time>2013-09-29T07:36:58Z</time>
      </trkpt>
      <trkpt lat="52.2418187" lon="21.0134803">
        <ele>111.0</ele>
        <time>2013-09-29T07:37:00Z</time>
      </trkpt>
      <trkpt lat="52.2417436" lon="21.013509">
        <ele>111.4</ele>
        <time>2013-09-29T07:37:05Z</time>
      </trkpt>
      <trkpt lat="52.2416208" lon="21.0135776">
        <ele>111.6</ele>
        <time>2013-09-29T07:37:12Z</time>
      </trkpt>
      <trkpt lat="52.2415472" lon="21.0136201">
        <ele>111.6</ele>
        <time>2013-09-29T07:37:16Z</time>
      </trkpt>
      <trkpt lat="52.2414504" lon="21.0136451">
        <ele>111.6</ele>
        <time>2013-09-29T07:37:22Z</time>
      </trkpt>
      <trkpt lat="52.2414261" lon="21.0136587">
        <ele>111.6</ele>
        <time>2013-09-29T07:37:23Z</time>
      </trkpt>
      <trkpt lat="52.2413037" lon="21.0137053">
        <ele>111.4</ele>
        <time>2013-09-29T07:37:29Z</time>
      </trkpt>
      <trkpt lat="52.2411375" lon="21.0137555">
        <ele>111.2</ele>
        <time>2013-09-29T07:37:35Z</time>
      </trkpt>
      <trkpt lat="52.2409552" lon="21.0138244">
        <ele>110.8</ele>
        <time>2013-09-29T07:37:42Z</time>
      </trkpt>
      <trkpt lat="52.2408449" lon="21.0138848">
        <ele>110.6</ele>
        <time>2013-09-29T07:37:47Z</time>
      </trkpt>
      <trkpt lat="52.240751" lon="21.0139083">
        <ele>110.8</ele>
        <time>2013-09-29T07:37:51Z</time>
      </trkpt>
      <trkpt lat="52.2406313" lon="21.0140191">
        <ele>111.0</ele>
        <time>2013-09-29T07:37:57Z</time>
      </trkpt>
      <trkpt lat="52.2405768" lon="21.0141547">
        <ele>111.0</ele>
        <time>2013-09-29T07:38:01Z</time>
      </trkpt>
      <trkpt lat="52.2405884" lon="21.0143251">
        <ele>111.0</ele>
        <time>2013-09-29T07:38:05Z</time>
      </trkpt>
      <trkpt lat="52.240605" lon="21.0145517">
        <ele>111.2</ele>
        <time>2013-09-29T07:38:10Z</time>
      </trkpt>
      <trkpt lat="52.2406117" lon="21.0147522">
        <ele>111.4</ele>
        <time>2013-09-29T07:38:14Z</time>
      </trkpt>
      <trkpt lat="52.2406515" lon="21.0149433">
        <ele>111.6</ele>
        <time>2013-09-29T07:38:18Z</time>
      </trkpt>
      <trkpt lat="52.2406732" lon="21.0149923">
        <ele>111.8</ele>
        <time>2013-09-29T07:38:19Z</time>
      </trkpt>
      <trkpt lat="52.2407117" lon="21.0151329">
        <ele>111.8</ele>
        <time>2013-09-29T07:38:22Z</time>
      </trkpt>
      <trkpt lat="52.2407154" lon="21.015365">
        <ele>111.8</ele>
        <time>2013-09-29T07:38:27Z</time>
      </trkpt>
      <trkpt lat="52.2407366" lon="21.0154541">
        <ele>112.0</ele>
        <time>2013-09-29T07:38:29Z</time>
      </trkpt>
      <trkpt lat="52.2407739" lon="21.0156193">
        <ele>112.0</ele>
        <time>2013-09-29T07:38:33Z</time>
      </trkpt>
      <trkpt lat="52.2407755" lon="21.0157636">
        <ele>112.0</ele>
        <time>2013-09-29T07:38:36Z</time>
      </trkpt>
      <trkpt lat="52.2408193" lon="21.0159923">
        <ele>111.8</ele>
        <time>2013-09-29T07:38:41Z</time>
      </trkpt>
      <trkpt lat="52.240863" lon="21.0160679">
        <ele>111.8</ele>
        <time>2013-09-29T07:38:43Z</time>
      </trkpt>
      <trkpt lat="52.2408972" lon="21.0161206">
        <ele>111.8</ele>
        <time>2013-09-29T07:38:46Z</time>
      </trkpt>
      <trkpt lat="52.2410256" lon="21.0160853">
        <ele>112.2</ele>
        <time>2013-09-29T07:38:52Z</time>
      </trkpt>
      <trkpt lat="52.2411142" lon="21.0159879">
        <ele>112.6</ele>
        <time>2013-09-29T07:38:57Z</time>
      </trkpt>
      <trkpt lat="52.2412669" lon="21.0158497">
        <ele>113.4</ele>
        <time>2013-09-29T07:39:03Z</time>
      </trkpt>
      <trkpt lat="52.2413515" lon="21.0157737">
        <ele>113.8</ele>
        <time>2013-09-29T07:39:07Z</time>
      </trkpt>
      <trkpt lat="52.2415017" lon="21.0156939">
        <ele>114.2</ele>
        <time>2013-09-29T07:39:12Z</time>
      </trkpt>
      <trkpt lat="52.2415737" lon="21.0156602">
        <ele>114.4</ele>
        <time>2013-09-29T07:39:15Z</time>
      </trkpt>
      <trkpt lat="52.2417182" lon="21.0155587">
        <ele>114.4</ele>
        <time>2013-09-29T07:39:21Z</time>
      </trkpt>
      <trkpt lat="52.2418177" lon="21.0154769">
        <ele>114.2</ele>
        <time>2013-09-29T07:39:25Z</time>
      </trkpt>
      <trkpt lat="52.2419751" lon="21.01534">
        <ele>113.6</ele>
        <time>2013-09-29T07:39:31Z</time>
      </trkpt>
      <trkpt lat="52.242121" lon="21.0151852">
        <ele>113.0</ele>
        <time>2013-09-29T07:39:37Z</time>
      </trkpt>
      <trkpt lat="52.2422559" lon="21.015064">
        <ele>112.6</ele>
        <time>2013-09-29T07:39:42Z</time>
      </trkpt>
      <trkpt lat="52.2423803" lon="21.0150216">
        <ele>112.2</ele>
        <time>2013-09-29T07:39:46Z</time>
      </trkpt>
      <trkpt lat="52.242518" lon="21.0149713">
        <ele>111.8</ele>
        <time>2013-09-29T07:39:51Z</time>
      </trkpt>
      <trkpt lat="52.242546" lon="21.0149703">
        <ele>111.8</ele>
        <time>2013-09-29T07:39:52Z</time>
      </trkpt>
      <trkpt lat="52.2426791" lon="21.0149345">
        <ele>111.8</ele>
        <time>2013-09-29T07:39:57Z</time>
      </trkpt>
      <trkpt lat="52.2427934" lon="21.0148272">
        <ele>111.6</ele>
        <time>2013-09-29T07:40:02Z</time>
      </trkpt>
      <trkpt lat="52.2428485" lon="21.0147888">
        <ele>111.6</ele>
        <time>2013-09-29T07:40:04Z</time>
      </trkpt>
      <trkpt lat="52.2429882" lon="21.0146683">
        <ele>111.6</ele>
        <time>2013-09-29T07:40:10Z</time>
      </trkpt>
      <trkpt lat="52.2431003" lon="21.0145968">
        <ele>111.6</ele>
        <time>2013-09-29T07:40:15Z</time>
      </trkpt>
      <trkpt lat="52.2432047" lon="21.0145283">
        <ele>111.6</ele>
        <time>2013-09-29T07:40:19Z</time>
      </trkpt>
      <trkpt lat="52.2433381" lon="21.0144321">
        <ele>111.6</ele>
        <time>2013-09-29T07:40:25Z</time>
      </trkpt>
      <trkpt lat="52.2434634" lon="21.0143694">
        <ele>111.4</ele>
        <time>2013-09-29T07:40:30Z</time>
      </trkpt>
      <trkpt lat="52.2435684" lon="21.0143159">
        <ele>111.4</ele>
        <time>2013-09-29T07:40:34Z</time>
      </trkpt>
      <trkpt lat="52.2437032" lon="21.0142593">
        <ele>111.2</ele>
        <time>2013-09-29T07:40:39Z</time>
      </trkpt>
      <trkpt lat="52.2438271" lon="21.0141957">
        <ele>111.2</ele>
        <time>2013-09-29T07:40:44Z</time>
      </trkpt>
      <trkpt lat="52.2439286" lon="21.0141548">
        <ele>111.2</ele>
        <time>2013-09-29T07:40:48Z</time>
      </trkpt>
      <trkpt lat="52.2440918" lon="21.0141238">
        <ele>111.0</ele>
        <time>2013-09-29T07:40:55Z</time>
      </trkpt>
      <trkpt lat="52.2442306" lon="21.0140902">
        <ele>111.0</ele>
        <time>2013-09-29T07:41:00Z</time>
      </trkpt>
      <trkpt lat="52.2444128" lon="21.0140568">
        <ele>111.0</ele>
        <time>2013-09-29T07:41:06Z</time>
      </trkpt>
      <trkpt lat="52.244517" lon="21.0140491">
        <ele>111.0</ele>
        <time>2013-09-29T07:41:10Z</time>
      </trkpt>
      <trkpt lat="52.2445956" lon="21.0140394">
        <ele>111.0</ele>
        <time>2013-09-29T07:41:14Z</time>
      </trkpt>
      <trkpt lat="52.2446844" lon="21.0140337">
        <ele>111.0</ele>
        <time>2013-09-29T07:41:17Z</time>
      </trkpt>
      <trkpt lat="52.2448346" lon="21.0140103">
        <ele>111.0</ele>
        <time>2013-09-29T07:41:23Z</time>
      </trkpt>
      <trkpt lat="52.2449733" lon="21.0139788">
        <ele>111.2</ele>
        <time>2013-09-29T07:41:28Z</time>
      </trkpt>
      <trkpt lat="52.2451064" lon="21.013927">
        <ele>111.2</ele>
        <time>2013-09-29T07:41:33Z</time>
      </trkpt>
      <trkpt lat="52.2452012" lon="21.0138658">
        <ele>111.2</ele>
        <time>2013-09-29T07:41:37Z</time>
      </trkpt>
      <trkpt lat="52.2453402" lon="21.0138032">
        <ele>111.4</ele>
        <time>2013-09-29T07:41:42Z</time>
      </trkpt>
      <trkpt lat="52.2454249" lon="21.0137669">
        <ele>111.4</ele>
        <time>2013-09-29T07:41:45Z</time>
      </trkpt>
      <trkpt lat="52.2456286" lon="21.0136851">
        <ele>111.4</ele>
        <time>2013-09-29T07:41:52Z</time>
      </trkpt>
      <trkpt lat="52.2457701" lon="21.013611">
        <ele>111.6</ele>
        <time>2013-09-29T07:41:57Z</time>
      </trkpt>
      <trkpt lat="52.2459027" lon="21.0135696">
        <ele>111.2</ele>
        <time>2013-09-29T07:42:02Z</time>
      </trkpt>
      <trkpt lat="52.2460234" lon="21.0134851">
        <ele>110.6</ele>
        <time>2013-09-29T07:42:07Z</time>
      </trkpt>
      <trkpt lat="52.2460571" lon="21.0133473">
        <ele>110.6</ele>
        <time>2013-09-29T07:42:11Z</time>
      </trkpt>
      <trkpt lat="52.2460943" lon="21.0131649">
        <ele>110.0</ele>
        <time>2013-09-29T07:42:16Z</time>
      </trkpt>
      <trkpt lat="52.2461311" lon="21.0130514">
        <ele>109.6</ele>
        <time>2013-09-29T07:42:19Z</time>
      </trkpt>
      <trkpt lat="52.24614" lon="21.012838">
        <ele>109.0</ele>
        <time>2013-09-29T07:42:24Z</time>
      </trkpt>
      <trkpt lat="52.2461913" lon="21.012562">
        <ele>108.2</ele>
        <time>2013-09-29T07:42:30Z</time>
      </trkpt>
      <trkpt lat="52.2462954" lon="21.0122771">
        <ele>107.6</ele>
        <time>2013-09-29T07:42:37Z</time>
      </trkpt>
      <trkpt lat="52.2463752" lon="21.0120647">
        <ele>107.2</ele>
        <time>2013-09-29T07:42:42Z</time>
      </trkpt>
      <trkpt lat="52.2464703" lon="21.0119099">
        <ele>106.6</ele>
        <time>2013-09-29T07:42:46Z</time>
      </trkpt>
      <trkpt lat="52.2465637" lon="21.0117627">
        <ele>106.2</ele>
        <time>2013-09-29T07:42:50Z</time>
      </trkpt>
      <trkpt lat="52.2466081" lon="21.0115139">
        <ele>106.2</ele>
        <time>2013-09-29T07:42:56Z</time>
      </trkpt>
      <trkpt lat="52.2466631" lon="21.011297">
        <ele>106.4</ele>
        <time>2013-09-29T07:43:01Z</time>
      </trkpt>
      <trkpt lat="52.2467116" lon="21.0111442">
        <ele>106.6</ele>
        <time>2013-09-29T07:43:05Z</time>
      </trkpt>
      <trkpt lat="52.2467687" lon="21.010942">
        <ele>106.8</ele>
        <time>2013-09-29T07:43:10Z</time>
      </trkpt>
      <trkpt lat="52.2468393" lon="21.0107436">
        <ele>107.2</ele>
        <time>2013-09-29T07:43:15Z</time>
      </trkpt>
      <trkpt lat="52.2468911" lon="21.0105827">
        <ele>107.4</ele>
        <time>2013-09-29T07:43:19Z</time>
      </trkpt>
      <trkpt lat="52.2469662" lon="21.0103999">
        <ele>107.8</ele>
        <time>2013-09-29T07:43:24Z</time>
      </trkpt>
      <trkpt lat="52.2470003" lon="21.0102828">
        <ele>108.0</ele>
        <time>2013-09-29T07:43:27Z</time>
      </trkpt>
      <trkpt lat="52.2470776" lon="21.0100849">
        <ele>108.2</ele>
        <time>2013-09-29T07:43:32Z</time>
      </trkpt>
      <trkpt lat="52.2471677" lon="21.0097907">
        <ele>108.6</ele>
        <time>2013-09-29T07:43:39Z</time>
      </trkpt>
      <trkpt lat="52.2472521" lon="21.0095923">
        <ele>109.0</ele>
        <time>2013-09-29T07:43:44Z</time>
      </trkpt>
      <trkpt lat="52.247323" lon="21.0093922">
        <ele>109.2</ele>
        <time>2013-09-29T07:43:49Z</time>
      </trkpt>
      <trkpt lat="52.2474345" lon="21.0091851">
        <ele>109.8</ele>
        <time>2013-09-29T07:43:55Z</time>
      </trkpt>
      <trkpt lat="52.247526" lon="21.0090422">
        <ele>109.6</ele>
        <time>2013-09-29T07:43:59Z</time>
      </trkpt>
      <trkpt lat="52.247624" lon="21.0088723">
        <ele>108.8</ele>
        <time>2013-09-29T07:44:04Z</time>
      </trkpt>
      <trkpt lat="52.247655" lon="21.0086998">
        <ele>108.6</ele>
        <time>2013-09-29T07:44:08Z</time>
      </trkpt>
      <trkpt lat="52.2477194" lon="21.0085076">
        <ele>108.0</ele>
        <time>2013-09-29T07:44:13Z</time>
      </trkpt>
      <trkpt lat="52.2477738" lon="21.008364">
        <ele>107.6</ele>
        <time>2013-09-29T07:44:17Z</time>
      </trkpt>
      <trkpt lat="52.2478634" lon="21.0081631">
        <ele>107.0</ele>
        <time>2013-09-29T07:44:23Z</time>
      </trkpt>
      <trkpt lat="52.2479331" lon="21.0079859">
        <ele>106.6</ele>
        <time>2013-09-29T07:44:28Z</time>
      </trkpt>
      <trkpt lat="52.2479862" lon="21.0077746">
        <ele>106.4</ele>
        <time>2013-09-29T07:44:33Z</time>
      </trkpt>
      <trkpt lat="52.2480016" lon="21.0077295">
        <ele>106.4</ele>
        <time>2013-09-29T07:44:34Z</time>
      </trkpt>
      <trkpt lat="52.2480649" lon="21.0075895">
        <ele>106.2</ele>
        <time>2013-09-29T07:44:38Z</time>
      </trkpt>
      <trkpt lat="52.2481363" lon="21.0074543">
        <ele>106.2</ele>
        <time>2013-09-29T07:44:42Z</time>
      </trkpt>
      <trkpt lat="52.2482286" lon="21.0072183">
        <ele>106.2</ele>
        <time>2013-09-29T07:44:48Z</time>
      </trkpt>
      <trkpt lat="52.2482405" lon="21.0071841">
        <ele>106.4</ele>
        <time>2013-09-29T07:44:49Z</time>
      </trkpt>
      <trkpt lat="52.2483066" lon="21.0069757">
        <ele>106.6</ele>
        <time>2013-09-29T07:44:54Z</time>
      </trkpt>
      <trkpt lat="52.2484052" lon="21.0067821">
        <ele>106.8</ele>
        <time>2013-09-29T07:45:00Z</time>
      </trkpt>
      <trkpt lat="52.2484793" lon="21.0065982">
        <ele>107.2</ele>
        <time>2013-09-29T07:45:05Z</time>
      </trkpt>
      <trkpt lat="52.2485606" lon="21.0064126">
        <ele>107.6</ele>
        <time>2013-09-29T07:45:10Z</time>
      </trkpt>
      <trkpt lat="52.2486004" lon="21.0063169">
        <ele>107.6</ele>
        <time>2013-09-29T07:45:13Z</time>
      </trkpt>
      <trkpt lat="52.2486699" lon="21.0061206">
        <ele>108.0</ele>
        <time>2013-09-29T07:45:18Z</time>
      </trkpt>
      <trkpt lat="52.2487652" lon="21.0059595">
        <ele>108.4</ele>
        <time>2013-09-29T07:45:23Z</time>
      </trkpt>
      <trkpt lat="52.2488802" lon="21.0057371">
        <ele>108.8</ele>
        <time>2013-09-29T07:45:29Z</time>
      </trkpt>
      <trkpt lat="52.2489647" lon="21.0055645">
        <ele>108.8</ele>
        <time>2013-09-29T07:45:34Z</time>
      </trkpt>
      <trkpt lat="52.2490696" lon="21.0053656">
        <ele>108.6</ele>
        <time>2013-09-29T07:45:40Z</time>
      </trkpt>
      <trkpt lat="52.249175" lon="21.0051726">
        <ele>108.2</ele>
        <time>2013-09-29T07:45:46Z</time>
      </trkpt>
      <trkpt lat="52.2492733" lon="21.0050346">
        <ele>107.8</ele>
        <time>2013-09-29T07:45:51Z</time>
      </trkpt>
      <trkpt lat="52.249396" lon="21.004867">
        <ele>107.2</ele>
        <time>2013-09-29T07:45:57Z</time>
      </trkpt>
      <trkpt lat="52.2495037" lon="21.0047427">
        <ele>106.6</ele>
        <time>2013-09-29T07:46:02Z</time>
      </trkpt>
      <trkpt lat="52.2496143" lon="21.0046432">
        <ele>106.2</ele>
        <time>2013-09-29T07:46:07Z</time>
      </trkpt>
      <trkpt lat="52.2497272" lon="21.0045307">
        <ele>105.6</ele>
        <time>2013-09-29T07:46:12Z</time>
      </trkpt>
      <trkpt lat="52.2498391" lon="21.0043998">
        <ele>105.0</ele>
        <time>2013-09-29T07:46:17Z</time>
      </trkpt>
      <trkpt lat="52.2499385" lon="21.0042944">
        <ele>104.4</ele>
        <time>2013-09-29T07:46:23Z</time>
      </trkpt>
      <trkpt lat="52.2500586" lon="21.0041661">
        <ele>104.0</ele>
        <time>2013-09-29T07:46:28Z</time>
      </trkpt>
      <trkpt lat="52.2501595" lon="21.0040614">
        <ele>104.2</ele>
        <time>2013-09-29T07:46:32Z</time>
      </trkpt>
      <trkpt lat="52.2503125" lon="21.003888">
        <ele>104.4</ele>
        <time>2013-09-29T07:46:38Z</time>
      </trkpt>
      <trkpt lat="52.2504071" lon="21.0037945">
        <ele>104.4</ele>
        <time>2013-09-29T07:46:42Z</time>
      </trkpt>
      <trkpt lat="52.2505285" lon="21.003689">
        <ele>104.4</ele>
        <time>2013-09-29T07:46:47Z</time>
      </trkpt>
      <trkpt lat="52.2505542" lon="21.0036728">
        <ele>104.4</ele>
        <time>2013-09-29T07:46:48Z</time>
      </trkpt>
      <trkpt lat="52.2506718" lon="21.0035616">
        <ele>104.2</ele>
        <time>2013-09-29T07:46:53Z</time>
      </trkpt>
      <trkpt lat="52.2507689" lon="21.0034772">
        <ele>104.2</ele>
        <time>2013-09-29T07:46:57Z</time>
      </trkpt>
      <trkpt lat="52.2508583" lon="21.0033786">
        <ele>104.0</ele>
        <time>2013-09-29T07:47:01Z</time>
      </trkpt>
      <trkpt lat="52.2509808" lon="21.0032767">
        <ele>104.0</ele>
        <time>2013-09-29T07:47:06Z</time>
      </trkpt>
      <trkpt lat="52.2510787" lon="21.0031989">
        <ele>104.2</ele>
        <time>2013-09-29T07:47:10Z</time>
      </trkpt>
      <trkpt lat="52.2512071" lon="21.0030586">
        <ele>104.4</ele>
        <time>2013-09-29T07:47:16Z</time>
      </trkpt>
      <trkpt lat="52.2512983" lon="21.0030068">
        <ele>104.4</ele>
        <time>2013-09-29T07:47:20Z</time>
      </trkpt>
      <trkpt lat="52.2514211" lon="21.0028525">
        <ele>104.6</ele>
        <time>2013-09-29T07:47:26Z</time>
      </trkpt>
      <trkpt lat="52.2515076" lon="21.0027198">
        <ele>104.8</ele>
        <time>2013-09-29T07:47:30Z</time>
      </trkpt>
      <trkpt lat="52.2515267" lon="21.0026774">
        <ele>104.8</ele>
        <time>2013-09-29T07:47:31Z</time>
      </trkpt>
      <trkpt lat="52.2516423" lon="21.0024964">
        <ele>105.0</ele>
        <time>2013-09-29T07:47:37Z</time>
      </trkpt>
      <trkpt lat="52.2517086" lon="21.0024363">
        <ele>104.8</ele>
        <time>2013-09-29T07:47:40Z</time>
      </trkpt>
      <trkpt lat="52.2518003" lon="21.002265">
        <ele>104.4</ele>
        <time>2013-09-29T07:47:45Z</time>
      </trkpt>
      <trkpt lat="52.2518389" lon="21.0022089">
        <ele>104.4</ele>
        <time>2013-09-29T07:47:47Z</time>
      </trkpt>
      <trkpt lat="52.2519277" lon="21.00205">
        <ele>104.4</ele>
        <time>2013-09-29T07:47:52Z</time>
      </trkpt>
      <trkpt lat="52.2520224" lon="21.0018921">
        <ele>104.6</ele>
        <time>2013-09-29T07:47:57Z</time>
      </trkpt>
      <trkpt lat="52.252137" lon="21.0017108">
        <ele>105.0</ele>
        <time>2013-09-29T07:48:03Z</time>
      </trkpt>
      <trkpt lat="52.2522398" lon="21.0015916">
        <ele>105.4</ele>
        <time>2013-09-29T07:48:08Z</time>
      </trkpt>
      <trkpt lat="52.2523379" lon="21.0014383">
        <ele>105.6</ele>
        <time>2013-09-29T07:48:13Z</time>
      </trkpt>
      <trkpt lat="52.2524602" lon="21.0013471">
        <ele>105.8</ele>
        <time>2013-09-29T07:48:18Z</time>
      </trkpt>
      <trkpt lat="52.252611" lon="21.001202">
        <ele>105.6</ele>
        <time>2013-09-29T07:48:24Z</time>
      </trkpt>
      <trkpt lat="52.2526633" lon="21.0011653">
        <ele>105.6</ele>
        <time>2013-09-29T07:48:26Z</time>
      </trkpt>
      <trkpt lat="52.2527083" lon="21.0011228">
        <ele>105.4</ele>
        <time>2013-09-29T07:48:28Z</time>
      </trkpt>
      <trkpt lat="52.2527968" lon="21.0010537">
        <ele>105.2</ele>
        <time>2013-09-29T07:48:32Z</time>
      </trkpt>
      <trkpt lat="52.2528414" lon="21.0010104">
        <ele>105.2</ele>
        <time>2013-09-29T07:48:34Z</time>
      </trkpt>
      <trkpt lat="52.2529212" lon="21.0009109">
        <ele>105.0</ele>
        <time>2013-09-29T07:48:38Z</time>
      </trkpt>
      <trkpt lat="52.2530528" lon="21.0007587">
        <ele>104.4</ele>
        <time>2013-09-29T07:48:44Z</time>
      </trkpt>
      <trkpt lat="52.2531662" lon="21.0006569">
        <ele>104.0</ele>
        <time>2013-09-29T07:48:49Z</time>
      </trkpt>
      <trkpt lat="52.2533009" lon="21.0005256">
        <ele>103.6</ele>
        <time>2013-09-29T07:48:55Z</time>
      </trkpt>
      <trkpt lat="52.2534123" lon="21.0004277">
        <ele>103.0</ele>
        <time>2013-09-29T07:49:00Z</time>
      </trkpt>
      <trkpt lat="52.2534553" lon="21.0003783">
        <ele>102.8</ele>
        <time>2013-09-29T07:49:02Z</time>
      </trkpt>
      <trkpt lat="52.2535945" lon="21.0002451">
        <ele>101.8</ele>
        <time>2013-09-29T07:49:08Z</time>
      </trkpt>
      <trkpt lat="52.2537236" lon="21.0000992">
        <ele>101.0</ele>
        <time>2013-09-29T07:49:14Z</time>
      </trkpt>
      <trkpt lat="52.2538391" lon="21.0000438">
        <ele>100.4</ele>
        <time>2013-09-29T07:49:19Z</time>
      </trkpt>
      <trkpt lat="52.2539267" lon="21.0001265">
        <ele>100.0</ele>
        <time>2013-09-29T07:49:23Z</time>
      </trkpt>
      <trkpt lat="52.2539863" lon="21.0002697">
        <ele>99.8</ele>
        <time>2013-09-29T07:49:27Z</time>
      </trkpt>
      <trkpt lat="52.2540116" lon="21.0004292">
        <ele>99.8</ele>
        <time>2013-09-29T07:49:31Z</time>
      </trkpt>
      <trkpt lat="52.2540407" lon="21.0005168">
        <ele>99.6</ele>
        <time>2013-09-29T07:49:33Z</time>
      </trkpt>
      <trkpt lat="52.2541342" lon="21.0007">
        <ele>99.0</ele>
        <time>2013-09-29T07:49:38Z</time>
      </trkpt>
      <trkpt lat="52.2541494" lon="21.0007342">
        <ele>99.0</ele>
        <time>2013-09-29T07:49:39Z</time>
      </trkpt>
      <trkpt lat="52.2541924" lon="21.0008845">
        <ele>99.0</ele>
        <time>2013-09-29T07:49:43Z</time>
      </trkpt>
      <trkpt lat="52.2542213" lon="21.0009678">
        <ele>99.0</ele>
        <time>2013-09-29T07:49:45Z</time>
      </trkpt>
      <trkpt lat="52.2542447" lon="21.0011176">
        <ele>99.4</ele>
        <time>2013-09-29T07:49:49Z</time>
      </trkpt>
      <trkpt lat="52.2543052" lon="21.0012728">
        <ele>99.4</ele>
        <time>2013-09-29T07:49:53Z</time>
      </trkpt>
      <trkpt lat="52.2543762" lon="21.0014398">
        <ele>99.4</ele>
        <time>2013-09-29T07:49:57Z</time>
      </trkpt>
      <trkpt lat="52.2544363" lon="21.0016009">
        <ele>99.4</ele>
        <time>2013-09-29T07:50:01Z</time>
      </trkpt>
      <trkpt lat="52.2545079" lon="21.0017641">
        <ele>99.4</ele>
        <time>2013-09-29T07:50:05Z</time>
      </trkpt>
      <trkpt lat="52.2545553" lon="21.0018706">
        <ele>99.2</ele>
        <time>2013-09-29T07:50:08Z</time>
      </trkpt>
      <trkpt lat="52.2546177" lon="21.0020242">
        <ele>99.2</ele>
        <time>2013-09-29T07:50:12Z</time>
      </trkpt>
      <trkpt lat="52.2547358" lon="21.002238">
        <ele>98.8</ele>
        <time>2013-09-29T07:50:18Z</time>
      </trkpt>
      <trkpt lat="52.254798" lon="21.0024111">
        <ele>98.8</ele>
        <time>2013-09-29T07:50:22Z</time>
      </trkpt>
      <trkpt lat="52.2548218" lon="21.0025111">
        <ele>98.8</ele>
        <time>2013-09-29T07:50:24Z</time>
      </trkpt>
      <trkpt lat="52.2549176" lon="21.002745">
        <ele>98.2</ele>
        <time>2013-09-29T07:50:30Z</time>
      </trkpt>
      <trkpt lat="52.2549817" lon="21.0029781">
        <ele>98.0</ele>
        <time>2013-09-29T07:50:36Z</time>
      </trkpt>
      <trkpt lat="52.2550295" lon="21.0031306">
        <ele>97.8</ele>
        <time>2013-09-29T07:50:40Z</time>
      </trkpt>
      <trkpt lat="52.2550718" lon="21.003256">
        <ele>97.8</ele>
        <time>2013-09-29T07:50:43Z</time>
      </trkpt>
      <trkpt lat="52.2551605" lon="21.0035117">
        <ele>97.8</ele>
        <time>2013-09-29T07:50:49Z</time>
      </trkpt>
      <trkpt lat="52.25523" lon="21.0036672">
        <ele>97.8</ele>
        <time>2013-09-29T07:50:53Z</time>
      </trkpt>
      <trkpt lat="52.2552911" lon="21.0038407">
        <ele>97.8</ele>
        <time>2013-09-29T07:50:57Z</time>
      </trkpt>
      <trkpt lat="52.2553466" lon="21.0039781">
        <ele>97.8</ele>
        <time>2013-09-29T07:51:01Z</time>
      </trkpt>
      <trkpt lat="52.2554357" lon="21.004148">
        <ele>97.8</ele>
        <time>2013-09-29T07:51:06Z</time>
      </trkpt>
      <trkpt lat="52.2555341" lon="21.0043635">
        <ele>98.0</ele>
        <time>2013-09-29T07:51:12Z</time>
      </trkpt>
      <trkpt lat="52.2556178" lon="21.0045329">
        <ele>98.2</ele>
        <time>2013-09-29T07:51:16Z</time>
      </trkpt>
      <trkpt lat="52.255704" lon="21.0047608">
        <ele>98.6</ele>
        <time>2013-09-29T07:51:22Z</time>
      </trkpt>
      <trkpt lat="52.255719" lon="21.0048499">
        <ele>98.8</ele>
        <time>2013-09-29T07:51:24Z</time>
      </trkpt>
      <trkpt lat="52.255765" lon="21.0049921">
        <ele>99.0</ele>
        <time>2013-09-29T07:51:28Z</time>
      </trkpt>
      <trkpt lat="52.2557936" lon="21.0050737">
        <ele>98.8</ele>
        <time>2013-09-29T07:51:30Z</time>
      </trkpt>
      <trkpt lat="52.2558997" lon="21.0052596">
        <ele>98.4</ele>
        <time>2013-09-29T07:51:36Z</time>
      </trkpt>
      <trkpt lat="52.2559159" lon="21.0052716">
        <ele>98.4</ele>
        <time>2013-09-29T07:51:37Z</time>
      </trkpt>
      <trkpt lat="52.2561213" lon="21.0051949">
        <ele>97.8</ele>
        <time>2013-09-29T07:51:44Z</time>
      </trkpt>
      <trkpt lat="52.2562272" lon="21.0051224">
        <ele>97.4</ele>
        <time>2013-09-29T07:51:48Z</time>
      </trkpt>
      <trkpt lat="52.2563323" lon="21.0050279">
        <ele>97.2</ele>
        <time>2013-09-29T07:51:53Z</time>
      </trkpt>
      <trkpt lat="52.2563819" lon="21.0050022">
        <ele>97.0</ele>
        <time>2013-09-29T07:51:55Z</time>
      </trkpt>
      <trkpt lat="52.2564917" lon="21.0049337">
        <ele>96.6</ele>
        <time>2013-09-29T07:51:59Z</time>
      </trkpt>
      <trkpt lat="52.2566233" lon="21.004867">
        <ele>96.2</ele>
        <time>2013-09-29T07:52:04Z</time>
      </trkpt>
      <trkpt lat="52.2566491" lon="21.004853">
        <ele>96.2</ele>
        <time>2013-09-29T07:52:05Z</time>
      </trkpt>
      <trkpt lat="52.2567727" lon="21.0047492">
        <ele>96.2</ele>
        <time>2013-09-29T07:52:10Z</time>
      </trkpt>
      <trkpt lat="52.2569027" lon="21.0046733">
        <ele>96.2</ele>
        <time>2013-09-29T07:52:15Z</time>
      </trkpt>
      <trkpt lat="52.2570175" lon="21.0046106">
        <ele>96.2</ele>
        <time>2013-09-29T07:52:19Z</time>
      </trkpt>
      <trkpt lat="52.2571227" lon="21.0045515">
        <ele>96.2</ele>
        <time>2013-09-29T07:52:23Z</time>
      </trkpt>
      <trkpt lat="52.2571751" lon="21.0045318">
        <ele>96.2</ele>
        <time>2013-09-29T07:52:25Z</time>
      </trkpt>
      <trkpt lat="52.2573303" lon="21.0044857">
        <ele>96.0</ele>
        <time>2013-09-29T07:52:31Z</time>
      </trkpt>
      <trkpt lat="52.2574642" lon="21.0044562">
        <ele>96.0</ele>
        <time>2013-09-29T07:52:36Z</time>
      </trkpt>
      <trkpt lat="52.2575976" lon="21.0044086">
        <ele>95.2</ele>
        <time>2013-09-29T07:52:41Z</time>
      </trkpt>
      <trkpt lat="52.2576869" lon="21.0044003">
        <ele>94.6</ele>
        <time>2013-09-29T07:52:44Z</time>
      </trkpt>
      <trkpt lat="52.257749" lon="21.0044034">
        <ele>94.2</ele>
        <time>2013-09-29T07:52:46Z</time>
      </trkpt>
      <trkpt lat="52.2578491" lon="21.0043384">
        <ele>93.4</ele>
        <time>2013-09-29T07:52:50Z</time>
      </trkpt>
      <trkpt lat="52.2580164" lon="21.0043136">
        <ele>92.2</ele>
        <time>2013-09-29T07:52:56Z</time>
      </trkpt>
      <trkpt lat="52.2581526" lon="21.0042845">
        <ele>91.2</ele>
        <time>2013-09-29T07:53:01Z</time>
      </trkpt>
      <trkpt lat="52.2583318" lon="21.004254">
        <ele>90.0</ele>
        <time>2013-09-29T07:53:07Z</time>
      </trkpt>
      <trkpt lat="52.2584985" lon="21.0042117">
        <ele>90.0</ele>
        <time>2013-09-29T07:53:13Z</time>
      </trkpt>
      <trkpt lat="52.2585519" lon="21.0041879">
        <ele>90.0</ele>
        <time>2013-09-29T07:53:15Z</time>
      </trkpt>
      <trkpt lat="52.2587078" lon="21.004151">
        <ele>90.0</ele>
        <time>2013-09-29T07:53:21Z</time>
      </trkpt>
      <trkpt lat="52.2588108" lon="21.0041009">
        <ele>90.0</ele>
        <time>2013-09-29T07:53:25Z</time>
      </trkpt>
      <trkpt lat="52.25893" lon="21.0040237">
        <ele>90.2</ele>
        <time>2013-09-29T07:53:30Z</time>
      </trkpt>
      <trkpt lat="52.2590087" lon="21.0039832">
        <ele>90.4</ele>
        <time>2013-09-29T07:53:34Z</time>
      </trkpt>
      <trkpt lat="52.2590959" lon="21.0039185">
        <ele>90.4</ele>
        <time>2013-09-29T07:53:38Z</time>
      </trkpt>
      <trkpt lat="52.259228" lon="21.0038626">
        <ele>90.8</ele>
        <time>2013-09-29T07:53:43Z</time>
      </trkpt>
      <trkpt lat="52.2593399" lon="21.0037232">
        <ele>91.2</ele>
        <time>2013-09-29T07:53:48Z</time>
      </trkpt>
      <trkpt lat="52.2595097" lon="21.0036258">
        <ele>91.8</ele>
        <time>2013-09-29T07:53:54Z</time>
      </trkpt>
      <trkpt lat="52.2595942" lon="21.0036294">
        <ele>91.8</ele>
        <time>2013-09-29T07:53:57Z</time>
      </trkpt>
      <trkpt lat="52.2596734" lon="21.0038035">
        <ele>91.8</ele>
        <time>2013-09-29T07:54:02Z</time>
      </trkpt>
      <trkpt lat="52.2597086" lon="21.0039594">
        <ele>91.6</ele>
        <time>2013-09-29T07:54:06Z</time>
      </trkpt>
      <trkpt lat="52.2597709" lon="21.0042257">
        <ele>91.4</ele>
        <time>2013-09-29T07:54:12Z</time>
      </trkpt>
      <trkpt lat="52.2598387" lon="21.0044169">
        <ele>91.6</ele>
        <time>2013-09-29T07:54:17Z</time>
      </trkpt>
      <trkpt lat="52.2598931" lon="21.0046246">
        <ele>91.8</ele>
        <time>2013-09-29T07:54:22Z</time>
      </trkpt>
      <trkpt lat="52.2599561" lon="21.0048711">
        <ele>91.8</ele>
        <time>2013-09-29T07:54:28Z</time>
      </trkpt>
      <trkpt lat="52.2600092" lon="21.0050916">
        <ele>91.8</ele>
        <time>2013-09-29T07:54:33Z</time>
      </trkpt>
      <trkpt lat="52.2600952" lon="21.0052617">
        <ele>91.6</ele>
        <time>2013-09-29T07:54:37Z</time>
      </trkpt>
      <trkpt lat="52.2601775" lon="21.0054415">
        <ele>91.4</ele>
        <time>2013-09-29T07:54:42Z</time>
      </trkpt>
      <trkpt lat="52.2602474" lon="21.0056331">
        <ele>90.8</ele>
        <time>2013-09-29T07:54:47Z</time>
      </trkpt>
      <trkpt lat="52.2603174" lon="21.0057826">
        <ele>90.2</ele>
        <time>2013-09-29T07:54:51Z</time>
      </trkpt>
      <trkpt lat="52.2603889" lon="21.0059299">
        <ele>89.6</ele>
        <time>2013-09-29T07:54:55Z</time>
      </trkpt>
      <trkpt lat="52.2604437" lon="21.0060921">
        <ele>89.0</ele>
        <time>2013-09-29T07:54:59Z</time>
      </trkpt>
      <trkpt lat="52.2605145" lon="21.006324">
        <ele>88.0</ele>
        <time>2013-09-29T07:55:05Z</time>
      </trkpt>
      <trkpt lat="52.260566" lon="21.0064612">
        <ele>87.2</ele>
        <time>2013-09-29T07:55:09Z</time>
      </trkpt>
      <trkpt lat="52.2605323" lon="21.0066749">
        <ele>86.6</ele>
        <time>2013-09-29T07:55:14Z</time>
      </trkpt>
      <trkpt lat="52.2604358" lon="21.0067795">
        <ele>86.8</ele>
        <time>2013-09-29T07:55:18Z</time>
      </trkpt>
      <trkpt lat="52.2603933" lon="21.0068334">
        <ele>86.8</ele>
        <time>2013-09-29T07:55:20Z</time>
      </trkpt>
      <trkpt lat="52.2603086" lon="21.0069389">
        <ele>86.8</ele>
        <time>2013-09-29T07:55:25Z</time>
      </trkpt>
      <trkpt lat="52.2602339" lon="21.0070059">
        <ele>87.0</ele>
        <time>2013-09-29T07:55:28Z</time>
      </trkpt>
      <trkpt lat="52.2600789" lon="21.0071467">
        <ele>87.6</ele>
        <time>2013-09-29T07:55:34Z</time>
      </trkpt>
      <trkpt lat="52.259893" lon="21.0073022">
        <ele>87.4</ele>
        <time>2013-09-29T07:55:41Z</time>
      </trkpt>
      <trkpt lat="52.2598191" lon="21.0073545">
        <ele>87.2</ele>
        <time>2013-09-29T07:55:44Z</time>
      </trkpt>
      <trkpt lat="52.259731" lon="21.0074263">
        <ele>86.8</ele>
        <time>2013-09-29T07:55:48Z</time>
      </trkpt>
      <trkpt lat="52.259617" lon="21.0075138">
        <ele>86.4</ele>
        <time>2013-09-29T07:55:53Z</time>
      </trkpt>
      <trkpt lat="52.2594646" lon="21.0076475">
        <ele>85.8</ele>
        <time>2013-09-29T07:56:00Z</time>
      </trkpt>
      <trkpt lat="52.2593218" lon="21.0077715">
        <ele>85.2</ele>
        <time>2013-09-29T07:56:06Z</time>
      </trkpt>
      <trkpt lat="52.2591881" lon="21.0078942">
        <ele>85.0</ele>
        <time>2013-09-29T07:56:12Z</time>
      </trkpt>
      <trkpt lat="52.2590737" lon="21.0079904">
        <ele>85.0</ele>
        <time>2013-09-29T07:56:17Z</time>
      </trkpt>
      <trkpt lat="52.2589472" lon="21.008104">
        <ele>85.0</ele>
        <time>2013-09-29T07:56:22Z</time>
      </trkpt>
      <trkpt lat="52.2588281" lon="21.0082056">
        <ele>85.0</ele>
        <time>2013-09-29T07:56:27Z</time>
      </trkpt>
      <trkpt lat="52.2587222" lon="21.0082942">
        <ele>85.0</ele>
        <time>2013-09-29T07:56:31Z</time>
      </trkpt>
      <trkpt lat="52.258581" lon="21.0084167">
        <ele>85.2</ele>
        <time>2013-09-29T07:56:37Z</time>
      </trkpt>
      <trkpt lat="52.2585099" lon="21.0084733">
        <ele>85.2</ele>
        <time>2013-09-29T07:56:40Z</time>
      </trkpt>
      <trkpt lat="52.2583966" lon="21.0085615">
        <ele>85.4</ele>
        <time>2013-09-29T07:56:44Z</time>
      </trkpt>
      <trkpt lat="52.2582923" lon="21.0086638">
        <ele>85.6</ele>
        <time>2013-09-29T07:56:49Z</time>
      </trkpt>
      <trkpt lat="52.2581831" lon="21.008766">
        <ele>85.8</ele>
        <time>2013-09-29T07:56:54Z</time>
      </trkpt>
      <trkpt lat="52.2580853" lon="21.0088691">
        <ele>85.8</ele>
        <time>2013-09-29T07:56:59Z</time>
      </trkpt>
      <trkpt lat="52.257976" lon="21.008938">
        <ele>86.0</ele>
        <time>2013-09-29T07:57:03Z</time>
      </trkpt>
      <trkpt lat="52.2578713" lon="21.0090209">
        <ele>86.0</ele>
        <time>2013-09-29T07:57:07Z</time>
      </trkpt>
      <trkpt lat="52.2577506" lon="21.009137">
        <ele>85.8</ele>
        <time>2013-09-29T07:57:12Z</time>
      </trkpt>
      <trkpt lat="52.2576056" lon="21.0092626">
        <ele>85.0</ele>
        <time>2013-09-29T07:57:18Z</time>
      </trkpt>
      <trkpt lat="52.2574544" lon="21.0093783">
        <ele>84.4</ele>
        <time>2013-09-29T07:57:24Z</time>
      </trkpt>
      <trkpt lat="52.2573342" lon="21.0094714">
        <ele>84.2</ele>
        <time>2013-09-29T07:57:29Z</time>
      </trkpt>
      <trkpt lat="52.2572202" lon="21.0095607">
        <ele>84.0</ele>
        <time>2013-09-29T07:57:34Z</time>
      </trkpt>
      <trkpt lat="52.2570897" lon="21.0096534">
        <ele>84.0</ele>
        <time>2013-09-29T07:57:39Z</time>
      </trkpt>
      <trkpt lat="52.2569673" lon="21.009758">
        <ele>84.0</ele>
        <time>2013-09-29T07:57:44Z</time>
      </trkpt>
      <trkpt lat="52.256884" lon="21.0098242">
        <ele>84.0</ele>
        <time>2013-09-29T07:57:47Z</time>
      </trkpt>
      <trkpt lat="52.2567514" lon="21.0099373">
        <ele>83.8</ele>
        <time>2013-09-29T07:57:52Z</time>
      </trkpt>
      <trkpt lat="52.2566364" lon="21.0100225">
        <ele>84.0</ele>
        <time>2013-09-29T07:57:57Z</time>
      </trkpt>
      <trkpt lat="52.2564898" lon="21.0101264">
        <ele>84.4</ele>
        <time>2013-09-29T07:58:03Z</time>
      </trkpt>
      <trkpt lat="52.2563909" lon="21.0102248">
        <ele>84.4</ele>
        <time>2013-09-29T07:58:08Z</time>
      </trkpt>
      <trkpt lat="52.2563023" lon="21.0103082">
        <ele>84.4</ele>
        <time>2013-09-29T07:58:12Z</time>
      </trkpt>
      <trkpt lat="52.2561555" lon="21.0104287">
        <ele>84.4</ele>
        <time>2013-09-29T07:58:18Z</time>
      </trkpt>
      <trkpt lat="52.2559338" lon="21.0106173">
        <ele>84.0</ele>
        <time>2013-09-29T07:58:27Z</time>
      </trkpt>
      <trkpt lat="52.2558024" lon="21.0107526">
        <ele>83.4</ele>
        <time>2013-09-29T07:58:33Z</time>
      </trkpt>
      <trkpt lat="52.2556991" lon="21.0108769">
        <ele>82.8</ele>
        <time>2013-09-29T07:58:38Z</time>
      </trkpt>
      <trkpt lat="52.2555916" lon="21.0109877">
        <ele>82.4</ele>
        <time>2013-09-29T07:58:43Z</time>
      </trkpt>
      <trkpt lat="52.2554692" lon="21.0111064">
        <ele>82.0</ele>
        <time>2013-09-29T07:58:48Z</time>
      </trkpt>
      <trkpt lat="52.2553334" lon="21.0112494">
        <ele>81.8</ele>
        <time>2013-09-29T07:58:54Z</time>
      </trkpt>
      <trkpt lat="52.2552212" lon="21.0113722">
        <ele>81.4</ele>
        <time>2013-09-29T07:58:59Z</time>
      </trkpt>
      <trkpt lat="52.2551088" lon="21.0115207">
        <ele>81.2</ele>
        <time>2013-09-29T07:59:05Z</time>
      </trkpt>
      <trkpt lat="52.2549969" lon="21.0116477">
        <ele>81.0</ele>
        <time>2013-09-29T07:59:10Z</time>
      </trkpt>
      <trkpt lat="52.2548688" lon="21.0118058">
        <ele>80.6</ele>
        <time>2013-09-29T07:59:16Z</time>
      </trkpt>
      <trkpt lat="52.2547036" lon="21.0119788">
        <ele>80.2</ele>
        <time>2013-09-29T07:59:23Z</time>
      </trkpt>
      <trkpt lat="52.2546119" lon="21.0120798">
        <ele>80.2</ele>
        <time>2013-09-29T07:59:27Z</time>
      </trkpt>
      <trkpt lat="52.2544932" lon="21.0121951">
        <ele>80.0</ele>
        <time>2013-09-29T07:59:32Z</time>
      </trkpt>
      <trkpt lat="52.254373" lon="21.0122983">
        <ele>80.0</ele>
        <time>2013-09-29T07:59:37Z</time>
      </trkpt>
      <trkpt lat="52.2542312" lon="21.0124422">
        <ele>79.8</ele>
        <time>2013-09-29T07:59:43Z</time>
      </trkpt>
      <trkpt lat="52.2541114" lon="21.012547">
        <ele>80.4</ele>
        <time>2013-09-29T07:59:48Z</time>
      </trkpt>
      <trkpt lat="52.2540234" lon="21.0126361">
        <ele>81.2</ele>
        <time>2013-09-29T07:59:52Z</time>
      </trkpt>
      <trkpt lat="52.2538826" lon="21.0127801">
        <ele>82.4</ele>
        <time>2013-09-29T07:59:58Z</time>
      </trkpt>
      <trkpt lat="52.2537395" lon="21.0129112">
        <ele>83.4</ele>
        <time>2013-09-29T08:00:04Z</time>
      </trkpt>
      <trkpt lat="52.2535988" lon="21.0130521">
        <ele>84.4</ele>
        <time>2013-09-29T08:00:10Z</time>
      </trkpt>
      <trkpt lat="52.2534916" lon="21.0131702">
        <ele>85.0</ele>
        <time>2013-09-29T08:00:15Z</time>
      </trkpt>
      <trkpt lat="52.2533691" lon="21.013298">
        <ele>85.8</ele>
        <time>2013-09-29T08:00:20Z</time>
      </trkpt>
      <trkpt lat="52.2532217" lon="21.0134554">
        <ele>85.2</ele>
        <time>2013-09-29T08:00:27Z</time>
      </trkpt>
      <trkpt lat="52.2531486" lon="21.0135209">
        <ele>84.8</ele>
        <time>2013-09-29T08:00:30Z</time>
      </trkpt>
      <trkpt lat="52.2530663" lon="21.0136108">
        <ele>84.4</ele>
        <time>2013-09-29T08:00:34Z</time>
      </trkpt>
      <trkpt lat="52.2529015" lon="21.0137721">
        <ele>83.8</ele>
        <time>2013-09-29T08:00:41Z</time>
      </trkpt>
      <trkpt lat="52.2528047" lon="21.0138633">
        <ele>83.6</ele>
        <time>2013-09-29T08:00:45Z</time>
      </trkpt>
      <trkpt lat="52.2527035" lon="21.0139596">
        <ele>83.6</ele>
        <time>2013-09-29T08:00:49Z</time>
      </trkpt>
      <trkpt lat="52.2525902" lon="21.0140802">
        <ele>83.8</ele>
        <time>2013-09-29T08:00:54Z</time>
      </trkpt>
      <trkpt lat="52.2524908" lon="21.0142029">
        <ele>84.0</ele>
        <time>2013-09-29T08:00:59Z</time>
      </trkpt>
      <trkpt lat="52.2523732" lon="21.0143169">
        <ele>83.8</ele>
        <time>2013-09-29T08:01:04Z</time>
      </trkpt>
      <trkpt lat="52.2522331" lon="21.0144595">
        <ele>83.8</ele>
        <time>2013-09-29T08:01:10Z</time>
      </trkpt>
      <trkpt lat="52.2521235" lon="21.014573">
        <ele>83.4</ele>
        <time>2013-09-29T08:01:15Z</time>
      </trkpt>
      <trkpt lat="52.2520023" lon="21.0146841">
        <ele>83.2</ele>
        <time>2013-09-29T08:01:20Z</time>
      </trkpt>
      <trkpt lat="52.2518863" lon="21.0148085">
        <ele>82.8</ele>
        <time>2013-09-29T08:01:25Z</time>
      </trkpt>
      <trkpt lat="52.251764" lon="21.0149121">
        <ele>82.4</ele>
        <time>2013-09-29T08:01:30Z</time>
      </trkpt>
      <trkpt lat="52.2516744" lon="21.015006">
        <ele>82.0</ele>
        <time>2013-09-29T08:01:34Z</time>
      </trkpt>
      <trkpt lat="52.2515488" lon="21.0151577">
        <ele>82.2</ele>
        <time>2013-09-29T08:01:40Z</time>
      </trkpt>
      <trkpt lat="52.2514573" lon="21.0152572">
        <ele>82.4</ele>
        <time>2013-09-29T08:01:44Z</time>
      </trkpt>
      <trkpt lat="52.2513418" lon="21.015371">
        <ele>82.4</ele>
        <time>2013-09-29T08:01:49Z</time>
      </trkpt>
      <trkpt lat="52.2512494" lon="21.0154593">
        <ele>82.4</ele>
        <time>2013-09-29T08:01:53Z</time>
      </trkpt>
      <trkpt lat="52.2511579" lon="21.0155678">
        <ele>82.4</ele>
        <time>2013-09-29T08:01:57Z</time>
      </trkpt>
      <trkpt lat="52.2510366" lon="21.015696">
        <ele>82.4</ele>
        <time>2013-09-29T08:02:02Z</time>
      </trkpt>
      <trkpt lat="52.2509284" lon="21.0158151">
        <ele>82.2</ele>
        <time>2013-09-29T08:02:07Z</time>
      </trkpt>
      <trkpt lat="52.2508466" lon="21.0159187">
        <ele>81.8</ele>
        <time>2013-09-29T08:02:11Z</time>
      </trkpt>
      <trkpt lat="52.2507372" lon="21.0160274">
        <ele>82.0</ele>
        <time>2013-09-29T08:02:16Z</time>
      </trkpt>
      <trkpt lat="52.2506094" lon="21.0161379">
        <ele>82.2</ele>
        <time>2013-09-29T08:02:21Z</time>
      </trkpt>
      <trkpt lat="52.2504747" lon="21.016299">
        <ele>82.4</ele>
        <time>2013-09-29T08:02:27Z</time>
      </trkpt>
      <trkpt lat="52.2503882" lon="21.0163999">
        <ele>82.6</ele>
        <time>2013-09-29T08:02:31Z</time>
      </trkpt>
      <trkpt lat="52.2503078" lon="21.0165009">
        <ele>82.8</ele>
        <time>2013-09-29T08:02:35Z</time>
      </trkpt>
      <trkpt lat="52.2501639" lon="21.0166409">
        <ele>83.4</ele>
        <time>2013-09-29T08:02:41Z</time>
      </trkpt>
      <trkpt lat="52.2500763" lon="21.0167299">
        <ele>83.8</ele>
        <time>2013-09-29T08:02:45Z</time>
      </trkpt>
      <trkpt lat="52.2499732" lon="21.0168537">
        <ele>84.6</ele>
        <time>2013-09-29T08:02:50Z</time>
      </trkpt>
      <trkpt lat="52.2498614" lon="21.0169858">
        <ele>85.0</ele>
        <time>2013-09-29T08:02:55Z</time>
      </trkpt>
      <trkpt lat="52.24975" lon="21.0171216">
        <ele>85.2</ele>
        <time>2013-09-29T08:03:00Z</time>
      </trkpt>
      <trkpt lat="52.2496433" lon="21.0172371">
        <ele>85.2</ele>
        <time>2013-09-29T08:03:05Z</time>
      </trkpt>
      <trkpt lat="52.2495117" lon="21.0173748">
        <ele>85.0</ele>
        <time>2013-09-29T08:03:11Z</time>
      </trkpt>
      <trkpt lat="52.2494122" lon="21.017496">
        <ele>84.8</ele>
        <time>2013-09-29T08:03:16Z</time>
      </trkpt>
      <trkpt lat="52.2493003" lon="21.0176016">
        <ele>83.4</ele>
        <time>2013-09-29T08:03:21Z</time>
      </trkpt>
      <trkpt lat="52.2491714" lon="21.0177494">
        <ele>82.2</ele>
        <time>2013-09-29T08:03:27Z</time>
      </trkpt>
      <trkpt lat="52.2490225" lon="21.0178903">
        <ele>82.0</ele>
        <time>2013-09-29T08:03:33Z</time>
      </trkpt>
      <trkpt lat="52.2488802" lon="21.0180377">
        <ele>81.8</ele>
        <time>2013-09-29T08:03:39Z</time>
      </trkpt>
      <trkpt lat="52.2487497" lon="21.0181967">
        <ele>81.8</ele>
        <time>2013-09-29T08:03:45Z</time>
      </trkpt>
      <trkpt lat="52.2486098" lon="21.0183752">
        <ele>81.6</ele>
        <time>2013-09-29T08:03:52Z</time>
      </trkpt>
      <trkpt lat="52.2485166" lon="21.0184819">
        <ele>81.4</ele>
        <time>2013-09-29T08:03:56Z</time>
      </trkpt>
      <trkpt lat="52.2483824" lon="21.0186355">
        <ele>81.0</ele>
        <time>2013-09-29T08:04:02Z</time>
      </trkpt>
      <trkpt lat="52.248274" lon="21.0187564">
        <ele>81.0</ele>
        <time>2013-09-29T08:04:07Z</time>
      </trkpt>
      <trkpt lat="52.2481369" lon="21.0189066">
        <ele>81.4</ele>
        <time>2013-09-29T08:04:12Z</time>
      </trkpt>
      <trkpt lat="52.2480337" lon="21.0190127">
        <ele>81.8</ele>
        <time>2013-09-29T08:04:17Z</time>
      </trkpt>
      <trkpt lat="52.2479209" lon="21.0191382">
        <ele>82.4</ele>
        <time>2013-09-29T08:04:22Z</time>
      </trkpt>
      <trkpt lat="52.2478484" lon="21.0191952">
        <ele>83.2</ele>
        <time>2013-09-29T08:04:25Z</time>
      </trkpt>
      <trkpt lat="52.2477385" lon="21.019363">
        <ele>83.4</ele>
        <time>2013-09-29T08:04:30Z</time>
      </trkpt>
      <trkpt lat="52.2476312" lon="21.0195135">
        <ele>84.0</ele>
        <time>2013-09-29T08:04:35Z</time>
      </trkpt>
      <trkpt lat="52.2475277" lon="21.0196493">
        <ele>84.6</ele>
        <time>2013-09-29T08:04:40Z</time>
      </trkpt>
      <trkpt lat="52.247421" lon="21.0197882">
        <ele>84.0</ele>
        <time>2013-09-29T08:04:45Z</time>
      </trkpt>
      <trkpt lat="52.2473184" lon="21.0199347">
        <ele>83.0</ele>
        <time>2013-09-29T08:04:50Z</time>
      </trkpt>
      <trkpt lat="52.2472406" lon="21.0200528">
        <ele>82.2</ele>
        <time>2013-09-29T08:04:54Z</time>
      </trkpt>
      <trkpt lat="52.2471263" lon="21.0202336">
        <ele>81.0</ele>
        <time>2013-09-29T08:05:00Z</time>
      </trkpt>
      <trkpt lat="52.2470558" lon="21.0203586">
        <ele>80.4</ele>
        <time>2013-09-29T08:05:04Z</time>
      </trkpt>
      <trkpt lat="52.2469154" lon="21.0205253">
        <ele>79.8</ele>
        <time>2013-09-29T08:05:10Z</time>
      </trkpt>
      <trkpt lat="52.2468196" lon="21.0206418">
        <ele>79.6</ele>
        <time>2013-09-29T08:05:14Z</time>
      </trkpt>
      <trkpt lat="52.2466936" lon="21.0208284">
        <ele>79.8</ele>
        <time>2013-09-29T08:05:20Z</time>
      </trkpt>
      <trkpt lat="52.2465625" lon="21.0210568">
        <ele>79.6</ele>
        <time>2013-09-29T08:05:27Z</time>
      </trkpt>
      <trkpt lat="52.2465145" lon="21.0211578">
        <ele>79.4</ele>
        <time>2013-09-29T08:05:30Z</time>
      </trkpt>
      <trkpt lat="52.2463907" lon="21.021337">
        <ele>79.6</ele>
        <time>2013-09-29T08:05:36Z</time>
      </trkpt>
      <trkpt lat="52.246314" lon="21.0214526">
        <ele>79.8</ele>
        <time>2013-09-29T08:05:40Z</time>
      </trkpt>
      <trkpt lat="52.2462177" lon="21.0216003">
        <ele>80.2</ele>
        <time>2013-09-29T08:05:45Z</time>
      </trkpt>
      <trkpt lat="52.2461558" lon="21.0217308">
        <ele>79.6</ele>
        <time>2013-09-29T08:05:49Z</time>
      </trkpt>
      <trkpt lat="52.2460439" lon="21.0219189">
        <ele>78.8</ele>
        <time>2013-09-29T08:05:55Z</time>
      </trkpt>
      <trkpt lat="52.2459616" lon="21.0220523">
        <ele>79.2</ele>
        <time>2013-09-29T08:05:59Z</time>
      </trkpt>
      <trkpt lat="52.2458649" lon="21.0221876">
        <ele>80.8</ele>
        <time>2013-09-29T08:06:04Z</time>
      </trkpt>
      <trkpt lat="52.2457757" lon="21.0223399">
        <ele>81.4</ele>
        <time>2013-09-29T08:06:09Z</time>
      </trkpt>
      <trkpt lat="52.2456679" lon="21.0225331">
        <ele>81.4</ele>
        <time>2013-09-29T08:06:15Z</time>
      </trkpt>
      <trkpt lat="52.2455282" lon="21.022728">
        <ele>81.0</ele>
        <time>2013-09-29T08:06:21Z</time>
      </trkpt>
      <trkpt lat="52.2453956" lon="21.0228978">
        <ele>80.8</ele>
        <time>2013-09-29T08:06:27Z</time>
      </trkpt>
      <trkpt lat="52.2452656" lon="21.0230797">
        <ele>80.6</ele>
        <time>2013-09-29T08:06:33Z</time>
      </trkpt>
      <trkpt lat="52.245167" lon="21.0232147">
        <ele>80.6</ele>
        <time>2013-09-29T08:06:38Z</time>
      </trkpt>
      <trkpt lat="52.2450843" lon="21.0233245">
        <ele>80.6</ele>
        <time>2013-09-29T08:06:42Z</time>
      </trkpt>
      <trkpt lat="52.2449563" lon="21.0235017">
        <ele>80.6</ele>
        <time>2013-09-29T08:06:48Z</time>
      </trkpt>
      <trkpt lat="52.2448569" lon="21.0236655">
        <ele>80.8</ele>
        <time>2013-09-29T08:06:53Z</time>
      </trkpt>
      <trkpt lat="52.2447841" lon="21.0237842">
        <ele>81.0</ele>
        <time>2013-09-29T08:06:57Z</time>
      </trkpt>
      <trkpt lat="52.2447025" lon="21.023927">
        <ele>81.4</ele>
        <time>2013-09-29T08:07:02Z</time>
      </trkpt>
      <trkpt lat="52.2445492" lon="21.0241313">
        <ele>82.2</ele>
        <time>2013-09-29T08:07:09Z</time>
      </trkpt>
      <trkpt lat="52.2444402" lon="21.0242808">
        <ele>82.6</ele>
        <time>2013-09-29T08:07:14Z</time>
      </trkpt>
      <trkpt lat="52.2443559" lon="21.0244177">
        <ele>82.8</ele>
        <time>2013-09-29T08:07:18Z</time>
      </trkpt>
      <trkpt lat="52.2442538" lon="21.0245907">
        <ele>82.6</ele>
        <time>2013-09-29T08:07:23Z</time>
      </trkpt>
      <trkpt lat="52.2441741" lon="21.0247288">
        <ele>82.2</ele>
        <time>2013-09-29T08:07:27Z</time>
      </trkpt>
      <trkpt lat="52.2440656" lon="21.0249428">
        <ele>81.8</ele>
        <time>2013-09-29T08:07:33Z</time>
      </trkpt>
      <trkpt lat="52.2439953" lon="21.0250808">
        <ele>82.0</ele>
        <time>2013-09-29T08:07:37Z</time>
      </trkpt>
      <trkpt lat="52.243913" lon="21.0252174">
        <ele>82.2</ele>
        <time>2013-09-29T08:07:41Z</time>
      </trkpt>
      <trkpt lat="52.2438255" lon="21.0253624">
        <ele>82.4</ele>
        <time>2013-09-29T08:07:45Z</time>
      </trkpt>
      <trkpt lat="52.2437346" lon="21.0255605">
        <ele>82.6</ele>
        <time>2013-09-29T08:07:50Z</time>
      </trkpt>
      <trkpt lat="52.2436509" lon="21.0256889">
        <ele>83.0</ele>
        <time>2013-09-29T08:07:54Z</time>
      </trkpt>
      <trkpt lat="52.2435576" lon="21.0258526">
        <ele>83.2</ele>
        <time>2013-09-29T08:07:59Z</time>
      </trkpt>
      <trkpt lat="52.2434524" lon="21.0260209">
        <ele>83.8</ele>
        <time>2013-09-29T08:08:04Z</time>
      </trkpt>
      <trkpt lat="52.2433717" lon="21.0261653">
        <ele>84.2</ele>
        <time>2013-09-29T08:08:08Z</time>
      </trkpt>
      <trkpt lat="52.2431832" lon="21.0265551">
        <ele>84.4</ele>
        <time>2013-09-29T08:08:19Z</time>
      </trkpt>
      <trkpt lat="52.2374965" lon="21.033329">
        <ele>89.8</ele>
        <time>2013-09-29T08:12:32Z</time>
      </trkpt>
      <trkpt lat="52.2375146" lon="21.0334197">
        <ele>89.6</ele>
        <time>2013-09-29T08:12:38Z</time>
      </trkpt>
      <trkpt lat="52.2375193" lon="21.0334776">
        <ele>89.4</ele>
        <time>2013-09-29T08:12:42Z</time>
      </trkpt>
      <trkpt lat="52.2374574" lon="21.0335159">
        <ele>89.2</ele>
        <time>2013-09-29T08:12:46Z</time>
      </trkpt>
      <trkpt lat="52.2374206" lon="21.0334482">
        <ele>89.4</ele>
        <time>2013-09-29T08:12:49Z</time>
      </trkpt>
      <trkpt lat="52.2373229" lon="21.0334099">
        <ele>89.2</ele>
        <time>2013-09-29T08:12:55Z</time>
      </trkpt>
      <trkpt lat="52.23721" lon="21.0335285">
        <ele>88.6</ele>
        <time>2013-09-29T08:13:01Z</time>
      </trkpt>
      <trkpt lat="52.2371302" lon="21.0336304">
        <ele>88.2</ele>
        <time>2013-09-29T08:13:05Z</time>
      </trkpt>
      <trkpt lat="52.2370427" lon="21.0337372">
        <ele>87.8</ele>
        <time>2013-09-29T08:13:09Z</time>
      </trkpt>
      <trkpt lat="52.2369795" lon="21.0338077">
        <ele>87.6</ele>
        <time>2013-09-29T08:13:14Z</time>
      </trkpt>
      <trkpt lat="52.2369209" lon="21.0339547">
        <ele>87.4</ele>
        <time>2013-09-29T08:13:19Z</time>
      </trkpt>
      <trkpt lat="52.2369044" lon="21.0340004">
        <ele>87.2</ele>
        <time>2013-09-29T08:13:20Z</time>
      </trkpt>
      <trkpt lat="52.2368047" lon="21.034177">
        <ele>86.8</ele>
        <time>2013-09-29T08:13:25Z</time>
      </trkpt>
      <trkpt lat="52.2367049" lon="21.0343291">
        <ele>86.6</ele>
        <time>2013-09-29T08:13:30Z</time>
      </trkpt>
      <trkpt lat="52.2366633" lon="21.0343867">
        <ele>86.6</ele>
        <time>2013-09-29T08:13:32Z</time>
      </trkpt>
      <trkpt lat="52.2365587" lon="21.0345757">
        <ele>86.6</ele>
        <time>2013-09-29T08:13:38Z</time>
      </trkpt>
      <trkpt lat="52.2364734" lon="21.0347246">
        <ele>86.8</ele>
        <time>2013-09-29T08:13:43Z</time>
      </trkpt>
      <trkpt lat="52.236383" lon="21.0348556">
        <ele>87.0</ele>
        <time>2013-09-29T08:13:47Z</time>
      </trkpt>
      <trkpt lat="52.236318" lon="21.0349577">
        <ele>87.2</ele>
        <time>2013-09-29T08:13:51Z</time>
      </trkpt>
      <trkpt lat="52.2362025" lon="21.0350745">
        <ele>87.6</ele>
        <time>2013-09-29T08:13:55Z</time>
      </trkpt>
      <trkpt lat="52.2360761" lon="21.0351989">
        <ele>87.8</ele>
        <time>2013-09-29T08:14:00Z</time>
      </trkpt>
      <trkpt lat="52.2359584" lon="21.0353045">
        <ele>87.8</ele>
        <time>2013-09-29T08:14:05Z</time>
      </trkpt>
      <trkpt lat="52.2358539" lon="21.035418">
        <ele>87.8</ele>
        <time>2013-09-29T08:14:09Z</time>
      </trkpt>
      <trkpt lat="52.235732" lon="21.0355327">
        <ele>87.6</ele>
        <time>2013-09-29T08:14:14Z</time>
      </trkpt>
      <trkpt lat="52.235572" lon="21.0357005">
        <ele>87.4</ele>
        <time>2013-09-29T08:14:20Z</time>
      </trkpt>
      <trkpt lat="52.2354638" lon="21.0358329">
        <ele>87.4</ele>
        <time>2013-09-29T08:14:25Z</time>
      </trkpt>
      <trkpt lat="52.2353844" lon="21.0359236">
        <ele>87.4</ele>
        <time>2013-09-29T08:14:29Z</time>
      </trkpt>
      <trkpt lat="52.235285" lon="21.0360559">
        <ele>87.4</ele>
        <time>2013-09-29T08:14:34Z</time>
      </trkpt>
      <trkpt lat="52.2351923" lon="21.0361365">
        <ele>87.6</ele>
        <time>2013-09-29T08:14:38Z</time>
      </trkpt>
      <trkpt lat="52.2350716" lon="21.0362193">
        <ele>87.8</ele>
        <time>2013-09-29T08:14:43Z</time>
      </trkpt>
      <trkpt lat="52.2349929" lon="21.0363159">
        <ele>87.8</ele>
        <time>2013-09-29T08:14:47Z</time>
      </trkpt>
      <trkpt lat="52.2349282" lon="21.0364356">
        <ele>87.4</ele>
        <time>2013-09-29T08:14:52Z</time>
      </trkpt>
      <trkpt lat="52.2348712" lon="21.0365096">
        <ele>87.0</ele>
        <time>2013-09-29T08:14:57Z</time>
      </trkpt>
      <trkpt lat="52.2346039" lon="21.0365945">
        <ele>85.0</ele>
        <time>2013-09-29T08:15:05Z</time>
      </trkpt>
      <trkpt lat="52.2344521" lon="21.0366656">
        <ele>84.0</ele>
        <time>2013-09-29T08:15:10Z</time>
      </trkpt>
      <trkpt lat="52.2343898" lon="21.0367037">
        <ele>83.6</ele>
        <time>2013-09-29T08:15:13Z</time>
      </trkpt>
      <trkpt lat="52.2342563" lon="21.0368272">
        <ele>83.0</ele>
        <time>2013-09-29T08:15:19Z</time>
      </trkpt>
      <trkpt lat="52.2341127" lon="21.0369104">
        <ele>82.8</ele>
        <time>2013-09-29T08:15:24Z</time>
      </trkpt>
      <trkpt lat="52.2339901" lon="21.0370409">
        <ele>83.4</ele>
        <time>2013-09-29T08:15:29Z</time>
      </trkpt>
      <trkpt lat="52.233965" lon="21.0370616">
        <ele>83.4</ele>
        <time>2013-09-29T08:15:30Z</time>
      </trkpt>
      <trkpt lat="52.2338673" lon="21.0372161">
        <ele>84.0</ele>
        <time>2013-09-29T08:15:35Z</time>
      </trkpt>
      <trkpt lat="52.2338481" lon="21.0372498">
        <ele>84.2</ele>
        <time>2013-09-29T08:15:36Z</time>
      </trkpt>
      <trkpt lat="52.2337264" lon="21.0374244">
        <ele>84.6</ele>
        <time>2013-09-29T08:15:42Z</time>
      </trkpt>
      <trkpt lat="52.2336352" lon="21.0375887">
        <ele>84.8</ele>
        <time>2013-09-29T08:15:47Z</time>
      </trkpt>
      <trkpt lat="52.2335974" lon="21.0376985">
        <ele>84.8</ele>
        <time>2013-09-29T08:15:50Z</time>
      </trkpt>
      <trkpt lat="52.2335202" lon="21.037879">
        <ele>84.8</ele>
        <time>2013-09-29T08:15:55Z</time>
      </trkpt>
      <trkpt lat="52.2334917" lon="21.0379456">
        <ele>84.8</ele>
        <time>2013-09-29T08:15:57Z</time>
      </trkpt>
      <trkpt lat="52.2333949" lon="21.0381485">
        <ele>84.8</ele>
        <time>2013-09-29T08:16:03Z</time>
      </trkpt>
      <trkpt lat="52.233318" lon="21.038317">
        <ele>85.0</ele>
        <time>2013-09-29T08:16:08Z</time>
      </trkpt>
      <trkpt lat="52.2333001" lon="21.0383501">
        <ele>85.0</ele>
        <time>2013-09-29T08:16:09Z</time>
      </trkpt>
      <trkpt lat="52.2332125" lon="21.038562">
        <ele>85.6</ele>
        <time>2013-09-29T08:16:15Z</time>
      </trkpt>
      <trkpt lat="52.2331478" lon="21.0387203">
        <ele>85.8</ele>
        <time>2013-09-29T08:16:19Z</time>
      </trkpt>
      <trkpt lat="52.2330467" lon="21.0389365">
        <ele>85.8</ele>
        <time>2013-09-29T08:16:24Z</time>
      </trkpt>
      <trkpt lat="52.2329188" lon="21.0391642">
        <ele>85.8</ele>
        <time>2013-09-29T08:16:31Z</time>
      </trkpt>
      <trkpt lat="52.232853" lon="21.0392914">
        <ele>85.8</ele>
        <time>2013-09-29T08:16:35Z</time>
      </trkpt>
      <trkpt lat="52.2327774" lon="21.0394141">
        <ele>85.6</ele>
        <time>2013-09-29T08:16:39Z</time>
      </trkpt>
      <trkpt lat="52.2326756" lon="21.0395467">
        <ele>85.6</ele>
        <time>2013-09-29T08:16:44Z</time>
      </trkpt>
      <trkpt lat="52.23255" lon="21.039697">
        <ele>85.6</ele>
        <time>2013-09-29T08:16:50Z</time>
      </trkpt>
      <trkpt lat="52.2325095" lon="21.0397514">
        <ele>85.4</ele>
        <time>2013-09-29T08:16:52Z</time>
      </trkpt>
      <trkpt lat="52.2323521" lon="21.0398974">
        <ele>85.2</ele>
        <time>2013-09-29T08:16:59Z</time>
      </trkpt>
      <trkpt lat="52.2322452" lon="21.0400205">
        <ele>84.8</ele>
        <time>2013-09-29T08:17:04Z</time>
      </trkpt>
      <trkpt lat="52.232163" lon="21.0401217">
        <ele>84.8</ele>
        <time>2013-09-29T08:17:08Z</time>
      </trkpt>
      <trkpt lat="52.2320475" lon="21.0402319">
        <ele>84.6</ele>
        <time>2013-09-29T08:17:13Z</time>
      </trkpt>
      <trkpt lat="52.2318807" lon="21.0403744">
        <ele>84.6</ele>
        <time>2013-09-29T08:17:20Z</time>
      </trkpt>
      <trkpt lat="52.2317599" lon="21.0405139">
        <ele>84.8</ele>
        <time>2013-09-29T08:17:26Z</time>
      </trkpt>
      <trkpt lat="52.2317103" lon="21.0405615">
        <ele>84.8</ele>
        <time>2013-09-29T08:17:28Z</time>
      </trkpt>
      <trkpt lat="52.2315544" lon="21.0407045">
        <ele>84.8</ele>
        <time>2013-09-29T08:17:34Z</time>
      </trkpt>
      <trkpt lat="52.2314585" lon="21.0407691">
        <ele>84.6</ele>
        <time>2013-09-29T08:17:38Z</time>
      </trkpt>
      <trkpt lat="52.231335" lon="21.0408583">
        <ele>84.4</ele>
        <time>2013-09-29T08:17:43Z</time>
      </trkpt>
      <trkpt lat="52.2311786" lon="21.0409593">
        <ele>84.2</ele>
        <time>2013-09-29T08:17:49Z</time>
      </trkpt>
      <trkpt lat="52.2310679" lon="21.0410257">
        <ele>84.0</ele>
        <time>2013-09-29T08:17:53Z</time>
      </trkpt>
      <trkpt lat="52.2309442" lon="21.0411017">
        <ele>84.0</ele>
        <time>2013-09-29T08:17:58Z</time>
      </trkpt>
      <trkpt lat="52.2309206" lon="21.0411197">
        <ele>83.8</ele>
        <time>2013-09-29T08:17:59Z</time>
      </trkpt>
      <trkpt lat="52.2308141" lon="21.04118">
        <ele>83.8</ele>
        <time>2013-09-29T08:18:04Z</time>
      </trkpt>
      <trkpt lat="52.2307597" lon="21.0412044">
        <ele>83.8</ele>
        <time>2013-09-29T08:18:06Z</time>
      </trkpt>
      <trkpt lat="52.2306119" lon="21.0412878">
        <ele>83.8</ele>
        <time>2013-09-29T08:18:12Z</time>
      </trkpt>
      <trkpt lat="52.2304717" lon="21.041373">
        <ele>83.6</ele>
        <time>2013-09-29T08:18:17Z</time>
      </trkpt>
      <trkpt lat="52.2304147" lon="21.0414079">
        <ele>83.6</ele>
        <time>2013-09-29T08:18:19Z</time>
      </trkpt>
      <trkpt lat="52.2302701" lon="21.0414504">
        <ele>83.4</ele>
        <time>2013-09-29T08:18:25Z</time>
      </trkpt>
      <trkpt lat="52.2301329" lon="21.0415193">
        <ele>83.2</ele>
        <time>2013-09-29T08:18:30Z</time>
      </trkpt>
      <trkpt lat="52.2300117" lon="21.0415633">
        <ele>83.0</ele>
        <time>2013-09-29T08:18:34Z</time>
      </trkpt>
      <trkpt lat="52.2298625" lon="21.0416058">
        <ele>82.6</ele>
        <time>2013-09-29T08:18:39Z</time>
      </trkpt>
      <trkpt lat="52.2297703" lon="21.0416281">
        <ele>82.4</ele>
        <time>2013-09-29T08:18:43Z</time>
      </trkpt>
      <trkpt lat="52.2296875" lon="21.0416701">
        <ele>82.2</ele>
        <time>2013-09-29T08:18:46Z</time>
      </trkpt>
      <trkpt lat="52.2296041" lon="21.0416814">
        <ele>82.0</ele>
        <time>2013-09-29T08:18:49Z</time>
      </trkpt>
      <trkpt lat="52.2294225" lon="21.0417486">
        <ele>81.6</ele>
        <time>2013-09-29T08:18:57Z</time>
      </trkpt>
      <trkpt lat="52.2293252" lon="21.0417845">
        <ele>81.4</ele>
        <time>2013-09-29T08:19:01Z</time>
      </trkpt>
      <trkpt lat="52.2292039" lon="21.0418353">
        <ele>81.2</ele>
        <time>2013-09-29T08:19:06Z</time>
      </trkpt>
      <trkpt lat="52.2291641" lon="21.0418641">
        <ele>81.2</ele>
        <time>2013-09-29T08:19:08Z</time>
      </trkpt>
      <trkpt lat="52.229018" lon="21.0418861">
        <ele>81.2</ele>
        <time>2013-09-29T08:19:13Z</time>
      </trkpt>
      <trkpt lat="52.228942" lon="21.0419066">
        <ele>81.4</ele>
        <time>2013-09-29T08:19:16Z</time>
      </trkpt>
      <trkpt lat="52.2287716" lon="21.0419891">
        <ele>81.4</ele>
        <time>2013-09-29T08:19:22Z</time>
      </trkpt>
      <trkpt lat="52.2286264" lon="21.0420544">
        <ele>81.4</ele>
        <time>2013-09-29T08:19:27Z</time>
      </trkpt>
      <trkpt lat="52.2285338" lon="21.0421041">
        <ele>81.4</ele>
        <time>2013-09-29T08:19:31Z</time>
      </trkpt>
      <trkpt lat="52.2284109" lon="21.0421554">
        <ele>81.4</ele>
        <time>2013-09-29T08:19:36Z</time>
      </trkpt>
      <trkpt lat="52.2282644" lon="21.0422129">
        <ele>81.4</ele>
        <time>2013-09-29T08:19:41Z</time>
      </trkpt>
      <trkpt lat="52.2280801" lon="21.042257">
        <ele>81.8</ele>
        <time>2013-09-29T08:19:47Z</time>
      </trkpt>
      <trkpt lat="52.2279089" lon="21.0423092">
        <ele>82.2</ele>
        <time>2013-09-29T08:19:53Z</time>
      </trkpt>
      <trkpt lat="52.2277748" lon="21.0423403">
        <ele>82.6</ele>
        <time>2013-09-29T08:19:58Z</time>
      </trkpt>
      <trkpt lat="52.2276929" lon="21.0423813">
        <ele>82.6</ele>
        <time>2013-09-29T08:20:02Z</time>
      </trkpt>
      <trkpt lat="52.2275811" lon="21.0424361">
        <ele>82.8</ele>
        <time>2013-09-29T08:20:07Z</time>
      </trkpt>
      <trkpt lat="52.2275413" lon="21.0424414">
        <ele>83.0</ele>
        <time>2013-09-29T08:20:09Z</time>
      </trkpt>
      <trkpt lat="52.2274528" lon="21.0425004">
        <ele>83.0</ele>
        <time>2013-09-29T08:20:13Z</time>
      </trkpt>
      <trkpt lat="52.2273443" lon="21.0425465">
        <ele>83.0</ele>
        <time>2013-09-29T08:20:18Z</time>
      </trkpt>
      <trkpt lat="52.2272197" lon="21.0425875">
        <ele>83.0</ele>
        <time>2013-09-29T08:20:23Z</time>
      </trkpt>
      <trkpt lat="52.2270933" lon="21.0426153">
        <ele>83.2</ele>
        <time>2013-09-29T08:20:28Z</time>
      </trkpt>
      <trkpt lat="52.2269467" lon="21.0426936">
        <ele>83.0</ele>
        <time>2013-09-29T08:20:34Z</time>
      </trkpt>
      <trkpt lat="52.2268201" lon="21.0427307">
        <ele>83.0</ele>
        <time>2013-09-29T08:20:38Z</time>
      </trkpt>
      <trkpt lat="52.2267035" lon="21.0427597">
        <ele>83.0</ele>
        <time>2013-09-29T08:20:42Z</time>
      </trkpt>
      <trkpt lat="52.2266074" lon="21.0427915">
        <ele>83.0</ele>
        <time>2013-09-29T08:20:46Z</time>
      </trkpt>
      <trkpt lat="52.2264717" lon="21.0428364">
        <ele>83.0</ele>
        <time>2013-09-29T08:20:51Z</time>
      </trkpt>
      <trkpt lat="52.2263696" lon="21.0428702">
        <ele>83.0</ele>
        <time>2013-09-29T08:20:55Z</time>
      </trkpt>
      <trkpt lat="52.2263396" lon="21.0428774">
        <ele>83.2</ele>
        <time>2013-09-29T08:20:56Z</time>
      </trkpt>
      <trkpt lat="52.2262126" lon="21.0429381">
        <ele>83.2</ele>
        <time>2013-09-29T08:21:01Z</time>
      </trkpt>
      <trkpt lat="52.226079" lon="21.0429687">
        <ele>83.4</ele>
        <time>2013-09-29T08:21:06Z</time>
      </trkpt>
      <trkpt lat="52.2259318" lon="21.0430417">
        <ele>83.4</ele>
        <time>2013-09-29T08:21:12Z</time>
      </trkpt>
      <trkpt lat="52.2258085" lon="21.0430743">
        <ele>83.6</ele>
        <time>2013-09-29T08:21:17Z</time>
      </trkpt>
      <trkpt lat="52.2256817" lon="21.0431236">
        <ele>84.0</ele>
        <time>2013-09-29T08:21:22Z</time>
      </trkpt>
      <trkpt lat="52.2255781" lon="21.0431826">
        <ele>84.2</ele>
        <time>2013-09-29T08:21:26Z</time>
      </trkpt>
      <trkpt lat="52.2254719" lon="21.0432262">
        <ele>84.4</ele>
        <time>2013-09-29T08:21:30Z</time>
      </trkpt>
      <trkpt lat="52.2253759" lon="21.0432235">
        <ele>84.8</ele>
        <time>2013-09-29T08:21:34Z</time>
      </trkpt>
      <trkpt lat="52.2252212" lon="21.0432582">
        <ele>85.2</ele>
        <time>2013-09-29T08:21:40Z</time>
      </trkpt>
      <trkpt lat="52.2251129" lon="21.0432997">
        <ele>85.6</ele>
        <time>2013-09-29T08:21:44Z</time>
      </trkpt>
      <trkpt lat="52.2249916" lon="21.0433469">
        <ele>85.8</ele>
        <time>2013-09-29T08:21:49Z</time>
      </trkpt>
      <trkpt lat="52.2248601" lon="21.0434266">
        <ele>85.8</ele>
        <time>2013-09-29T08:21:54Z</time>
      </trkpt>
      <trkpt lat="52.2247306" lon="21.0434701">
        <ele>85.8</ele>
        <time>2013-09-29T08:21:59Z</time>
      </trkpt>
      <trkpt lat="52.2246016" lon="21.0435161">
        <ele>85.8</ele>
        <time>2013-09-29T08:22:04Z</time>
      </trkpt>
      <trkpt lat="52.2244892" lon="21.0435441">
        <ele>86.0</ele>
        <time>2013-09-29T08:22:08Z</time>
      </trkpt>
      <trkpt lat="52.2244177" lon="21.0435752">
        <ele>86.0</ele>
        <time>2013-09-29T08:22:11Z</time>
      </trkpt>
      <trkpt lat="52.2242673" lon="21.0435789">
        <ele>86.2</ele>
        <time>2013-09-29T08:22:17Z</time>
      </trkpt>
      <trkpt lat="52.2241256" lon="21.043668">
        <ele>86.0</ele>
        <time>2013-09-29T08:22:22Z</time>
      </trkpt>
      <trkpt lat="52.2240971" lon="21.0436699">
        <ele>85.8</ele>
        <time>2013-09-29T08:22:23Z</time>
      </trkpt>
      <trkpt lat="52.2238914" lon="21.043759">
        <ele>84.8</ele>
        <time>2013-09-29T08:22:31Z</time>
      </trkpt>
      <trkpt lat="52.2237251" lon="21.0438207">
        <ele>84.2</ele>
        <time>2013-09-29T08:22:37Z</time>
      </trkpt>
      <trkpt lat="52.2235905" lon="21.0438963">
        <ele>83.8</ele>
        <time>2013-09-29T08:22:42Z</time>
      </trkpt>
      <trkpt lat="52.2235231" lon="21.0439175">
        <ele>83.4</ele>
        <time>2013-09-29T08:22:45Z</time>
      </trkpt>
      <trkpt lat="52.2233738" lon="21.0440068">
        <ele>83.0</ele>
        <time>2013-09-29T08:22:51Z</time>
      </trkpt>
      <trkpt lat="52.2232227" lon="21.0440508">
        <ele>82.6</ele>
        <time>2013-09-29T08:22:57Z</time>
      </trkpt>
      <trkpt lat="52.2231998" lon="21.0440555">
        <ele>82.6</ele>
        <time>2013-09-29T08:22:58Z</time>
      </trkpt>
      <trkpt lat="52.2230868" lon="21.044129">
        <ele>82.4</ele>
        <time>2013-09-29T08:23:03Z</time>
      </trkpt>
      <trkpt lat="52.222965" lon="21.0441833">
        <ele>82.0</ele>
        <time>2013-09-29T08:23:08Z</time>
      </trkpt>
      <trkpt lat="52.2228533" lon="21.0442192">
        <ele>81.8</ele>
        <time>2013-09-29T08:23:12Z</time>
      </trkpt>
      <trkpt lat="52.2227238" lon="21.0442656">
        <ele>81.6</ele>
        <time>2013-09-29T08:23:17Z</time>
      </trkpt>
      <trkpt lat="52.2225809" lon="21.0443283">
        <ele>81.2</ele>
        <time>2013-09-29T08:23:23Z</time>
      </trkpt>
      <trkpt lat="52.2224626" lon="21.0443803">
        <ele>81.2</ele>
        <time>2013-09-29T08:23:28Z</time>
      </trkpt>
      <trkpt lat="52.2224405" lon="21.0443958">
        <ele>81.2</ele>
        <time>2013-09-29T08:23:29Z</time>
      </trkpt>
      <trkpt lat="52.2222825" lon="21.0444393">
        <ele>81.6</ele>
        <time>2013-09-29T08:23:35Z</time>
      </trkpt>
      <trkpt lat="52.2221799" lon="21.0444776">
        <ele>81.8</ele>
        <time>2013-09-29T08:23:39Z</time>
      </trkpt>
      <trkpt lat="52.2220442" lon="21.0445148">
        <ele>82.2</ele>
        <time>2013-09-29T08:23:44Z</time>
      </trkpt>
      <trkpt lat="52.2219141" lon="21.044529">
        <ele>82.4</ele>
        <time>2013-09-29T08:23:49Z</time>
      </trkpt>
      <trkpt lat="52.2217503" lon="21.0445921">
        <ele>82.8</ele>
        <time>2013-09-29T08:23:55Z</time>
      </trkpt>
      <trkpt lat="52.2216411" lon="21.0446262">
        <ele>83.0</ele>
        <time>2013-09-29T08:23:59Z</time>
      </trkpt>
      <trkpt lat="52.2215101" lon="21.044678">
        <ele>83.0</ele>
        <time>2013-09-29T08:24:04Z</time>
      </trkpt>
      <trkpt lat="52.221377" lon="21.0447241">
        <ele>83.0</ele>
        <time>2013-09-29T08:24:09Z</time>
      </trkpt>
      <trkpt lat="52.2212806" lon="21.0447807">
        <ele>83.0</ele>
        <time>2013-09-29T08:24:13Z</time>
      </trkpt>
      <trkpt lat="52.2211444" lon="21.0448496">
        <ele>83.0</ele>
        <time>2013-09-29T08:24:18Z</time>
      </trkpt>
      <trkpt lat="52.2210196" lon="21.0448833">
        <ele>83.0</ele>
        <time>2013-09-29T08:24:23Z</time>
      </trkpt>
      <trkpt lat="52.2208817" lon="21.0449313">
        <ele>83.0</ele>
        <time>2013-09-29T08:24:28Z</time>
      </trkpt>
      <trkpt lat="52.220743" lon="21.0449738">
        <ele>83.0</ele>
        <time>2013-09-29T08:24:33Z</time>
      </trkpt>
      <trkpt lat="52.2206179" lon="21.0450168">
        <ele>83.0</ele>
        <time>2013-09-29T08:24:38Z</time>
      </trkpt>
      <trkpt lat="52.2204907" lon="21.0450723">
        <ele>83.0</ele>
        <time>2013-09-29T08:24:42Z</time>
      </trkpt>
      <trkpt lat="52.2203714" lon="21.0451194">
        <ele>83.0</ele>
        <time>2013-09-29T08:24:46Z</time>
      </trkpt>
      <trkpt lat="52.2202327" lon="21.04518">
        <ele>83.0</ele>
        <time>2013-09-29T08:24:51Z</time>
      </trkpt>
      <trkpt lat="52.2201038" lon="21.0452027">
        <ele>83.0</ele>
        <time>2013-09-29T08:24:56Z</time>
      </trkpt>
      <trkpt lat="52.2199813" lon="21.0452348">
        <ele>82.8</ele>
        <time>2013-09-29T08:25:01Z</time>
      </trkpt>
      <trkpt lat="52.2198504" lon="21.0452457">
        <ele>82.8</ele>
        <time>2013-09-29T08:25:06Z</time>
      </trkpt>
      <trkpt lat="52.2197458" lon="21.0452638">
        <ele>82.8</ele>
        <time>2013-09-29T08:25:10Z</time>
      </trkpt>
      <trkpt lat="52.2196405" lon="21.0453079">
        <ele>82.8</ele>
        <time>2013-09-29T08:25:14Z</time>
      </trkpt>
      <trkpt lat="52.2195442" lon="21.0453504">
        <ele>82.6</ele>
        <time>2013-09-29T08:25:18Z</time>
      </trkpt>
      <trkpt lat="52.2194474" lon="21.0453943">
        <ele>82.6</ele>
        <time>2013-09-29T08:25:22Z</time>
      </trkpt>
      <trkpt lat="52.2193531" lon="21.045423">
        <ele>82.6</ele>
        <time>2013-09-29T08:25:26Z</time>
      </trkpt>
      <trkpt lat="52.2192211" lon="21.0454629">
        <ele>82.4</ele>
        <time>2013-09-29T08:25:31Z</time>
      </trkpt>
      <trkpt lat="52.21909" lon="21.0455047">
        <ele>82.6</ele>
        <time>2013-09-29T08:25:36Z</time>
      </trkpt>
      <trkpt lat="52.2189635" lon="21.0455473">
        <ele>82.8</ele>
        <time>2013-09-29T08:25:41Z</time>
      </trkpt>
      <trkpt lat="52.2188212" lon="21.0455743">
        <ele>83.4</ele>
        <time>2013-09-29T08:25:46Z</time>
      </trkpt>
      <trkpt lat="52.2187481" lon="21.0455914">
        <ele>83.6</ele>
        <time>2013-09-29T08:25:49Z</time>
      </trkpt>
      <trkpt lat="52.2186248" lon="21.0456344">
        <ele>84.0</ele>
        <time>2013-09-29T08:25:55Z</time>
      </trkpt>
      <trkpt lat="52.218501" lon="21.0456541">
        <ele>84.4</ele>
        <time>2013-09-29T08:26:00Z</time>
      </trkpt>
      <trkpt lat="52.2183954" lon="21.0456701">
        <ele>84.6</ele>
        <time>2013-09-29T08:26:04Z</time>
      </trkpt>
      <trkpt lat="52.2182322" lon="21.0456753">
        <ele>85.2</ele>
        <time>2013-09-29T08:26:10Z</time>
      </trkpt>
      <trkpt lat="52.2180818" lon="21.045709">
        <ele>85.4</ele>
        <time>2013-09-29T08:26:15Z</time>
      </trkpt>
      <trkpt lat="52.2179431" lon="21.0457395">
        <ele>85.8</ele>
        <time>2013-09-29T08:26:20Z</time>
      </trkpt>
      <trkpt lat="52.2178341" lon="21.045744">
        <ele>86.0</ele>
        <time>2013-09-29T08:26:24Z</time>
      </trkpt>
      <trkpt lat="52.2177059" lon="21.0457595">
        <ele>86.4</ele>
        <time>2013-09-29T08:26:29Z</time>
      </trkpt>
      <trkpt lat="52.2175834" lon="21.0457706">
        <ele>86.6</ele>
        <time>2013-09-29T08:26:33Z</time>
      </trkpt>
      <trkpt lat="52.217464" lon="21.0457856">
        <ele>86.8</ele>
        <time>2013-09-29T08:26:37Z</time>
      </trkpt>
      <trkpt lat="52.2172935" lon="21.0458053">
        <ele>86.2</ele>
        <time>2013-09-29T08:26:44Z</time>
      </trkpt>
      <trkpt lat="52.2171526" lon="21.0458167">
        <ele>85.6</ele>
        <time>2013-09-29T08:26:49Z</time>
      </trkpt>
      <trkpt lat="52.2169877" lon="21.0458171">
        <ele>85.0</ele>
        <time>2013-09-29T08:26:55Z</time>
      </trkpt>
      <trkpt lat="52.2168398" lon="21.0457798">
        <ele>84.6</ele>
        <time>2013-09-29T08:27:00Z</time>
      </trkpt>
      <trkpt lat="52.2167759" lon="21.0457872">
        <ele>84.4</ele>
        <time>2013-09-29T08:27:02Z</time>
      </trkpt>
      <trkpt lat="52.2166051" lon="21.0457989">
        <ele>84.0</ele>
        <time>2013-09-29T08:27:08Z</time>
      </trkpt>
      <trkpt lat="52.2164647" lon="21.0458115">
        <ele>84.0</ele>
        <time>2013-09-29T08:27:13Z</time>
      </trkpt>
      <trkpt lat="52.2163124" lon="21.045825">
        <ele>84.0</ele>
        <time>2013-09-29T08:27:19Z</time>
      </trkpt>
      <trkpt lat="52.2161917" lon="21.0458048">
        <ele>84.0</ele>
        <time>2013-09-29T08:27:24Z</time>
      </trkpt>
      <trkpt lat="52.2160802" lon="21.0457432">
        <ele>84.0</ele>
        <time>2013-09-29T08:27:29Z</time>
      </trkpt>
      <trkpt lat="52.2160255" lon="21.0456168">
        <ele>84.2</ele>
        <time>2013-09-29T08:27:32Z</time>
      </trkpt>
      <trkpt lat="52.2160291" lon="21.0454495">
        <ele>84.4</ele>
        <time>2013-09-29T08:27:36Z</time>
      </trkpt>
      <trkpt lat="52.2160254" lon="21.0452329">
        <ele>84.8</ele>
        <time>2013-09-29T08:27:41Z</time>
      </trkpt>
      <trkpt lat="52.2160498" lon="21.0450687">
        <ele>85.0</ele>
        <time>2013-09-29T08:27:45Z</time>
      </trkpt>
      <trkpt lat="52.2160398" lon="21.0448512">
        <ele>85.0</ele>
        <time>2013-09-29T08:27:49Z</time>
      </trkpt>
      <trkpt lat="52.2160332" lon="21.044804">
        <ele>85.0</ele>
        <time>2013-09-29T08:27:50Z</time>
      </trkpt>
      <trkpt lat="52.216057" lon="21.0446463">
        <ele>85.0</ele>
        <time>2013-09-29T08:27:54Z</time>
      </trkpt>
      <trkpt lat="52.2161405" lon="21.0444117">
        <ele>85.0</ele>
        <time>2013-09-29T08:28:00Z</time>
      </trkpt>
      <trkpt lat="52.2161575" lon="21.0442249">
        <ele>85.0</ele>
        <time>2013-09-29T08:28:04Z</time>
      </trkpt>
      <trkpt lat="52.2161928" lon="21.0440211">
        <ele>85.2</ele>
        <time>2013-09-29T08:28:09Z</time>
      </trkpt>
      <trkpt lat="52.2162315" lon="21.043799">
        <ele>85.6</ele>
        <time>2013-09-29T08:28:14Z</time>
      </trkpt>
      <trkpt lat="52.2162782" lon="21.0436431">
        <ele>85.8</ele>
        <time>2013-09-29T08:28:18Z</time>
      </trkpt>
      <trkpt lat="52.21632" lon="21.0434764">
        <ele>86.0</ele>
        <time>2013-09-29T08:28:22Z</time>
      </trkpt>
      <trkpt lat="52.2163335" lon="21.0432329">
        <ele>86.0</ele>
        <time>2013-09-29T08:28:27Z</time>
      </trkpt>
      <trkpt lat="52.2163446" lon="21.0430024">
        <ele>85.8</ele>
        <time>2013-09-29T08:28:32Z</time>
      </trkpt>
      <trkpt lat="52.2163642" lon="21.0429221">
        <ele>85.8</ele>
        <time>2013-09-29T08:28:34Z</time>
      </trkpt>
      <trkpt lat="52.2163891" lon="21.0426609">
        <ele>85.4</ele>
        <time>2013-09-29T08:28:40Z</time>
      </trkpt>
      <trkpt lat="52.216401" lon="21.0424797">
        <ele>85.2</ele>
        <time>2013-09-29T08:28:44Z</time>
      </trkpt>
      <trkpt lat="52.2164243" lon="21.042293">
        <ele>85.0</ele>
        <time>2013-09-29T08:28:48Z</time>
      </trkpt>
      <trkpt lat="52.2164604" lon="21.0420772">
        <ele>84.6</ele>
        <time>2013-09-29T08:28:53Z</time>
      </trkpt>
      <trkpt lat="52.2164709" lon="21.0418555">
        <ele>84.4</ele>
        <time>2013-09-29T08:28:58Z</time>
      </trkpt>
      <trkpt lat="52.2165098" lon="21.0416887">
        <ele>84.2</ele>
        <time>2013-09-29T08:29:02Z</time>
      </trkpt>
      <trkpt lat="52.2165231" lon="21.041654">
        <ele>84.0</ele>
        <time>2013-09-29T08:29:03Z</time>
      </trkpt>
      <trkpt lat="52.2165562" lon="21.0414416">
        <ele>83.8</ele>
        <time>2013-09-29T08:29:08Z</time>
      </trkpt>
      <trkpt lat="52.2165971" lon="21.0412824">
        <ele>83.6</ele>
        <time>2013-09-29T08:29:12Z</time>
      </trkpt>
      <trkpt lat="52.2166237" lon="21.0410257">
        <ele>83.2</ele>
        <time>2013-09-29T08:29:18Z</time>
      </trkpt>
      <trkpt lat="52.2166507" lon="21.0408576">
        <ele>83.0</ele>
        <time>2013-09-29T08:29:22Z</time>
      </trkpt>
      <trkpt lat="52.2166765" lon="21.0406894">
        <ele>83.2</ele>
        <time>2013-09-29T08:29:26Z</time>
      </trkpt>
      <trkpt lat="52.2166874" lon="21.0405952">
        <ele>83.4</ele>
        <time>2013-09-29T08:29:28Z</time>
      </trkpt>
      <trkpt lat="52.2167175" lon="21.0404206">
        <ele>84.0</ele>
        <time>2013-09-29T08:29:32Z</time>
      </trkpt>
      <trkpt lat="52.2167377" lon="21.0402362">
        <ele>84.4</ele>
        <time>2013-09-29T08:29:36Z</time>
      </trkpt>
      <trkpt lat="52.2167406" lon="21.0401971">
        <ele>84.4</ele>
        <time>2013-09-29T08:29:37Z</time>
      </trkpt>
      <trkpt lat="52.2167362" lon="21.0399666">
        <ele>85.2</ele>
        <time>2013-09-29T08:29:42Z</time>
      </trkpt>
      <trkpt lat="52.2167294" lon="21.039771">
        <ele>86.2</ele>
        <time>2013-09-29T08:29:46Z</time>
      </trkpt>
      <trkpt lat="52.2166993" lon="21.0395322">
        <ele>87.6</ele>
        <time>2013-09-29T08:29:51Z</time>
      </trkpt>
      <trkpt lat="52.2167723" lon="21.0393555">
        <ele>88.6</ele>
        <time>2013-09-29T08:29:56Z</time>
      </trkpt>
      <trkpt lat="52.2167838" lon="21.0391898">
        <ele>89.4</ele>
        <time>2013-09-29T08:30:00Z</time>
      </trkpt>
      <trkpt lat="52.2168278" lon="21.038965">
        <ele>89.2</ele>
        <time>2013-09-29T08:30:05Z</time>
      </trkpt>
      <trkpt lat="52.2168558" lon="21.0388345">
        <ele>89.0</ele>
        <time>2013-09-29T08:30:08Z</time>
      </trkpt>
      <trkpt lat="52.2168848" lon="21.0386184">
        <ele>88.6</ele>
        <time>2013-09-29T08:30:13Z</time>
      </trkpt>
      <trkpt lat="52.2169071" lon="21.0384392">
        <ele>88.4</ele>
        <time>2013-09-29T08:30:17Z</time>
      </trkpt>
      <trkpt lat="52.2169101" lon="21.038248">
        <ele>88.2</ele>
        <time>2013-09-29T08:30:21Z</time>
      </trkpt>
      <trkpt lat="52.2168702" lon="21.0379513">
        <ele>87.6</ele>
        <time>2013-09-29T08:30:27Z</time>
      </trkpt>
      <trkpt lat="52.2169045" lon="21.0378212">
        <ele>87.2</ele>
        <time>2013-09-29T08:30:30Z</time>
      </trkpt>
      <trkpt lat="52.2169465" lon="21.0377446">
        <ele>87.0</ele>
        <time>2013-09-29T08:30:32Z</time>
      </trkpt>
      <trkpt lat="52.2169758" lon="21.0376721">
        <ele>86.8</ele>
        <time>2013-09-29T08:30:34Z</time>
      </trkpt>
      <trkpt lat="52.2171905" lon="21.0375917">
        <ele>86.4</ele>
        <time>2013-09-29T08:30:40Z</time>
      </trkpt>
      <trkpt lat="52.2172278" lon="21.0375819">
        <ele>86.4</ele>
        <time>2013-09-29T08:30:41Z</time>
      </trkpt>
      <trkpt lat="52.2174391" lon="21.0375239">
        <ele>86.0</ele>
        <time>2013-09-29T08:30:46Z</time>
      </trkpt>
      <trkpt lat="52.2176295" lon="21.0374839">
        <ele>85.6</ele>
        <time>2013-09-29T08:30:50Z</time>
      </trkpt>
      <trkpt lat="52.2177213" lon="21.0374524">
        <ele>85.4</ele>
        <time>2013-09-29T08:30:53Z</time>
      </trkpt>
      <trkpt lat="52.2178747" lon="21.0373627">
        <ele>85.0</ele>
        <time>2013-09-29T08:31:00Z</time>
      </trkpt>
      <trkpt lat="52.2179773" lon="21.0373229">
        <ele>84.6</ele>
        <time>2013-09-29T08:31:04Z</time>
      </trkpt>
      <trkpt lat="52.218125" lon="21.0372872">
        <ele>84.2</ele>
        <time>2013-09-29T08:31:08Z</time>
      </trkpt>
      <trkpt lat="52.2182223" lon="21.0372763">
        <ele>84.0</ele>
        <time>2013-09-29T08:31:12Z</time>
      </trkpt>
      <trkpt lat="52.2182321" lon="21.0372679">
        <ele>83.8</ele>
        <time>2013-09-29T08:31:13Z</time>
      </trkpt>
      <trkpt lat="52.2183102" lon="21.0371882">
        <ele>83.6</ele>
        <time>2013-09-29T08:31:18Z</time>
      </trkpt>
      <trkpt lat="52.2184459" lon="21.0371147">
        <ele>83.6</ele>
        <time>2013-09-29T08:31:23Z</time>
      </trkpt>
      <trkpt lat="52.2184601" lon="21.0371038">
        <ele>83.6</ele>
        <time>2013-09-29T08:31:24Z</time>
      </trkpt>
      <trkpt lat="52.2185648" lon="21.0370695">
        <ele>83.6</ele>
        <time>2013-09-29T08:31:29Z</time>
      </trkpt>
      <trkpt lat="52.2186371" lon="21.0370587">
        <ele>83.8</ele>
        <time>2013-09-29T08:31:31Z</time>
      </trkpt>
      <trkpt lat="52.2186857" lon="21.0370483">
        <ele>83.8</ele>
        <time>2013-09-29T08:31:34Z</time>
      </trkpt>
      <trkpt lat="52.2188548" lon="21.0369803">
        <ele>84.0</ele>
        <time>2013-09-29T08:31:40Z</time>
      </trkpt>
      <trkpt lat="52.2189615" lon="21.0369344">
        <ele>84.0</ele>
        <time>2013-09-29T08:31:44Z</time>
      </trkpt>
      <trkpt lat="52.219132" lon="21.0369209">
        <ele>84.2</ele>
        <time>2013-09-29T08:31:48Z</time>
      </trkpt>
      <trkpt lat="52.2192014" lon="21.0368448">
        <ele>84.2</ele>
        <time>2013-09-29T08:31:52Z</time>
      </trkpt>
      <trkpt lat="52.2192734" lon="21.0367917">
        <ele>84.0</ele>
        <time>2013-09-29T08:31:55Z</time>
      </trkpt>
      <trkpt lat="52.2193436" lon="21.0367143">
        <ele>84.0</ele>
        <time>2013-09-29T08:32:00Z</time>
      </trkpt>
      <trkpt lat="52.2194256" lon="21.0366779">
        <ele>84.0</ele>
        <time>2013-09-29T08:32:03Z</time>
      </trkpt>
      <trkpt lat="52.219564" lon="21.0366257">
        <ele>84.0</ele>
        <time>2013-09-29T08:32:08Z</time>
      </trkpt>
      <trkpt lat="52.219629" lon="21.0365961">
        <ele>84.0</ele>
        <time>2013-09-29T08:32:11Z</time>
      </trkpt>
      <trkpt lat="52.2196867" lon="21.0365749">
        <ele>84.0</ele>
        <time>2013-09-29T08:32:13Z</time>
      </trkpt>
      <trkpt lat="52.2197955" lon="21.0365226">
        <ele>84.0</ele>
        <time>2013-09-29T08:32:17Z</time>
      </trkpt>
      <trkpt lat="52.219943" lon="21.0364609">
        <ele>84.2</ele>
        <time>2013-09-29T08:32:22Z</time>
      </trkpt>
      <trkpt lat="52.2200855" lon="21.0364076">
        <ele>84.2</ele>
        <time>2013-09-29T08:32:27Z</time>
      </trkpt>
      <trkpt lat="52.2201923" lon="21.0363676">
        <ele>84.2</ele>
        <time>2013-09-29T08:32:31Z</time>
      </trkpt>
      <trkpt lat="52.2203063" lon="21.0363491">
        <ele>84.2</ele>
        <time>2013-09-29T08:32:34Z</time>
      </trkpt>
      <trkpt lat="52.220417" lon="21.036322">
        <ele>84.4</ele>
        <time>2013-09-29T08:32:38Z</time>
      </trkpt>
      <trkpt lat="52.220572" lon="21.0363245">
        <ele>84.4</ele>
        <time>2013-09-29T08:32:42Z</time>
      </trkpt>
      <trkpt lat="52.2206424" lon="21.0362657">
        <ele>84.4</ele>
        <time>2013-09-29T08:32:46Z</time>
      </trkpt>
      <trkpt lat="52.2207134" lon="21.0361999">
        <ele>84.4</ele>
        <time>2013-09-29T08:32:50Z</time>
      </trkpt>
      <trkpt lat="52.2208683" lon="21.036147">
        <ele>84.6</ele>
        <time>2013-09-29T08:32:55Z</time>
      </trkpt>
      <trkpt lat="52.2210049" lon="21.0361247">
        <ele>84.6</ele>
        <time>2013-09-29T08:32:59Z</time>
      </trkpt>
      <trkpt lat="52.2211113" lon="21.0360905">
        <ele>84.8</ele>
        <time>2013-09-29T08:33:03Z</time>
      </trkpt>
      <trkpt lat="52.2212304" lon="21.0360372">
        <ele>84.8</ele>
        <time>2013-09-29T08:33:08Z</time>
      </trkpt>
      <trkpt lat="52.221324" lon="21.0359921">
        <ele>85.0</ele>
        <time>2013-09-29T08:33:12Z</time>
      </trkpt>
      <trkpt lat="52.2214116" lon="21.0359217">
        <ele>85.0</ele>
        <time>2013-09-29T08:33:17Z</time>
      </trkpt>
      <trkpt lat="52.2215101" lon="21.03586">
        <ele>85.0</ele>
        <time>2013-09-29T08:33:22Z</time>
      </trkpt>
      <trkpt lat="52.2215924" lon="21.0357822">
        <ele>85.0</ele>
        <time>2013-09-29T08:33:26Z</time>
      </trkpt>
      <trkpt lat="52.2216534" lon="21.0356559">
        <ele>85.0</ele>
        <time>2013-09-29T08:33:30Z</time>
      </trkpt>
      <trkpt lat="52.2216762" lon="21.0354926">
        <ele>85.0</ele>
        <time>2013-09-29T08:33:35Z</time>
      </trkpt>
      <trkpt lat="52.2216034" lon="21.0352928">
        <ele>85.0</ele>
        <time>2013-09-29T08:33:40Z</time>
      </trkpt>
      <trkpt lat="52.2215997" lon="21.0352602">
        <ele>85.0</ele>
        <time>2013-09-29T08:33:41Z</time>
      </trkpt>
      <trkpt lat="52.2214442" lon="21.0349818">
        <ele>85.0</ele>
        <time>2013-09-29T08:33:46Z</time>
      </trkpt>
      <trkpt lat="52.2214458" lon="21.0349482">
        <ele>85.0</ele>
        <time>2013-09-29T08:33:47Z</time>
      </trkpt>
      <trkpt lat="52.2214889" lon="21.0345345">
        <ele>85.6</ele>
        <time>2013-09-29T08:33:52Z</time>
      </trkpt>
      <trkpt lat="52.2215618" lon="21.0344448">
        <ele>85.6</ele>
        <time>2013-09-29T08:33:58Z</time>
      </trkpt>
      <trkpt lat="52.221548" lon="21.0343386">
        <ele>85.8</ele>
        <time>2013-09-29T08:34:02Z</time>
      </trkpt>
      <trkpt lat="52.2215708" lon="21.0342609">
        <ele>85.8</ele>
        <time>2013-09-29T08:34:06Z</time>
      </trkpt>
      <trkpt lat="52.2216251" lon="21.0341408">
        <ele>86.0</ele>
        <time>2013-09-29T08:34:10Z</time>
      </trkpt>
      <trkpt lat="52.2216661" lon="21.0339687">
        <ele>86.2</ele>
        <time>2013-09-29T08:34:15Z</time>
      </trkpt>
      <trkpt lat="52.2216868" lon="21.0339077">
        <ele>86.2</ele>
        <time>2013-09-29T08:34:17Z</time>
      </trkpt>
      <trkpt lat="52.2217018" lon="21.0336834">
        <ele>86.6</ele>
        <time>2013-09-29T08:34:22Z</time>
      </trkpt>
      <trkpt lat="52.2217741" lon="21.0335508">
        <ele>87.0</ele>
        <time>2013-09-29T08:34:25Z</time>
      </trkpt>
      <trkpt lat="52.2217912" lon="21.0333741">
        <ele>87.4</ele>
        <time>2013-09-29T08:34:29Z</time>
      </trkpt>
      <trkpt lat="52.2216127" lon="21.033298">
        <ele>87.0</ele>
        <time>2013-09-29T08:34:34Z</time>
      </trkpt>
      <trkpt lat="52.221378" lon="21.0332742">
        <ele>86.6</ele>
        <time>2013-09-29T08:34:39Z</time>
      </trkpt>
      <trkpt lat="52.221222" lon="21.0332166">
        <ele>86.4</ele>
        <time>2013-09-29T08:34:41Z</time>
      </trkpt>
      <trkpt lat="52.2211028" lon="21.0332969">
        <ele>85.8</ele>
        <time>2013-09-29T08:34:45Z</time>
      </trkpt>
      <trkpt lat="52.2209859" lon="21.0332874">
        <ele>85.4</ele>
        <time>2013-09-29T08:34:51Z</time>
      </trkpt>
      <trkpt lat="52.2208471" lon="21.0332782">
        <ele>85.2</ele>
        <time>2013-09-29T08:34:56Z</time>
      </trkpt>
      <trkpt lat="52.2206896" lon="21.0332446">
        <ele>84.8</ele>
        <time>2013-09-29T08:35:02Z</time>
      </trkpt>
      <trkpt lat="52.2205689" lon="21.0332622">
        <ele>84.6</ele>
        <time>2013-09-29T08:35:06Z</time>
      </trkpt>
      <trkpt lat="52.2204294" lon="21.0332724">
        <ele>84.2</ele>
        <time>2013-09-29T08:35:11Z</time>
      </trkpt>
      <trkpt lat="52.2203192" lon="21.0332674">
        <ele>84.0</ele>
        <time>2013-09-29T08:35:15Z</time>
      </trkpt>
      <trkpt lat="52.2202131" lon="21.0332699">
        <ele>83.6</ele>
        <time>2013-09-29T08:35:19Z</time>
      </trkpt>
      <trkpt lat="52.2201165" lon="21.0332631">
        <ele>83.6</ele>
        <time>2013-09-29T08:35:24Z</time>
      </trkpt>
      <trkpt lat="52.2200315" lon="21.03327">
        <ele>83.2</ele>
        <time>2013-09-29T08:35:27Z</time>
      </trkpt>
      <trkpt lat="52.2199105" lon="21.0332353">
        <ele>83.6</ele>
        <time>2013-09-29T08:35:32Z</time>
      </trkpt>
      <trkpt lat="52.2198513" lon="21.0332312">
        <ele>83.8</ele>
        <time>2013-09-29T08:35:34Z</time>
      </trkpt>
      <trkpt lat="52.219664" lon="21.0332232">
        <ele>84.4</ele>
        <time>2013-09-29T08:35:40Z</time>
      </trkpt>
      <trkpt lat="52.2195209" lon="21.0331716">
        <ele>85.0</ele>
        <time>2013-09-29T08:35:44Z</time>
      </trkpt>
      <trkpt lat="52.2194039" lon="21.0331623">
        <ele>85.2</ele>
        <time>2013-09-29T08:35:49Z</time>
      </trkpt>
      <trkpt lat="52.2193096" lon="21.0331472">
        <ele>85.6</ele>
        <time>2013-09-29T08:35:53Z</time>
      </trkpt>
      <trkpt lat="52.2192206" lon="21.0331519">
        <ele>85.8</ele>
        <time>2013-09-29T08:35:57Z</time>
      </trkpt>
      <trkpt lat="52.2191978" lon="21.0331555">
        <ele>85.8</ele>
        <time>2013-09-29T08:35:58Z</time>
      </trkpt>
      <trkpt lat="52.2190361" lon="21.0332151">
        <ele>86.0</ele>
        <time>2013-09-29T08:36:04Z</time>
      </trkpt>
      <trkpt lat="52.2189397" lon="21.0332445">
        <ele>86.0</ele>
        <time>2013-09-29T08:36:08Z</time>
      </trkpt>
      <trkpt lat="52.2188103" lon="21.03324">
        <ele>86.0</ele>
        <time>2013-09-29T08:36:13Z</time>
      </trkpt>
      <trkpt lat="52.2187176" lon="21.0332206">
        <ele>86.0</ele>
        <time>2013-09-29T08:36:17Z</time>
      </trkpt>
      <trkpt lat="52.2185953" lon="21.0332273">
        <ele>86.0</ele>
        <time>2013-09-29T08:36:22Z</time>
      </trkpt>
      <trkpt lat="52.2184812" lon="21.0332229">
        <ele>86.0</ele>
        <time>2013-09-29T08:36:26Z</time>
      </trkpt>
      <trkpt lat="52.2183415" lon="21.0332037">
        <ele>86.0</ele>
        <time>2013-09-29T08:36:30Z</time>
      </trkpt>
      <trkpt lat="52.2182027" lon="21.0331876">
        <ele>86.8</ele>
        <time>2013-09-29T08:36:35Z</time>
      </trkpt>
      <trkpt lat="52.2180939" lon="21.0331643">
        <ele>87.4</ele>
        <time>2013-09-29T08:36:40Z</time>
      </trkpt>
      <trkpt lat="52.2180146" lon="21.0331227">
        <ele>87.8</ele>
        <time>2013-09-29T08:36:44Z</time>
      </trkpt>
      <trkpt lat="52.2178748" lon="21.0331456">
        <ele>88.4</ele>
        <time>2013-09-29T08:36:49Z</time>
      </trkpt>
      <trkpt lat="52.2177036" lon="21.0331419">
        <ele>89.4</ele>
        <time>2013-09-29T08:36:55Z</time>
      </trkpt>
      <trkpt lat="52.21755" lon="21.0331327">
        <ele>90.2</ele>
        <time>2013-09-29T08:37:00Z</time>
      </trkpt>
      <trkpt lat="52.2173738" lon="21.0331553">
        <ele>90.4</ele>
        <time>2013-09-29T08:37:05Z</time>
      </trkpt>
      <trkpt lat="52.2172784" lon="21.0331652">
        <ele>90.4</ele>
        <time>2013-09-29T08:37:09Z</time>
      </trkpt>
      <trkpt lat="52.217193" lon="21.0331616">
        <ele>90.4</ele>
        <time>2013-09-29T08:37:14Z</time>
      </trkpt>
      <trkpt lat="52.2170966" lon="21.0331467">
        <ele>90.4</ele>
        <time>2013-09-29T08:37:19Z</time>
      </trkpt>
      <trkpt lat="52.2169843" lon="21.0331742">
        <ele>90.4</ele>
        <time>2013-09-29T08:37:23Z</time>
      </trkpt>
      <trkpt lat="52.2168862" lon="21.033111">
        <ele>90.6</ele>
        <time>2013-09-29T08:37:27Z</time>
      </trkpt>
      <trkpt lat="52.216807" lon="21.0330856">
        <ele>90.8</ele>
        <time>2013-09-29T08:37:30Z</time>
      </trkpt>
      <trkpt lat="52.2166507" lon="21.0331162">
        <ele>90.8</ele>
        <time>2013-09-29T08:37:35Z</time>
      </trkpt>
      <trkpt lat="52.2165547" lon="21.0331509">
        <ele>90.8</ele>
        <time>2013-09-29T08:37:39Z</time>
      </trkpt>
      <trkpt lat="52.2164165" lon="21.0331136">
        <ele>91.2</ele>
        <time>2013-09-29T08:37:45Z</time>
      </trkpt>
      <trkpt lat="52.2162497" lon="21.033103">
        <ele>91.6</ele>
        <time>2013-09-29T08:37:51Z</time>
      </trkpt>
      <trkpt lat="52.2162273" lon="21.0331057">
        <ele>91.6</ele>
        <time>2013-09-29T08:37:52Z</time>
      </trkpt>
      <trkpt lat="52.2160506" lon="21.0330814">
        <ele>92.0</ele>
        <time>2013-09-29T08:37:58Z</time>
      </trkpt>
      <trkpt lat="52.2159657" lon="21.0330488">
        <ele>92.4</ele>
        <time>2013-09-29T08:38:02Z</time>
      </trkpt>
      <trkpt lat="52.2157571" lon="21.0330321">
        <ele>92.4</ele>
        <time>2013-09-29T08:38:09Z</time>
      </trkpt>
      <trkpt lat="52.215595" lon="21.033015">
        <ele>92.0</ele>
        <time>2013-09-29T08:38:14Z</time>
      </trkpt>
      <trkpt lat="52.2154334" lon="21.0330005">
        <ele>91.8</ele>
        <time>2013-09-29T08:38:18Z</time>
      </trkpt>
      <trkpt lat="52.2153503" lon="21.0330176">
        <ele>91.4</ele>
        <time>2013-09-29T08:38:22Z</time>
      </trkpt>
      <trkpt lat="52.2152427" lon="21.0330037">
        <ele>91.2</ele>
        <time>2013-09-29T08:38:27Z</time>
      </trkpt>
      <trkpt lat="52.2151363" lon="21.0330105">
        <ele>91.0</ele>
        <time>2013-09-29T08:38:31Z</time>
      </trkpt>
      <trkpt lat="52.2151163" lon="21.0330115">
        <ele>91.0</ele>
        <time>2013-09-29T08:38:32Z</time>
      </trkpt>
      <trkpt lat="52.2149858" lon="21.0330126">
        <ele>90.8</ele>
        <time>2013-09-29T08:38:37Z</time>
      </trkpt>
      <trkpt lat="52.2148159" lon="21.0330333">
        <ele>91.2</ele>
        <time>2013-09-29T08:38:43Z</time>
      </trkpt>
      <trkpt lat="52.2146988" lon="21.0330182">
        <ele>91.4</ele>
        <time>2013-09-29T08:38:48Z</time>
      </trkpt>
      <trkpt lat="52.2146069" lon="21.0329804">
        <ele>91.8</ele>
        <time>2013-09-29T08:38:52Z</time>
      </trkpt>
      <trkpt lat="52.2145075" lon="21.0329898">
        <ele>92.0</ele>
        <time>2013-09-29T08:38:56Z</time>
      </trkpt>
      <trkpt lat="52.2143728" lon="21.0330114">
        <ele>92.4</ele>
        <time>2013-09-29T08:39:01Z</time>
      </trkpt>
      <trkpt lat="52.2142171" lon="21.0329877">
        <ele>92.8</ele>
        <time>2013-09-29T08:39:07Z</time>
      </trkpt>
      <trkpt lat="52.2140819" lon="21.0329544">
        <ele>92.8</ele>
        <time>2013-09-29T08:39:12Z</time>
      </trkpt>
      <trkpt lat="52.213969" lon="21.0329955">
        <ele>92.6</ele>
        <time>2013-09-29T08:39:16Z</time>
      </trkpt>
      <trkpt lat="52.2138757" lon="21.0330172">
        <ele>92.6</ele>
        <time>2013-09-29T08:39:20Z</time>
      </trkpt>
      <trkpt lat="52.2137792" lon="21.0329979">
        <ele>92.4</ele>
        <time>2013-09-29T08:39:24Z</time>
      </trkpt>
      <trkpt lat="52.2136582" lon="21.0329761">
        <ele>92.2</ele>
        <time>2013-09-29T08:39:29Z</time>
      </trkpt>
      <trkpt lat="52.2135885" lon="21.032957">
        <ele>92.2</ele>
        <time>2013-09-29T08:39:32Z</time>
      </trkpt>
      <trkpt lat="52.2134691" lon="21.0329197">
        <ele>92.0</ele>
        <time>2013-09-29T08:39:37Z</time>
      </trkpt>
      <trkpt lat="52.2134235" lon="21.0329114">
        <ele>92.0</ele>
        <time>2013-09-29T08:39:39Z</time>
      </trkpt>
      <trkpt lat="52.2132738" lon="21.0330429">
        <ele>91.8</ele>
        <time>2013-09-29T08:39:45Z</time>
      </trkpt>
      <trkpt lat="52.2131477" lon="21.0332135">
        <ele>91.8</ele>
        <time>2013-09-29T08:39:51Z</time>
      </trkpt>
      <trkpt lat="52.2131137" lon="21.0332766">
        <ele>91.8</ele>
        <time>2013-09-29T08:39:53Z</time>
      </trkpt>
      <trkpt lat="52.2130417" lon="21.0333995">
        <ele>91.8</ele>
        <time>2013-09-29T08:39:57Z</time>
      </trkpt>
      <trkpt lat="52.2129417" lon="21.0336335">
        <ele>91.6</ele>
        <time>2013-09-29T08:40:03Z</time>
      </trkpt>
      <trkpt lat="52.2128464" lon="21.0338874">
        <ele>91.2</ele>
        <time>2013-09-29T08:40:09Z</time>
      </trkpt>
      <trkpt lat="52.2127815" lon="21.0341613">
        <ele>91.0</ele>
        <time>2013-09-29T08:40:16Z</time>
      </trkpt>
      <trkpt lat="52.2127729" lon="21.0343184">
        <ele>90.8</ele>
        <time>2013-09-29T08:40:20Z</time>
      </trkpt>
      <trkpt lat="52.2127775" lon="21.0343985">
        <ele>90.8</ele>
        <time>2013-09-29T08:40:22Z</time>
      </trkpt>
      <trkpt lat="52.2127722" lon="21.0345702">
        <ele>90.6</ele>
        <time>2013-09-29T08:40:26Z</time>
      </trkpt>
      <trkpt lat="52.2128008" lon="21.0348173">
        <ele>90.4</ele>
        <time>2013-09-29T08:40:32Z</time>
      </trkpt>
      <trkpt lat="52.2128224" lon="21.0349323">
        <ele>90.2</ele>
        <time>2013-09-29T08:40:35Z</time>
      </trkpt>
      <trkpt lat="52.2128356" lon="21.0350911">
        <ele>89.8</ele>
        <time>2013-09-29T08:40:39Z</time>
      </trkpt>
      <trkpt lat="52.212848" lon="21.0354125">
        <ele>88.4</ele>
        <time>2013-09-29T08:40:46Z</time>
      </trkpt>
      <trkpt lat="52.2128464" lon="21.035634">
        <ele>87.6</ele>
        <time>2013-09-29T08:40:51Z</time>
      </trkpt>
      <trkpt lat="52.2128457" lon="21.0358963">
        <ele>87.0</ele>
        <time>2013-09-29T08:40:57Z</time>
      </trkpt>
      <trkpt lat="52.2128464" lon="21.0361812">
        <ele>87.4</ele>
        <time>2013-09-29T08:41:04Z</time>
      </trkpt>
      <trkpt lat="52.2128546" lon="21.0363983">
        <ele>87.6</ele>
        <time>2013-09-29T08:41:09Z</time>
      </trkpt>
      <trkpt lat="52.2128449" lon="21.0365783">
        <ele>87.8</ele>
        <time>2013-09-29T08:41:14Z</time>
      </trkpt>
      <trkpt lat="52.2127515" lon="21.0366954">
        <ele>88.0</ele>
        <time>2013-09-29T08:41:18Z</time>
      </trkpt>
      <trkpt lat="52.2125916" lon="21.0367412">
        <ele>88.0</ele>
        <time>2013-09-29T08:41:24Z</time>
      </trkpt>
      <trkpt lat="52.2124411" lon="21.0367748">
        <ele>88.2</ele>
        <time>2013-09-29T08:41:29Z</time>
      </trkpt>
      <trkpt lat="52.2123268" lon="21.0368298">
        <ele>88.6</ele>
        <time>2013-09-29T08:41:33Z</time>
      </trkpt>
      <trkpt lat="52.2121889" lon="21.0369142">
        <ele>89.0</ele>
        <time>2013-09-29T08:41:39Z</time>
      </trkpt>
      <trkpt lat="52.2120978" lon="21.036936">
        <ele>89.0</ele>
        <time>2013-09-29T08:41:43Z</time>
      </trkpt>
      <trkpt lat="52.211985" lon="21.0370365">
        <ele>89.2</ele>
        <time>2013-09-29T08:41:47Z</time>
      </trkpt>
      <trkpt lat="52.2118757" lon="21.0370559">
        <ele>89.2</ele>
        <time>2013-09-29T08:41:51Z</time>
      </trkpt>
      <trkpt lat="52.2117187" lon="21.0370649">
        <ele>89.4</ele>
        <time>2013-09-29T08:41:56Z</time>
      </trkpt>
      <trkpt lat="52.2116136" lon="21.0371157">
        <ele>89.4</ele>
        <time>2013-09-29T08:42:00Z</time>
      </trkpt>
      <trkpt lat="52.2115126" lon="21.0371447">
        <ele>89.2</ele>
        <time>2013-09-29T08:42:04Z</time>
      </trkpt>
      <trkpt lat="52.2113525" lon="21.0371929">
        <ele>89.2</ele>
        <time>2013-09-29T08:42:10Z</time>
      </trkpt>
      <trkpt lat="52.21118" lon="21.0372513">
        <ele>89.0</ele>
        <time>2013-09-29T08:42:16Z</time>
      </trkpt>
      <trkpt lat="52.2110619" lon="21.0372732">
        <ele>88.8</ele>
        <time>2013-09-29T08:42:21Z</time>
      </trkpt>
      <trkpt lat="52.210953" lon="21.0373457">
        <ele>88.6</ele>
        <time>2013-09-29T08:42:25Z</time>
      </trkpt>
      <trkpt lat="52.2107966" lon="21.0374465">
        <ele>88.0</ele>
        <time>2013-09-29T08:42:31Z</time>
      </trkpt>
      <trkpt lat="52.2106835" lon="21.037476">
        <ele>87.4</ele>
        <time>2013-09-29T08:42:36Z</time>
      </trkpt>
      <trkpt lat="52.2105764" lon="21.0375239">
        <ele>87.0</ele>
        <time>2013-09-29T08:42:41Z</time>
      </trkpt>
      <trkpt lat="52.2104491" lon="21.0375714">
        <ele>86.4</ele>
        <time>2013-09-29T08:42:46Z</time>
      </trkpt>
      <trkpt lat="52.2103206" lon="21.0376176">
        <ele>85.8</ele>
        <time>2013-09-29T08:42:51Z</time>
      </trkpt>
      <trkpt lat="52.2101884" lon="21.0376067">
        <ele>85.4</ele>
        <time>2013-09-29T08:42:56Z</time>
      </trkpt>
      <trkpt lat="52.2100663" lon="21.0375684">
        <ele>85.0</ele>
        <time>2013-09-29T08:43:01Z</time>
      </trkpt>
      <trkpt lat="52.2099998" lon="21.0374591">
        <ele>85.0</ele>
        <time>2013-09-29T08:43:04Z</time>
      </trkpt>
      <trkpt lat="52.2099003" lon="21.0373409">
        <ele>85.6</ele>
        <time>2013-09-29T08:43:08Z</time>
      </trkpt>
      <trkpt lat="52.2098091" lon="21.0372912">
        <ele>86.0</ele>
        <time>2013-09-29T08:43:12Z</time>
      </trkpt>
      <trkpt lat="52.2096923" lon="21.0373042">
        <ele>86.4</ele>
        <time>2013-09-29T08:43:16Z</time>
      </trkpt>
      <trkpt lat="52.2096689" lon="21.0374843">
        <ele>86.2</ele>
        <time>2013-09-29T08:43:21Z</time>
      </trkpt>
      <trkpt lat="52.2096698" lon="21.0375239">
        <ele>86.0</ele>
        <time>2013-09-29T08:43:22Z</time>
      </trkpt>
      <trkpt lat="52.2096343" lon="21.037763">
        <ele>85.8</ele>
        <time>2013-09-29T08:43:28Z</time>
      </trkpt>
      <trkpt lat="52.2096537" lon="21.038059">
        <ele>85.2</ele>
        <time>2013-09-29T08:43:35Z</time>
      </trkpt>
      <trkpt lat="52.2096677" lon="21.0382802">
        <ele>84.8</ele>
        <time>2013-09-29T08:43:40Z</time>
      </trkpt>
      <trkpt lat="52.2096871" lon="21.0385028">
        <ele>84.8</ele>
        <time>2013-09-29T08:43:45Z</time>
      </trkpt>
      <trkpt lat="52.2096969" lon="21.03872">
        <ele>84.8</ele>
        <time>2013-09-29T08:43:50Z</time>
      </trkpt>
      <trkpt lat="52.2097047" lon="21.0389779">
        <ele>84.8</ele>
        <time>2013-09-29T08:43:56Z</time>
      </trkpt>
      <trkpt lat="52.2097223" lon="21.0392256">
        <ele>85.0</ele>
        <time>2013-09-29T08:44:02Z</time>
      </trkpt>
      <trkpt lat="52.2097358" lon="21.0394522">
        <ele>85.2</ele>
        <time>2013-09-29T08:44:07Z</time>
      </trkpt>
      <trkpt lat="52.2097394" lon="21.0396793">
        <ele>85.4</ele>
        <time>2013-09-29T08:44:12Z</time>
      </trkpt>
      <trkpt lat="52.209745" lon="21.0399034">
        <ele>85.6</ele>
        <time>2013-09-29T08:44:17Z</time>
      </trkpt>
      <trkpt lat="52.2097487" lon="21.0400906">
        <ele>85.8</ele>
        <time>2013-09-29T08:44:21Z</time>
      </trkpt>
      <trkpt lat="52.2097604" lon="21.040381">
        <ele>86.0</ele>
        <time>2013-09-29T08:44:28Z</time>
      </trkpt>
      <trkpt lat="52.2097658" lon="21.0405947">
        <ele>86.4</ele>
        <time>2013-09-29T08:44:33Z</time>
      </trkpt>
      <trkpt lat="52.2097586" lon="21.0408361">
        <ele>86.6</ele>
        <time>2013-09-29T08:44:39Z</time>
      </trkpt>
      <trkpt lat="52.2097548" lon="21.0410986">
        <ele>86.0</ele>
        <time>2013-09-29T08:44:45Z</time>
      </trkpt>
      <trkpt lat="52.2097565" lon="21.0411808">
        <ele>85.8</ele>
        <time>2013-09-29T08:44:47Z</time>
      </trkpt>
      <trkpt lat="52.2097513" lon="21.0413872">
        <ele>85.4</ele>
        <time>2013-09-29T08:44:52Z</time>
      </trkpt>
      <trkpt lat="52.2097617" lon="21.0415312">
        <ele>85.2</ele>
        <time>2013-09-29T08:44:55Z</time>
      </trkpt>
      <trkpt lat="52.209756" lon="21.041713">
        <ele>84.8</ele>
        <time>2013-09-29T08:44:59Z</time>
      </trkpt>
      <trkpt lat="52.2097752" lon="21.0419242">
        <ele>84.8</ele>
        <time>2013-09-29T08:45:04Z</time>
      </trkpt>
      <trkpt lat="52.2097855" lon="21.0421124">
        <ele>84.8</ele>
        <time>2013-09-29T08:45:08Z</time>
      </trkpt>
      <trkpt lat="52.2097902" lon="21.0423341">
        <ele>84.8</ele>
        <time>2013-09-29T08:45:13Z</time>
      </trkpt>
      <trkpt lat="52.2097974" lon="21.0426066">
        <ele>84.4</ele>
        <time>2013-09-29T08:45:19Z</time>
      </trkpt>
      <trkpt lat="52.2098316" lon="21.0427947">
        <ele>84.0</ele>
        <time>2013-09-29T08:45:23Z</time>
      </trkpt>
      <trkpt lat="52.2098409" lon="21.0430262">
        <ele>83.8</ele>
        <time>2013-09-29T08:45:28Z</time>
      </trkpt>
      <trkpt lat="52.2098523" lon="21.0432148">
        <ele>83.4</ele>
        <time>2013-09-29T08:45:32Z</time>
      </trkpt>
      <trkpt lat="52.2098544" lon="21.0433021">
        <ele>83.2</ele>
        <time>2013-09-29T08:45:34Z</time>
      </trkpt>
      <trkpt lat="52.2098196" lon="21.043524">
        <ele>83.6</ele>
        <time>2013-09-29T08:45:39Z</time>
      </trkpt>
      <trkpt lat="52.2098164" lon="21.0436504">
        <ele>83.6</ele>
        <time>2013-09-29T08:45:42Z</time>
      </trkpt>
      <trkpt lat="52.2098036" lon="21.0438679">
        <ele>83.8</ele>
        <time>2013-09-29T08:45:47Z</time>
      </trkpt>
      <trkpt lat="52.209815" lon="21.0441151">
        <ele>84.0</ele>
        <time>2013-09-29T08:45:52Z</time>
      </trkpt>
      <trkpt lat="52.2098161" lon="21.0443076">
        <ele>84.2</ele>
        <time>2013-09-29T08:45:56Z</time>
      </trkpt>
      <trkpt lat="52.2098228" lon="21.0445294">
        <ele>84.4</ele>
        <time>2013-09-29T08:46:01Z</time>
      </trkpt>
      <trkpt lat="52.2098585" lon="21.0447242">
        <ele>84.6</ele>
        <time>2013-09-29T08:46:06Z</time>
      </trkpt>
      <trkpt lat="52.2099637" lon="21.044853">
        <ele>84.6</ele>
        <time>2013-09-29T08:46:11Z</time>
      </trkpt>
      <trkpt lat="52.2101072" lon="21.0448879">
        <ele>85.0</ele>
        <time>2013-09-29T08:46:16Z</time>
      </trkpt>
      <trkpt lat="52.2102143" lon="21.0449195">
        <ele>85.0</ele>
        <time>2013-09-29T08:46:20Z</time>
      </trkpt>
      <trkpt lat="52.2103029" lon="21.0449563">
        <ele>85.2</ele>
        <time>2013-09-29T08:46:24Z</time>
      </trkpt>
      <trkpt lat="52.2103703" lon="21.0449827">
        <ele>85.4</ele>
        <time>2013-09-29T08:46:30Z</time>
      </trkpt>
      <trkpt lat="52.2104698" lon="21.0450066">
        <ele>85.4</ele>
        <time>2013-09-29T08:46:34Z</time>
      </trkpt>
      <trkpt lat="52.2106174" lon="21.045049">
        <ele>85.6</ele>
        <time>2013-09-29T08:46:38Z</time>
      </trkpt>
      <trkpt lat="52.2106505" lon="21.0450639">
        <ele>85.6</ele>
        <time>2013-09-29T08:46:39Z</time>
      </trkpt>
      <trkpt lat="52.210806" lon="21.0450991">
        <ele>85.8</ele>
        <time>2013-09-29T08:46:43Z</time>
      </trkpt>
      <trkpt lat="52.2109627" lon="21.0451402">
        <ele>86.0</ele>
        <time>2013-09-29T08:46:49Z</time>
      </trkpt>
      <trkpt lat="52.2110254" lon="21.0451692">
        <ele>86.0</ele>
        <time>2013-09-29T08:46:54Z</time>
      </trkpt>
      <trkpt lat="52.211113" lon="21.0451578">
        <ele>86.2</ele>
        <time>2013-09-29T08:46:58Z</time>
      </trkpt>
      <trkpt lat="52.2111764" lon="21.0451542">
        <ele>86.2</ele>
        <time>2013-09-29T08:47:02Z</time>
      </trkpt>
      <trkpt lat="52.2112701" lon="21.0451866">
        <ele>86.4</ele>
        <time>2013-09-29T08:47:05Z</time>
      </trkpt>
      <trkpt lat="52.2114302" lon="21.0452355">
        <ele>86.4</ele>
        <time>2013-09-29T08:47:09Z</time>
      </trkpt>
      <trkpt lat="52.2115509" lon="21.0452858">
        <ele>86.4</ele>
        <time>2013-09-29T08:47:13Z</time>
      </trkpt>
      <trkpt lat="52.2116559" lon="21.0453328">
        <ele>86.4</ele>
        <time>2013-09-29T08:47:17Z</time>
      </trkpt>
      <trkpt lat="52.211676" lon="21.0453508">
        <ele>86.4</ele>
        <time>2013-09-29T08:47:20Z</time>
      </trkpt>
      <trkpt lat="52.2118296" lon="21.045424">
        <ele>86.4</ele>
        <time>2013-09-29T08:47:26Z</time>
      </trkpt>
      <trkpt lat="52.2119839" lon="21.0454514">
        <ele>86.4</ele>
        <time>2013-09-29T08:47:30Z</time>
      </trkpt>
      <trkpt lat="52.2122046" lon="21.0455048">
        <ele>86.2</ele>
        <time>2013-09-29T08:47:35Z</time>
      </trkpt>
      <trkpt lat="52.2122818" lon="21.0455437">
        <ele>86.2</ele>
        <time>2013-09-29T08:47:38Z</time>
      </trkpt>
      <trkpt lat="52.2123958" lon="21.0455141">
        <ele>86.2</ele>
        <time>2013-09-29T08:47:43Z</time>
      </trkpt>
      <trkpt lat="52.2125335" lon="21.0455422">
        <ele>86.2</ele>
        <time>2013-09-29T08:47:46Z</time>
      </trkpt>
      <trkpt lat="52.2127536" lon="21.0456344">
        <ele>85.2</ele>
        <time>2013-09-29T08:47:51Z</time>
      </trkpt>
      <trkpt lat="52.2129339" lon="21.0458005">
        <ele>84.4</ele>
        <time>2013-09-29T08:47:55Z</time>
      </trkpt>
      <trkpt lat="52.2131254" lon="21.0460638">
        <ele>83.6</ele>
        <time>2013-09-29T08:48:01Z</time>
      </trkpt>
      <trkpt lat="52.2131153" lon="21.0462568">
        <ele>83.6</ele>
        <time>2013-09-29T08:48:05Z</time>
      </trkpt>
      <trkpt lat="52.2131117" lon="21.0463487">
        <ele>83.6</ele>
        <time>2013-09-29T08:48:07Z</time>
      </trkpt>
      <trkpt lat="52.2130039" lon="21.0465844">
        <ele>83.8</ele>
        <time>2013-09-29T08:48:12Z</time>
      </trkpt>
      <trkpt lat="52.2127857" lon="21.0467401">
        <ele>84.2</ele>
        <time>2013-09-29T08:48:17Z</time>
      </trkpt>
      <trkpt lat="52.2126429" lon="21.046806">
        <ele>84.4</ele>
        <time>2013-09-29T08:48:21Z</time>
      </trkpt>
      <trkpt lat="52.2125764" lon="21.0468349">
        <ele>84.6</ele>
        <time>2013-09-29T08:48:23Z</time>
      </trkpt>
      <trkpt lat="52.2124579" lon="21.0469009">
        <ele>84.6</ele>
        <time>2013-09-29T08:48:27Z</time>
      </trkpt>
      <trkpt lat="52.2124014" lon="21.0469336">
        <ele>84.4</ele>
        <time>2013-09-29T08:48:29Z</time>
      </trkpt>
      <trkpt lat="52.2122283" lon="21.0470045">
        <ele>84.4</ele>
        <time>2013-09-29T08:48:35Z</time>
      </trkpt>
      <trkpt lat="52.2120858" lon="21.0470952">
        <ele>84.2</ele>
        <time>2013-09-29T08:48:40Z</time>
      </trkpt>
      <trkpt lat="52.2119397" lon="21.0471499">
        <ele>84.0</ele>
        <time>2013-09-29T08:48:45Z</time>
      </trkpt>
      <trkpt lat="52.2118332" lon="21.0471983">
        <ele>84.0</ele>
        <time>2013-09-29T08:48:49Z</time>
      </trkpt>
      <trkpt lat="52.2116814" lon="21.0472318">
        <ele>84.0</ele>
        <time>2013-09-29T08:48:55Z</time>
      </trkpt>
      <trkpt lat="52.211528" lon="21.0473998">
        <ele>84.2</ele>
        <time>2013-09-29T08:49:01Z</time>
      </trkpt>
      <trkpt lat="52.2113717" lon="21.0474842">
        <ele>84.6</ele>
        <time>2013-09-29T08:49:07Z</time>
      </trkpt>
      <trkpt lat="52.2112535" lon="21.0474448">
        <ele>85.0</ele>
        <time>2013-09-29T08:49:11Z</time>
      </trkpt>
      <trkpt lat="52.2111369" lon="21.0473987">
        <ele>85.2</ele>
        <time>2013-09-29T08:49:15Z</time>
      </trkpt>
      <trkpt lat="52.2110162" lon="21.0473697">
        <ele>85.6</ele>
        <time>2013-09-29T08:49:19Z</time>
      </trkpt>
      <trkpt lat="52.2108872" lon="21.0473706">
        <ele>86.0</ele>
        <time>2013-09-29T08:49:24Z</time>
      </trkpt>
      <trkpt lat="52.2108138" lon="21.0473643">
        <ele>86.2</ele>
        <time>2013-09-29T08:49:29Z</time>
      </trkpt>
      <trkpt lat="52.2106707" lon="21.0474919">
        <ele>86.2</ele>
        <time>2013-09-29T08:49:34Z</time>
      </trkpt>
      <trkpt lat="52.2106421" lon="21.0475013">
        <ele>86.4</ele>
        <time>2013-09-29T08:49:35Z</time>
      </trkpt>
      <trkpt lat="52.2104574" lon="21.047537">
        <ele>86.8</ele>
        <time>2013-09-29T08:49:41Z</time>
      </trkpt>
      <trkpt lat="52.2103251" lon="21.0475919">
        <ele>87.0</ele>
        <time>2013-09-29T08:49:46Z</time>
      </trkpt>
      <trkpt lat="52.2100988" lon="21.0475878">
        <ele>87.6</ele>
        <time>2013-09-29T08:49:51Z</time>
      </trkpt>
      <trkpt lat="52.210016" lon="21.0475572">
        <ele>87.8</ele>
        <time>2013-09-29T08:49:52Z</time>
      </trkpt>
      <trkpt lat="52.2097895" lon="21.0474799">
        <ele>87.4</ele>
        <time>2013-09-29T08:49:55Z</time>
      </trkpt>
      <trkpt lat="52.2097451" lon="21.0475448">
        <ele>87.2</ele>
        <time>2013-09-29T08:49:59Z</time>
      </trkpt>
      <trkpt lat="52.209757" lon="21.0476059">
        <ele>87.2</ele>
        <time>2013-09-29T08:50:02Z</time>
      </trkpt>
      <trkpt lat="52.2096798" lon="21.0476945">
        <ele>86.8</ele>
        <time>2013-09-29T08:50:08Z</time>
      </trkpt>
      <trkpt lat="52.2095685" lon="21.0477432">
        <ele>86.6</ele>
        <time>2013-09-29T08:50:13Z</time>
      </trkpt>
      <trkpt lat="52.2095512" lon="21.0477432">
        <ele>86.6</ele>
        <time>2013-09-29T08:50:14Z</time>
      </trkpt>
      <trkpt lat="52.2094752" lon="21.0477587">
        <ele>86.4</ele>
        <time>2013-09-29T08:50:18Z</time>
      </trkpt>
      <trkpt lat="52.2093623" lon="21.0477896">
        <ele>86.0</ele>
        <time>2013-09-29T08:50:23Z</time>
      </trkpt>
      <trkpt lat="52.2093188" lon="21.0477919">
        <ele>86.0</ele>
        <time>2013-09-29T08:50:25Z</time>
      </trkpt>
      <trkpt lat="52.2091592" lon="21.0478924">
        <ele>85.4</ele>
        <time>2013-09-29T08:50:31Z</time>
      </trkpt>
      <trkpt lat="52.2090176" lon="21.0479323">
        <ele>85.8</ele>
        <time>2013-09-29T08:50:37Z</time>
      </trkpt>
      <trkpt lat="52.2088628" lon="21.0479488">
        <ele>86.2</ele>
        <time>2013-09-29T08:50:43Z</time>
      </trkpt>
      <trkpt lat="52.208763" lon="21.0479701">
        <ele>86.6</ele>
        <time>2013-09-29T08:50:47Z</time>
      </trkpt>
      <trkpt lat="52.2086195" lon="21.0480032">
        <ele>86.8</ele>
        <time>2013-09-29T08:50:52Z</time>
      </trkpt>
      <trkpt lat="52.2084749" lon="21.0480642">
        <ele>87.2</ele>
        <time>2013-09-29T08:50:57Z</time>
      </trkpt>
      <trkpt lat="52.2083185" lon="21.0481351">
        <ele>87.4</ele>
        <time>2013-09-29T08:51:03Z</time>
      </trkpt>
      <trkpt lat="52.2081802" lon="21.0481425">
        <ele>87.2</ele>
        <time>2013-09-29T08:51:08Z</time>
      </trkpt>
      <trkpt lat="52.2080034" lon="21.0481602">
        <ele>86.8</ele>
        <time>2013-09-29T08:51:14Z</time>
      </trkpt>
      <trkpt lat="52.2078989" lon="21.0481601">
        <ele>86.6</ele>
        <time>2013-09-29T08:51:18Z</time>
      </trkpt>
      <trkpt lat="52.2077974" lon="21.048176">
        <ele>86.6</ele>
        <time>2013-09-29T08:51:22Z</time>
      </trkpt>
      <trkpt lat="52.2076837" lon="21.048186">
        <ele>86.4</ele>
        <time>2013-09-29T08:51:26Z</time>
      </trkpt>
      <trkpt lat="52.2075363" lon="21.048211">
        <ele>86.0</ele>
        <time>2013-09-29T08:51:31Z</time>
      </trkpt>
      <trkpt lat="52.2073933" lon="21.0482711">
        <ele>85.8</ele>
        <time>2013-09-29T08:51:36Z</time>
      </trkpt>
      <trkpt lat="52.2073032" lon="21.0482897">
        <ele>85.4</ele>
        <time>2013-09-29T08:51:40Z</time>
      </trkpt>
      <trkpt lat="52.2071228" lon="21.048299">
        <ele>85.0</ele>
        <time>2013-09-29T08:51:48Z</time>
      </trkpt>
      <trkpt lat="52.2070048" lon="21.0483361">
        <ele>84.8</ele>
        <time>2013-09-29T08:51:53Z</time>
      </trkpt>
      <trkpt lat="52.2069183" lon="21.0483591">
        <ele>84.4</ele>
        <time>2013-09-29T08:51:57Z</time>
      </trkpt>
      <trkpt lat="52.2068275" lon="21.0483792">
        <ele>84.2</ele>
        <time>2013-09-29T08:52:01Z</time>
      </trkpt>
      <trkpt lat="52.2066484" lon="21.0484674">
        <ele>84.0</ele>
        <time>2013-09-29T08:52:08Z</time>
      </trkpt>
      <trkpt lat="52.206505" lon="21.0485445">
        <ele>84.2</ele>
        <time>2013-09-29T08:52:14Z</time>
      </trkpt>
      <trkpt lat="52.2063786" lon="21.0486388">
        <ele>84.4</ele>
        <time>2013-09-29T08:52:19Z</time>
      </trkpt>
      <trkpt lat="52.2062444" lon="21.0486174">
        <ele>84.8</ele>
        <time>2013-09-29T08:52:24Z</time>
      </trkpt>
      <trkpt lat="52.2060849" lon="21.0486264">
        <ele>85.0</ele>
        <time>2013-09-29T08:52:30Z</time>
      </trkpt>
      <trkpt lat="52.2059812" lon="21.0486212">
        <ele>85.2</ele>
        <time>2013-09-29T08:52:34Z</time>
      </trkpt>
      <trkpt lat="52.2058127" lon="21.0486502">
        <ele>85.6</ele>
        <time>2013-09-29T08:52:40Z</time>
      </trkpt>
      <trkpt lat="52.2056881" lon="21.0487207">
        <ele>85.6</ele>
        <time>2013-09-29T08:52:45Z</time>
      </trkpt>
      <trkpt lat="52.2055705" lon="21.0488414">
        <ele>85.4</ele>
        <time>2013-09-29T08:52:50Z</time>
      </trkpt>
      <trkpt lat="52.2053938" lon="21.0488454">
        <ele>85.6</ele>
        <time>2013-09-29T08:52:56Z</time>
      </trkpt>
      <trkpt lat="52.2052596" lon="21.0488533">
        <ele>85.8</ele>
        <time>2013-09-29T08:53:01Z</time>
      </trkpt>
      <trkpt lat="52.2051229" lon="21.0488615">
        <ele>85.8</ele>
        <time>2013-09-29T08:53:06Z</time>
      </trkpt>
      <trkpt lat="52.2049628" lon="21.0489033">
        <ele>85.8</ele>
        <time>2013-09-29T08:53:12Z</time>
      </trkpt>
      <trkpt lat="52.2048415" lon="21.0489331">
        <ele>85.8</ele>
        <time>2013-09-29T08:53:17Z</time>
      </trkpt>
      <trkpt lat="52.2047344" lon="21.0489735">
        <ele>85.6</ele>
        <time>2013-09-29T08:53:21Z</time>
      </trkpt>
      <trkpt lat="52.2045997" lon="21.0490111">
        <ele>85.4</ele>
        <time>2013-09-29T08:53:27Z</time>
      </trkpt>
      <trkpt lat="52.2044464" lon="21.0490448">
        <ele>85.2</ele>
        <time>2013-09-29T08:53:33Z</time>
      </trkpt>
      <trkpt lat="52.2042848" lon="21.0490921">
        <ele>85.0</ele>
        <time>2013-09-29T08:53:39Z</time>
      </trkpt>
      <trkpt lat="52.2041387" lon="21.0491257">
        <ele>85.0</ele>
        <time>2013-09-29T08:53:44Z</time>
      </trkpt>
      <trkpt lat="52.2039759" lon="21.0491631">
        <ele>86.0</ele>
        <time>2013-09-29T08:53:50Z</time>
      </trkpt>
      <trkpt lat="52.203859" lon="21.0492278">
        <ele>86.8</ele>
        <time>2013-09-29T08:53:55Z</time>
      </trkpt>
      <trkpt lat="52.2037398" lon="21.0492527">
        <ele>87.6</ele>
        <time>2013-09-29T08:54:00Z</time>
      </trkpt>
      <trkpt lat="52.2036435" lon="21.0492768">
        <ele>88.0</ele>
        <time>2013-09-29T08:54:04Z</time>
      </trkpt>
      <trkpt lat="52.2034886" lon="21.0492961">
        <ele>89.0</ele>
        <time>2013-09-29T08:54:10Z</time>
      </trkpt>
      <trkpt lat="52.20333" lon="21.0493225">
        <ele>89.6</ele>
        <time>2013-09-29T08:54:16Z</time>
      </trkpt>
      <trkpt lat="52.203228" lon="21.0493376">
        <ele>89.2</ele>
        <time>2013-09-29T08:54:20Z</time>
      </trkpt>
      <trkpt lat="52.2030802" lon="21.0493556">
        <ele>88.2</ele>
        <time>2013-09-29T08:54:25Z</time>
      </trkpt>
      <trkpt lat="52.2029499" lon="21.0494007">
        <ele>87.6</ele>
        <time>2013-09-29T08:54:30Z</time>
      </trkpt>
      <trkpt lat="52.2028566" lon="21.0494464">
        <ele>87.0</ele>
        <time>2013-09-29T08:54:34Z</time>
      </trkpt>
      <trkpt lat="52.2027147" lon="21.0494873">
        <ele>86.4</ele>
        <time>2013-09-29T08:54:39Z</time>
      </trkpt>
      <trkpt lat="52.2025976" lon="21.0495573">
        <ele>85.8</ele>
        <time>2013-09-29T08:54:44Z</time>
      </trkpt>
      <trkpt lat="52.2024655" lon="21.0496116">
        <ele>85.4</ele>
        <time>2013-09-29T08:54:49Z</time>
      </trkpt>
      <trkpt lat="52.2023311" lon="21.0496474">
        <ele>85.4</ele>
        <time>2013-09-29T08:54:54Z</time>
      </trkpt>
      <trkpt lat="52.2021819" lon="21.0496679">
        <ele>85.6</ele>
        <time>2013-09-29T08:55:00Z</time>
      </trkpt>
      <trkpt lat="52.2020526" lon="21.0496935">
        <ele>85.6</ele>
        <time>2013-09-29T08:55:05Z</time>
      </trkpt>
      <trkpt lat="52.2019602" lon="21.0496977">
        <ele>85.6</ele>
        <time>2013-09-29T08:55:10Z</time>
      </trkpt>
      <trkpt lat="52.2018335" lon="21.0497298">
        <ele>85.6</ele>
        <time>2013-09-29T08:55:15Z</time>
      </trkpt>
      <trkpt lat="52.2016889" lon="21.0497748">
        <ele>85.6</ele>
        <time>2013-09-29T08:55:20Z</time>
      </trkpt>
      <trkpt lat="52.2015953" lon="21.0498084">
        <ele>85.6</ele>
        <time>2013-09-29T08:55:23Z</time>
      </trkpt>
      <trkpt lat="52.2014212" lon="21.049894">
        <ele>85.4</ele>
        <time>2013-09-29T08:55:29Z</time>
      </trkpt>
      <trkpt lat="52.2013078" lon="21.0499479">
        <ele>85.4</ele>
        <time>2013-09-29T08:55:33Z</time>
      </trkpt>
      <trkpt lat="52.2011807" lon="21.0499867">
        <ele>85.4</ele>
        <time>2013-09-29T08:55:38Z</time>
      </trkpt>
      <trkpt lat="52.201104" lon="21.0499976">
        <ele>85.2</ele>
        <time>2013-09-29T08:55:41Z</time>
      </trkpt>
      <trkpt lat="52.2010073" lon="21.0500354">
        <ele>85.2</ele>
        <time>2013-09-29T08:55:45Z</time>
      </trkpt>
      <trkpt lat="52.2008237" lon="21.0500898">
        <ele>85.0</ele>
        <time>2013-09-29T08:55:52Z</time>
      </trkpt>
      <trkpt lat="52.2007338" lon="21.0501064">
        <ele>85.0</ele>
        <time>2013-09-29T08:55:56Z</time>
      </trkpt>
      <trkpt lat="52.200613" lon="21.0501255">
        <ele>84.8</ele>
        <time>2013-09-29T08:56:01Z</time>
      </trkpt>
      <trkpt lat="52.2005048" lon="21.050167">
        <ele>84.8</ele>
        <time>2013-09-29T08:56:05Z</time>
      </trkpt>
      <trkpt lat="52.2003732" lon="21.0501996">
        <ele>84.8</ele>
        <time>2013-09-29T08:56:10Z</time>
      </trkpt>
      <trkpt lat="52.2002401" lon="21.0502203">
        <ele>84.6</ele>
        <time>2013-09-29T08:56:15Z</time>
      </trkpt>
      <trkpt lat="52.2001876" lon="21.0502172">
        <ele>84.6</ele>
        <time>2013-09-29T08:56:17Z</time>
      </trkpt>
      <trkpt lat="52.2000164" lon="21.0502592">
        <ele>84.6</ele>
        <time>2013-09-29T08:56:23Z</time>
      </trkpt>
      <trkpt lat="52.1998561" lon="21.0502969">
        <ele>84.2</ele>
        <time>2013-09-29T08:56:29Z</time>
      </trkpt>
      <trkpt lat="52.1998019" lon="21.0503212">
        <ele>84.2</ele>
        <time>2013-09-29T08:56:31Z</time>
      </trkpt>
      <trkpt lat="52.1996786" lon="21.0503548">
        <ele>83.8</ele>
        <time>2013-09-29T08:56:36Z</time>
      </trkpt>
      <trkpt lat="52.1995437" lon="21.0503843">
        <ele>83.4</ele>
        <time>2013-09-29T08:56:41Z</time>
      </trkpt>
      <trkpt lat="52.1994217" lon="21.0504239">
        <ele>83.2</ele>
        <time>2013-09-29T08:56:46Z</time>
      </trkpt>
      <trkpt lat="52.1992683" lon="21.0504802">
        <ele>82.8</ele>
        <time>2013-09-29T08:56:52Z</time>
      </trkpt>
      <trkpt lat="52.19913" lon="21.0505108">
        <ele>82.4</ele>
        <time>2013-09-29T08:56:57Z</time>
      </trkpt>
      <trkpt lat="52.1989736" lon="21.0505488">
        <ele>82.4</ele>
        <time>2013-09-29T08:57:03Z</time>
      </trkpt>
      <trkpt lat="52.1988659" lon="21.0505786">
        <ele>82.2</ele>
        <time>2013-09-29T08:57:07Z</time>
      </trkpt>
      <trkpt lat="52.1987125" lon="21.0506239">
        <ele>82.0</ele>
        <time>2013-09-29T08:57:13Z</time>
      </trkpt>
      <trkpt lat="52.1985841" lon="21.0506575">
        <ele>81.8</ele>
        <time>2013-09-29T08:57:18Z</time>
      </trkpt>
      <trkpt lat="52.198483" lon="21.0506827">
        <ele>81.6</ele>
        <time>2013-09-29T08:57:22Z</time>
      </trkpt>
      <trkpt lat="52.19828" lon="21.0507605">
        <ele>81.2</ele>
        <time>2013-09-29T08:57:30Z</time>
      </trkpt>
      <trkpt lat="52.1981731" lon="21.0508223">
        <ele>81.2</ele>
        <time>2013-09-29T08:57:34Z</time>
      </trkpt>
      <trkpt lat="52.1980664" lon="21.0508687">
        <ele>81.2</ele>
        <time>2013-09-29T08:57:38Z</time>
      </trkpt>
      <trkpt lat="52.1979458" lon="21.0509103">
        <ele>81.4</ele>
        <time>2013-09-29T08:57:43Z</time>
      </trkpt>
      <trkpt lat="52.197807" lon="21.0509859">
        <ele>81.6</ele>
        <time>2013-09-29T08:57:48Z</time>
      </trkpt>
      <trkpt lat="52.1976718" lon="21.0510681">
        <ele>81.8</ele>
        <time>2013-09-29T08:57:53Z</time>
      </trkpt>
      <trkpt lat="52.1975517" lon="21.051119">
        <ele>81.8</ele>
        <time>2013-09-29T08:57:58Z</time>
      </trkpt>
      <trkpt lat="52.1974138" lon="21.0511258">
        <ele>82.0</ele>
        <time>2013-09-29T08:58:03Z</time>
      </trkpt>
      <trkpt lat="52.1972735" lon="21.0511516">
        <ele>82.2</ele>
        <time>2013-09-29T08:58:09Z</time>
      </trkpt>
      <trkpt lat="52.1971666" lon="21.0511377">
        <ele>82.4</ele>
        <time>2013-09-29T08:58:14Z</time>
      </trkpt>
      <trkpt lat="52.1970875" lon="21.0512454">
        <ele>82.6</ele>
        <time>2013-09-29T08:58:18Z</time>
      </trkpt>
      <trkpt lat="52.1969591" lon="21.0513779">
        <ele>83.0</ele>
        <time>2013-09-29T08:58:23Z</time>
      </trkpt>
      <trkpt lat="52.1968304" lon="21.0514651">
        <ele>83.4</ele>
        <time>2013-09-29T08:58:29Z</time>
      </trkpt>
      <trkpt lat="52.1966405" lon="21.0514081">
        <ele>83.6</ele>
        <time>2013-09-29T08:58:36Z</time>
      </trkpt>
      <trkpt lat="52.196555" lon="21.0513755">
        <ele>83.6</ele>
        <time>2013-09-29T08:58:39Z</time>
      </trkpt>
      <trkpt lat="52.1964556" lon="21.0512499">
        <ele>83.4</ele>
        <time>2013-09-29T08:58:44Z</time>
      </trkpt>
      <trkpt lat="52.1963471" lon="21.0511532">
        <ele>83.4</ele>
        <time>2013-09-29T08:58:49Z</time>
      </trkpt>
      <trkpt lat="52.196245" lon="21.0510103">
        <ele>83.4</ele>
        <time>2013-09-29T08:58:54Z</time>
      </trkpt>
      <trkpt lat="52.1962069" lon="21.0509754">
        <ele>83.4</ele>
        <time>2013-09-29T08:58:56Z</time>
      </trkpt>
      <trkpt lat="52.1960763" lon="21.0508337">
        <ele>83.6</ele>
        <time>2013-09-29T08:59:02Z</time>
      </trkpt>
      <trkpt lat="52.1960344" lon="21.0507912">
        <ele>83.8</ele>
        <time>2013-09-29T08:59:04Z</time>
      </trkpt>
      <trkpt lat="52.195883" lon="21.0506953">
        <ele>84.0</ele>
        <time>2013-09-29T08:59:10Z</time>
      </trkpt>
      <trkpt lat="52.1957971" lon="21.0506073">
        <ele>84.2</ele>
        <time>2013-09-29T08:59:14Z</time>
      </trkpt>
      <trkpt lat="52.1956412" lon="21.0504835">
        <ele>84.2</ele>
        <time>2013-09-29T08:59:20Z</time>
      </trkpt>
      <trkpt lat="52.1955183" lon="21.0503721">
        <ele>84.0</ele>
        <time>2013-09-29T08:59:25Z</time>
      </trkpt>
      <trkpt lat="52.1953962" lon="21.0502548">
        <ele>83.8</ele>
        <time>2013-09-29T08:59:30Z</time>
      </trkpt>
      <trkpt lat="52.1952299" lon="21.0500974">
        <ele>83.6</ele>
        <time>2013-09-29T08:59:37Z</time>
      </trkpt>
      <trkpt lat="52.1951269" lon="21.0500421">
        <ele>83.2</ele>
        <time>2013-09-29T08:59:41Z</time>
      </trkpt>
      <trkpt lat="52.1950036" lon="21.0499618">
        <ele>83.0</ele>
        <time>2013-09-29T08:59:46Z</time>
      </trkpt>
      <trkpt lat="52.194847" lon="21.0498068">
        <ele>83.8</ele>
        <time>2013-09-29T08:59:53Z</time>
      </trkpt>
      <trkpt lat="52.1947005" lon="21.0497049">
        <ele>84.2</ele>
        <time>2013-09-29T08:59:59Z</time>
      </trkpt>
      <trkpt lat="52.1945678" lon="21.0495816">
        <ele>84.6</ele>
        <time>2013-09-29T09:00:05Z</time>
      </trkpt>
      <trkpt lat="52.1943959" lon="21.0495117">
        <ele>84.8</ele>
        <time>2013-09-29T09:00:11Z</time>
      </trkpt>
      <trkpt lat="52.1942551" lon="21.0494288">
        <ele>85.0</ele>
        <time>2013-09-29T09:00:17Z</time>
      </trkpt>
      <trkpt lat="52.1941354" lon="21.049348">
        <ele>84.8</ele>
        <time>2013-09-29T09:00:22Z</time>
      </trkpt>
      <trkpt lat="52.1940339" lon="21.049289">
        <ele>84.6</ele>
        <time>2013-09-29T09:00:26Z</time>
      </trkpt>
      <trkpt lat="52.1939235" lon="21.0492071">
        <ele>84.4</ele>
        <time>2013-09-29T09:00:31Z</time>
      </trkpt>
      <trkpt lat="52.193808" lon="21.0491302">
        <ele>84.0</ele>
        <time>2013-09-29T09:00:36Z</time>
      </trkpt>
      <trkpt lat="52.193692" lon="21.0490666">
        <ele>83.8</ele>
        <time>2013-09-29T09:00:41Z</time>
      </trkpt>
      <trkpt lat="52.1935898" lon="21.0490206">
        <ele>83.6</ele>
        <time>2013-09-29T09:00:45Z</time>
      </trkpt>
      <trkpt lat="52.1934656" lon="21.0489455">
        <ele>83.6</ele>
        <time>2013-09-29T09:00:50Z</time>
      </trkpt>
      <trkpt lat="52.1933558" lon="21.0488698">
        <ele>83.6</ele>
        <time>2013-09-29T09:00:54Z</time>
      </trkpt>
      <trkpt lat="52.1932318" lon="21.0487818">
        <ele>83.8</ele>
        <time>2013-09-29T09:00:59Z</time>
      </trkpt>
      <trkpt lat="52.1931039" lon="21.0486619">
        <ele>83.8</ele>
        <time>2013-09-29T09:01:05Z</time>
      </trkpt>
      <trkpt lat="52.1929884" lon="21.0485927">
        <ele>83.8</ele>
        <time>2013-09-29T09:01:10Z</time>
      </trkpt>
      <trkpt lat="52.1928771" lon="21.0485389">
        <ele>83.6</ele>
        <time>2013-09-29T09:01:15Z</time>
      </trkpt>
      <trkpt lat="52.192759" lon="21.0484568">
        <ele>83.4</ele>
        <time>2013-09-29T09:01:20Z</time>
      </trkpt>
      <trkpt lat="52.1926477" lon="21.0483664">
        <ele>83.2</ele>
        <time>2013-09-29T09:01:25Z</time>
      </trkpt>
      <trkpt lat="52.1925461" lon="21.0483138">
        <ele>83.0</ele>
        <time>2013-09-29T09:01:29Z</time>
      </trkpt>
      <trkpt lat="52.1924218" lon="21.0482395">
        <ele>82.8</ele>
        <time>2013-09-29T09:01:34Z</time>
      </trkpt>
      <trkpt lat="52.1922623" lon="21.0481462">
        <ele>82.8</ele>
        <time>2013-09-29T09:01:40Z</time>
      </trkpt>
      <trkpt lat="52.1921331" lon="21.0480955">
        <ele>83.0</ele>
        <time>2013-09-29T09:01:45Z</time>
      </trkpt>
      <trkpt lat="52.1919767" lon="21.0480069">
        <ele>83.2</ele>
        <time>2013-09-29T09:01:51Z</time>
      </trkpt>
      <trkpt lat="52.1918746" lon="21.0479326">
        <ele>83.6</ele>
        <time>2013-09-29T09:01:55Z</time>
      </trkpt>
      <trkpt lat="52.1917562" lon="21.0478446">
        <ele>83.8</ele>
        <time>2013-09-29T09:02:00Z</time>
      </trkpt>
      <trkpt lat="52.1916322" lon="21.0477906">
        <ele>84.2</ele>
        <time>2013-09-29T09:02:05Z</time>
      </trkpt>
      <trkpt lat="52.1915086" lon="21.0477375">
        <ele>84.4</ele>
        <time>2013-09-29T09:02:10Z</time>
      </trkpt>
      <trkpt lat="52.1913095" lon="21.0476509">
        <ele>84.6</ele>
        <time>2013-09-29T09:02:18Z</time>
      </trkpt>
      <trkpt lat="52.1911817" lon="21.0475956">
        <ele>84.8</ele>
        <time>2013-09-29T09:02:23Z</time>
      </trkpt>
      <trkpt lat="52.1911314" lon="21.0475872">
        <ele>84.8</ele>
        <time>2013-09-29T09:02:25Z</time>
      </trkpt>
      <trkpt lat="52.1909469" lon="21.0475006">
        <ele>84.8</ele>
        <time>2013-09-29T09:02:32Z</time>
      </trkpt>
      <trkpt lat="52.1908724" lon="21.0474596">
        <ele>84.8</ele>
        <time>2013-09-29T09:02:35Z</time>
      </trkpt>
      <trkpt lat="52.1907087" lon="21.0474011">
        <ele>85.0</ele>
        <time>2013-09-29T09:02:41Z</time>
      </trkpt>
      <trkpt lat="52.1905417" lon="21.0473588">
        <ele>85.2</ele>
        <time>2013-09-29T09:02:47Z</time>
      </trkpt>
      <trkpt lat="52.1904301" lon="21.0473065">
        <ele>85.2</ele>
        <time>2013-09-29T09:02:51Z</time>
      </trkpt>
      <trkpt lat="52.1902927" lon="21.0472345">
        <ele>85.4</ele>
        <time>2013-09-29T09:02:57Z</time>
      </trkpt>
      <trkpt lat="52.1901617" lon="21.0472216">
        <ele>85.4</ele>
        <time>2013-09-29T09:03:02Z</time>
      </trkpt>
      <trkpt lat="52.1900669" lon="21.0472951">
        <ele>85.6</ele>
        <time>2013-09-29T09:03:06Z</time>
      </trkpt>
      <trkpt lat="52.1899725" lon="21.0473707">
        <ele>85.6</ele>
        <time>2013-09-29T09:03:10Z</time>
      </trkpt>
      <trkpt lat="52.1898851" lon="21.0474472">
        <ele>85.2</ele>
        <time>2013-09-29T09:03:14Z</time>
      </trkpt>
      <trkpt lat="52.1897493" lon="21.0476197">
        <ele>84.6</ele>
        <time>2013-09-29T09:03:20Z</time>
      </trkpt>
      <trkpt lat="52.1896277" lon="21.0477405">
        <ele>84.0</ele>
        <time>2013-09-29T09:03:25Z</time>
      </trkpt>
      <trkpt lat="52.1895234" lon="21.0478591">
        <ele>83.6</ele>
        <time>2013-09-29T09:03:30Z</time>
      </trkpt>
      <trkpt lat="52.189422" lon="21.0479934">
        <ele>83.4</ele>
        <time>2013-09-29T09:03:35Z</time>
      </trkpt>
      <trkpt lat="52.1893893" lon="21.0480442">
        <ele>83.2</ele>
        <time>2013-09-29T09:03:38Z</time>
      </trkpt>
      <trkpt lat="52.1893096" lon="21.0480695">
        <ele>83.0</ele>
        <time>2013-09-29T09:03:43Z</time>
      </trkpt>
      <trkpt lat="52.1892381" lon="21.0481145">
        <ele>82.8</ele>
        <time>2013-09-29T09:03:46Z</time>
      </trkpt>
      <trkpt lat="52.189091" lon="21.0482615">
        <ele>83.0</ele>
        <time>2013-09-29T09:03:52Z</time>
      </trkpt>
      <trkpt lat="52.1889936" lon="21.0483953">
        <ele>83.2</ele>
        <time>2013-09-29T09:03:56Z</time>
      </trkpt>
      <trkpt lat="52.1888802" lon="21.0485296">
        <ele>83.4</ele>
        <time>2013-09-29T09:04:01Z</time>
      </trkpt>
      <trkpt lat="52.188738" lon="21.0486702">
        <ele>83.6</ele>
        <time>2013-09-29T09:04:07Z</time>
      </trkpt>
      <trkpt lat="52.1885853" lon="21.0488222">
        <ele>83.8</ele>
        <time>2013-09-29T09:04:13Z</time>
      </trkpt>
      <trkpt lat="52.1884966" lon="21.0489568">
        <ele>83.8</ele>
        <time>2013-09-29T09:04:17Z</time>
      </trkpt>
      <trkpt lat="52.1884076" lon="21.0490362">
        <ele>83.8</ele>
        <time>2013-09-29T09:04:21Z</time>
      </trkpt>
      <trkpt lat="52.1882881" lon="21.0491449">
        <ele>84.0</ele>
        <time>2013-09-29T09:04:26Z</time>
      </trkpt>
      <trkpt lat="52.1881724" lon="21.0492444">
        <ele>84.4</ele>
        <time>2013-09-29T09:04:31Z</time>
      </trkpt>
      <trkpt lat="52.1880804" lon="21.0493603">
        <ele>84.6</ele>
        <time>2013-09-29T09:04:35Z</time>
      </trkpt>
      <trkpt lat="52.1879876" lon="21.0494583">
        <ele>85.0</ele>
        <time>2013-09-29T09:04:39Z</time>
      </trkpt>
      <trkpt lat="52.1878549" lon="21.0495961">
        <ele>85.2</ele>
        <time>2013-09-29T09:04:45Z</time>
      </trkpt>
      <trkpt lat="52.1877103" lon="21.0497209">
        <ele>85.6</ele>
        <time>2013-09-29T09:04:51Z</time>
      </trkpt>
      <trkpt lat="52.1875909" lon="21.0498401">
        <ele>85.8</ele>
        <time>2013-09-29T09:04:56Z</time>
      </trkpt>
      <trkpt lat="52.1874896" lon="21.0499326">
        <ele>86.0</ele>
        <time>2013-09-29T09:05:00Z</time>
      </trkpt>
      <trkpt lat="52.1873976" lon="21.0500572">
        <ele>86.0</ele>
        <time>2013-09-29T09:05:04Z</time>
      </trkpt>
      <trkpt lat="52.1872997" lon="21.0501574">
        <ele>86.0</ele>
        <time>2013-09-29T09:05:08Z</time>
      </trkpt>
      <trkpt lat="52.1871977" lon="21.0502685">
        <ele>86.2</ele>
        <time>2013-09-29T09:05:13Z</time>
      </trkpt>
      <trkpt lat="52.1870837" lon="21.0504032">
        <ele>86.2</ele>
        <time>2013-09-29T09:05:18Z</time>
      </trkpt>
      <trkpt lat="52.1869867" lon="21.0505061">
        <ele>86.2</ele>
        <time>2013-09-29T09:05:22Z</time>
      </trkpt>
      <trkpt lat="52.1869162" lon="21.0505814">
        <ele>86.2</ele>
        <time>2013-09-29T09:05:25Z</time>
      </trkpt>
      <trkpt lat="52.1868066" lon="21.0506979">
        <ele>86.0</ele>
        <time>2013-09-29T09:05:30Z</time>
      </trkpt>
      <trkpt lat="52.1866864" lon="21.0508288">
        <ele>86.0</ele>
        <time>2013-09-29T09:05:36Z</time>
      </trkpt>
      <trkpt lat="52.1865967" lon="21.0509217">
        <ele>86.0</ele>
        <time>2013-09-29T09:05:40Z</time>
      </trkpt>
      <trkpt lat="52.1864709" lon="21.0510516">
        <ele>86.0</ele>
        <time>2013-09-29T09:05:46Z</time>
      </trkpt>
      <trkpt lat="52.1863839" lon="21.0511541">
        <ele>86.0</ele>
        <time>2013-09-29T09:05:50Z</time>
      </trkpt>
      <trkpt lat="52.1862767" lon="21.05125">
        <ele>86.0</ele>
        <time>2013-09-29T09:05:55Z</time>
      </trkpt>
      <trkpt lat="52.1861912" lon="21.0513458">
        <ele>86.0</ele>
        <time>2013-09-29T09:05:59Z</time>
      </trkpt>
      <trkpt lat="52.1861031" lon="21.0514681">
        <ele>86.0</ele>
        <time>2013-09-29T09:06:03Z</time>
      </trkpt>
      <trkpt lat="52.1859626" lon="21.0516469">
        <ele>86.0</ele>
        <time>2013-09-29T09:06:09Z</time>
      </trkpt>
      <trkpt lat="52.1858669" lon="21.051749">
        <ele>85.8</ele>
        <time>2013-09-29T09:06:13Z</time>
      </trkpt>
      <trkpt lat="52.185712" lon="21.0519453">
        <ele>85.8</ele>
        <time>2013-09-29T09:06:19Z</time>
      </trkpt>
      <trkpt lat="52.185613" lon="21.0520432">
        <ele>85.6</ele>
        <time>2013-09-29T09:06:23Z</time>
      </trkpt>
      <trkpt lat="52.1854948" lon="21.0521608">
        <ele>85.4</ele>
        <time>2013-09-29T09:06:28Z</time>
      </trkpt>
      <trkpt lat="52.1853411" lon="21.0522896">
        <ele>85.4</ele>
        <time>2013-09-29T09:06:34Z</time>
      </trkpt>
      <trkpt lat="52.1852007" lon="21.0524299">
        <ele>85.2</ele>
        <time>2013-09-29T09:06:40Z</time>
      </trkpt>
      <trkpt lat="52.1850187" lon="21.0526021">
        <ele>85.0</ele>
        <time>2013-09-29T09:06:48Z</time>
      </trkpt>
      <trkpt lat="52.1849089" lon="21.0527014">
        <ele>85.0</ele>
        <time>2013-09-29T09:06:53Z</time>
      </trkpt>
      <trkpt lat="52.184777" lon="21.0528466">
        <ele>85.2</ele>
        <time>2013-09-29T09:06:59Z</time>
      </trkpt>
      <trkpt lat="52.1846708" lon="21.0529849">
        <ele>85.2</ele>
        <time>2013-09-29T09:07:04Z</time>
      </trkpt>
      <trkpt lat="52.184517" lon="21.0531283">
        <ele>85.2</ele>
        <time>2013-09-29T09:07:11Z</time>
      </trkpt>
      <trkpt lat="52.1844064" lon="21.053231">
        <ele>85.0</ele>
        <time>2013-09-29T09:07:16Z</time>
      </trkpt>
      <trkpt lat="52.1842901" lon="21.0533562">
        <ele>84.8</ele>
        <time>2013-09-29T09:07:21Z</time>
      </trkpt>
      <trkpt lat="52.1841995" lon="21.0534512">
        <ele>84.8</ele>
        <time>2013-09-29T09:07:25Z</time>
      </trkpt>
      <trkpt lat="52.1840719" lon="21.0536236">
        <ele>84.6</ele>
        <time>2013-09-29T09:07:31Z</time>
      </trkpt>
      <trkpt lat="52.1840099" lon="21.0536774">
        <ele>84.4</ele>
        <time>2013-09-29T09:07:34Z</time>
      </trkpt>
      <trkpt lat="52.1838876" lon="21.0538028">
        <ele>84.4</ele>
        <time>2013-09-29T09:07:40Z</time>
      </trkpt>
      <trkpt lat="52.1837721" lon="21.0538944">
        <ele>84.2</ele>
        <time>2013-09-29T09:07:45Z</time>
      </trkpt>
      <trkpt lat="52.1836481" lon="21.0540202">
        <ele>84.0</ele>
        <time>2013-09-29T09:07:50Z</time>
      </trkpt>
      <trkpt lat="52.1835157" lon="21.0541731">
        <ele>84.0</ele>
        <time>2013-09-29T09:07:56Z</time>
      </trkpt>
      <trkpt lat="52.1834157" lon="21.0543002">
        <ele>84.0</ele>
        <time>2013-09-29T09:08:00Z</time>
      </trkpt>
      <trkpt lat="52.1832556" lon="21.0544592">
        <ele>84.2</ele>
        <time>2013-09-29T09:08:07Z</time>
      </trkpt>
      <trkpt lat="52.1831168" lon="21.0545788">
        <ele>84.4</ele>
        <time>2013-09-29T09:08:13Z</time>
      </trkpt>
      <trkpt lat="52.1829997" lon="21.0546984">
        <ele>84.6</ele>
        <time>2013-09-29T09:08:18Z</time>
      </trkpt>
      <trkpt lat="52.1829152" lon="21.0547902">
        <ele>84.6</ele>
        <time>2013-09-29T09:08:22Z</time>
      </trkpt>
      <trkpt lat="52.1828164" lon="21.0549384">
        <ele>84.8</ele>
        <time>2013-09-29T09:08:27Z</time>
      </trkpt>
      <trkpt lat="52.1827169" lon="21.0550378">
        <ele>85.0</ele>
        <time>2013-09-29T09:08:32Z</time>
      </trkpt>
      <trkpt lat="52.1826402" lon="21.0551456">
        <ele>85.2</ele>
        <time>2013-09-29T09:08:37Z</time>
      </trkpt>
      <trkpt lat="52.1825594" lon="21.055245">
        <ele>85.4</ele>
        <time>2013-09-29T09:08:41Z</time>
      </trkpt>
      <trkpt lat="52.1824615" lon="21.0553434">
        <ele>85.8</ele>
        <time>2013-09-29T09:08:46Z</time>
      </trkpt>
      <trkpt lat="52.1823439" lon="21.0554552">
        <ele>85.8</ele>
        <time>2013-09-29T09:08:51Z</time>
      </trkpt>
      <trkpt lat="52.1822268" lon="21.0555743">
        <ele>86.0</ele>
        <time>2013-09-29T09:08:56Z</time>
      </trkpt>
      <trkpt lat="52.1821071" lon="21.0556781">
        <ele>85.8</ele>
        <time>2013-09-29T09:09:01Z</time>
      </trkpt>
      <trkpt lat="52.1819833" lon="21.0557716">
        <ele>85.6</ele>
        <time>2013-09-29T09:09:06Z</time>
      </trkpt>
      <trkpt lat="52.1818876" lon="21.0558638">
        <ele>85.4</ele>
        <time>2013-09-29T09:09:10Z</time>
      </trkpt>
      <trkpt lat="52.1817782" lon="21.0559765">
        <ele>85.2</ele>
        <time>2013-09-29T09:09:15Z</time>
      </trkpt>
      <trkpt lat="52.1816725" lon="21.0560645">
        <ele>85.0</ele>
        <time>2013-09-29T09:09:20Z</time>
      </trkpt>
      <trkpt lat="52.181569" lon="21.0561624">
        <ele>85.0</ele>
        <time>2013-09-29T09:09:25Z</time>
      </trkpt>
      <trkpt lat="52.1814789" lon="21.0562469">
        <ele>85.0</ele>
        <time>2013-09-29T09:09:29Z</time>
      </trkpt>
      <trkpt lat="52.1813529" lon="21.0564012">
        <ele>85.2</ele>
        <time>2013-09-29T09:09:35Z</time>
      </trkpt>
      <trkpt lat="52.1812675" lon="21.0565125">
        <ele>85.2</ele>
        <time>2013-09-29T09:09:39Z</time>
      </trkpt>
      <trkpt lat="52.1811564" lon="21.0566467">
        <ele>85.4</ele>
        <time>2013-09-29T09:09:44Z</time>
      </trkpt>
      <trkpt lat="52.1810409" lon="21.0567653">
        <ele>85.6</ele>
        <time>2013-09-29T09:09:49Z</time>
      </trkpt>
      <trkpt lat="52.1809285" lon="21.056872">
        <ele>85.8</ele>
        <time>2013-09-29T09:09:54Z</time>
      </trkpt>
      <trkpt lat="52.1808116" lon="21.0569819">
        <ele>85.8</ele>
        <time>2013-09-29T09:09:59Z</time>
      </trkpt>
      <trkpt lat="52.180736" lon="21.0570917">
        <ele>85.8</ele>
        <time>2013-09-29T09:10:03Z</time>
      </trkpt>
      <trkpt lat="52.1806301" lon="21.0572247">
        <ele>85.6</ele>
        <time>2013-09-29T09:10:08Z</time>
      </trkpt>
      <trkpt lat="52.1805459" lon="21.0573238">
        <ele>85.4</ele>
        <time>2013-09-29T09:10:12Z</time>
      </trkpt>
      <trkpt lat="52.1804408" lon="21.0574324">
        <ele>85.4</ele>
        <time>2013-09-29T09:10:17Z</time>
      </trkpt>
      <trkpt lat="52.1803276" lon="21.0575512">
        <ele>85.2</ele>
        <time>2013-09-29T09:10:22Z</time>
      </trkpt>
      <trkpt lat="52.1802344" lon="21.0576412">
        <ele>85.0</ele>
        <time>2013-09-29T09:10:26Z</time>
      </trkpt>
      <trkpt lat="52.1801388" lon="21.0577341">
        <ele>84.8</ele>
        <time>2013-09-29T09:10:30Z</time>
      </trkpt>
      <trkpt lat="52.1800077" lon="21.057848">
        <ele>84.4</ele>
        <time>2013-09-29T09:10:35Z</time>
      </trkpt>
      <trkpt lat="52.1798755" lon="21.0579957">
        <ele>85.0</ele>
        <time>2013-09-29T09:10:41Z</time>
      </trkpt>
      <trkpt lat="52.1797534" lon="21.0581562">
        <ele>85.0</ele>
        <time>2013-09-29T09:10:47Z</time>
      </trkpt>
      <trkpt lat="52.1796222" lon="21.0582904">
        <ele>85.0</ele>
        <time>2013-09-29T09:10:53Z</time>
      </trkpt>
      <trkpt lat="52.1795138" lon="21.0584018">
        <ele>85.0</ele>
        <time>2013-09-29T09:10:58Z</time>
      </trkpt>
      <trkpt lat="52.1793969" lon="21.0585354">
        <ele>85.2</ele>
        <time>2013-09-29T09:11:03Z</time>
      </trkpt>
      <trkpt lat="52.1792618" lon="21.0586809">
        <ele>85.4</ele>
        <time>2013-09-29T09:11:09Z</time>
      </trkpt>
      <trkpt lat="52.1791587" lon="21.0587856">
        <ele>85.4</ele>
        <time>2013-09-29T09:11:14Z</time>
      </trkpt>
      <trkpt lat="52.179057" lon="21.0588864">
        <ele>85.2</ele>
        <time>2013-09-29T09:11:19Z</time>
      </trkpt>
      <trkpt lat="52.1789308" lon="21.0589933">
        <ele>85.2</ele>
        <time>2013-09-29T09:11:24Z</time>
      </trkpt>
      <trkpt lat="52.1788218" lon="21.0591389">
        <ele>85.0</ele>
        <time>2013-09-29T09:11:29Z</time>
      </trkpt>
      <trkpt lat="52.1787148" lon="21.0592689">
        <ele>85.0</ele>
        <time>2013-09-29T09:11:34Z</time>
      </trkpt>
      <trkpt lat="52.178606" lon="21.0593879">
        <ele>85.0</ele>
        <time>2013-09-29T09:11:39Z</time>
      </trkpt>
      <trkpt lat="52.1785055" lon="21.0594865">
        <ele>85.2</ele>
        <time>2013-09-29T09:11:44Z</time>
      </trkpt>
      <trkpt lat="52.1784666" lon="21.0595351">
        <ele>85.2</ele>
        <time>2013-09-29T09:11:46Z</time>
      </trkpt>
      <trkpt lat="52.1783623" lon="21.0596051">
        <ele>85.4</ele>
        <time>2013-09-29T09:11:50Z</time>
      </trkpt>
      <trkpt lat="52.1782718" lon="21.0596875">
        <ele>85.6</ele>
        <time>2013-09-29T09:11:54Z</time>
      </trkpt>
      <trkpt lat="52.1782141" lon="21.05976">
        <ele>85.6</ele>
        <time>2013-09-29T09:11:57Z</time>
      </trkpt>
      <trkpt lat="52.178088" lon="21.0598894">
        <ele>85.6</ele>
        <time>2013-09-29T09:12:03Z</time>
      </trkpt>
      <trkpt lat="52.1779807" lon="21.0600012">
        <ele>85.4</ele>
        <time>2013-09-29T09:12:08Z</time>
      </trkpt>
      <trkpt lat="52.17789" lon="21.0601288">
        <ele>85.2</ele>
        <time>2013-09-29T09:12:13Z</time>
      </trkpt>
      <trkpt lat="52.1777962" lon="21.0602267">
        <ele>85.0</ele>
        <time>2013-09-29T09:12:17Z</time>
      </trkpt>
      <trkpt lat="52.1777143" lon="21.0603302">
        <ele>84.8</ele>
        <time>2013-09-29T09:12:21Z</time>
      </trkpt>
      <trkpt lat="52.177615" lon="21.0604199">
        <ele>84.6</ele>
        <time>2013-09-29T09:12:25Z</time>
      </trkpt>
      <trkpt lat="52.1774802" lon="21.0605529">
        <ele>84.2</ele>
        <time>2013-09-29T09:12:31Z</time>
      </trkpt>
      <trkpt lat="52.1773016" lon="21.0607763">
        <ele>84.0</ele>
        <time>2013-09-29T09:12:39Z</time>
      </trkpt>
      <trkpt lat="52.1772129" lon="21.0608657">
        <ele>84.0</ele>
        <time>2013-09-29T09:12:43Z</time>
      </trkpt>
      <trkpt lat="52.1771229" lon="21.0609514">
        <ele>84.2</ele>
        <time>2013-09-29T09:12:47Z</time>
      </trkpt>
      <trkpt lat="52.1770118" lon="21.0610761">
        <ele>84.4</ele>
        <time>2013-09-29T09:12:52Z</time>
      </trkpt>
      <trkpt lat="52.1768919" lon="21.0612104">
        <ele>84.4</ele>
        <time>2013-09-29T09:12:58Z</time>
      </trkpt>
      <trkpt lat="52.1767733" lon="21.0613208">
        <ele>84.6</ele>
        <time>2013-09-29T09:13:03Z</time>
      </trkpt>
      <trkpt lat="52.1766598" lon="21.0614346">
        <ele>84.6</ele>
        <time>2013-09-29T09:13:08Z</time>
      </trkpt>
      <trkpt lat="52.1765505" lon="21.0615367">
        <ele>84.8</ele>
        <time>2013-09-29T09:13:13Z</time>
      </trkpt>
      <trkpt lat="52.1764226" lon="21.0616668">
        <ele>85.2</ele>
        <time>2013-09-29T09:13:19Z</time>
      </trkpt>
      <trkpt lat="52.176319" lon="21.0617532">
        <ele>85.6</ele>
        <time>2013-09-29T09:13:24Z</time>
      </trkpt>
      <trkpt lat="52.1762806" lon="21.0617999">
        <ele>85.6</ele>
        <time>2013-09-29T09:13:26Z</time>
      </trkpt>
      <trkpt lat="52.1761531" lon="21.0619253">
        <ele>86.2</ele>
        <time>2013-09-29T09:13:31Z</time>
      </trkpt>
      <trkpt lat="52.1760734" lon="21.0620225">
        <ele>86.4</ele>
        <time>2013-09-29T09:13:34Z</time>
      </trkpt>
      <trkpt lat="52.1760076" lon="21.062152">
        <ele>86.8</ele>
        <time>2013-09-29T09:13:38Z</time>
      </trkpt>
      <trkpt lat="52.1759569" lon="21.0621983">
        <ele>87.0</ele>
        <time>2013-09-29T09:13:40Z</time>
      </trkpt>
      <trkpt lat="52.1758289" lon="21.0623353">
        <ele>87.4</ele>
        <time>2013-09-29T09:13:45Z</time>
      </trkpt>
      <trkpt lat="52.1756895" lon="21.0624801">
        <ele>87.2</ele>
        <time>2013-09-29T09:13:51Z</time>
      </trkpt>
      <trkpt lat="52.1755823" lon="21.0626068">
        <ele>86.8</ele>
        <time>2013-09-29T09:13:56Z</time>
      </trkpt>
      <trkpt lat="52.1754725" lon="21.0626969">
        <ele>86.4</ele>
        <time>2013-09-29T09:14:01Z</time>
      </trkpt>
      <trkpt lat="52.1753854" lon="21.0627803">
        <ele>86.2</ele>
        <time>2013-09-29T09:14:05Z</time>
      </trkpt>
      <trkpt lat="52.175343" lon="21.0628282">
        <ele>86.0</ele>
        <time>2013-09-29T09:14:07Z</time>
      </trkpt>
      <trkpt lat="52.1752197" lon="21.0629266">
        <ele>85.8</ele>
        <time>2013-09-29T09:14:12Z</time>
      </trkpt>
      <trkpt lat="52.1751167" lon="21.063039">
        <ele>85.6</ele>
        <time>2013-09-29T09:14:17Z</time>
      </trkpt>
      <trkpt lat="52.1750939" lon="21.0630621">
        <ele>85.6</ele>
        <time>2013-09-29T09:14:18Z</time>
      </trkpt>
      <trkpt lat="52.174969" lon="21.0631975">
        <ele>85.6</ele>
        <time>2013-09-29T09:14:24Z</time>
      </trkpt>
      <trkpt lat="52.1748715" lon="21.0632994">
        <ele>86.0</ele>
        <time>2013-09-29T09:14:29Z</time>
      </trkpt>
      <trkpt lat="52.174784" lon="21.0633845">
        <ele>86.2</ele>
        <time>2013-09-29T09:14:33Z</time>
      </trkpt>
      <trkpt lat="52.1746804" lon="21.0634962">
        <ele>86.4</ele>
        <time>2013-09-29T09:14:38Z</time>
      </trkpt>
      <trkpt lat="52.1746213" lon="21.0636062">
        <ele>86.6</ele>
        <time>2013-09-29T09:14:42Z</time>
      </trkpt>
      <trkpt lat="52.1744754" lon="21.0637813">
        <ele>87.0</ele>
        <time>2013-09-29T09:14:48Z</time>
      </trkpt>
      <trkpt lat="52.1743686" lon="21.0638859">
        <ele>87.4</ele>
        <time>2013-09-29T09:14:52Z</time>
      </trkpt>
      <trkpt lat="52.1742619" lon="21.0639957">
        <ele>87.6</ele>
        <time>2013-09-29T09:14:57Z</time>
      </trkpt>
      <trkpt lat="52.1741586" lon="21.0640952">
        <ele>87.8</ele>
        <time>2013-09-29T09:15:01Z</time>
      </trkpt>
      <trkpt lat="52.1740742" lon="21.0641883">
        <ele>87.8</ele>
        <time>2013-09-29T09:15:05Z</time>
      </trkpt>
      <trkpt lat="52.1739506" lon="21.064305">
        <ele>87.6</ele>
        <time>2013-09-29T09:15:11Z</time>
      </trkpt>
      <trkpt lat="52.1738563" lon="21.0644024">
        <ele>87.4</ele>
        <time>2013-09-29T09:15:15Z</time>
      </trkpt>
      <trkpt lat="52.1738298" lon="21.0644194">
        <ele>87.4</ele>
        <time>2013-09-29T09:15:16Z</time>
      </trkpt>
      <trkpt lat="52.173704" lon="21.0645195">
        <ele>87.4</ele>
        <time>2013-09-29T09:15:23Z</time>
      </trkpt>
      <trkpt lat="52.1736178" lon="21.0646244">
        <ele>87.4</ele>
        <time>2013-09-29T09:15:27Z</time>
      </trkpt>
      <trkpt lat="52.1735523" lon="21.0646728">
        <ele>87.4</ele>
        <time>2013-09-29T09:15:30Z</time>
      </trkpt>
      <trkpt lat="52.1734746" lon="21.0647671">
        <ele>87.6</ele>
        <time>2013-09-29T09:15:34Z</time>
      </trkpt>
      <trkpt lat="52.1734316" lon="21.0647982">
        <ele>87.6</ele>
        <time>2013-09-29T09:15:36Z</time>
      </trkpt>
      <trkpt lat="52.1732974" lon="21.0649473">
        <ele>87.8</ele>
        <time>2013-09-29T09:15:42Z</time>
      </trkpt>
      <trkpt lat="52.1731791" lon="21.0650906">
        <ele>87.6</ele>
        <time>2013-09-29T09:15:47Z</time>
      </trkpt>
      <trkpt lat="52.17304" lon="21.0651455">
        <ele>87.4</ele>
        <time>2013-09-29T09:15:52Z</time>
      </trkpt>
      <trkpt lat="52.1730133" lon="21.0651561">
        <ele>87.4</ele>
        <time>2013-09-29T09:15:53Z</time>
      </trkpt>
      <trkpt lat="52.1728918" lon="21.0653217">
        <ele>87.2</ele>
        <time>2013-09-29T09:15:59Z</time>
      </trkpt>
      <trkpt lat="52.17281" lon="21.0654296">
        <ele>87.2</ele>
        <time>2013-09-29T09:16:03Z</time>
      </trkpt>
      <trkpt lat="52.1727284" lon="21.0655431">
        <ele>87.2</ele>
        <time>2013-09-29T09:16:07Z</time>
      </trkpt>
      <trkpt lat="52.1726457" lon="21.0656524">
        <ele>87.4</ele>
        <time>2013-09-29T09:16:11Z</time>
      </trkpt>
      <trkpt lat="52.1725274" lon="21.0657776">
        <ele>87.8</ele>
        <time>2013-09-29T09:16:16Z</time>
      </trkpt>
      <trkpt lat="52.1724256" lon="21.065862">
        <ele>87.8</ele>
        <time>2013-09-29T09:16:21Z</time>
      </trkpt>
      <trkpt lat="52.1723405" lon="21.0659575">
        <ele>87.6</ele>
        <time>2013-09-29T09:16:25Z</time>
      </trkpt>
      <trkpt lat="52.1722267" lon="21.0660919">
        <ele>87.6</ele>
        <time>2013-09-29T09:16:30Z</time>
      </trkpt>
      <trkpt lat="52.1721354" lon="21.0661942">
        <ele>87.6</ele>
        <time>2013-09-29T09:16:34Z</time>
      </trkpt>
      <trkpt lat="52.1719982" lon="21.0663339">
        <ele>87.8</ele>
        <time>2013-09-29T09:16:40Z</time>
      </trkpt>
      <trkpt lat="52.1719444" lon="21.0664126">
        <ele>88.0</ele>
        <time>2013-09-29T09:16:43Z</time>
      </trkpt>
      <trkpt lat="52.1718807" lon="21.0664717">
        <ele>88.0</ele>
        <time>2013-09-29T09:16:46Z</time>
      </trkpt>
      <trkpt lat="52.171747" lon="21.0665609">
        <ele>88.4</ele>
        <time>2013-09-29T09:16:51Z</time>
      </trkpt>
      <trkpt lat="52.1716268" lon="21.0667391">
        <ele>89.0</ele>
        <time>2013-09-29T09:16:57Z</time>
      </trkpt>
      <trkpt lat="52.1715584" lon="21.0668282">
        <ele>89.0</ele>
        <time>2013-09-29T09:17:00Z</time>
      </trkpt>
      <trkpt lat="52.1714615" lon="21.0669318">
        <ele>89.0</ele>
        <time>2013-09-29T09:17:05Z</time>
      </trkpt>
      <trkpt lat="52.1713259" lon="21.067007">
        <ele>89.0</ele>
        <time>2013-09-29T09:17:10Z</time>
      </trkpt>
      <trkpt lat="52.1711466" lon="21.0670804">
        <ele>89.0</ele>
        <time>2013-09-29T09:17:15Z</time>
      </trkpt>
      <trkpt lat="52.1710539" lon="21.067185">
        <ele>88.8</ele>
        <time>2013-09-29T09:17:19Z</time>
      </trkpt>
      <trkpt lat="52.1709565" lon="21.0673069">
        <ele>88.4</ele>
        <time>2013-09-29T09:17:24Z</time>
      </trkpt>
      <trkpt lat="52.1708685" lon="21.0674354">
        <ele>88.0</ele>
        <time>2013-09-29T09:17:29Z</time>
      </trkpt>
      <trkpt lat="52.170783" lon="21.0675431">
        <ele>88.2</ele>
        <time>2013-09-29T09:17:34Z</time>
      </trkpt>
      <trkpt lat="52.1707586" lon="21.067572">
        <ele>88.2</ele>
        <time>2013-09-29T09:17:35Z</time>
      </trkpt>
      <trkpt lat="52.1706815" lon="21.0676503">
        <ele>88.4</ele>
        <time>2013-09-29T09:17:39Z</time>
      </trkpt>
      <trkpt lat="52.170567" lon="21.0677855">
        <ele>88.6</ele>
        <time>2013-09-29T09:17:45Z</time>
      </trkpt>
      <trkpt lat="52.1705431" lon="21.0678093">
        <ele>88.6</ele>
        <time>2013-09-29T09:17:46Z</time>
      </trkpt>
      <trkpt lat="52.170396" lon="21.0679078">
        <ele>88.4</ele>
        <time>2013-09-29T09:17:52Z</time>
      </trkpt>
      <trkpt lat="52.1702588" lon="21.0680015">
        <ele>88.0</ele>
        <time>2013-09-29T09:17:58Z</time>
      </trkpt>
      <trkpt lat="52.1701448" lon="21.068065">
        <ele>87.6</ele>
        <time>2013-09-29T09:18:03Z</time>
      </trkpt>
      <trkpt lat="52.1700262" lon="21.0681008">
        <ele>87.4</ele>
        <time>2013-09-29T09:18:07Z</time>
      </trkpt>
      <trkpt lat="52.1699276" lon="21.06813">
        <ele>86.8</ele>
        <time>2013-09-29T09:18:11Z</time>
      </trkpt>
      <trkpt lat="52.1698298" lon="21.0681962">
        <ele>86.2</ele>
        <time>2013-09-29T09:18:15Z</time>
      </trkpt>
      <trkpt lat="52.1697069" lon="21.0682366">
        <ele>85.6</ele>
        <time>2013-09-29T09:18:20Z</time>
      </trkpt>
      <trkpt lat="52.169562" lon="21.0682564">
        <ele>85.2</ele>
        <time>2013-09-29T09:18:26Z</time>
      </trkpt>
      <trkpt lat="52.1694341" lon="21.0682743">
        <ele>84.8</ele>
        <time>2013-09-29T09:18:31Z</time>
      </trkpt>
      <trkpt lat="52.1693082" lon="21.0683034">
        <ele>84.2</ele>
        <time>2013-09-29T09:18:36Z</time>
      </trkpt>
      <trkpt lat="52.1691823" lon="21.068346">
        <ele>84.0</ele>
        <time>2013-09-29T09:18:41Z</time>
      </trkpt>
      <trkpt lat="52.169086" lon="21.0683755">
        <ele>83.8</ele>
        <time>2013-09-29T09:18:45Z</time>
      </trkpt>
      <trkpt lat="52.1689539" lon="21.0684486">
        <ele>83.8</ele>
        <time>2013-09-29T09:18:50Z</time>
      </trkpt>
      <trkpt lat="52.1688228" lon="21.0684997">
        <ele>83.8</ele>
        <time>2013-09-29T09:18:55Z</time>
      </trkpt>
      <trkpt lat="52.1686699" lon="21.0685543">
        <ele>83.6</ele>
        <time>2013-09-29T09:19:01Z</time>
      </trkpt>
      <trkpt lat="52.1685094" lon="21.0686081">
        <ele>83.2</ele>
        <time>2013-09-29T09:19:07Z</time>
      </trkpt>
      <trkpt lat="52.1683497" lon="21.0686791">
        <ele>83.0</ele>
        <time>2013-09-29T09:19:13Z</time>
      </trkpt>
      <trkpt lat="52.168216" lon="21.0687324">
        <ele>82.6</ele>
        <time>2013-09-29T09:19:18Z</time>
      </trkpt>
      <trkpt lat="52.1680655" lon="21.0687641">
        <ele>82.4</ele>
        <time>2013-09-29T09:19:24Z</time>
      </trkpt>
      <trkpt lat="52.1679358" lon="21.0688096">
        <ele>82.2</ele>
        <time>2013-09-29T09:19:29Z</time>
      </trkpt>
      <trkpt lat="52.1677847" lon="21.0688397">
        <ele>81.8</ele>
        <time>2013-09-29T09:19:35Z</time>
      </trkpt>
      <trkpt lat="52.1676604" lon="21.0688711">
        <ele>81.6</ele>
        <time>2013-09-29T09:19:40Z</time>
      </trkpt>
      <trkpt lat="52.1675371" lon="21.068922">
        <ele>81.2</ele>
        <time>2013-09-29T09:19:45Z</time>
      </trkpt>
      <trkpt lat="52.1673599" lon="21.0690023">
        <ele>81.4</ele>
        <time>2013-09-29T09:19:52Z</time>
      </trkpt>
      <trkpt lat="52.1671817" lon="21.0690816">
        <ele>81.8</ele>
        <time>2013-09-29T09:19:59Z</time>
      </trkpt>
      <trkpt lat="52.1670093" lon="21.0691467">
        <ele>82.0</ele>
        <time>2013-09-29T09:20:06Z</time>
      </trkpt>
      <trkpt lat="52.1668869" lon="21.0692038">
        <ele>82.4</ele>
        <time>2013-09-29T09:20:11Z</time>
      </trkpt>
      <trkpt lat="52.1667361" lon="21.0692598">
        <ele>82.6</ele>
        <time>2013-09-29T09:20:17Z</time>
      </trkpt>
      <trkpt lat="52.1666156" lon="21.0693166">
        <ele>82.8</ele>
        <time>2013-09-29T09:20:22Z</time>
      </trkpt>
      <trkpt lat="52.1664617" lon="21.0693722">
        <ele>83.0</ele>
        <time>2013-09-29T09:20:28Z</time>
      </trkpt>
      <trkpt lat="52.1662784" lon="21.0694328">
        <ele>83.4</ele>
        <time>2013-09-29T09:20:35Z</time>
      </trkpt>
      <trkpt lat="52.1661213" lon="21.0695005">
        <ele>83.6</ele>
        <time>2013-09-29T09:20:41Z</time>
      </trkpt>
      <trkpt lat="52.1659484" lon="21.0695846">
        <ele>84.2</ele>
        <time>2013-09-29T09:20:47Z</time>
      </trkpt>
      <trkpt lat="52.1658208" lon="21.0696113">
        <ele>84.4</ele>
        <time>2013-09-29T09:20:52Z</time>
      </trkpt>
      <trkpt lat="52.1657086" lon="21.0696509">
        <ele>84.2</ele>
        <time>2013-09-29T09:20:57Z</time>
      </trkpt>
      <trkpt lat="52.1655806" lon="21.0696933">
        <ele>84.0</ele>
        <time>2013-09-29T09:21:02Z</time>
      </trkpt>
      <trkpt lat="52.1655552" lon="21.0697058">
        <ele>84.0</ele>
        <time>2013-09-29T09:21:03Z</time>
      </trkpt>
      <trkpt lat="52.1654205" lon="21.0698061">
        <ele>83.8</ele>
        <time>2013-09-29T09:21:08Z</time>
      </trkpt>
      <trkpt lat="52.1653024" lon="21.0698492">
        <ele>83.6</ele>
        <time>2013-09-29T09:21:12Z</time>
      </trkpt>
      <trkpt lat="52.1651697" lon="21.0699128">
        <ele>83.2</ele>
        <time>2013-09-29T09:21:17Z</time>
      </trkpt>
      <trkpt lat="52.1650958" lon="21.0699652">
        <ele>83.2</ele>
        <time>2013-09-29T09:21:20Z</time>
      </trkpt>
      <trkpt lat="52.1649973" lon="21.0700014">
        <ele>83.0</ele>
        <time>2013-09-29T09:21:25Z</time>
      </trkpt>
      <trkpt lat="52.1649117" lon="21.0700073">
        <ele>83.0</ele>
        <time>2013-09-29T09:21:28Z</time>
      </trkpt>
      <trkpt lat="52.1648336" lon="21.070015">
        <ele>83.2</ele>
        <time>2013-09-29T09:21:31Z</time>
      </trkpt>
      <trkpt lat="52.1646674" lon="21.0700911">
        <ele>83.4</ele>
        <time>2013-09-29T09:21:38Z</time>
      </trkpt>
      <trkpt lat="52.1645497" lon="21.070131">
        <ele>83.6</ele>
        <time>2013-09-29T09:21:43Z</time>
      </trkpt>
      <trkpt lat="52.1644067" lon="21.0701827">
        <ele>83.6</ele>
        <time>2013-09-29T09:21:49Z</time>
      </trkpt>
      <trkpt lat="52.1642794" lon="21.0702512">
        <ele>83.8</ele>
        <time>2013-09-29T09:21:54Z</time>
      </trkpt>
      <trkpt lat="52.1641436" lon="21.0703414">
        <ele>83.8</ele>
        <time>2013-09-29T09:21:59Z</time>
      </trkpt>
      <trkpt lat="52.1639735" lon="21.070406">
        <ele>83.6</ele>
        <time>2013-09-29T09:22:05Z</time>
      </trkpt>
      <trkpt lat="52.1638396" lon="21.0704465">
        <ele>83.6</ele>
        <time>2013-09-29T09:22:09Z</time>
      </trkpt>
      <trkpt lat="52.1636578" lon="21.0704485">
        <ele>83.2</ele>
        <time>2013-09-29T09:22:14Z</time>
      </trkpt>
      <trkpt lat="52.1635412" lon="21.0704774">
        <ele>83.2</ele>
        <time>2013-09-29T09:22:18Z</time>
      </trkpt>
      <trkpt lat="52.1634251" lon="21.0705152">
        <ele>83.0</ele>
        <time>2013-09-29T09:22:23Z</time>
      </trkpt>
      <trkpt lat="52.163322" lon="21.0705479">
        <ele>83.0</ele>
        <time>2013-09-29T09:22:28Z</time>
      </trkpt>
      <trkpt lat="52.1631929" lon="21.0705836">
        <ele>83.0</ele>
        <time>2013-09-29T09:22:33Z</time>
      </trkpt>
      <trkpt lat="52.1630406" lon="21.0706086">
        <ele>83.2</ele>
        <time>2013-09-29T09:22:39Z</time>
      </trkpt>
      <trkpt lat="52.1628906" lon="21.0706594">
        <ele>83.4</ele>
        <time>2013-09-29T09:22:44Z</time>
      </trkpt>
      <trkpt lat="52.162688" lon="21.0706936">
        <ele>83.6</ele>
        <time>2013-09-29T09:22:50Z</time>
      </trkpt>
      <trkpt lat="52.1625135" lon="21.0707589">
        <ele>83.8</ele>
        <time>2013-09-29T09:22:56Z</time>
      </trkpt>
      <trkpt lat="52.1623972" lon="21.0708107">
        <ele>83.8</ele>
        <time>2013-09-29T09:23:01Z</time>
      </trkpt>
      <trkpt lat="52.1623037" lon="21.0708769">
        <ele>83.6</ele>
        <time>2013-09-29T09:23:06Z</time>
      </trkpt>
      <trkpt lat="52.1622192" lon="21.0709043">
        <ele>83.6</ele>
        <time>2013-09-29T09:23:10Z</time>
      </trkpt>
      <trkpt lat="52.1620964" lon="21.0709651">
        <ele>83.4</ele>
        <time>2013-09-29T09:23:15Z</time>
      </trkpt>
      <trkpt lat="52.1619688" lon="21.0710219">
        <ele>83.4</ele>
        <time>2013-09-29T09:23:20Z</time>
      </trkpt>
      <trkpt lat="52.1618121" lon="21.071084">
        <ele>83.2</ele>
        <time>2013-09-29T09:23:26Z</time>
      </trkpt>
      <trkpt lat="52.1616758" lon="21.071178">
        <ele>83.4</ele>
        <time>2013-09-29T09:23:31Z</time>
      </trkpt>
      <trkpt lat="52.1615526" lon="21.0712541">
        <ele>83.4</ele>
        <time>2013-09-29T09:23:36Z</time>
      </trkpt>
      <trkpt lat="52.16144" lon="21.0713479">
        <ele>83.6</ele>
        <time>2013-09-29T09:23:42Z</time>
      </trkpt>
      <trkpt lat="52.1613291" lon="21.0714489">
        <ele>83.6</ele>
        <time>2013-09-29T09:23:47Z</time>
      </trkpt>
      <trkpt lat="52.161206" lon="21.0715607">
        <ele>83.8</ele>
        <time>2013-09-29T09:23:52Z</time>
      </trkpt>
      <trkpt lat="52.161063" lon="21.0716587">
        <ele>83.8</ele>
        <time>2013-09-29T09:23:57Z</time>
      </trkpt>
      <trkpt lat="52.1609366" lon="21.0717488">
        <ele>83.8</ele>
        <time>2013-09-29T09:24:02Z</time>
      </trkpt>
      <trkpt lat="52.1608568" lon="21.0718395">
        <ele>83.8</ele>
        <time>2013-09-29T09:24:06Z</time>
      </trkpt>
      <trkpt lat="52.1607574" lon="21.0719156">
        <ele>84.0</ele>
        <time>2013-09-29T09:24:10Z</time>
      </trkpt>
      <trkpt lat="52.1606883" lon="21.0719602">
        <ele>84.0</ele>
        <time>2013-09-29T09:24:13Z</time>
      </trkpt>
      <trkpt lat="52.1606469" lon="21.0720047">
        <ele>84.0</ele>
        <time>2013-09-29T09:24:15Z</time>
      </trkpt>
      <trkpt lat="52.1605585" lon="21.072084">
        <ele>84.0</ele>
        <time>2013-09-29T09:24:20Z</time>
      </trkpt>
      <trkpt lat="52.1604559" lon="21.0721876">
        <ele>84.0</ele>
        <time>2013-09-29T09:24:25Z</time>
      </trkpt>
      <trkpt lat="52.1603777" lon="21.0722775">
        <ele>84.0</ele>
        <time>2013-09-29T09:24:29Z</time>
      </trkpt>
      <trkpt lat="52.1603257" lon="21.0722912">
        <ele>84.0</ele>
        <time>2013-09-29T09:24:31Z</time>
      </trkpt>
      <trkpt lat="52.1602819" lon="21.0721581">
        <ele>84.0</ele>
        <time>2013-09-29T09:24:35Z</time>
      </trkpt>
      <trkpt lat="52.1603073" lon="21.0720767">
        <ele>84.0</ele>
        <time>2013-09-29T09:24:37Z</time>
      </trkpt>
      <trkpt lat="52.1604564" lon="21.0718721">
        <ele>84.0</ele>
        <time>2013-09-29T09:24:43Z</time>
      </trkpt>
      <trkpt lat="52.1605854" lon="21.0717394">
        <ele>84.0</ele>
        <time>2013-09-29T09:24:48Z</time>
      </trkpt>
      <trkpt lat="52.1606828" lon="21.0716627">
        <ele>83.8</ele>
        <time>2013-09-29T09:24:52Z</time>
      </trkpt>
      <trkpt lat="52.1607864" lon="21.0715726">
        <ele>83.8</ele>
        <time>2013-09-29T09:24:56Z</time>
      </trkpt>
      <trkpt lat="52.1609082" lon="21.0714391">
        <ele>83.6</ele>
        <time>2013-09-29T09:25:01Z</time>
      </trkpt>
      <trkpt lat="52.1610273" lon="21.0713379">
        <ele>83.6</ele>
        <time>2013-09-29T09:25:06Z</time>
      </trkpt>
      <trkpt lat="52.1611428" lon="21.071251">
        <ele>83.4</ele>
        <time>2013-09-29T09:25:11Z</time>
      </trkpt>
      <trkpt lat="52.1612905" lon="21.0711379">
        <ele>83.2</ele>
        <time>2013-09-29T09:25:17Z</time>
      </trkpt>
      <trkpt lat="52.1613939" lon="21.0710625">
        <ele>83.2</ele>
        <time>2013-09-29T09:25:21Z</time>
      </trkpt>
      <trkpt lat="52.1615271" lon="21.0709801">
        <ele>83.0</ele>
        <time>2013-09-29T09:25:26Z</time>
      </trkpt>
      <trkpt lat="52.1616518" lon="21.0709065">
        <ele>83.0</ele>
        <time>2013-09-29T09:25:31Z</time>
      </trkpt>
      <trkpt lat="52.1617898" lon="21.0708462">
        <ele>83.0</ele>
        <time>2013-09-29T09:25:36Z</time>
      </trkpt>
      <trkpt lat="52.1619043" lon="21.0707862">
        <ele>83.2</ele>
        <time>2013-09-29T09:25:41Z</time>
      </trkpt>
      <trkpt lat="52.1619949" lon="21.0706967">
        <ele>83.4</ele>
        <time>2013-09-29T09:25:46Z</time>
      </trkpt>
      <trkpt lat="52.1621359" lon="21.0706377">
        <ele>83.6</ele>
        <time>2013-09-29T09:25:51Z</time>
      </trkpt>
      <trkpt lat="52.162254" lon="21.0705698">
        <ele>83.6</ele>
        <time>2013-09-29T09:25:56Z</time>
      </trkpt>
      <trkpt lat="52.1623804" lon="21.0705025">
        <ele>83.8</ele>
        <time>2013-09-29T09:26:01Z</time>
      </trkpt>
      <trkpt lat="52.1625047" lon="21.0704713">
        <ele>83.8</ele>
        <time>2013-09-29T09:26:06Z</time>
      </trkpt>
      <trkpt lat="52.1626056" lon="21.0704284">
        <ele>83.8</ele>
        <time>2013-09-29T09:26:10Z</time>
      </trkpt>
      <trkpt lat="52.1627155" lon="21.07039">
        <ele>83.6</ele>
        <time>2013-09-29T09:26:15Z</time>
      </trkpt>
      <trkpt lat="52.162804" lon="21.070346">
        <ele>83.6</ele>
        <time>2013-09-29T09:26:19Z</time>
      </trkpt>
      <trkpt lat="52.1629579" lon="21.0702663">
        <ele>83.4</ele>
        <time>2013-09-29T09:26:25Z</time>
      </trkpt>
      <trkpt lat="52.1630486" lon="21.0702191">
        <ele>83.2</ele>
        <time>2013-09-29T09:26:29Z</time>
      </trkpt>
      <trkpt lat="52.1631434" lon="21.0701865">
        <ele>83.2</ele>
        <time>2013-09-29T09:26:33Z</time>
      </trkpt>
      <trkpt lat="52.1632666" lon="21.0701465">
        <ele>83.0</ele>
        <time>2013-09-29T09:26:38Z</time>
      </trkpt>
      <trkpt lat="52.1633717" lon="21.0701086">
        <ele>83.0</ele>
        <time>2013-09-29T09:26:42Z</time>
      </trkpt>
      <trkpt lat="52.1634941" lon="21.0700446">
        <ele>83.0</ele>
        <time>2013-09-29T09:26:47Z</time>
      </trkpt>
      <trkpt lat="52.1636189" lon="21.0699855">
        <ele>83.2</ele>
        <time>2013-09-29T09:26:52Z</time>
      </trkpt>
      <trkpt lat="52.1637261" lon="21.0699435">
        <ele>83.4</ele>
        <time>2013-09-29T09:26:56Z</time>
      </trkpt>
      <trkpt lat="52.1638602" lon="21.0698861">
        <ele>83.4</ele>
        <time>2013-09-29T09:27:01Z</time>
      </trkpt>
      <trkpt lat="52.1639965" lon="21.0698362">
        <ele>83.6</ele>
        <time>2013-09-29T09:27:06Z</time>
      </trkpt>
      <trkpt lat="52.1641245" lon="21.0697705">
        <ele>83.6</ele>
        <time>2013-09-29T09:27:11Z</time>
      </trkpt>
      <trkpt lat="52.1642788" lon="21.0696932">
        <ele>83.4</ele>
        <time>2013-09-29T09:27:17Z</time>
      </trkpt>
      <trkpt lat="52.164374" lon="21.0696487">
        <ele>83.4</ele>
        <time>2013-09-29T09:27:21Z</time>
      </trkpt>
      <trkpt lat="52.1644995" lon="21.0695903">
        <ele>83.2</ele>
        <time>2013-09-29T09:27:26Z</time>
      </trkpt>
      <trkpt lat="52.1646003" lon="21.0695452">
        <ele>83.2</ele>
        <time>2013-09-29T09:27:30Z</time>
      </trkpt>
      <trkpt lat="52.1647171" lon="21.069511">
        <ele>83.0</ele>
        <time>2013-09-29T09:27:34Z</time>
      </trkpt>
      <trkpt lat="52.1648796" lon="21.069453">
        <ele>83.0</ele>
        <time>2013-09-29T09:27:40Z</time>
      </trkpt>
      <trkpt lat="52.1650284" lon="21.069385">
        <ele>83.0</ele>
        <time>2013-09-29T09:27:46Z</time>
      </trkpt>
      <trkpt lat="52.1651071" lon="21.0693468">
        <ele>83.0</ele>
        <time>2013-09-29T09:27:50Z</time>
      </trkpt>
      <trkpt lat="52.1652188" lon="21.0693841">
        <ele>83.2</ele>
        <time>2013-09-29T09:27:55Z</time>
      </trkpt>
      <trkpt lat="52.1653459" lon="21.0693897">
        <ele>83.4</ele>
        <time>2013-09-29T09:28:00Z</time>
      </trkpt>
      <trkpt lat="52.1654609" lon="21.069369">
        <ele>83.6</ele>
        <time>2013-09-29T09:28:05Z</time>
      </trkpt>
      <trkpt lat="52.1655737" lon="21.0693307">
        <ele>83.8</ele>
        <time>2013-09-29T09:28:10Z</time>
      </trkpt>
      <trkpt lat="52.165707" lon="21.0692893">
        <ele>83.8</ele>
        <time>2013-09-29T09:28:15Z</time>
      </trkpt>
      <trkpt lat="52.1658096" lon="21.0692348">
        <ele>84.0</ele>
        <time>2013-09-29T09:28:20Z</time>
      </trkpt>
      <trkpt lat="52.1658731" lon="21.0691945">
        <ele>83.8</ele>
        <time>2013-09-29T09:28:24Z</time>
      </trkpt>
      <trkpt lat="52.1660204" lon="21.0691598">
        <ele>83.6</ele>
        <time>2013-09-29T09:28:30Z</time>
      </trkpt>
      <trkpt lat="52.1661378" lon="21.0691539">
        <ele>83.6</ele>
        <time>2013-09-29T09:28:35Z</time>
      </trkpt>
      <trkpt lat="52.1662569" lon="21.0691114">
        <ele>83.4</ele>
        <time>2013-09-29T09:28:40Z</time>
      </trkpt>
      <trkpt lat="52.1663918" lon="21.0690717">
        <ele>83.2</ele>
        <time>2013-09-29T09:28:46Z</time>
      </trkpt>
      <trkpt lat="52.1665144" lon="21.0690442">
        <ele>83.0</ele>
        <time>2013-09-29T09:28:51Z</time>
      </trkpt>
      <trkpt lat="52.1666284" lon="21.0689809">
        <ele>83.0</ele>
        <time>2013-09-29T09:28:56Z</time>
      </trkpt>
      <trkpt lat="52.166784" lon="21.0689345">
        <ele>82.6</ele>
        <time>2013-09-29T09:29:02Z</time>
      </trkpt>
      <trkpt lat="52.1669331" lon="21.0688841">
        <ele>82.4</ele>
        <time>2013-09-29T09:29:08Z</time>
      </trkpt>
      <trkpt lat="52.1670637" lon="21.0688262">
        <ele>82.2</ele>
        <time>2013-09-29T09:29:13Z</time>
      </trkpt>
      <trkpt lat="52.16723" lon="21.0687837">
        <ele>81.8</ele>
        <time>2013-09-29T09:29:19Z</time>
      </trkpt>
      <trkpt lat="52.1673595" lon="21.0687257">
        <ele>81.6</ele>
        <time>2013-09-29T09:29:24Z</time>
      </trkpt>
      <trkpt lat="52.1675158" lon="21.0686703">
        <ele>81.6</ele>
        <time>2013-09-29T09:29:30Z</time>
      </trkpt>
      <trkpt lat="52.1676262" lon="21.068632">
        <ele>81.8</ele>
        <time>2013-09-29T09:29:34Z</time>
      </trkpt>
      <trkpt lat="52.1678106" lon="21.0685682">
        <ele>82.0</ele>
        <time>2013-09-29T09:29:41Z</time>
      </trkpt>
      <trkpt lat="52.1679426" lon="21.0685137">
        <ele>82.4</ele>
        <time>2013-09-29T09:29:46Z</time>
      </trkpt>
      <trkpt lat="52.1680831" lon="21.068476">
        <ele>82.6</ele>
        <time>2013-09-29T09:29:51Z</time>
      </trkpt>
      <trkpt lat="52.1682079" lon="21.0684232">
        <ele>82.8</ele>
        <time>2013-09-29T09:29:56Z</time>
      </trkpt>
      <trkpt lat="52.1683415" lon="21.0683765">
        <ele>83.0</ele>
        <time>2013-09-29T09:30:01Z</time>
      </trkpt>
      <trkpt lat="52.1684638" lon="21.0683191">
        <ele>83.0</ele>
        <time>2013-09-29T09:30:06Z</time>
      </trkpt>
      <trkpt lat="52.1685763" lon="21.0682361">
        <ele>83.2</ele>
        <time>2013-09-29T09:30:11Z</time>
      </trkpt>
      <trkpt lat="52.1687291" lon="21.068144">
        <ele>83.4</ele>
        <time>2013-09-29T09:30:17Z</time>
      </trkpt>
      <trkpt lat="52.168917" lon="21.0680709">
        <ele>83.8</ele>
        <time>2013-09-29T09:30:24Z</time>
      </trkpt>
      <trkpt lat="52.1690526" lon="21.0680122">
        <ele>84.0</ele>
        <time>2013-09-29T09:30:29Z</time>
      </trkpt>
      <trkpt lat="52.1691899" lon="21.0679554">
        <ele>84.4</ele>
        <time>2013-09-29T09:30:34Z</time>
      </trkpt>
      <trkpt lat="52.169303" lon="21.0679316">
        <ele>85.0</ele>
        <time>2013-09-29T09:30:38Z</time>
      </trkpt>
      <trkpt lat="52.1694371" lon="21.0679129">
        <ele>85.8</ele>
        <time>2013-09-29T09:30:43Z</time>
      </trkpt>
      <trkpt lat="52.1695702" lon="21.0678771">
        <ele>86.4</ele>
        <time>2013-09-29T09:30:48Z</time>
      </trkpt>
      <trkpt lat="52.1696955" lon="21.0677787">
        <ele>87.6</ele>
        <time>2013-09-29T09:30:53Z</time>
      </trkpt>
      <trkpt lat="52.1697753" lon="21.0674866">
        <ele>89.4</ele>
        <time>2013-09-29T09:31:00Z</time>
      </trkpt>
      <trkpt lat="52.1698449" lon="21.0672401">
        <ele>91.6</ele>
        <time>2013-09-29T09:31:06Z</time>
      </trkpt>
      <trkpt lat="52.1698779" lon="21.0670733">
        <ele>93.0</ele>
        <time>2013-09-29T09:31:10Z</time>
      </trkpt>
      <trkpt lat="52.1699297" lon="21.0668598">
        <ele>95.2</ele>
        <time>2013-09-29T09:31:15Z</time>
      </trkpt>
      <trkpt lat="52.1699759" lon="21.0665914">
        <ele>96.8</ele>
        <time>2013-09-29T09:31:21Z</time>
      </trkpt>
      <trkpt lat="52.1700068" lon="21.066377">
        <ele>95.4</ele>
        <time>2013-09-29T09:31:26Z</time>
      </trkpt>
      <trkpt lat="52.1700531" lon="21.0662097">
        <ele>93.8</ele>
        <time>2013-09-29T09:31:30Z</time>
      </trkpt>
      <trkpt lat="52.1700715" lon="21.066017">
        <ele>92.2</ele>
        <time>2013-09-29T09:31:34Z</time>
      </trkpt>
      <trkpt lat="52.1701002" lon="21.0657808">
        <ele>90.4</ele>
        <time>2013-09-29T09:31:39Z</time>
      </trkpt>
      <trkpt lat="52.170136" lon="21.0656032">
        <ele>89.6</ele>
        <time>2013-09-29T09:31:43Z</time>
      </trkpt>
      <trkpt lat="52.1701697" lon="21.0654144">
        <ele>88.8</ele>
        <time>2013-09-29T09:31:47Z</time>
      </trkpt>
      <trkpt lat="52.1701898" lon="21.0652056">
        <ele>88.2</ele>
        <time>2013-09-29T09:31:52Z</time>
      </trkpt>
      <trkpt lat="52.1702124" lon="21.0649794">
        <ele>87.4</ele>
        <time>2013-09-29T09:31:57Z</time>
      </trkpt>
      <trkpt lat="52.170269" lon="21.0647664">
        <ele>87.4</ele>
        <time>2013-09-29T09:32:02Z</time>
      </trkpt>
      <trkpt lat="52.1702955" lon="21.0647049">
        <ele>87.6</ele>
        <time>2013-09-29T09:32:04Z</time>
      </trkpt>
      <trkpt lat="52.1703308" lon="21.064434">
        <ele>87.6</ele>
        <time>2013-09-29T09:32:11Z</time>
      </trkpt>
      <trkpt lat="52.1703712" lon="21.0642567">
        <ele>87.6</ele>
        <time>2013-09-29T09:32:15Z</time>
      </trkpt>
      <trkpt lat="52.1704364" lon="21.0640041">
        <ele>87.6</ele>
        <time>2013-09-29T09:32:21Z</time>
      </trkpt>
      <trkpt lat="52.1704841" lon="21.0638132">
        <ele>87.2</ele>
        <time>2013-09-29T09:32:25Z</time>
      </trkpt>
      <trkpt lat="52.1705286" lon="21.0635967">
        <ele>86.8</ele>
        <time>2013-09-29T09:32:30Z</time>
      </trkpt>
      <trkpt lat="52.1705509" lon="21.0634203">
        <ele>86.2</ele>
        <time>2013-09-29T09:32:35Z</time>
      </trkpt>
      <trkpt lat="52.1704924" lon="21.0633565">
        <ele>86.0</ele>
        <time>2013-09-29T09:32:40Z</time>
      </trkpt>
      <trkpt lat="52.1704385" lon="21.0633912">
        <ele>86.0</ele>
        <time>2013-09-29T09:32:43Z</time>
      </trkpt>
      <trkpt lat="52.1703043" lon="21.0634565">
        <ele>86.2</ele>
        <time>2013-09-29T09:32:48Z</time>
      </trkpt>
      <trkpt lat="52.1701923" lon="21.0634462">
        <ele>86.0</ele>
        <time>2013-09-29T09:32:52Z</time>
      </trkpt>
      <trkpt lat="52.1701671" lon="21.0632447">
        <ele>85.8</ele>
        <time>2013-09-29T09:32:57Z</time>
      </trkpt>
      <trkpt lat="52.1701935" lon="21.0629888">
        <ele>85.8</ele>
        <time>2013-09-29T09:33:03Z</time>
      </trkpt>
      <trkpt lat="52.1701987" lon="21.0628256">
        <ele>85.6</ele>
        <time>2013-09-29T09:33:07Z</time>
      </trkpt>
      <trkpt lat="52.170207" lon="21.0626484">
        <ele>85.4</ele>
        <time>2013-09-29T09:33:11Z</time>
      </trkpt>
      <trkpt lat="52.1702246" lon="21.0624309">
        <ele>85.4</ele>
        <time>2013-09-29T09:33:16Z</time>
      </trkpt>
      <trkpt lat="52.1702364" lon="21.0621688">
        <ele>85.2</ele>
        <time>2013-09-29T09:33:22Z</time>
      </trkpt>
      <trkpt lat="52.1702401" lon="21.0619525">
        <ele>85.0</ele>
        <time>2013-09-29T09:33:27Z</time>
      </trkpt>
      <trkpt lat="52.1702727" lon="21.0617253">
        <ele>85.0</ele>
        <time>2013-09-29T09:33:32Z</time>
      </trkpt>
      <trkpt lat="52.1702935" lon="21.0615057">
        <ele>85.2</ele>
        <time>2013-09-29T09:33:37Z</time>
      </trkpt>
      <trkpt lat="52.1703058" lon="21.0613244">
        <ele>85.4</ele>
        <time>2013-09-29T09:33:41Z</time>
      </trkpt>
      <trkpt lat="52.1703116" lon="21.0610934">
        <ele>85.8</ele>
        <time>2013-09-29T09:33:46Z</time>
      </trkpt>
      <trkpt lat="52.1703048" lon="21.0608727">
        <ele>86.2</ele>
        <time>2013-09-29T09:33:51Z</time>
      </trkpt>
      <trkpt lat="52.1703023" lon="21.0606707">
        <ele>86.2</ele>
        <time>2013-09-29T09:33:56Z</time>
      </trkpt>
      <trkpt lat="52.1702986" lon="21.0604571">
        <ele>86.2</ele>
        <time>2013-09-29T09:34:01Z</time>
      </trkpt>
      <trkpt lat="52.1702964" lon="21.060208">
        <ele>86.2</ele>
        <time>2013-09-29T09:34:07Z</time>
      </trkpt>
      <trkpt lat="52.1702815" lon="21.0600257">
        <ele>86.2</ele>
        <time>2013-09-29T09:34:11Z</time>
      </trkpt>
      <trkpt lat="52.1702649" lon="21.059833">
        <ele>86.2</ele>
        <time>2013-09-29T09:34:16Z</time>
      </trkpt>
      <trkpt lat="52.1702245" lon="21.0596279">
        <ele>86.0</ele>
        <time>2013-09-29T09:34:21Z</time>
      </trkpt>
      <trkpt lat="52.1701831" lon="21.0594658">
        <ele>86.0</ele>
        <time>2013-09-29T09:34:25Z</time>
      </trkpt>
      <trkpt lat="52.1701136" lon="21.0592689">
        <ele>86.0</ele>
        <time>2013-09-29T09:34:30Z</time>
      </trkpt>
      <trkpt lat="52.1700407" lon="21.0589901">
        <ele>86.2</ele>
        <time>2013-09-29T09:34:37Z</time>
      </trkpt>
      <trkpt lat="52.1699651" lon="21.0587499">
        <ele>86.2</ele>
        <time>2013-09-29T09:34:43Z</time>
      </trkpt>
      <trkpt lat="52.1699218" lon="21.0585308">
        <ele>86.4</ele>
        <time>2013-09-29T09:34:48Z</time>
      </trkpt>
      <trkpt lat="52.1698899" lon="21.0582769">
        <ele>86.6</ele>
        <time>2013-09-29T09:34:54Z</time>
      </trkpt>
      <trkpt lat="52.1698519" lon="21.0580739">
        <ele>86.2</ele>
        <time>2013-09-29T09:34:59Z</time>
      </trkpt>
      <trkpt lat="52.1698221" lon="21.0578232">
        <ele>86.0</ele>
        <time>2013-09-29T09:35:05Z</time>
      </trkpt>
      <trkpt lat="52.1698081" lon="21.0576377">
        <ele>85.8</ele>
        <time>2013-09-29T09:35:09Z</time>
      </trkpt>
      <trkpt lat="52.1697971" lon="21.0574341">
        <ele>85.6</ele>
        <time>2013-09-29T09:35:14Z</time>
      </trkpt>
      <trkpt lat="52.169791" lon="21.0571694">
        <ele>85.4</ele>
        <time>2013-09-29T09:35:20Z</time>
      </trkpt>
      <trkpt lat="52.1697806" lon="21.0570243">
        <ele>85.2</ele>
        <time>2013-09-29T09:35:24Z</time>
      </trkpt>
      <trkpt lat="52.1697635" lon="21.056702">
        <ele>85.0</ele>
        <time>2013-09-29T09:35:31Z</time>
      </trkpt>
      <trkpt lat="52.1697511" lon="21.056525">
        <ele>84.8</ele>
        <time>2013-09-29T09:35:35Z</time>
      </trkpt>
      <trkpt lat="52.1697345" lon="21.0562981">
        <ele>84.6</ele>
        <time>2013-09-29T09:35:40Z</time>
      </trkpt>
      <trkpt lat="52.1697262" lon="21.0561184">
        <ele>84.4</ele>
        <time>2013-09-29T09:35:44Z</time>
      </trkpt>
      <trkpt lat="52.1697058" lon="21.055806">
        <ele>84.2</ele>
        <time>2013-09-29T09:35:51Z</time>
      </trkpt>
      <trkpt lat="52.1696827" lon="21.0555869">
        <ele>84.6</ele>
        <time>2013-09-29T09:35:56Z</time>
      </trkpt>
      <trkpt lat="52.169666" lon="21.0553616">
        <ele>85.0</ele>
        <time>2013-09-29T09:36:01Z</time>
      </trkpt>
      <trkpt lat="52.169647" lon="21.0551195">
        <ele>85.4</ele>
        <time>2013-09-29T09:36:06Z</time>
      </trkpt>
      <trkpt lat="52.1696157" lon="21.0548845">
        <ele>85.4</ele>
        <time>2013-09-29T09:36:11Z</time>
      </trkpt>
      <trkpt lat="52.1695806" lon="21.054669">
        <ele>85.2</ele>
        <time>2013-09-29T09:36:16Z</time>
      </trkpt>
      <trkpt lat="52.1695619" lon="21.0543991">
        <ele>85.0</ele>
        <time>2013-09-29T09:36:22Z</time>
      </trkpt>
      <trkpt lat="52.1695701" lon="21.0541634">
        <ele>85.0</ele>
        <time>2013-09-29T09:36:27Z</time>
      </trkpt>
      <trkpt lat="52.1695755" lon="21.0539433">
        <ele>85.0</ele>
        <time>2013-09-29T09:36:32Z</time>
      </trkpt>
      <trkpt lat="52.1695123" lon="21.053705">
        <ele>85.2</ele>
        <time>2013-09-29T09:36:38Z</time>
      </trkpt>
      <trkpt lat="52.1694837" lon="21.0534976">
        <ele>85.4</ele>
        <time>2013-09-29T09:36:43Z</time>
      </trkpt>
      <trkpt lat="52.1694646" lon="21.0532899">
        <ele>85.4</ele>
        <time>2013-09-29T09:36:48Z</time>
      </trkpt>
      <trkpt lat="52.1694209" lon="21.0530687">
        <ele>85.2</ele>
        <time>2013-09-29T09:36:53Z</time>
      </trkpt>
      <trkpt lat="52.1693691" lon="21.0528622">
        <ele>84.8</ele>
        <time>2013-09-29T09:36:58Z</time>
      </trkpt>
      <trkpt lat="52.1693175" lon="21.0526042">
        <ele>84.2</ele>
        <time>2013-09-29T09:37:04Z</time>
      </trkpt>
      <trkpt lat="52.1692637" lon="21.0523929">
        <ele>84.0</ele>
        <time>2013-09-29T09:37:09Z</time>
      </trkpt>
      <trkpt lat="52.1692186" lon="21.0521826">
        <ele>84.0</ele>
        <time>2013-09-29T09:37:14Z</time>
      </trkpt>
      <trkpt lat="52.1691671" lon="21.0518738">
        <ele>84.0</ele>
        <time>2013-09-29T09:37:21Z</time>
      </trkpt>
      <trkpt lat="52.1691278" lon="21.0517049">
        <ele>84.0</ele>
        <time>2013-09-29T09:37:25Z</time>
      </trkpt>
      <trkpt lat="52.1690854" lon="21.0515385">
        <ele>84.2</ele>
        <time>2013-09-29T09:37:29Z</time>
      </trkpt>
      <trkpt lat="52.1690311" lon="21.0512884">
        <ele>84.6</ele>
        <time>2013-09-29T09:37:35Z</time>
      </trkpt>
      <trkpt lat="52.1689951" lon="21.0511007">
        <ele>84.8</ele>
        <time>2013-09-29T09:37:40Z</time>
      </trkpt>
      <trkpt lat="52.1689435" lon="21.0508552">
        <ele>85.2</ele>
        <time>2013-09-29T09:37:46Z</time>
      </trkpt>
      <trkpt lat="52.1688954" lon="21.0506103">
        <ele>85.4</ele>
        <time>2013-09-29T09:37:52Z</time>
      </trkpt>
      <trkpt lat="52.1688726" lon="21.0504031">
        <ele>85.6</ele>
        <time>2013-09-29T09:37:57Z</time>
      </trkpt>
      <trkpt lat="52.1688269" lon="21.0501965">
        <ele>86.0</ele>
        <time>2013-09-29T09:38:02Z</time>
      </trkpt>
      <trkpt lat="52.1687949" lon="21.0499862">
        <ele>86.2</ele>
        <time>2013-09-29T09:38:07Z</time>
      </trkpt>
      <trkpt lat="52.1687627" lon="21.0497785">
        <ele>86.8</ele>
        <time>2013-09-29T09:38:12Z</time>
      </trkpt>
      <trkpt lat="52.1687311" lon="21.0496049">
        <ele>87.2</ele>
        <time>2013-09-29T09:38:16Z</time>
      </trkpt>
      <trkpt lat="52.1686964" lon="21.049406">
        <ele>87.6</ele>
        <time>2013-09-29T09:38:21Z</time>
      </trkpt>
      <trkpt lat="52.1686642" lon="21.0492532">
        <ele>88.0</ele>
        <time>2013-09-29T09:38:25Z</time>
      </trkpt>
      <trkpt lat="52.1686441" lon="21.0491785">
        <ele>88.2</ele>
        <time>2013-09-29T09:38:27Z</time>
      </trkpt>
      <trkpt lat="52.1686078" lon="21.0489288">
        <ele>88.8</ele>
        <time>2013-09-29T09:38:33Z</time>
      </trkpt>
      <trkpt lat="52.168584" lon="21.0487507">
        <ele>89.2</ele>
        <time>2013-09-29T09:38:37Z</time>
      </trkpt>
      <trkpt lat="52.1685543" lon="21.0485358">
        <ele>89.6</ele>
        <time>2013-09-29T09:38:42Z</time>
      </trkpt>
      <trkpt lat="52.168527" lon="21.0483342">
        <ele>90.2</ele>
        <time>2013-09-29T09:38:47Z</time>
      </trkpt>
      <trkpt lat="52.1685074" lon="21.0482119">
        <ele>90.8</ele>
        <time>2013-09-29T09:38:50Z</time>
      </trkpt>
      <trkpt lat="52.1684716" lon="21.0479198">
        <ele>92.2</ele>
        <time>2013-09-29T09:38:57Z</time>
      </trkpt>
      <trkpt lat="52.1684306" lon="21.0476785">
        <ele>93.6</ele>
        <time>2013-09-29T09:39:03Z</time>
      </trkpt>
      <trkpt lat="52.1683763" lon="21.0474147">
        <ele>94.8</ele>
        <time>2013-09-29T09:39:10Z</time>
      </trkpt>
      <trkpt lat="52.1683119" lon="21.0471946">
        <ele>95.8</ele>
        <time>2013-09-29T09:39:16Z</time>
      </trkpt>
      <trkpt lat="52.1682582" lon="21.0470289">
        <ele>96.4</ele>
        <time>2013-09-29T09:39:21Z</time>
      </trkpt>
      <trkpt lat="52.1682199" lon="21.0468437">
        <ele>96.8</ele>
        <time>2013-09-29T09:39:26Z</time>
      </trkpt>
      <trkpt lat="52.1682194" lon="21.0468123">
        <ele>97.0</ele>
        <time>2013-09-29T09:39:27Z</time>
      </trkpt>
      <trkpt lat="52.1681499" lon="21.0465684">
        <ele>97.4</ele>
        <time>2013-09-29T09:39:33Z</time>
      </trkpt>
      <trkpt lat="52.1681277" lon="21.0464067">
        <ele>97.6</ele>
        <time>2013-09-29T09:39:37Z</time>
      </trkpt>
      <trkpt lat="52.1680691" lon="21.0461762">
        <ele>97.8</ele>
        <time>2013-09-29T09:39:43Z</time>
      </trkpt>
      <trkpt lat="52.1680583" lon="21.0461325">
        <ele>97.8</ele>
        <time>2013-09-29T09:39:44Z</time>
      </trkpt>
      <trkpt lat="52.1679904" lon="21.0459234">
        <ele>97.8</ele>
        <time>2013-09-29T09:39:50Z</time>
      </trkpt>
      <trkpt lat="52.1679063" lon="21.0457142">
        <ele>98.0</ele>
        <time>2013-09-29T09:39:56Z</time>
      </trkpt>
      <trkpt lat="52.1678038" lon="21.045467">
        <ele>98.4</ele>
        <time>2013-09-29T09:40:03Z</time>
      </trkpt>
      <trkpt lat="52.1677329" lon="21.0452293">
        <ele>98.6</ele>
        <time>2013-09-29T09:40:10Z</time>
      </trkpt>
      <trkpt lat="52.1676754" lon="21.0450706">
        <ele>98.8</ele>
        <time>2013-09-29T09:40:15Z</time>
      </trkpt>
      <trkpt lat="52.1676353" lon="21.0449056">
        <ele>99.0</ele>
        <time>2013-09-29T09:40:20Z</time>
      </trkpt>
      <trkpt lat="52.167618" lon="21.044733">
        <ele>99.0</ele>
        <time>2013-09-29T09:40:25Z</time>
      </trkpt>
      <trkpt lat="52.1675672" lon="21.044573">
        <ele>99.0</ele>
        <time>2013-09-29T09:40:30Z</time>
      </trkpt>
      <trkpt lat="52.1674439" lon="21.0446196">
        <ele>99.0</ele>
        <time>2013-09-29T09:40:35Z</time>
      </trkpt>
      <trkpt lat="52.1673475" lon="21.0446952">
        <ele>99.2</ele>
        <time>2013-09-29T09:40:39Z</time>
      </trkpt>
      <trkpt lat="52.1672362" lon="21.0447997">
        <ele>99.4</ele>
        <time>2013-09-29T09:40:44Z</time>
      </trkpt>
      <trkpt lat="52.1670932" lon="21.0449045">
        <ele>99.8</ele>
        <time>2013-09-29T09:40:50Z</time>
      </trkpt>
      <trkpt lat="52.1669676" lon="21.0449698">
        <ele>100.2</ele>
        <time>2013-09-29T09:40:55Z</time>
      </trkpt>
      <trkpt lat="52.1668192" lon="21.0450319">
        <ele>100.4</ele>
        <time>2013-09-29T09:41:01Z</time>
      </trkpt>
      <trkpt lat="52.166685" lon="21.0450563">
        <ele>100.8</ele>
        <time>2013-09-29T09:41:06Z</time>
      </trkpt>
      <trkpt lat="52.1665568" lon="21.0450721">
        <ele>100.6</ele>
        <time>2013-09-29T09:41:11Z</time>
      </trkpt>
      <trkpt lat="52.1664182" lon="21.0450817">
        <ele>100.4</ele>
        <time>2013-09-29T09:41:16Z</time>
      </trkpt>
      <trkpt lat="52.1663918" lon="21.0450794">
        <ele>100.4</ele>
        <time>2013-09-29T09:41:17Z</time>
      </trkpt>
      <trkpt lat="52.1662535" lon="21.0450338">
        <ele>100.4</ele>
        <time>2013-09-29T09:41:23Z</time>
      </trkpt>
      <trkpt lat="52.1661136" lon="21.0449718">
        <ele>100.2</ele>
        <time>2013-09-29T09:41:29Z</time>
      </trkpt>
      <trkpt lat="52.1659883" lon="21.0449656">
        <ele>100.2</ele>
        <time>2013-09-29T09:41:34Z</time>
      </trkpt>
      <trkpt lat="52.1658721" lon="21.0449796">
        <ele>100.0</ele>
        <time>2013-09-29T09:41:39Z</time>
      </trkpt>
      <trkpt lat="52.1657609" lon="21.0450308">
        <ele>99.8</ele>
        <time>2013-09-29T09:41:43Z</time>
      </trkpt>
      <trkpt lat="52.16567" lon="21.0450961">
        <ele>99.8</ele>
        <time>2013-09-29T09:41:47Z</time>
      </trkpt>
      <trkpt lat="52.1655401" lon="21.0452158">
        <ele>99.8</ele>
        <time>2013-09-29T09:41:52Z</time>
      </trkpt>
      <trkpt lat="52.1654418" lon="21.0453039">
        <ele>99.8</ele>
        <time>2013-09-29T09:41:56Z</time>
      </trkpt>
      <trkpt lat="52.165318" lon="21.045409">
        <ele>99.8</ele>
        <time>2013-09-29T09:42:01Z</time>
      </trkpt>
      <trkpt lat="52.1652019" lon="21.0455334">
        <ele>99.8</ele>
        <time>2013-09-29T09:42:06Z</time>
      </trkpt>
      <trkpt lat="52.1651106" lon="21.0455979">
        <ele>99.8</ele>
        <time>2013-09-29T09:42:10Z</time>
      </trkpt>
      <trkpt lat="52.1649984" lon="21.0457167">
        <ele>100.0</ele>
        <time>2013-09-29T09:42:15Z</time>
      </trkpt>
      <trkpt lat="52.1648915" lon="21.0458172">
        <ele>100.0</ele>
        <time>2013-09-29T09:42:20Z</time>
      </trkpt>
      <trkpt lat="52.1647921" lon="21.0459089">
        <ele>100.0</ele>
        <time>2013-09-29T09:42:25Z</time>
      </trkpt>
      <trkpt lat="52.1647212" lon="21.045984">
        <ele>100.2</ele>
        <time>2013-09-29T09:42:28Z</time>
      </trkpt>
      <trkpt lat="52.1646202" lon="21.0460825">
        <ele>100.4</ele>
        <time>2013-09-29T09:42:32Z</time>
      </trkpt>
      <trkpt lat="52.1645363" lon="21.046173">
        <ele>100.4</ele>
        <time>2013-09-29T09:42:36Z</time>
      </trkpt>
      <trkpt lat="52.164429" lon="21.0462715">
        <ele>100.6</ele>
        <time>2013-09-29T09:42:41Z</time>
      </trkpt>
      <trkpt lat="52.1643425" lon="21.0463653">
        <ele>100.6</ele>
        <time>2013-09-29T09:42:45Z</time>
      </trkpt>
      <trkpt lat="52.1642242" lon="21.04649">
        <ele>100.8</ele>
        <time>2013-09-29T09:42:50Z</time>
      </trkpt>
      <trkpt lat="52.1641079" lon="21.0465978">
        <ele>100.8</ele>
        <time>2013-09-29T09:42:55Z</time>
      </trkpt>
      <trkpt lat="52.1639867" lon="21.0466885">
        <ele>100.8</ele>
        <time>2013-09-29T09:43:00Z</time>
      </trkpt>
      <trkpt lat="52.1638733" lon="21.0467916">
        <ele>100.6</ele>
        <time>2013-09-29T09:43:05Z</time>
      </trkpt>
      <trkpt lat="52.1637469" lon="21.0469206">
        <ele>100.8</ele>
        <time>2013-09-29T09:43:11Z</time>
      </trkpt>
      <trkpt lat="52.1636632" lon="21.0469926">
        <ele>100.6</ele>
        <time>2013-09-29T09:43:15Z</time>
      </trkpt>
      <trkpt lat="52.163549" lon="21.0471325">
        <ele>100.8</ele>
        <time>2013-09-29T09:43:20Z</time>
      </trkpt>
      <trkpt lat="52.163463" lon="21.0472063">
        <ele>100.8</ele>
        <time>2013-09-29T09:43:24Z</time>
      </trkpt>
      <trkpt lat="52.163365" lon="21.0473048">
        <ele>100.8</ele>
        <time>2013-09-29T09:43:29Z</time>
      </trkpt>
      <trkpt lat="52.1632479" lon="21.0474089">
        <ele>100.8</ele>
        <time>2013-09-29T09:43:34Z</time>
      </trkpt>
      <trkpt lat="52.1631592" lon="21.0475063">
        <ele>101.0</ele>
        <time>2013-09-29T09:43:38Z</time>
      </trkpt>
      <trkpt lat="52.1630463" lon="21.047621">
        <ele>101.0</ele>
        <time>2013-09-29T09:43:43Z</time>
      </trkpt>
      <trkpt lat="52.1629644" lon="21.0477038">
        <ele>101.0</ele>
        <time>2013-09-29T09:43:47Z</time>
      </trkpt>
      <trkpt lat="52.1628813" lon="21.0477676">
        <ele>101.0</ele>
        <time>2013-09-29T09:43:51Z</time>
      </trkpt>
      <trkpt lat="52.1627948" lon="21.0478347">
        <ele>101.0</ele>
        <time>2013-09-29T09:43:55Z</time>
      </trkpt>
      <trkpt lat="52.1626518" lon="21.047968">
        <ele>101.0</ele>
        <time>2013-09-29T09:44:01Z</time>
      </trkpt>
      <trkpt lat="52.1625554" lon="21.0480602">
        <ele>101.0</ele>
        <time>2013-09-29T09:44:05Z</time>
      </trkpt>
      <trkpt lat="52.1624948" lon="21.0481271">
        <ele>100.8</ele>
        <time>2013-09-29T09:44:08Z</time>
      </trkpt>
      <trkpt lat="52.1623419" lon="21.048261">
        <ele>100.8</ele>
        <time>2013-09-29T09:44:15Z</time>
      </trkpt>
      <trkpt lat="52.1623009" lon="21.0482967">
        <ele>100.8</ele>
        <time>2013-09-29T09:44:17Z</time>
      </trkpt>
      <trkpt lat="52.1622021" lon="21.0483809">
        <ele>100.8</ele>
        <time>2013-09-29T09:44:22Z</time>
      </trkpt>
      <trkpt lat="52.162139" lon="21.048449">
        <ele>100.6</ele>
        <time>2013-09-29T09:44:25Z</time>
      </trkpt>
      <trkpt lat="52.1620051" lon="21.0485828">
        <ele>100.4</ele>
        <time>2013-09-29T09:44:31Z</time>
      </trkpt>
      <trkpt lat="52.1618981" lon="21.0486932">
        <ele>100.4</ele>
        <time>2013-09-29T09:44:36Z</time>
      </trkpt>
      <trkpt lat="52.1618768" lon="21.048714">
        <ele>100.4</ele>
        <time>2013-09-29T09:44:37Z</time>
      </trkpt>
      <trkpt lat="52.161785" lon="21.0488707">
        <ele>100.2</ele>
        <time>2013-09-29T09:44:42Z</time>
      </trkpt>
      <trkpt lat="52.1617021" lon="21.0489533">
        <ele>100.2</ele>
        <time>2013-09-29T09:44:46Z</time>
      </trkpt>
      <trkpt lat="52.1615324" lon="21.0491319">
        <ele>100.0</ele>
        <time>2013-09-29T09:44:53Z</time>
      </trkpt>
      <trkpt lat="52.1614198" lon="21.0492268">
        <ele>99.8</ele>
        <time>2013-09-29T09:44:58Z</time>
      </trkpt>
      <trkpt lat="52.161322" lon="21.0493351">
        <ele>99.8</ele>
        <time>2013-09-29T09:45:02Z</time>
      </trkpt>
      <trkpt lat="52.1612091" lon="21.0494532">
        <ele>99.8</ele>
        <time>2013-09-29T09:45:07Z</time>
      </trkpt>
      <trkpt lat="52.1611137" lon="21.0495586">
        <ele>99.6</ele>
        <time>2013-09-29T09:45:11Z</time>
      </trkpt>
      <trkpt lat="52.1609945" lon="21.0497023">
        <ele>99.4</ele>
        <time>2013-09-29T09:45:16Z</time>
      </trkpt>
      <trkpt lat="52.1608191" lon="21.0498769">
        <ele>99.0</ele>
        <time>2013-09-29T09:45:23Z</time>
      </trkpt>
      <trkpt lat="52.1606963" lon="21.0499836">
        <ele>99.0</ele>
        <time>2013-09-29T09:45:28Z</time>
      </trkpt>
      <trkpt lat="52.1605787" lon="21.0500857">
        <ele>99.0</ele>
        <time>2013-09-29T09:45:33Z</time>
      </trkpt>
      <trkpt lat="52.1604653" lon="21.0501866">
        <ele>99.2</ele>
        <time>2013-09-29T09:45:38Z</time>
      </trkpt>
      <trkpt lat="52.1603761" lon="21.050297">
        <ele>99.2</ele>
        <time>2013-09-29T09:45:42Z</time>
      </trkpt>
      <trkpt lat="52.1602876" lon="21.0503902">
        <ele>99.4</ele>
        <time>2013-09-29T09:45:46Z</time>
      </trkpt>
      <trkpt lat="52.160199" lon="21.0504778">
        <ele>99.4</ele>
        <time>2013-09-29T09:45:50Z</time>
      </trkpt>
      <trkpt lat="52.1600887" lon="21.0505921">
        <ele>99.6</ele>
        <time>2013-09-29T09:45:55Z</time>
      </trkpt>
      <trkpt lat="52.1599991" lon="21.0506983">
        <ele>99.8</ele>
        <time>2013-09-29T09:45:59Z</time>
      </trkpt>
      <trkpt lat="52.159911" lon="21.050791">
        <ele>99.8</ele>
        <time>2013-09-29T09:46:03Z</time>
      </trkpt>
      <trkpt lat="52.1598004" lon="21.0508782">
        <ele>100.0</ele>
        <time>2013-09-29T09:46:08Z</time>
      </trkpt>
      <trkpt lat="52.1597378" lon="21.0509414">
        <ele>100.2</ele>
        <time>2013-09-29T09:46:11Z</time>
      </trkpt>
      <trkpt lat="52.1596478" lon="21.0510082">
        <ele>100.2</ele>
        <time>2013-09-29T09:46:15Z</time>
      </trkpt>
      <trkpt lat="52.1594893" lon="21.0511574">
        <ele>100.4</ele>
        <time>2013-09-29T09:46:22Z</time>
      </trkpt>
      <trkpt lat="52.1593697" lon="21.0512983">
        <ele>100.6</ele>
        <time>2013-09-29T09:46:27Z</time>
      </trkpt>
      <trkpt lat="52.1593394" lon="21.0514376">
        <ele>100.8</ele>
        <time>2013-09-29T09:46:30Z</time>
      </trkpt>
      <trkpt lat="52.1593462" lon="21.0516384">
        <ele>101.0</ele>
        <time>2013-09-29T09:46:34Z</time>
      </trkpt>
      <trkpt lat="52.1593857" lon="21.0518376">
        <ele>101.4</ele>
        <time>2013-09-29T09:46:39Z</time>
      </trkpt>
      <trkpt lat="52.1594406" lon="21.052066">
        <ele>101.8</ele>
        <time>2013-09-29T09:46:44Z</time>
      </trkpt>
      <trkpt lat="52.1594598" lon="21.0521399">
        <ele>101.8</ele>
        <time>2013-09-29T09:46:46Z</time>
      </trkpt>
      <trkpt lat="52.1595198" lon="21.0522923">
        <ele>102.0</ele>
        <time>2013-09-29T09:46:50Z</time>
      </trkpt>
      <trkpt lat="52.1595815" lon="21.0524447">
        <ele>102.4</ele>
        <time>2013-09-29T09:46:54Z</time>
      </trkpt>
      <trkpt lat="52.1596248" lon="21.0525571">
        <ele>102.4</ele>
        <time>2013-09-29T09:46:57Z</time>
      </trkpt>
      <trkpt lat="52.1596939" lon="21.0527606">
        <ele>102.2</ele>
        <time>2013-09-29T09:47:02Z</time>
      </trkpt>
      <trkpt lat="52.1597497" lon="21.0529135">
        <ele>102.2</ele>
        <time>2013-09-29T09:47:06Z</time>
      </trkpt>
      <trkpt lat="52.1598348" lon="21.0531025">
        <ele>102.0</ele>
        <time>2013-09-29T09:47:11Z</time>
      </trkpt>
      <trkpt lat="52.1598929" lon="21.0532797">
        <ele>101.8</ele>
        <time>2013-09-29T09:47:15Z</time>
      </trkpt>
      <trkpt lat="52.159931" lon="21.0534935">
        <ele>101.6</ele>
        <time>2013-09-29T09:47:20Z</time>
      </trkpt>
      <trkpt lat="52.1599037" lon="21.0537045">
        <ele>101.4</ele>
        <time>2013-09-29T09:47:25Z</time>
      </trkpt>
      <trkpt lat="52.1598483" lon="21.053807">
        <ele>101.4</ele>
        <time>2013-09-29T09:47:28Z</time>
      </trkpt>
      <trkpt lat="52.1597494" lon="21.0539157">
        <ele>101.4</ele>
        <time>2013-09-29T09:47:32Z</time>
      </trkpt>
      <trkpt lat="52.1596109" lon="21.0540728">
        <ele>101.4</ele>
        <time>2013-09-29T09:47:38Z</time>
      </trkpt>
      <trkpt lat="52.1595125" lon="21.054166">
        <ele>101.4</ele>
        <time>2013-09-29T09:47:42Z</time>
      </trkpt>
      <trkpt lat="52.1593721" lon="21.0542883">
        <ele>102.0</ele>
        <time>2013-09-29T09:47:48Z</time>
      </trkpt>
      <trkpt lat="52.159249" lon="21.0543888">
        <ele>102.4</ele>
        <time>2013-09-29T09:47:53Z</time>
      </trkpt>
      <trkpt lat="52.1591635" lon="21.0544668">
        <ele>102.6</ele>
        <time>2013-09-29T09:47:57Z</time>
      </trkpt>
      <trkpt lat="52.1590215" lon="21.0546006">
        <ele>103.0</ele>
        <time>2013-09-29T09:48:03Z</time>
      </trkpt>
      <trkpt lat="52.1589081" lon="21.0547395">
        <ele>103.2</ele>
        <time>2013-09-29T09:48:08Z</time>
      </trkpt>
      <trkpt lat="52.1588159" lon="21.0548444">
        <ele>103.2</ele>
        <time>2013-09-29T09:48:12Z</time>
      </trkpt>
      <trkpt lat="52.1587003" lon="21.0549612">
        <ele>103.2</ele>
        <time>2013-09-29T09:48:17Z</time>
      </trkpt>
      <trkpt lat="52.1585875" lon="21.0550767">
        <ele>103.2</ele>
        <time>2013-09-29T09:48:22Z</time>
      </trkpt>
      <trkpt lat="52.1584663" lon="21.0552013">
        <ele>103.2</ele>
        <time>2013-09-29T09:48:27Z</time>
      </trkpt>
      <trkpt lat="52.1583264" lon="21.0553284">
        <ele>103.2</ele>
        <time>2013-09-29T09:48:33Z</time>
      </trkpt>
      <trkpt lat="52.1581907" lon="21.0554517">
        <ele>103.4</ele>
        <time>2013-09-29T09:48:39Z</time>
      </trkpt>
      <trkpt lat="52.158055" lon="21.0555889">
        <ele>103.6</ele>
        <time>2013-09-29T09:48:45Z</time>
      </trkpt>
      <trkpt lat="52.1579291" lon="21.0556941">
        <ele>103.6</ele>
        <time>2013-09-29T09:48:50Z</time>
      </trkpt>
      <trkpt lat="52.1578379" lon="21.0557542">
        <ele>103.8</ele>
        <time>2013-09-29T09:48:54Z</time>
      </trkpt>
      <trkpt lat="52.1577607" lon="21.0558117">
        <ele>103.8</ele>
        <time>2013-09-29T09:48:57Z</time>
      </trkpt>
      <trkpt lat="52.1576346" lon="21.0558996">
        <ele>103.8</ele>
        <time>2013-09-29T09:49:02Z</time>
      </trkpt>
      <trkpt lat="52.1575188" lon="21.0559578">
        <ele>103.8</ele>
        <time>2013-09-29T09:49:07Z</time>
      </trkpt>
      <trkpt lat="52.1573917" lon="21.0560074">
        <ele>103.6</ele>
        <time>2013-09-29T09:49:12Z</time>
      </trkpt>
      <trkpt lat="52.1572581" lon="21.0560915">
        <ele>103.6</ele>
        <time>2013-09-29T09:49:17Z</time>
      </trkpt>
      <trkpt lat="52.1571044" lon="21.0561689">
        <ele>103.6</ele>
        <time>2013-09-29T09:49:22Z</time>
      </trkpt>
      <trkpt lat="52.15692" lon="21.0562105">
        <ele>103.6</ele>
        <time>2013-09-29T09:49:28Z</time>
      </trkpt>
      <trkpt lat="52.156736" lon="21.0562121">
        <ele>103.8</ele>
        <time>2013-09-29T09:49:34Z</time>
      </trkpt>
      <trkpt lat="52.1566279" lon="21.0561526">
        <ele>103.8</ele>
        <time>2013-09-29T09:49:38Z</time>
      </trkpt>
      <trkpt lat="52.1565049" lon="21.0558972">
        <ele>103.4</ele>
        <time>2013-09-29T09:49:46Z</time>
      </trkpt>
      <trkpt lat="52.1564336" lon="21.055662">
        <ele>103.2</ele>
        <time>2013-09-29T09:49:52Z</time>
      </trkpt>
      <trkpt lat="52.1563849" lon="21.0555033">
        <ele>103.2</ele>
        <time>2013-09-29T09:49:56Z</time>
      </trkpt>
      <trkpt lat="52.1563034" lon="21.0553087">
        <ele>103.2</ele>
        <time>2013-09-29T09:50:01Z</time>
      </trkpt>
      <trkpt lat="52.1562251" lon="21.055106">
        <ele>103.0</ele>
        <time>2013-09-29T09:50:06Z</time>
      </trkpt>
      <trkpt lat="52.1561611" lon="21.0549108">
        <ele>103.0</ele>
        <time>2013-09-29T09:50:11Z</time>
      </trkpt>
      <trkpt lat="52.156087" lon="21.0547051">
        <ele>102.8</ele>
        <time>2013-09-29T09:50:16Z</time>
      </trkpt>
      <trkpt lat="52.1560192" lon="21.0544571">
        <ele>102.4</ele>
        <time>2013-09-29T09:50:22Z</time>
      </trkpt>
      <trkpt lat="52.1559954" lon="21.0542862">
        <ele>102.2</ele>
        <time>2013-09-29T09:50:26Z</time>
      </trkpt>
      <trkpt lat="52.1559818" lon="21.0541535">
        <ele>101.8</ele>
        <time>2013-09-29T09:50:29Z</time>
      </trkpt>
      <trkpt lat="52.1559627" lon="21.0539866">
        <ele>101.6</ele>
        <time>2013-09-29T09:50:33Z</time>
      </trkpt>
      <trkpt lat="52.1559248" lon="21.0537319">
        <ele>101.0</ele>
        <time>2013-09-29T09:50:39Z</time>
      </trkpt>
      <trkpt lat="52.1559171" lon="21.0535599">
        <ele>100.6</ele>
        <time>2013-09-29T09:50:43Z</time>
      </trkpt>
      <trkpt lat="52.1558933" lon="21.0533071">
        <ele>100.2</ele>
        <time>2013-09-29T09:50:49Z</time>
      </trkpt>
      <trkpt lat="52.1558773" lon="21.0531321">
        <ele>100.2</ele>
        <time>2013-09-29T09:50:53Z</time>
      </trkpt>
      <trkpt lat="52.1558539" lon="21.0529109">
        <ele>100.4</ele>
        <time>2013-09-29T09:50:58Z</time>
      </trkpt>
      <trkpt lat="52.155831" lon="21.0527408">
        <ele>100.6</ele>
        <time>2013-09-29T09:51:02Z</time>
      </trkpt>
      <trkpt lat="52.155819" lon="21.0525383">
        <ele>100.8</ele>
        <time>2013-09-29T09:51:07Z</time>
      </trkpt>
      <trkpt lat="52.1558078" lon="21.0523141">
        <ele>101.4</ele>
        <time>2013-09-29T09:51:12Z</time>
      </trkpt>
      <trkpt lat="52.1557783" lon="21.0520691">
        <ele>101.8</ele>
        <time>2013-09-29T09:51:18Z</time>
      </trkpt>
      <trkpt lat="52.1557539" lon="21.0518992">
        <ele>102.2</ele>
        <time>2013-09-29T09:51:22Z</time>
      </trkpt>
      <trkpt lat="52.155742" lon="21.0518151">
        <ele>102.4</ele>
        <time>2013-09-29T09:51:24Z</time>
      </trkpt>
      <trkpt lat="52.155683" lon="21.05161">
        <ele>102.8</ele>
        <time>2013-09-29T09:51:29Z</time>
      </trkpt>
      <trkpt lat="52.1556482" lon="21.0514489">
        <ele>102.6</ele>
        <time>2013-09-29T09:51:33Z</time>
      </trkpt>
      <trkpt lat="52.1555933" lon="21.0512475">
        <ele>102.4</ele>
        <time>2013-09-29T09:51:38Z</time>
      </trkpt>
      <trkpt lat="52.1555245" lon="21.0510049">
        <ele>102.2</ele>
        <time>2013-09-29T09:51:44Z</time>
      </trkpt>
      <trkpt lat="52.1554746" lon="21.0508403">
        <ele>102.0</ele>
        <time>2013-09-29T09:51:48Z</time>
      </trkpt>
      <trkpt lat="52.1553851" lon="21.050614">
        <ele>102.0</ele>
        <time>2013-09-29T09:51:54Z</time>
      </trkpt>
      <trkpt lat="52.1552909" lon="21.0504082">
        <ele>101.8</ele>
        <time>2013-09-29T09:52:00Z</time>
      </trkpt>
      <trkpt lat="52.1552261" lon="21.050282">
        <ele>101.6</ele>
        <time>2013-09-29T09:52:04Z</time>
      </trkpt>
      <trkpt lat="52.1551373" lon="21.0501395">
        <ele>101.4</ele>
        <time>2013-09-29T09:52:09Z</time>
      </trkpt>
      <trkpt lat="52.1550482" lon="21.050029">
        <ele>101.0</ele>
        <time>2013-09-29T09:52:13Z</time>
      </trkpt>
      <trkpt lat="52.1549686" lon="21.0499251">
        <ele>100.6</ele>
        <time>2013-09-29T09:52:17Z</time>
      </trkpt>
      <trkpt lat="52.1548801" lon="21.049829">
        <ele>100.4</ele>
        <time>2013-09-29T09:52:21Z</time>
      </trkpt>
      <trkpt lat="52.1547826" lon="21.0497328">
        <ele>100.0</ele>
        <time>2013-09-29T09:52:25Z</time>
      </trkpt>
      <trkpt lat="52.1546993" lon="21.0496587">
        <ele>99.8</ele>
        <time>2013-09-29T09:52:28Z</time>
      </trkpt>
      <trkpt lat="52.154619" lon="21.0495666">
        <ele>99.6</ele>
        <time>2013-09-29T09:52:32Z</time>
      </trkpt>
      <trkpt lat="52.1544478" lon="21.0494392">
        <ele>99.4</ele>
        <time>2013-09-29T09:52:39Z</time>
      </trkpt>
      <trkpt lat="52.1543015" lon="21.0493436">
        <ele>99.2</ele>
        <time>2013-09-29T09:52:45Z</time>
      </trkpt>
      <trkpt lat="52.1541537" lon="21.0492672">
        <ele>99.0</ele>
        <time>2013-09-29T09:52:51Z</time>
      </trkpt>
      <trkpt lat="52.1540336" lon="21.0492219">
        <ele>99.2</ele>
        <time>2013-09-29T09:52:56Z</time>
      </trkpt>
      <trkpt lat="52.1539093" lon="21.0491714">
        <ele>99.6</ele>
        <time>2013-09-29T09:53:01Z</time>
      </trkpt>
      <trkpt lat="52.1537558" lon="21.0491424">
        <ele>100.0</ele>
        <time>2013-09-29T09:53:07Z</time>
      </trkpt>
      <trkpt lat="52.1536032" lon="21.0490916">
        <ele>100.4</ele>
        <time>2013-09-29T09:53:13Z</time>
      </trkpt>
      <trkpt lat="52.1534695" lon="21.0490485">
        <ele>100.8</ele>
        <time>2013-09-29T09:53:18Z</time>
      </trkpt>
      <trkpt lat="52.1533472" lon="21.0490154">
        <ele>101.2</ele>
        <time>2013-09-29T09:53:23Z</time>
      </trkpt>
      <trkpt lat="52.1532406" lon="21.048988">
        <ele>101.6</ele>
        <time>2013-09-29T09:53:27Z</time>
      </trkpt>
      <trkpt lat="52.1531287" lon="21.0489642">
        <ele>101.8</ele>
        <time>2013-09-29T09:53:31Z</time>
      </trkpt>
      <trkpt lat="52.1529955" lon="21.0489392">
        <ele>102.2</ele>
        <time>2013-09-29T09:53:36Z</time>
      </trkpt>
      <trkpt lat="52.1528908" lon="21.0489511">
        <ele>102.4</ele>
        <time>2013-09-29T09:53:40Z</time>
      </trkpt>
      <trkpt lat="52.1527195" lon="21.0489955">
        <ele>102.6</ele>
        <time>2013-09-29T09:53:45Z</time>
      </trkpt>
      <trkpt lat="52.1525661" lon="21.0490164">
        <ele>103.0</ele>
        <time>2013-09-29T09:53:50Z</time>
      </trkpt>
      <trkpt lat="52.1524511" lon="21.0489559">
        <ele>103.2</ele>
        <time>2013-09-29T09:53:55Z</time>
      </trkpt>
      <trkpt lat="52.1522807" lon="21.0488734">
        <ele>103.4</ele>
        <time>2013-09-29T09:54:02Z</time>
      </trkpt>
      <trkpt lat="52.152165" lon="21.048788">
        <ele>103.4</ele>
        <time>2013-09-29T09:54:07Z</time>
      </trkpt>
      <trkpt lat="52.1520378" lon="21.0486734">
        <ele>103.4</ele>
        <time>2013-09-29T09:54:12Z</time>
      </trkpt>
      <trkpt lat="52.1518767" lon="21.0485306">
        <ele>103.2</ele>
        <time>2013-09-29T09:54:19Z</time>
      </trkpt>
      <trkpt lat="52.1517516" lon="21.0484066">
        <ele>103.0</ele>
        <time>2013-09-29T09:54:24Z</time>
      </trkpt>
      <trkpt lat="52.1516441" lon="21.0482637">
        <ele>102.6</ele>
        <time>2013-09-29T09:54:29Z</time>
      </trkpt>
      <trkpt lat="52.1515389" lon="21.048113">
        <ele>101.6</ele>
        <time>2013-09-29T09:54:34Z</time>
      </trkpt>
      <trkpt lat="52.1514537" lon="21.0479473">
        <ele>100.8</ele>
        <time>2013-09-29T09:54:39Z</time>
      </trkpt>
      <trkpt lat="52.1513336" lon="21.0477622">
        <ele>99.8</ele>
        <time>2013-09-29T09:54:45Z</time>
      </trkpt>
      <trkpt lat="52.1512353" lon="21.0476096">
        <ele>99.0</ele>
        <time>2013-09-29T09:54:50Z</time>
      </trkpt>
      <trkpt lat="52.1511328" lon="21.0474495">
        <ele>98.4</ele>
        <time>2013-09-29T09:54:55Z</time>
      </trkpt>
      <trkpt lat="52.1510385" lon="21.0472866">
        <ele>98.4</ele>
        <time>2013-09-29T09:55:00Z</time>
      </trkpt>
      <trkpt lat="52.1509986" lon="21.0472235">
        <ele>98.4</ele>
        <time>2013-09-29T09:55:02Z</time>
      </trkpt>
      <trkpt lat="52.150909" lon="21.0470883">
        <ele>98.6</ele>
        <time>2013-09-29T09:55:06Z</time>
      </trkpt>
      <trkpt lat="52.1508099" lon="21.0469294">
        <ele>99.2</ele>
        <time>2013-09-29T09:55:11Z</time>
      </trkpt>
      <trkpt lat="52.1507235" lon="21.046807">
        <ele>100.2</ele>
        <time>2013-09-29T09:55:15Z</time>
      </trkpt>
      <trkpt lat="52.1507095" lon="21.0467756">
        <ele>100.4</ele>
        <time>2013-09-29T09:55:16Z</time>
      </trkpt>
      <trkpt lat="52.1505998" lon="21.0466346">
        <ele>101.6</ele>
        <time>2013-09-29T09:55:21Z</time>
      </trkpt>
      <trkpt lat="52.1504972" lon="21.046473">
        <ele>102.4</ele>
        <time>2013-09-29T09:55:26Z</time>
      </trkpt>
      <trkpt lat="52.1503915" lon="21.0462814">
        <ele>103.0</ele>
        <time>2013-09-29T09:55:32Z</time>
      </trkpt>
      <trkpt lat="52.1503118" lon="21.0461446">
        <ele>103.4</ele>
        <time>2013-09-29T09:55:37Z</time>
      </trkpt>
      <trkpt lat="52.1501981" lon="21.045971">
        <ele>103.6</ele>
        <time>2013-09-29T09:55:43Z</time>
      </trkpt>
      <trkpt lat="52.1501132" lon="21.0458116">
        <ele>103.6</ele>
        <time>2013-09-29T09:55:48Z</time>
      </trkpt>
      <trkpt lat="52.1500864" lon="21.0457499">
        <ele>103.4</ele>
        <time>2013-09-29T09:55:50Z</time>
      </trkpt>
      <trkpt lat="52.1499699" lon="21.045552">
        <ele>102.8</ele>
        <time>2013-09-29T09:55:56Z</time>
      </trkpt>
      <trkpt lat="52.1499015" lon="21.0453609">
        <ele>102.0</ele>
        <time>2013-09-29T09:56:01Z</time>
      </trkpt>
      <trkpt lat="52.1499049" lon="21.0451929">
        <ele>101.6</ele>
        <time>2013-09-29T09:56:05Z</time>
      </trkpt>
      <trkpt lat="52.1499041" lon="21.0451495">
        <ele>101.4</ele>
        <time>2013-09-29T09:56:06Z</time>
      </trkpt>
      <trkpt lat="52.1499899" lon="21.044981">
        <ele>101.0</ele>
        <time>2013-09-29T09:56:11Z</time>
      </trkpt>
      <trkpt lat="52.1501468" lon="21.0447227">
        <ele>101.8</ele>
        <time>2013-09-29T09:56:19Z</time>
      </trkpt>
      <trkpt lat="52.1502514" lon="21.0445315">
        <ele>102.4</ele>
        <time>2013-09-29T09:56:25Z</time>
      </trkpt>
      <trkpt lat="52.1503625" lon="21.0443412">
        <ele>103.0</ele>
        <time>2013-09-29T09:56:31Z</time>
      </trkpt>
      <trkpt lat="52.1504427" lon="21.0441879">
        <ele>103.4</ele>
        <time>2013-09-29T09:56:36Z</time>
      </trkpt>
      <trkpt lat="52.1505604" lon="21.0440011">
        <ele>103.8</ele>
        <time>2013-09-29T09:56:42Z</time>
      </trkpt>
      <trkpt lat="52.1506428" lon="21.0438953">
        <ele>103.8</ele>
        <time>2013-09-29T09:56:46Z</time>
      </trkpt>
      <trkpt lat="52.1507721" lon="21.0436929">
        <ele>103.8</ele>
        <time>2013-09-29T09:56:53Z</time>
      </trkpt>
      <trkpt lat="52.1508769" lon="21.0435514">
        <ele>103.4</ele>
        <time>2013-09-29T09:56:58Z</time>
      </trkpt>
      <trkpt lat="52.1509707" lon="21.0433852">
        <ele>103.2</ele>
        <time>2013-09-29T09:57:03Z</time>
      </trkpt>
      <trkpt lat="52.1510567" lon="21.0432115">
        <ele>103.0</ele>
        <time>2013-09-29T09:57:08Z</time>
      </trkpt>
      <trkpt lat="52.1511457" lon="21.0430195">
        <ele>102.6</ele>
        <time>2013-09-29T09:57:13Z</time>
      </trkpt>
      <trkpt lat="52.1512333" lon="21.0428905">
        <ele>102.6</ele>
        <time>2013-09-29T09:57:18Z</time>
      </trkpt>
      <trkpt lat="52.1512896" lon="21.0428086">
        <ele>102.6</ele>
        <time>2013-09-29T09:57:22Z</time>
      </trkpt>
      <trkpt lat="52.1513607" lon="21.0427308">
        <ele>102.6</ele>
        <time>2013-09-29T09:57:27Z</time>
      </trkpt>
      <trkpt lat="52.1514019" lon="21.0427061">
        <ele>102.6</ele>
        <time>2013-09-29T09:57:31Z</time>
      </trkpt>
      <trkpt lat="52.1514773" lon="21.042531">
        <ele>102.4</ele>
        <time>2013-09-29T09:57:37Z</time>
      </trkpt>
      <trkpt lat="52.1515353" lon="21.0423976">
        <ele>102.4</ele>
        <time>2013-09-29T09:57:41Z</time>
      </trkpt>
      <trkpt lat="52.1516389" lon="21.0422248">
        <ele>102.2</ele>
        <time>2013-09-29T09:57:47Z</time>
      </trkpt>
      <trkpt lat="52.151705" lon="21.0420766">
        <ele>101.8</ele>
        <time>2013-09-29T09:57:51Z</time>
      </trkpt>
      <trkpt lat="52.1518003" lon="21.0419275">
        <ele>101.4</ele>
        <time>2013-09-29T09:57:56Z</time>
      </trkpt>
      <trkpt lat="52.1518372" lon="21.0418519">
        <ele>101.2</ele>
        <time>2013-09-29T09:57:58Z</time>
      </trkpt>
      <trkpt lat="52.1518767" lon="21.0417952">
        <ele>101.2</ele>
        <time>2013-09-29T09:58:00Z</time>
      </trkpt>
      <trkpt lat="52.1519957" lon="21.0416058">
        <ele>101.0</ele>
        <time>2013-09-29T09:58:06Z</time>
      </trkpt>
      <trkpt lat="52.1520953" lon="21.0414551">
        <ele>101.0</ele>
        <time>2013-09-29T09:58:11Z</time>
      </trkpt>
      <trkpt lat="52.1521924" lon="21.0413243">
        <ele>101.0</ele>
        <time>2013-09-29T09:58:15Z</time>
      </trkpt>
      <trkpt lat="52.1522594" lon="21.0411908">
        <ele>100.8</ele>
        <time>2013-09-29T09:58:19Z</time>
      </trkpt>
      <trkpt lat="52.1523582" lon="21.0410166">
        <ele>100.6</ele>
        <time>2013-09-29T09:58:24Z</time>
      </trkpt>
      <trkpt lat="52.1524449" lon="21.0408752">
        <ele>100.2</ele>
        <time>2013-09-29T09:58:29Z</time>
      </trkpt>
      <trkpt lat="52.1525366" lon="21.0407272">
        <ele>100.0</ele>
        <time>2013-09-29T09:58:34Z</time>
      </trkpt>
      <trkpt lat="52.1526519" lon="21.0405371">
        <ele>100.0</ele>
        <time>2013-09-29T09:58:40Z</time>
      </trkpt>
      <trkpt lat="52.1527679" lon="21.0403103">
        <ele>100.0</ele>
        <time>2013-09-29T09:58:46Z</time>
      </trkpt>
      <trkpt lat="52.1528648" lon="21.0401523">
        <ele>100.0</ele>
        <time>2013-09-29T09:58:51Z</time>
      </trkpt>
      <trkpt lat="52.1529546" lon="21.0400062">
        <ele>100.0</ele>
        <time>2013-09-29T09:58:56Z</time>
      </trkpt>
      <trkpt lat="52.1530773" lon="21.0398119">
        <ele>99.6</ele>
        <time>2013-09-29T09:59:02Z</time>
      </trkpt>
      <trkpt lat="52.1531276" lon="21.03974">
        <ele>99.2</ele>
        <time>2013-09-29T09:59:04Z</time>
      </trkpt>
      <trkpt lat="52.1532271" lon="21.0395296">
        <ele>98.4</ele>
        <time>2013-09-29T09:59:10Z</time>
      </trkpt>
      <trkpt lat="52.1533121" lon="21.039367">
        <ele>97.6</ele>
        <time>2013-09-29T09:59:15Z</time>
      </trkpt>
      <trkpt lat="52.1533799" lon="21.0391965">
        <ele>97.2</ele>
        <time>2013-09-29T09:59:19Z</time>
      </trkpt>
      <trkpt lat="52.153498" lon="21.0390488">
        <ele>97.6</ele>
        <time>2013-09-29T09:59:25Z</time>
      </trkpt>
      <trkpt lat="52.1535996" lon="21.0389034">
        <ele>98.0</ele>
        <time>2013-09-29T09:59:30Z</time>
      </trkpt>
      <trkpt lat="52.1536757" lon="21.0387568">
        <ele>98.2</ele>
        <time>2013-09-29T09:59:34Z</time>
      </trkpt>
      <trkpt lat="52.1537726" lon="21.0385769">
        <ele>98.2</ele>
        <time>2013-09-29T09:59:39Z</time>
      </trkpt>
      <trkpt lat="52.1538803" lon="21.0384056">
        <ele>98.4</ele>
        <time>2013-09-29T09:59:45Z</time>
      </trkpt>
      <trkpt lat="52.1539818" lon="21.0382077">
        <ele>98.4</ele>
        <time>2013-09-29T09:59:51Z</time>
      </trkpt>
      <trkpt lat="52.1540766" lon="21.0380518">
        <ele>98.4</ele>
        <time>2013-09-29T09:59:56Z</time>
      </trkpt>
      <trkpt lat="52.1541786" lon="21.037917">
        <ele>98.4</ele>
        <time>2013-09-29T10:00:01Z</time>
      </trkpt>
      <trkpt lat="52.1542833" lon="21.0377393">
        <ele>98.8</ele>
        <time>2013-09-29T10:00:07Z</time>
      </trkpt>
      <trkpt lat="52.154374" lon="21.0375871">
        <ele>99.0</ele>
        <time>2013-09-29T10:00:12Z</time>
      </trkpt>
      <trkpt lat="52.1544661" lon="21.037427">
        <ele>99.4</ele>
        <time>2013-09-29T10:00:17Z</time>
      </trkpt>
      <trkpt lat="52.1545837" lon="21.0372333">
        <ele>100.2</ele>
        <time>2013-09-29T10:00:23Z</time>
      </trkpt>
      <trkpt lat="52.1546584" lon="21.0370986">
        <ele>100.6</ele>
        <time>2013-09-29T10:00:27Z</time>
      </trkpt>
      <trkpt lat="52.1547677" lon="21.0369121">
        <ele>101.2</ele>
        <time>2013-09-29T10:00:33Z</time>
      </trkpt>
      <trkpt lat="52.1548594" lon="21.0367448">
        <ele>101.6</ele>
        <time>2013-09-29T10:00:38Z</time>
      </trkpt>
      <trkpt lat="52.1549272" lon="21.0366121">
        <ele>101.6</ele>
        <time>2013-09-29T10:00:42Z</time>
      </trkpt>
      <trkpt lat="52.1549469" lon="21.0365894">
        <ele>101.6</ele>
        <time>2013-09-29T10:00:43Z</time>
      </trkpt>
      <trkpt lat="52.1550685" lon="21.036397">
        <ele>101.6</ele>
        <time>2013-09-29T10:00:49Z</time>
      </trkpt>
      <trkpt lat="52.1552013" lon="21.0362086">
        <ele>101.4</ele>
        <time>2013-09-29T10:00:55Z</time>
      </trkpt>
      <trkpt lat="52.1552654" lon="21.0360812">
        <ele>101.2</ele>
        <time>2013-09-29T10:00:59Z</time>
      </trkpt>
      <trkpt lat="52.1553551" lon="21.0359111">
        <ele>101.0</ele>
        <time>2013-09-29T10:01:04Z</time>
      </trkpt>
      <trkpt lat="52.1554248" lon="21.0357813">
        <ele>100.8</ele>
        <time>2013-09-29T10:01:08Z</time>
      </trkpt>
      <trkpt lat="52.1554975" lon="21.0356642">
        <ele>100.8</ele>
        <time>2013-09-29T10:01:12Z</time>
      </trkpt>
      <trkpt lat="52.1555809" lon="21.0355508">
        <ele>100.8</ele>
        <time>2013-09-29T10:01:16Z</time>
      </trkpt>
      <trkpt lat="52.1556851" lon="21.0354073">
        <ele>100.8</ele>
        <time>2013-09-29T10:01:21Z</time>
      </trkpt>
      <trkpt lat="52.1558239" lon="21.0352182">
        <ele>100.8</ele>
        <time>2013-09-29T10:01:28Z</time>
      </trkpt>
      <trkpt lat="52.1558958" lon="21.0351074">
        <ele>100.8</ele>
        <time>2013-09-29T10:01:32Z</time>
      </trkpt>
      <trkpt lat="52.1559974" lon="21.0349452">
        <ele>100.6</ele>
        <time>2013-09-29T10:01:37Z</time>
      </trkpt>
      <trkpt lat="52.1560842" lon="21.0347985">
        <ele>100.4</ele>
        <time>2013-09-29T10:01:41Z</time>
      </trkpt>
      <trkpt lat="52.1561606" lon="21.0346094">
        <ele>100.2</ele>
        <time>2013-09-29T10:01:46Z</time>
      </trkpt>
      <trkpt lat="52.156207" lon="21.0344643">
        <ele>99.8</ele>
        <time>2013-09-29T10:01:49Z</time>
      </trkpt>
      <trkpt lat="52.1563067" lon="21.0343257">
        <ele>99.4</ele>
        <time>2013-09-29T10:01:54Z</time>
      </trkpt>
      <trkpt lat="52.1564091" lon="21.0341925">
        <ele>98.8</ele>
        <time>2013-09-29T10:01:59Z</time>
      </trkpt>
      <trkpt lat="52.1565222" lon="21.0340268">
        <ele>98.4</ele>
        <time>2013-09-29T10:02:05Z</time>
      </trkpt>
      <trkpt lat="52.156565" lon="21.0339786">
        <ele>98.2</ele>
        <time>2013-09-29T10:02:07Z</time>
      </trkpt>
      <trkpt lat="52.1566609" lon="21.0337351">
        <ele>98.0</ele>
        <time>2013-09-29T10:02:13Z</time>
      </trkpt>
      <trkpt lat="52.156719" lon="21.0336397">
        <ele>98.0</ele>
        <time>2013-09-29T10:02:16Z</time>
      </trkpt>
      <trkpt lat="52.1568224" lon="21.033485">
        <ele>98.0</ele>
        <time>2013-09-29T10:02:21Z</time>
      </trkpt>
      <trkpt lat="52.156919" lon="21.0333068">
        <ele>98.2</ele>
        <time>2013-09-29T10:02:26Z</time>
      </trkpt>
      <trkpt lat="52.1569889" lon="21.0331581">
        <ele>98.4</ele>
        <time>2013-09-29T10:02:30Z</time>
      </trkpt>
      <trkpt lat="52.1570851" lon="21.033013">
        <ele>98.6</ele>
        <time>2013-09-29T10:02:35Z</time>
      </trkpt>
      <trkpt lat="52.157137" lon="21.0329043">
        <ele>98.6</ele>
        <time>2013-09-29T10:02:38Z</time>
      </trkpt>
      <trkpt lat="52.1572074" lon="21.0327515">
        <ele>98.6</ele>
        <time>2013-09-29T10:02:42Z</time>
      </trkpt>
      <trkpt lat="52.15728" lon="21.0326249">
        <ele>98.4</ele>
        <time>2013-09-29T10:02:46Z</time>
      </trkpt>
      <trkpt lat="52.1573494" lon="21.0324842">
        <ele>98.2</ele>
        <time>2013-09-29T10:02:50Z</time>
      </trkpt>
      <trkpt lat="52.1573876" lon="21.0324078">
        <ele>98.4</ele>
        <time>2013-09-29T10:02:52Z</time>
      </trkpt>
      <trkpt lat="52.157495" lon="21.0322661">
        <ele>98.4</ele>
        <time>2013-09-29T10:02:57Z</time>
      </trkpt>
      <trkpt lat="52.1576202" lon="21.0320754">
        <ele>99.0</ele>
        <time>2013-09-29T10:03:03Z</time>
      </trkpt>
      <trkpt lat="52.1577162" lon="21.0319427">
        <ele>99.2</ele>
        <time>2013-09-29T10:03:08Z</time>
      </trkpt>
      <trkpt lat="52.1577965" lon="21.0318331">
        <ele>99.2</ele>
        <time>2013-09-29T10:03:12Z</time>
      </trkpt>
      <trkpt lat="52.1578908" lon="21.0316697">
        <ele>99.4</ele>
        <time>2013-09-29T10:03:17Z</time>
      </trkpt>
      <trkpt lat="52.1579716" lon="21.0315212">
        <ele>99.6</ele>
        <time>2013-09-29T10:03:21Z</time>
      </trkpt>
      <trkpt lat="52.1580746" lon="21.0313782">
        <ele>99.6</ele>
        <time>2013-09-29T10:03:26Z</time>
      </trkpt>
      <trkpt lat="52.1581705" lon="21.0312301">
        <ele>99.4</ele>
        <time>2013-09-29T10:03:31Z</time>
      </trkpt>
      <trkpt lat="52.1582124" lon="21.0311747">
        <ele>99.4</ele>
        <time>2013-09-29T10:03:33Z</time>
      </trkpt>
      <trkpt lat="52.1582834" lon="21.0310273">
        <ele>99.0</ele>
        <time>2013-09-29T10:03:37Z</time>
      </trkpt>
      <trkpt lat="52.1583772" lon="21.0308644">
        <ele>98.8</ele>
        <time>2013-09-29T10:03:42Z</time>
      </trkpt>
      <trkpt lat="52.1584765" lon="21.0306975">
        <ele>98.8</ele>
        <time>2013-09-29T10:03:47Z</time>
      </trkpt>
      <trkpt lat="52.1585754" lon="21.0305274">
        <ele>98.6</ele>
        <time>2013-09-29T10:03:52Z</time>
      </trkpt>
      <trkpt lat="52.1586584" lon="21.0303956">
        <ele>98.6</ele>
        <time>2013-09-29T10:03:56Z</time>
      </trkpt>
      <trkpt lat="52.1587753" lon="21.0302255">
        <ele>98.6</ele>
        <time>2013-09-29T10:04:02Z</time>
      </trkpt>
      <trkpt lat="52.1588535" lon="21.0301203">
        <ele>98.6</ele>
        <time>2013-09-29T10:04:06Z</time>
      </trkpt>
      <trkpt lat="52.158953" lon="21.0299706">
        <ele>98.4</ele>
        <time>2013-09-29T10:04:11Z</time>
      </trkpt>
      <trkpt lat="52.1590987" lon="21.0297712">
        <ele>98.4</ele>
        <time>2013-09-29T10:04:18Z</time>
      </trkpt>
      <trkpt lat="52.159177" lon="21.02966">
        <ele>98.4</ele>
        <time>2013-09-29T10:04:22Z</time>
      </trkpt>
      <trkpt lat="52.159308" lon="21.0295029">
        <ele>99.0</ele>
        <time>2013-09-29T10:04:28Z</time>
      </trkpt>
      <trkpt lat="52.1594059" lon="21.0294077">
        <ele>99.2</ele>
        <time>2013-09-29T10:04:32Z</time>
      </trkpt>
      <trkpt lat="52.1595093" lon="21.0292995">
        <ele>99.6</ele>
        <time>2013-09-29T10:04:37Z</time>
      </trkpt>
      <trkpt lat="52.1596171" lon="21.0291829">
        <ele>100.0</ele>
        <time>2013-09-29T10:04:42Z</time>
      </trkpt>
      <trkpt lat="52.1596375" lon="21.0291487">
        <ele>100.0</ele>
        <time>2013-09-29T10:04:43Z</time>
      </trkpt>
      <trkpt lat="52.1597476" lon="21.0290301">
        <ele>100.0</ele>
        <time>2013-09-29T10:04:48Z</time>
      </trkpt>
      <trkpt lat="52.1598784" lon="21.0289032">
        <ele>100.0</ele>
        <time>2013-09-29T10:04:54Z</time>
      </trkpt>
      <trkpt lat="52.1599932" lon="21.0287928">
        <ele>100.0</ele>
        <time>2013-09-29T10:04:59Z</time>
      </trkpt>
      <trkpt lat="52.1601445" lon="21.0286627">
        <ele>100.2</ele>
        <time>2013-09-29T10:05:05Z</time>
      </trkpt>
      <trkpt lat="52.1602757" lon="21.028515">
        <ele>100.4</ele>
        <time>2013-09-29T10:05:10Z</time>
      </trkpt>
      <trkpt lat="52.1603547" lon="21.02844">
        <ele>100.4</ele>
        <time>2013-09-29T10:05:14Z</time>
      </trkpt>
      <trkpt lat="52.1605217" lon="21.0283207">
        <ele>100.8</ele>
        <time>2013-09-29T10:05:21Z</time>
      </trkpt>
      <trkpt lat="52.160687" lon="21.0282116">
        <ele>101.2</ele>
        <time>2013-09-29T10:05:27Z</time>
      </trkpt>
      <trkpt lat="52.1608183" lon="21.028137">
        <ele>101.4</ele>
        <time>2013-09-29T10:05:32Z</time>
      </trkpt>
      <trkpt lat="52.1609532" lon="21.0280852">
        <ele>100.8</ele>
        <time>2013-09-29T10:05:37Z</time>
      </trkpt>
      <trkpt lat="52.1611032" lon="21.028007">
        <ele>99.8</ele>
        <time>2013-09-29T10:05:43Z</time>
      </trkpt>
      <trkpt lat="52.1612345" lon="21.0279873">
        <ele>99.2</ele>
        <time>2013-09-29T10:05:48Z</time>
      </trkpt>
      <trkpt lat="52.161391" lon="21.0279651">
        <ele>98.4</ele>
        <time>2013-09-29T10:05:54Z</time>
      </trkpt>
      <trkpt lat="52.1615422" lon="21.0279469">
        <ele>97.6</ele>
        <time>2013-09-29T10:06:00Z</time>
      </trkpt>
      <trkpt lat="52.1616943" lon="21.0279297">
        <ele>97.0</ele>
        <time>2013-09-29T10:06:06Z</time>
      </trkpt>
      <trkpt lat="52.1617964" lon="21.0279317">
        <ele>97.4</ele>
        <time>2013-09-29T10:06:10Z</time>
      </trkpt>
      <trkpt lat="52.1619628" lon="21.0279091">
        <ele>97.8</ele>
        <time>2013-09-29T10:06:16Z</time>
      </trkpt>
      <trkpt lat="52.1621099" lon="21.0278625">
        <ele>98.2</ele>
        <time>2013-09-29T10:06:21Z</time>
      </trkpt>
      <trkpt lat="52.1622513" lon="21.0278092">
        <ele>98.4</ele>
        <time>2013-09-29T10:06:26Z</time>
      </trkpt>
      <trkpt lat="52.162384" lon="21.0277692">
        <ele>98.8</ele>
        <time>2013-09-29T10:06:31Z</time>
      </trkpt>
      <trkpt lat="52.1625161" lon="21.0277426">
        <ele>99.2</ele>
        <time>2013-09-29T10:06:36Z</time>
      </trkpt>
      <trkpt lat="52.1626554" lon="21.027706">
        <ele>98.8</ele>
        <time>2013-09-29T10:06:41Z</time>
      </trkpt>
      <trkpt lat="52.1628217" lon="21.0276853">
        <ele>98.4</ele>
        <time>2013-09-29T10:06:47Z</time>
      </trkpt>
      <trkpt lat="52.1629769" lon="21.0276811">
        <ele>98.0</ele>
        <time>2013-09-29T10:06:53Z</time>
      </trkpt>
      <trkpt lat="52.1631087" lon="21.0276609">
        <ele>97.8</ele>
        <time>2013-09-29T10:06:58Z</time>
      </trkpt>
      <trkpt lat="52.163248" lon="21.0276579">
        <ele>97.4</ele>
        <time>2013-09-29T10:07:03Z</time>
      </trkpt>
      <trkpt lat="52.16341" lon="21.0276423">
        <ele>97.0</ele>
        <time>2013-09-29T10:07:09Z</time>
      </trkpt>
      <trkpt lat="52.1636003" lon="21.0276159">
        <ele>96.6</ele>
        <time>2013-09-29T10:07:16Z</time>
      </trkpt>
      <trkpt lat="52.1637463" lon="21.0276188">
        <ele>96.2</ele>
        <time>2013-09-29T10:07:21Z</time>
      </trkpt>
      <trkpt lat="52.1639077" lon="21.0275986">
        <ele>95.8</ele>
        <time>2013-09-29T10:07:27Z</time>
      </trkpt>
      <trkpt lat="52.164071" lon="21.0275786">
        <ele>95.4</ele>
        <time>2013-09-29T10:07:33Z</time>
      </trkpt>
      <trkpt lat="52.1642041" lon="21.0275423">
        <ele>95.0</ele>
        <time>2013-09-29T10:07:38Z</time>
      </trkpt>
      <trkpt lat="52.1643566" lon="21.0275055">
        <ele>94.6</ele>
        <time>2013-09-29T10:07:44Z</time>
      </trkpt>
      <trkpt lat="52.1644879" lon="21.02751">
        <ele>94.6</ele>
        <time>2013-09-29T10:07:49Z</time>
      </trkpt>
      <trkpt lat="52.1646269" lon="21.0274792">
        <ele>94.4</ele>
        <time>2013-09-29T10:07:54Z</time>
      </trkpt>
      <trkpt lat="52.1647915" lon="21.0274458">
        <ele>94.2</ele>
        <time>2013-09-29T10:08:00Z</time>
      </trkpt>
      <trkpt lat="52.164989" lon="21.0274284">
        <ele>94.0</ele>
        <time>2013-09-29T10:08:07Z</time>
      </trkpt>
      <trkpt lat="52.1650967" lon="21.0274351">
        <ele>94.4</ele>
        <time>2013-09-29T10:08:11Z</time>
      </trkpt>
      <trkpt lat="52.1652931" lon="21.0274107">
        <ele>95.0</ele>
        <time>2013-09-29T10:08:18Z</time>
      </trkpt>
      <trkpt lat="52.1654578" lon="21.0274004">
        <ele>95.6</ele>
        <time>2013-09-29T10:08:24Z</time>
      </trkpt>
      <trkpt lat="52.1656301" lon="21.0273764">
        <ele>96.4</ele>
        <time>2013-09-29T10:08:30Z</time>
      </trkpt>
      <trkpt lat="52.1658202" lon="21.0273357">
        <ele>97.0</ele>
        <time>2013-09-29T10:08:37Z</time>
      </trkpt>
      <trkpt lat="52.1659603" lon="21.0273036">
        <ele>97.0</ele>
        <time>2013-09-29T10:08:42Z</time>
      </trkpt>
      <trkpt lat="52.1660965" lon="21.0272627">
        <ele>96.8</ele>
        <time>2013-09-29T10:08:47Z</time>
      </trkpt>
      <trkpt lat="52.1662043" lon="21.0272103">
        <ele>96.6</ele>
        <time>2013-09-29T10:08:51Z</time>
      </trkpt>
      <trkpt lat="52.1663586" lon="21.0271098">
        <ele>96.4</ele>
        <time>2013-09-29T10:08:57Z</time>
      </trkpt>
      <trkpt lat="52.1664695" lon="21.0270119">
        <ele>96.2</ele>
        <time>2013-09-29T10:09:01Z</time>
      </trkpt>
      <trkpt lat="52.1665726" lon="21.0268936">
        <ele>96.0</ele>
        <time>2013-09-29T10:09:06Z</time>
      </trkpt>
      <trkpt lat="52.1667305" lon="21.0267022">
        <ele>95.8</ele>
        <time>2013-09-29T10:09:13Z</time>
      </trkpt>
      <trkpt lat="52.1668906" lon="21.0265768">
        <ele>95.4</ele>
        <time>2013-09-29T10:09:20Z</time>
      </trkpt>
      <trkpt lat="52.1670264" lon="21.0265535">
        <ele>95.0</ele>
        <time>2013-09-29T10:09:26Z</time>
      </trkpt>
      <trkpt lat="52.1671978" lon="21.0265534">
        <ele>94.6</ele>
        <time>2013-09-29T10:09:33Z</time>
      </trkpt>
      <trkpt lat="52.1673273" lon="21.0265408">
        <ele>94.2</ele>
        <time>2013-09-29T10:09:38Z</time>
      </trkpt>
      <trkpt lat="52.1674708" lon="21.0265188">
        <ele>93.8</ele>
        <time>2013-09-29T10:09:44Z</time>
      </trkpt>
      <trkpt lat="52.1676483" lon="21.0264939">
        <ele>93.8</ele>
        <time>2013-09-29T10:09:51Z</time>
      </trkpt>
      <trkpt lat="52.1677739" lon="21.0264823">
        <ele>93.8</ele>
        <time>2013-09-29T10:09:56Z</time>
      </trkpt>
      <trkpt lat="52.1679433" lon="21.0264597">
        <ele>94.0</ele>
        <time>2013-09-29T10:10:03Z</time>
      </trkpt>
      <trkpt lat="52.1681235" lon="21.026438">
        <ele>94.0</ele>
        <time>2013-09-29T10:10:10Z</time>
      </trkpt>
      <trkpt lat="52.1682458" lon="21.0264224">
        <ele>94.2</ele>
        <time>2013-09-29T10:10:15Z</time>
      </trkpt>
      <trkpt lat="52.1684109" lon="21.0264051">
        <ele>94.4</ele>
        <time>2013-09-29T10:10:22Z</time>
      </trkpt>
      <trkpt lat="52.1685628" lon="21.0263872">
        <ele>94.6</ele>
        <time>2013-09-29T10:10:28Z</time>
      </trkpt>
      <trkpt lat="52.1687104" lon="21.0263626">
        <ele>95.0</ele>
        <time>2013-09-29T10:10:34Z</time>
      </trkpt>
      <trkpt lat="52.1688897" lon="21.0263655">
        <ele>95.4</ele>
        <time>2013-09-29T10:10:41Z</time>
      </trkpt>
      <trkpt lat="52.1690243" lon="21.0263919">
        <ele>95.6</ele>
        <time>2013-09-29T10:10:46Z</time>
      </trkpt>
      <trkpt lat="52.1691589" lon="21.0264227">
        <ele>95.8</ele>
        <time>2013-09-29T10:10:51Z</time>
      </trkpt>
      <trkpt lat="52.1692973" lon="21.0264596">
        <ele>96.2</ele>
        <time>2013-09-29T10:10:56Z</time>
      </trkpt>
      <trkpt lat="52.1694349" lon="21.0264804">
        <ele>96.6</ele>
        <time>2013-09-29T10:11:01Z</time>
      </trkpt>
      <trkpt lat="52.1696281" lon="21.026512">
        <ele>97.0</ele>
        <time>2013-09-29T10:11:08Z</time>
      </trkpt>
      <trkpt lat="52.1697641" lon="21.0265281">
        <ele>97.4</ele>
        <time>2013-09-29T10:11:13Z</time>
      </trkpt>
      <trkpt lat="52.1698941" lon="21.0265316">
        <ele>97.6</ele>
        <time>2013-09-29T10:11:18Z</time>
      </trkpt>
      <trkpt lat="52.1700706" lon="21.0265405">
        <ele>98.2</ele>
        <time>2013-09-29T10:11:25Z</time>
      </trkpt>
      <trkpt lat="52.1702023" lon="21.0265556">
        <ele>99.0</ele>
        <time>2013-09-29T10:11:30Z</time>
      </trkpt>
      <trkpt lat="52.1703277" lon="21.0265746">
        <ele>99.6</ele>
        <time>2013-09-29T10:11:35Z</time>
      </trkpt>
      <trkpt lat="52.1704737" lon="21.0265622">
        <ele>100.2</ele>
        <time>2013-09-29T10:11:41Z</time>
      </trkpt>
      <trkpt lat="52.1706162" lon="21.0265477">
        <ele>101.0</ele>
        <time>2013-09-29T10:11:47Z</time>
      </trkpt>
      <trkpt lat="52.1707646" lon="21.0265363">
        <ele>101.8</ele>
        <time>2013-09-29T10:11:53Z</time>
      </trkpt>
      <trkpt lat="52.1709037" lon="21.0265197">
        <ele>102.2</ele>
        <time>2013-09-29T10:11:59Z</time>
      </trkpt>
      <trkpt lat="52.1710301" lon="21.0265022">
        <ele>102.4</ele>
        <time>2013-09-29T10:12:04Z</time>
      </trkpt>
      <trkpt lat="52.1711775" lon="21.026489">
        <ele>102.6</ele>
        <time>2013-09-29T10:12:10Z</time>
      </trkpt>
      <trkpt lat="52.1713341" lon="21.0264592">
        <ele>102.8</ele>
        <time>2013-09-29T10:12:16Z</time>
      </trkpt>
      <trkpt lat="52.1714636" lon="21.0264354">
        <ele>103.2</ele>
        <time>2013-09-29T10:12:21Z</time>
      </trkpt>
      <trkpt lat="52.1716003" lon="21.0264193">
        <ele>103.4</ele>
        <time>2013-09-29T10:12:26Z</time>
      </trkpt>
      <trkpt lat="52.171768" lon="21.026427">
        <ele>103.4</ele>
        <time>2013-09-29T10:12:32Z</time>
      </trkpt>
      <trkpt lat="52.1719102" lon="21.0264124">
        <ele>103.2</ele>
        <time>2013-09-29T10:12:37Z</time>
      </trkpt>
      <trkpt lat="52.1720415" lon="21.0263924">
        <ele>103.2</ele>
        <time>2013-09-29T10:12:42Z</time>
      </trkpt>
      <trkpt lat="52.1722228" lon="21.0263669">
        <ele>103.0</ele>
        <time>2013-09-29T10:12:49Z</time>
      </trkpt>
      <trkpt lat="52.172397" lon="21.0263996">
        <ele>102.6</ele>
        <time>2013-09-29T10:12:56Z</time>
      </trkpt>
      <trkpt lat="52.1725565" lon="21.0263934">
        <ele>102.6</ele>
        <time>2013-09-29T10:13:02Z</time>
      </trkpt>
      <trkpt lat="52.172683" lon="21.0263912">
        <ele>102.8</ele>
        <time>2013-09-29T10:13:07Z</time>
      </trkpt>
      <trkpt lat="52.1728523" lon="21.0263427">
        <ele>103.0</ele>
        <time>2013-09-29T10:13:13Z</time>
      </trkpt>
      <trkpt lat="52.1729533" lon="21.0263504">
        <ele>103.0</ele>
        <time>2013-09-29T10:13:17Z</time>
      </trkpt>
      <trkpt lat="52.1730896" lon="21.0263442">
        <ele>103.2</ele>
        <time>2013-09-29T10:13:22Z</time>
      </trkpt>
      <trkpt lat="52.173247" lon="21.0263297">
        <ele>103.2</ele>
        <time>2013-09-29T10:13:28Z</time>
      </trkpt>
      <trkpt lat="52.1734127" lon="21.0263007">
        <ele>103.4</ele>
        <time>2013-09-29T10:13:34Z</time>
      </trkpt>
      <trkpt lat="52.1735875" lon="21.0262587">
        <ele>103.4</ele>
        <time>2013-09-29T10:13:40Z</time>
      </trkpt>
      <trkpt lat="52.1737241" lon="21.026252">
        <ele>103.4</ele>
        <time>2013-09-29T10:13:45Z</time>
      </trkpt>
      <trkpt lat="52.1738776" lon="21.0262359">
        <ele>103.4</ele>
        <time>2013-09-29T10:13:51Z</time>
      </trkpt>
      <trkpt lat="52.1739827" lon="21.0262322">
        <ele>103.4</ele>
        <time>2013-09-29T10:13:55Z</time>
      </trkpt>
      <trkpt lat="52.1741447" lon="21.0262405">
        <ele>103.4</ele>
        <time>2013-09-29T10:14:01Z</time>
      </trkpt>
      <trkpt lat="52.1743218" lon="21.0262695">
        <ele>103.0</ele>
        <time>2013-09-29T10:14:08Z</time>
      </trkpt>
      <trkpt lat="52.1745028" lon="21.0263333">
        <ele>102.6</ele>
        <time>2013-09-29T10:14:15Z</time>
      </trkpt>
      <trkpt lat="52.1746411" lon="21.0263818">
        <ele>102.2</ele>
        <time>2013-09-29T10:14:20Z</time>
      </trkpt>
      <trkpt lat="52.1747783" lon="21.0264295">
        <ele>101.8</ele>
        <time>2013-09-29T10:14:25Z</time>
      </trkpt>
      <trkpt lat="52.1749379" lon="21.0264877">
        <ele>101.4</ele>
        <time>2013-09-29T10:14:31Z</time>
      </trkpt>
      <trkpt lat="52.1750962" lon="21.0265488">
        <ele>101.2</ele>
        <time>2013-09-29T10:14:37Z</time>
      </trkpt>
      <trkpt lat="52.1752378" lon="21.0265887">
        <ele>101.6</ele>
        <time>2013-09-29T10:14:42Z</time>
      </trkpt>
      <trkpt lat="52.175375" lon="21.0266322">
        <ele>101.8</ele>
        <time>2013-09-29T10:14:47Z</time>
      </trkpt>
      <trkpt lat="52.1755425" lon="21.0266865">
        <ele>102.2</ele>
        <time>2013-09-29T10:14:53Z</time>
      </trkpt>
      <trkpt lat="52.1757283" lon="21.0267607">
        <ele>102.6</ele>
        <time>2013-09-29T10:15:00Z</time>
      </trkpt>
      <trkpt lat="52.175888" lon="21.026818">
        <ele>102.8</ele>
        <time>2013-09-29T10:15:06Z</time>
      </trkpt>
      <trkpt lat="52.1760629" lon="21.0268885">
        <ele>102.6</ele>
        <time>2013-09-29T10:15:13Z</time>
      </trkpt>
      <trkpt lat="52.17621" lon="21.0269459">
        <ele>102.4</ele>
        <time>2013-09-29T10:15:19Z</time>
      </trkpt>
      <trkpt lat="52.1763661" lon="21.0270154">
        <ele>102.2</ele>
        <time>2013-09-29T10:15:25Z</time>
      </trkpt>
      <trkpt lat="52.1765231" lon="21.0270756">
        <ele>102.0</ele>
        <time>2013-09-29T10:15:31Z</time>
      </trkpt>
      <trkpt lat="52.1766974" lon="21.0271041">
        <ele>102.0</ele>
        <time>2013-09-29T10:15:37Z</time>
      </trkpt>
      <trkpt lat="52.1768473" lon="21.0271595">
        <ele>102.0</ele>
        <time>2013-09-29T10:15:43Z</time>
      </trkpt>
      <trkpt lat="52.1769704" lon="21.0272122">
        <ele>102.0</ele>
        <time>2013-09-29T10:15:48Z</time>
      </trkpt>
      <trkpt lat="52.1771001" lon="21.0272678">
        <ele>102.0</ele>
        <time>2013-09-29T10:15:53Z</time>
      </trkpt>
      <trkpt lat="52.1772343" lon="21.0273201">
        <ele>102.0</ele>
        <time>2013-09-29T10:15:58Z</time>
      </trkpt>
      <trkpt lat="52.1773617" lon="21.0273663">
        <ele>102.0</ele>
        <time>2013-09-29T10:16:03Z</time>
      </trkpt>
      <trkpt lat="52.1775093" lon="21.0274346">
        <ele>102.0</ele>
        <time>2013-09-29T10:16:09Z</time>
      </trkpt>
      <trkpt lat="52.177658" lon="21.0274823">
        <ele>101.8</ele>
        <time>2013-09-29T10:16:15Z</time>
      </trkpt>
      <trkpt lat="52.177815" lon="21.0275152">
        <ele>101.6</ele>
        <time>2013-09-29T10:16:21Z</time>
      </trkpt>
      <trkpt lat="52.1779652" lon="21.0275447">
        <ele>101.4</ele>
        <time>2013-09-29T10:16:27Z</time>
      </trkpt>
      <trkpt lat="52.17812" lon="21.027604">
        <ele>101.2</ele>
        <time>2013-09-29T10:16:33Z</time>
      </trkpt>
      <trkpt lat="52.178246" lon="21.0276149">
        <ele>101.0</ele>
        <time>2013-09-29T10:16:38Z</time>
      </trkpt>
      <trkpt lat="52.1783687" lon="21.0275465">
        <ele>100.8</ele>
        <time>2013-09-29T10:16:43Z</time>
      </trkpt>
      <trkpt lat="52.1784519" lon="21.0273865">
        <ele>101.2</ele>
        <time>2013-09-29T10:16:48Z</time>
      </trkpt>
      <trkpt lat="52.1784997" lon="21.0271879">
        <ele>101.6</ele>
        <time>2013-09-29T10:16:53Z</time>
      </trkpt>
      <trkpt lat="52.1785436" lon="21.026987">
        <ele>102.0</ele>
        <time>2013-09-29T10:16:58Z</time>
      </trkpt>
      <trkpt lat="52.1785796" lon="21.0267747">
        <ele>102.4</ele>
        <time>2013-09-29T10:17:03Z</time>
      </trkpt>
      <trkpt lat="52.1786127" lon="21.0265637">
        <ele>102.8</ele>
        <time>2013-09-29T10:17:08Z</time>
      </trkpt>
      <trkpt lat="52.1786422" lon="21.0263489">
        <ele>103.0</ele>
        <time>2013-09-29T10:17:13Z</time>
      </trkpt>
      <trkpt lat="52.1786723" lon="21.0261441">
        <ele>103.4</ele>
        <time>2013-09-29T10:17:18Z</time>
      </trkpt>
      <trkpt lat="52.1787158" lon="21.0258343">
        <ele>103.8</ele>
        <time>2013-09-29T10:17:25Z</time>
      </trkpt>
      <trkpt lat="52.178752" lon="21.0256276">
        <ele>103.8</ele>
        <time>2013-09-29T10:17:30Z</time>
      </trkpt>
      <trkpt lat="52.1788235" lon="21.0253443">
        <ele>103.6</ele>
        <time>2013-09-29T10:17:37Z</time>
      </trkpt>
      <trkpt lat="52.1788804" lon="21.0251387">
        <ele>103.6</ele>
        <time>2013-09-29T10:17:42Z</time>
      </trkpt>
      <trkpt lat="52.1789194" lon="21.0249332">
        <ele>103.6</ele>
        <time>2013-09-29T10:17:47Z</time>
      </trkpt>
      <trkpt lat="52.1789554" lon="21.0247244">
        <ele>103.6</ele>
        <time>2013-09-29T10:17:52Z</time>
      </trkpt>
      <trkpt lat="52.1789878" lon="21.0246161">
        <ele>103.6</ele>
        <time>2013-09-29T10:17:55Z</time>
      </trkpt>
      <trkpt lat="52.1791121" lon="21.0245848">
        <ele>103.4</ele>
        <time>2013-09-29T10:18:00Z</time>
      </trkpt>
      <trkpt lat="52.1792411" lon="21.0246281">
        <ele>103.4</ele>
        <time>2013-09-29T10:18:04Z</time>
      </trkpt>
      <trkpt lat="52.1793716" lon="21.0247077">
        <ele>103.6</ele>
        <time>2013-09-29T10:18:09Z</time>
      </trkpt>
      <trkpt lat="52.1795237" lon="21.0247886">
        <ele>103.8</ele>
        <time>2013-09-29T10:18:15Z</time>
      </trkpt>
      <trkpt lat="52.1796446" lon="21.0248528">
        <ele>103.8</ele>
        <time>2013-09-29T10:18:20Z</time>
      </trkpt>
      <trkpt lat="52.1797394" lon="21.0247518">
        <ele>103.8</ele>
        <time>2013-09-29T10:18:25Z</time>
      </trkpt>
      <trkpt lat="52.1798223" lon="21.0245954">
        <ele>103.8</ele>
        <time>2013-09-29T10:18:30Z</time>
      </trkpt>
      <trkpt lat="52.1798942" lon="21.02441">
        <ele>103.8</ele>
        <time>2013-09-29T10:18:35Z</time>
      </trkpt>
      <trkpt lat="52.1799632" lon="21.0241396">
        <ele>103.8</ele>
        <time>2013-09-29T10:18:42Z</time>
      </trkpt>
      <trkpt lat="52.1799952" lon="21.0239246">
        <ele>103.8</ele>
        <time>2013-09-29T10:18:47Z</time>
      </trkpt>
      <trkpt lat="52.1800383" lon="21.0237302">
        <ele>104.0</ele>
        <time>2013-09-29T10:18:52Z</time>
      </trkpt>
      <trkpt lat="52.180074" lon="21.0235597">
        <ele>104.0</ele>
        <time>2013-09-29T10:18:56Z</time>
      </trkpt>
      <trkpt lat="52.1801139" lon="21.0233418">
        <ele>104.0</ele>
        <time>2013-09-29T10:19:01Z</time>
      </trkpt>
      <trkpt lat="52.1801476" lon="21.0231402">
        <ele>104.0</ele>
        <time>2013-09-29T10:19:06Z</time>
      </trkpt>
      <trkpt lat="52.1801418" lon="21.023058">
        <ele>104.2</ele>
        <time>2013-09-29T10:19:08Z</time>
      </trkpt>
      <trkpt lat="52.1800087" lon="21.0229201">
        <ele>104.4</ele>
        <time>2013-09-29T10:19:14Z</time>
      </trkpt>
      <trkpt lat="52.1799054" lon="21.0228242">
        <ele>104.4</ele>
        <time>2013-09-29T10:19:19Z</time>
      </trkpt>
      <trkpt lat="52.1798832" lon="21.0227989">
        <ele>104.4</ele>
        <time>2013-09-29T10:19:20Z</time>
      </trkpt>
      <trkpt lat="52.1798098" lon="21.0226843">
        <ele>104.4</ele>
        <time>2013-09-29T10:19:24Z</time>
      </trkpt>
      <trkpt lat="52.1797342" lon="21.0225729">
        <ele>104.2</ele>
        <time>2013-09-29T10:19:28Z</time>
      </trkpt>
      <trkpt lat="52.1797174" lon="21.0224338">
        <ele>104.2</ele>
        <time>2013-09-29T10:19:32Z</time>
      </trkpt>
      <trkpt lat="52.1797697" lon="21.0224067">
        <ele>104.4</ele>
        <time>2013-09-29T10:19:34Z</time>
      </trkpt>
      <trkpt lat="52.1799284" lon="21.0224325">
        <ele>104.8</ele>
        <time>2013-09-29T10:19:40Z</time>
      </trkpt>
      <trkpt lat="52.1801059" lon="21.0225107">
        <ele>104.6</ele>
        <time>2013-09-29T10:19:47Z</time>
      </trkpt>
      <trkpt lat="52.1802589" lon="21.0225674">
        <ele>104.2</ele>
        <time>2013-09-29T10:19:53Z</time>
      </trkpt>
      <trkpt lat="52.180409" lon="21.0226342">
        <ele>104.0</ele>
        <time>2013-09-29T10:19:59Z</time>
      </trkpt>
      <trkpt lat="52.1805676" lon="21.0226963">
        <ele>103.6</ele>
        <time>2013-09-29T10:20:05Z</time>
      </trkpt>
      <trkpt lat="52.1806936" lon="21.022744">
        <ele>103.4</ele>
        <time>2013-09-29T10:20:10Z</time>
      </trkpt>
      <trkpt lat="52.1808023" lon="21.0227854">
        <ele>103.2</ele>
        <time>2013-09-29T10:20:14Z</time>
      </trkpt>
      <trkpt lat="52.1809618" lon="21.0228435">
        <ele>103.2</ele>
        <time>2013-09-29T10:20:20Z</time>
      </trkpt>
      <trkpt lat="52.1811872" lon="21.0228445">
        <ele>103.2</ele>
        <time>2013-09-29T10:20:27Z</time>
      </trkpt>
      <trkpt lat="52.1813722" lon="21.0228642">
        <ele>103.0</ele>
        <time>2013-09-29T10:20:33Z</time>
      </trkpt>
      <trkpt lat="52.1815217" lon="21.0229222">
        <ele>103.0</ele>
        <time>2013-09-29T10:20:39Z</time>
      </trkpt>
      <trkpt lat="52.1816653" lon="21.0230118">
        <ele>103.0</ele>
        <time>2013-09-29T10:20:45Z</time>
      </trkpt>
      <trkpt lat="52.1818166" lon="21.0230874">
        <ele>103.0</ele>
        <time>2013-09-29T10:20:51Z</time>
      </trkpt>
      <trkpt lat="52.1819834" lon="21.023162">
        <ele>103.0</ele>
        <time>2013-09-29T10:20:57Z</time>
      </trkpt>
      <trkpt lat="52.1821294" lon="21.0232258">
        <ele>103.0</ele>
        <time>2013-09-29T10:21:03Z</time>
      </trkpt>
      <trkpt lat="52.1822595" lon="21.0232833">
        <ele>103.0</ele>
        <time>2013-09-29T10:21:08Z</time>
      </trkpt>
      <trkpt lat="52.1824092" lon="21.023353">
        <ele>103.0</ele>
        <time>2013-09-29T10:21:14Z</time>
      </trkpt>
      <trkpt lat="52.1825483" lon="21.0234219">
        <ele>103.2</ele>
        <time>2013-09-29T10:21:20Z</time>
      </trkpt>
      <trkpt lat="52.182705" lon="21.0234708">
        <ele>103.8</ele>
        <time>2013-09-29T10:21:26Z</time>
      </trkpt>
      <trkpt lat="52.1828117" lon="21.0235071">
        <ele>104.2</ele>
        <time>2013-09-29T10:21:30Z</time>
      </trkpt>
      <trkpt lat="52.182957" lon="21.0235599">
        <ele>104.6</ele>
        <time>2013-09-29T10:21:36Z</time>
      </trkpt>
      <trkpt lat="52.1830764" lon="21.0236096">
        <ele>105.0</ele>
        <time>2013-09-29T10:21:41Z</time>
      </trkpt>
      <trkpt lat="52.1832385" lon="21.0236418">
        <ele>105.6</ele>
        <time>2013-09-29T10:21:47Z</time>
      </trkpt>
      <trkpt lat="52.1833913" lon="21.0236837">
        <ele>106.2</ele>
        <time>2013-09-29T10:21:53Z</time>
      </trkpt>
      <trkpt lat="52.1835617" lon="21.0237266">
        <ele>106.8</ele>
        <time>2013-09-29T10:21:59Z</time>
      </trkpt>
      <trkpt lat="52.1837342" lon="21.0237105">
        <ele>107.6</ele>
        <time>2013-09-29T10:22:04Z</time>
      </trkpt>
      <trkpt lat="52.1838363" lon="21.0237391">
        <ele>108.0</ele>
        <time>2013-09-29T10:22:08Z</time>
      </trkpt>
      <trkpt lat="52.1839542" lon="21.0237619">
        <ele>108.4</ele>
        <time>2013-09-29T10:22:12Z</time>
      </trkpt>
      <trkpt lat="52.1841087" lon="21.0238052">
        <ele>109.0</ele>
        <time>2013-09-29T10:22:17Z</time>
      </trkpt>
      <trkpt lat="52.1842081" lon="21.0238495">
        <ele>109.4</ele>
        <time>2013-09-29T10:22:21Z</time>
      </trkpt>
      <trkpt lat="52.1842533" lon="21.0239513">
        <ele>109.2</ele>
        <time>2013-09-29T10:22:27Z</time>
      </trkpt>
      <trkpt lat="52.1842702" lon="21.0239541">
        <ele>109.2</ele>
        <time>2013-09-29T10:22:29Z</time>
      </trkpt>
      <trkpt lat="52.1843579" lon="21.0239877">
        <ele>109.2</ele>
        <time>2013-09-29T10:22:36Z</time>
      </trkpt>
      <trkpt lat="52.1844458" lon="21.024036">
        <ele>109.2</ele>
        <time>2013-09-29T10:22:41Z</time>
      </trkpt>
      <trkpt lat="52.1845126" lon="21.0241249">
        <ele>109.0</ele>
        <time>2013-09-29T10:22:47Z</time>
      </trkpt>
      <trkpt lat="52.1846235" lon="21.0241021">
        <ele>109.2</ele>
        <time>2013-09-29T10:22:52Z</time>
      </trkpt>
      <trkpt lat="52.1847758" lon="21.024195">
        <ele>108.8</ele>
        <time>2013-09-29T10:22:58Z</time>
      </trkpt>
      <trkpt lat="52.1848977" lon="21.0242788">
        <ele>108.6</ele>
        <time>2013-09-29T10:23:04Z</time>
      </trkpt>
      <trkpt lat="52.1849153" lon="21.0242981">
        <ele>108.6</ele>
        <time>2013-09-29T10:23:05Z</time>
      </trkpt>
      <trkpt lat="52.1850884" lon="21.0243271">
        <ele>108.6</ele>
        <time>2013-09-29T10:23:11Z</time>
      </trkpt>
      <trkpt lat="52.1852702" lon="21.0243618">
        <ele>109.0</ele>
        <time>2013-09-29T10:23:17Z</time>
      </trkpt>
      <trkpt lat="52.18538" lon="21.0244214">
        <ele>109.0</ele>
        <time>2013-09-29T10:23:22Z</time>
      </trkpt>
      <trkpt lat="52.1854264" lon="21.0244954">
        <ele>108.8</ele>
        <time>2013-09-29T10:23:25Z</time>
      </trkpt>
      <trkpt lat="52.1855701" lon="21.0245768">
        <ele>108.6</ele>
        <time>2013-09-29T10:23:31Z</time>
      </trkpt>
      <trkpt lat="52.1857555" lon="21.024605">
        <ele>108.8</ele>
        <time>2013-09-29T10:23:37Z</time>
      </trkpt>
      <trkpt lat="52.1857855" lon="21.0246109">
        <ele>108.8</ele>
        <time>2013-09-29T10:23:38Z</time>
      </trkpt>
      <trkpt lat="52.1859947" lon="21.0245875">
        <ele>108.6</ele>
        <time>2013-09-29T10:23:44Z</time>
      </trkpt>
      <trkpt lat="52.1861249" lon="21.0246358">
        <ele>108.2</ele>
        <time>2013-09-29T10:23:49Z</time>
      </trkpt>
      <trkpt lat="52.186258" lon="21.0246975">
        <ele>107.8</ele>
        <time>2013-09-29T10:23:55Z</time>
      </trkpt>
      <trkpt lat="52.1863642" lon="21.0247222">
        <ele>107.6</ele>
        <time>2013-09-29T10:23:59Z</time>
      </trkpt>
      <trkpt lat="52.1865033" lon="21.0246937">
        <ele>107.4</ele>
        <time>2013-09-29T10:24:03Z</time>
      </trkpt>
      <trkpt lat="52.1865878" lon="21.0247306">
        <ele>107.4</ele>
        <time>2013-09-29T10:24:07Z</time>
      </trkpt>
      <trkpt lat="52.1867299" lon="21.0247672">
        <ele>107.2</ele>
        <time>2013-09-29T10:24:13Z</time>
      </trkpt>
      <trkpt lat="52.1868494" lon="21.0247855">
        <ele>107.2</ele>
        <time>2013-09-29T10:24:18Z</time>
      </trkpt>
      <trkpt lat="52.1869988" lon="21.0247967">
        <ele>107.0</ele>
        <time>2013-09-29T10:24:24Z</time>
      </trkpt>
      <trkpt lat="52.1871578" lon="21.0248015">
        <ele>107.0</ele>
        <time>2013-09-29T10:24:30Z</time>
      </trkpt>
      <trkpt lat="52.1873116" lon="21.0247932">
        <ele>107.0</ele>
        <time>2013-09-29T10:24:36Z</time>
      </trkpt>
      <trkpt lat="52.1874446" lon="21.024791">
        <ele>107.0</ele>
        <time>2013-09-29T10:24:41Z</time>
      </trkpt>
      <trkpt lat="52.1876073" lon="21.0247985">
        <ele>107.0</ele>
        <time>2013-09-29T10:24:47Z</time>
      </trkpt>
      <trkpt lat="52.1877463" lon="21.0247881">
        <ele>107.2</ele>
        <time>2013-09-29T10:24:52Z</time>
      </trkpt>
      <trkpt lat="52.1879077" lon="21.0247809">
        <ele>107.2</ele>
        <time>2013-09-29T10:24:58Z</time>
      </trkpt>
      <trkpt lat="52.1880218" lon="21.0247995">
        <ele>107.4</ele>
        <time>2013-09-29T10:25:02Z</time>
      </trkpt>
      <trkpt lat="52.1881512" lon="21.0247941">
        <ele>107.4</ele>
        <time>2013-09-29T10:25:07Z</time>
      </trkpt>
      <trkpt lat="52.1882802" lon="21.0247886">
        <ele>107.6</ele>
        <time>2013-09-29T10:25:12Z</time>
      </trkpt>
      <trkpt lat="52.1884383" lon="21.0247829">
        <ele>107.6</ele>
        <time>2013-09-29T10:25:18Z</time>
      </trkpt>
      <trkpt lat="52.1885723" lon="21.0247695">
        <ele>107.4</ele>
        <time>2013-09-29T10:25:23Z</time>
      </trkpt>
      <trkpt lat="52.1887242" lon="21.0247586">
        <ele>107.4</ele>
        <time>2013-09-29T10:25:29Z</time>
      </trkpt>
      <trkpt lat="52.1888883" lon="21.0247687">
        <ele>107.4</ele>
        <time>2013-09-29T10:25:35Z</time>
      </trkpt>
      <trkpt lat="52.1890272" lon="21.0247703">
        <ele>107.2</ele>
        <time>2013-09-29T10:25:40Z</time>
      </trkpt>
      <trkpt lat="52.1891416" lon="21.0247709">
        <ele>107.2</ele>
        <time>2013-09-29T10:25:44Z</time>
      </trkpt>
      <trkpt lat="52.189279" lon="21.0247834">
        <ele>107.2</ele>
        <time>2013-09-29T10:25:49Z</time>
      </trkpt>
      <trkpt lat="52.1894117" lon="21.0247413">
        <ele>107.4</ele>
        <time>2013-09-29T10:25:54Z</time>
      </trkpt>
      <trkpt lat="52.189552" lon="21.024705">
        <ele>107.6</ele>
        <time>2013-09-29T10:25:59Z</time>
      </trkpt>
      <trkpt lat="52.1896935" lon="21.0247154">
        <ele>107.6</ele>
        <time>2013-09-29T10:26:04Z</time>
      </trkpt>
      <trkpt lat="52.189824" lon="21.0247177">
        <ele>107.8</ele>
        <time>2013-09-29T10:26:09Z</time>
      </trkpt>
      <trkpt lat="52.189939" lon="21.0247042">
        <ele>107.8</ele>
        <time>2013-09-29T10:26:13Z</time>
      </trkpt>
      <trkpt lat="52.1901208" lon="21.0246804">
        <ele>108.2</ele>
        <time>2013-09-29T10:26:20Z</time>
      </trkpt>
      <trkpt lat="52.1902735" lon="21.0246742">
        <ele>108.4</ele>
        <time>2013-09-29T10:26:26Z</time>
      </trkpt>
      <trkpt lat="52.1904357" lon="21.0246477">
        <ele>108.6</ele>
        <time>2013-09-29T10:26:32Z</time>
      </trkpt>
      <trkpt lat="52.1905676" lon="21.0246616">
        <ele>108.8</ele>
        <time>2013-09-29T10:26:37Z</time>
      </trkpt>
      <trkpt lat="52.1906911" lon="21.0246519">
        <ele>109.0</ele>
        <time>2013-09-29T10:26:42Z</time>
      </trkpt>
      <trkpt lat="52.1908092" lon="21.0246384">
        <ele>109.2</ele>
        <time>2013-09-29T10:26:47Z</time>
      </trkpt>
      <trkpt lat="52.1909196" lon="21.024627">
        <ele>109.4</ele>
        <time>2013-09-29T10:26:51Z</time>
      </trkpt>
      <trkpt lat="52.1910486" lon="21.0246374">
        <ele>109.2</ele>
        <time>2013-09-29T10:26:56Z</time>
      </trkpt>
      <trkpt lat="52.1912422" lon="21.0246379">
        <ele>109.2</ele>
        <time>2013-09-29T10:27:03Z</time>
      </trkpt>
      <trkpt lat="52.1913791" lon="21.024631">
        <ele>109.0</ele>
        <time>2013-09-29T10:27:08Z</time>
      </trkpt>
      <trkpt lat="52.1915054" lon="21.0246218">
        <ele>109.0</ele>
        <time>2013-09-29T10:27:13Z</time>
      </trkpt>
      <trkpt lat="52.1916623" lon="21.0245944">
        <ele>109.0</ele>
        <time>2013-09-29T10:27:19Z</time>
      </trkpt>
      <trkpt lat="52.1918178" lon="21.024597">
        <ele>109.4</ele>
        <time>2013-09-29T10:27:25Z</time>
      </trkpt>
      <trkpt lat="52.1919823" lon="21.0245716">
        <ele>109.8</ele>
        <time>2013-09-29T10:27:31Z</time>
      </trkpt>
      <trkpt lat="52.1921468" lon="21.024541">
        <ele>110.2</ele>
        <time>2013-09-29T10:27:37Z</time>
      </trkpt>
      <trkpt lat="52.1923083" lon="21.0245141">
        <ele>110.6</ele>
        <time>2013-09-29T10:27:43Z</time>
      </trkpt>
      <trkpt lat="52.1924682" lon="21.0245097">
        <ele>111.0</ele>
        <time>2013-09-29T10:27:49Z</time>
      </trkpt>
      <trkpt lat="52.1925964" lon="21.0244922">
        <ele>111.0</ele>
        <time>2013-09-29T10:27:54Z</time>
      </trkpt>
      <trkpt lat="52.1927357" lon="21.0244586">
        <ele>111.0</ele>
        <time>2013-09-29T10:27:59Z</time>
      </trkpt>
      <trkpt lat="52.192877" lon="21.0244322">
        <ele>110.8</ele>
        <time>2013-09-29T10:28:04Z</time>
      </trkpt>
      <trkpt lat="52.1929983" lon="21.0244393">
        <ele>110.8</ele>
        <time>2013-09-29T10:28:08Z</time>
      </trkpt>
      <trkpt lat="52.1931046" lon="21.0244224">
        <ele>110.8</ele>
        <time>2013-09-29T10:28:12Z</time>
      </trkpt>
      <trkpt lat="52.1932742" lon="21.0243813">
        <ele>110.8</ele>
        <time>2013-09-29T10:28:18Z</time>
      </trkpt>
      <trkpt lat="52.1934148" lon="21.0243975">
        <ele>110.6</ele>
        <time>2013-09-29T10:28:23Z</time>
      </trkpt>
      <trkpt lat="52.1935506" lon="21.0244017">
        <ele>110.4</ele>
        <time>2013-09-29T10:28:28Z</time>
      </trkpt>
      <trkpt lat="52.1936783" lon="21.024425">
        <ele>110.0</ele>
        <time>2013-09-29T10:28:33Z</time>
      </trkpt>
      <trkpt lat="52.1938344" lon="21.0244265">
        <ele>109.6</ele>
        <time>2013-09-29T10:28:39Z</time>
      </trkpt>
      <trkpt lat="52.1939608" lon="21.0244166">
        <ele>109.2</ele>
        <time>2013-09-29T10:28:44Z</time>
      </trkpt>
      <trkpt lat="52.1941098" lon="21.0243929">
        <ele>108.8</ele>
        <time>2013-09-29T10:28:50Z</time>
      </trkpt>
      <trkpt lat="52.1942405" lon="21.024375">
        <ele>108.6</ele>
        <time>2013-09-29T10:28:55Z</time>
      </trkpt>
      <trkpt lat="52.1943996" lon="21.0243778">
        <ele>108.6</ele>
        <time>2013-09-29T10:29:01Z</time>
      </trkpt>
      <trkpt lat="52.1945363" lon="21.0243773">
        <ele>108.6</ele>
        <time>2013-09-29T10:29:06Z</time>
      </trkpt>
      <trkpt lat="52.1946876" lon="21.0243721">
        <ele>108.6</ele>
        <time>2013-09-29T10:29:12Z</time>
      </trkpt>
      <trkpt lat="52.1948591" lon="21.0243714">
        <ele>108.6</ele>
        <time>2013-09-29T10:29:18Z</time>
      </trkpt>
      <trkpt lat="52.1949948" lon="21.0243675">
        <ele>108.6</ele>
        <time>2013-09-29T10:29:23Z</time>
      </trkpt>
      <trkpt lat="52.195159" lon="21.0243654">
        <ele>109.0</ele>
        <time>2013-09-29T10:29:29Z</time>
      </trkpt>
      <trkpt lat="52.195319" lon="21.024332">
        <ele>109.4</ele>
        <time>2013-09-29T10:29:35Z</time>
      </trkpt>
      <trkpt lat="52.1954661" lon="21.0243012">
        <ele>109.6</ele>
        <time>2013-09-29T10:29:41Z</time>
      </trkpt>
      <trkpt lat="52.1955951" lon="21.0243062">
        <ele>110.0</ele>
        <time>2013-09-29T10:29:46Z</time>
      </trkpt>
      <trkpt lat="52.195734" lon="21.0242841">
        <ele>110.2</ele>
        <time>2013-09-29T10:29:51Z</time>
      </trkpt>
      <trkpt lat="52.1958769" lon="21.0242742">
        <ele>110.6</ele>
        <time>2013-09-29T10:29:56Z</time>
      </trkpt>
      <trkpt lat="52.1960343" lon="21.0242639">
        <ele>110.6</ele>
        <time>2013-09-29T10:30:01Z</time>
      </trkpt>
      <trkpt lat="52.1961593" lon="21.0242592">
        <ele>110.6</ele>
        <time>2013-09-29T10:30:06Z</time>
      </trkpt>
      <trkpt lat="52.1963114" lon="21.0242665">
        <ele>110.6</ele>
        <time>2013-09-29T10:30:12Z</time>
      </trkpt>
      <trkpt lat="52.1964188" lon="21.0242825">
        <ele>110.6</ele>
        <time>2013-09-29T10:30:16Z</time>
      </trkpt>
      <trkpt lat="52.1965156" lon="21.024282">
        <ele>110.6</ele>
        <time>2013-09-29T10:30:20Z</time>
      </trkpt>
      <trkpt lat="52.1966392" lon="21.024268">
        <ele>110.6</ele>
        <time>2013-09-29T10:30:25Z</time>
      </trkpt>
      <trkpt lat="52.1967897" lon="21.0242561">
        <ele>110.4</ele>
        <time>2013-09-29T10:30:31Z</time>
      </trkpt>
      <trkpt lat="52.1968979" lon="21.0242668">
        <ele>110.2</ele>
        <time>2013-09-29T10:30:35Z</time>
      </trkpt>
      <trkpt lat="52.1970259" lon="21.0242689">
        <ele>109.8</ele>
        <time>2013-09-29T10:30:40Z</time>
      </trkpt>
      <trkpt lat="52.1971761" lon="21.0242447">
        <ele>109.4</ele>
        <time>2013-09-29T10:30:46Z</time>
      </trkpt>
      <trkpt lat="52.197332" lon="21.0242378">
        <ele>109.2</ele>
        <time>2013-09-29T10:30:52Z</time>
      </trkpt>
      <trkpt lat="52.1974636" lon="21.024211">
        <ele>108.8</ele>
        <time>2013-09-29T10:30:57Z</time>
      </trkpt>
      <trkpt lat="52.1975693" lon="21.0241788">
        <ele>108.8</ele>
        <time>2013-09-29T10:31:01Z</time>
      </trkpt>
      <trkpt lat="52.1977608" lon="21.024151">
        <ele>108.6</ele>
        <time>2013-09-29T10:31:08Z</time>
      </trkpt>
      <trkpt lat="52.197899" lon="21.0241323">
        <ele>108.6</ele>
        <time>2013-09-29T10:31:13Z</time>
      </trkpt>
      <trkpt lat="52.1980376" lon="21.0241306">
        <ele>108.4</ele>
        <time>2013-09-29T10:31:18Z</time>
      </trkpt>
      <trkpt lat="52.1981873" lon="21.0241078">
        <ele>108.2</ele>
        <time>2013-09-29T10:31:24Z</time>
      </trkpt>
      <trkpt lat="52.1983585" lon="21.0240591">
        <ele>108.0</ele>
        <time>2013-09-29T10:31:30Z</time>
      </trkpt>
      <trkpt lat="52.1985152" lon="21.0239897">
        <ele>108.0</ele>
        <time>2013-09-29T10:31:36Z</time>
      </trkpt>
      <trkpt lat="52.1986901" lon="21.02404">
        <ele>108.0</ele>
        <time>2013-09-29T10:31:42Z</time>
      </trkpt>
      <trkpt lat="52.1988713" lon="21.0240207">
        <ele>108.0</ele>
        <time>2013-09-29T10:31:48Z</time>
      </trkpt>
      <trkpt lat="52.199" lon="21.0240111">
        <ele>108.0</ele>
        <time>2013-09-29T10:31:53Z</time>
      </trkpt>
      <trkpt lat="52.1991311" lon="21.0239966">
        <ele>108.0</ele>
        <time>2013-09-29T10:31:58Z</time>
      </trkpt>
      <trkpt lat="52.1992777" lon="21.0239836">
        <ele>108.0</ele>
        <time>2013-09-29T10:32:03Z</time>
      </trkpt>
      <trkpt lat="52.1994417" lon="21.023984">
        <ele>108.4</ele>
        <time>2013-09-29T10:32:09Z</time>
      </trkpt>
      <trkpt lat="52.1995744" lon="21.0239689">
        <ele>108.6</ele>
        <time>2013-09-29T10:32:14Z</time>
      </trkpt>
      <trkpt lat="52.1997276" lon="21.0239437">
        <ele>108.8</ele>
        <time>2013-09-29T10:32:20Z</time>
      </trkpt>
      <trkpt lat="52.1998537" lon="21.0239281">
        <ele>109.0</ele>
        <time>2013-09-29T10:32:25Z</time>
      </trkpt>
      <trkpt lat="52.1999879" lon="21.0239122">
        <ele>109.2</ele>
        <time>2013-09-29T10:32:30Z</time>
      </trkpt>
      <trkpt lat="52.2001438" lon="21.0238598">
        <ele>109.4</ele>
        <time>2013-09-29T10:32:36Z</time>
      </trkpt>
      <trkpt lat="52.2002785" lon="21.0238272">
        <ele>109.4</ele>
        <time>2013-09-29T10:32:41Z</time>
      </trkpt>
      <trkpt lat="52.2004623" lon="21.0237656">
        <ele>109.6</ele>
        <time>2013-09-29T10:32:48Z</time>
      </trkpt>
      <trkpt lat="52.2006077" lon="21.0236744">
        <ele>110.0</ele>
        <time>2013-09-29T10:32:53Z</time>
      </trkpt>
      <trkpt lat="52.2008369" lon="21.0235712">
        <ele>110.4</ele>
        <time>2013-09-29T10:33:00Z</time>
      </trkpt>
      <trkpt lat="52.2010218" lon="21.0234781">
        <ele>110.6</ele>
        <time>2013-09-29T10:33:06Z</time>
      </trkpt>
      <trkpt lat="52.2012534" lon="21.0234667">
        <ele>110.6</ele>
        <time>2013-09-29T10:33:12Z</time>
      </trkpt>
      <trkpt lat="52.2014264" lon="21.0234687">
        <ele>110.6</ele>
        <time>2013-09-29T10:33:17Z</time>
      </trkpt>
      <trkpt lat="52.2015479" lon="21.0234846">
        <ele>110.6</ele>
        <time>2013-09-29T10:33:24Z</time>
      </trkpt>
      <trkpt lat="52.201602" lon="21.0234807">
        <ele>110.6</ele>
        <time>2013-09-29T10:33:28Z</time>
      </trkpt>
      <trkpt lat="52.2017227" lon="21.0234069">
        <ele>110.6</ele>
        <time>2013-09-29T10:33:33Z</time>
      </trkpt>
      <trkpt lat="52.2018127" lon="21.0233325">
        <ele>110.6</ele>
        <time>2013-09-29T10:33:37Z</time>
      </trkpt>
      <trkpt lat="52.2019344" lon="21.0232573">
        <ele>110.2</ele>
        <time>2013-09-29T10:33:42Z</time>
      </trkpt>
      <trkpt lat="52.202106" lon="21.0232113">
        <ele>110.0</ele>
        <time>2013-09-29T10:33:48Z</time>
      </trkpt>
      <trkpt lat="52.2021929" lon="21.0231849">
        <ele>109.8</ele>
        <time>2013-09-29T10:33:52Z</time>
      </trkpt>
      <trkpt lat="52.2023422" lon="21.0231693">
        <ele>109.4</ele>
        <time>2013-09-29T10:33:58Z</time>
      </trkpt>
      <trkpt lat="52.2025422" lon="21.0231945">
        <ele>109.0</ele>
        <time>2013-09-29T10:34:05Z</time>
      </trkpt>
      <trkpt lat="52.2026323" lon="21.0231724">
        <ele>109.2</ele>
        <time>2013-09-29T10:34:09Z</time>
      </trkpt>
      <trkpt lat="52.2027851" lon="21.02308">
        <ele>109.4</ele>
        <time>2013-09-29T10:34:15Z</time>
      </trkpt>
      <trkpt lat="52.2029094" lon="21.0229916">
        <ele>109.8</ele>
        <time>2013-09-29T10:34:20Z</time>
      </trkpt>
      <trkpt lat="52.2030534" lon="21.0229046">
        <ele>110.0</ele>
        <time>2013-09-29T10:34:26Z</time>
      </trkpt>
      <trkpt lat="52.2031949" lon="21.0228979">
        <ele>110.2</ele>
        <time>2013-09-29T10:34:32Z</time>
      </trkpt>
      <trkpt lat="52.2033606" lon="21.0230827">
        <ele>109.8</ele>
        <time>2013-09-29T10:34:38Z</time>
      </trkpt>
      <trkpt lat="52.2034829" lon="21.0231626">
        <ele>109.2</ele>
        <time>2013-09-29T10:34:42Z</time>
      </trkpt>
      <trkpt lat="52.2036159" lon="21.0231662">
        <ele>109.0</ele>
        <time>2013-09-29T10:34:47Z</time>
      </trkpt>
      <trkpt lat="52.2037423" lon="21.0231895">
        <ele>108.8</ele>
        <time>2013-09-29T10:34:52Z</time>
      </trkpt>
      <trkpt lat="52.2038734" lon="21.0231755">
        <ele>108.6</ele>
        <time>2013-09-29T10:34:57Z</time>
      </trkpt>
      <trkpt lat="52.204003" lon="21.0231724">
        <ele>108.4</ele>
        <time>2013-09-29T10:35:02Z</time>
      </trkpt>
      <trkpt lat="52.2041058" lon="21.0231412">
        <ele>108.2</ele>
        <time>2013-09-29T10:35:06Z</time>
      </trkpt>
      <trkpt lat="52.2042324" lon="21.0231349">
        <ele>108.2</ele>
        <time>2013-09-29T10:35:11Z</time>
      </trkpt>
      <trkpt lat="52.2043696" lon="21.0230953">
        <ele>108.6</ele>
        <time>2013-09-29T10:35:17Z</time>
      </trkpt>
      <trkpt lat="52.2044904" lon="21.0230594">
        <ele>108.8</ele>
        <time>2013-09-29T10:35:22Z</time>
      </trkpt>
      <trkpt lat="52.2046287" lon="21.0230108">
        <ele>109.2</ele>
        <time>2013-09-29T10:35:28Z</time>
      </trkpt>
      <trkpt lat="52.2047855" lon="21.0229849">
        <ele>109.4</ele>
        <time>2013-09-29T10:35:33Z</time>
      </trkpt>
      <trkpt lat="52.2049488" lon="21.0229595">
        <ele>109.8</ele>
        <time>2013-09-29T10:35:38Z</time>
      </trkpt>
      <trkpt lat="52.2051115" lon="21.0229241">
        <ele>109.8</ele>
        <time>2013-09-29T10:35:43Z</time>
      </trkpt>
      <trkpt lat="52.2051372" lon="21.0229065">
        <ele>109.8</ele>
        <time>2013-09-29T10:35:44Z</time>
      </trkpt>
      <trkpt lat="52.2052108" lon="21.0227689">
        <ele>109.8</ele>
        <time>2013-09-29T10:35:49Z</time>
      </trkpt>
      <trkpt lat="52.205276" lon="21.0227368">
        <ele>109.8</ele>
        <time>2013-09-29T10:35:51Z</time>
      </trkpt>
      <trkpt lat="52.2054731" lon="21.0227811">
        <ele>109.8</ele>
        <time>2013-09-29T10:35:57Z</time>
      </trkpt>
      <trkpt lat="52.2056268" lon="21.0227812">
        <ele>109.6</ele>
        <time>2013-09-29T10:36:03Z</time>
      </trkpt>
      <trkpt lat="52.205775" lon="21.0227477">
        <ele>109.6</ele>
        <time>2013-09-29T10:36:10Z</time>
      </trkpt>
      <trkpt lat="52.2059144" lon="21.0227187">
        <ele>109.6</ele>
        <time>2013-09-29T10:36:16Z</time>
      </trkpt>
      <trkpt lat="52.206063" lon="21.0226361">
        <ele>109.4</ele>
        <time>2013-09-29T10:36:23Z</time>
      </trkpt>
      <trkpt lat="52.2061532" lon="21.0225995">
        <ele>109.4</ele>
        <time>2013-09-29T10:36:27Z</time>
      </trkpt>
      <trkpt lat="52.2063521" lon="21.0225575">
        <ele>109.2</ele>
        <time>2013-09-29T10:36:35Z</time>
      </trkpt>
      <trkpt lat="52.2064873" lon="21.0224694">
        <ele>109.2</ele>
        <time>2013-09-29T10:36:41Z</time>
      </trkpt>
      <trkpt lat="52.2066293" lon="21.0223668">
        <ele>109.2</ele>
        <time>2013-09-29T10:36:47Z</time>
      </trkpt>
      <trkpt lat="52.2067394" lon="21.0222659">
        <ele>109.6</ele>
        <time>2013-09-29T10:36:52Z</time>
      </trkpt>
      <trkpt lat="52.206896" lon="21.0222172">
        <ele>109.8</ele>
        <time>2013-09-29T10:36:57Z</time>
      </trkpt>
      <trkpt lat="52.2070753" lon="21.0221891">
        <ele>110.0</ele>
        <time>2013-09-29T10:37:02Z</time>
      </trkpt>
      <trkpt lat="52.2072239" lon="21.0221487">
        <ele>110.2</ele>
        <time>2013-09-29T10:37:07Z</time>
      </trkpt>
      <trkpt lat="52.2073825" lon="21.0221147">
        <ele>110.2</ele>
        <time>2013-09-29T10:37:13Z</time>
      </trkpt>
      <trkpt lat="52.2075" lon="21.0220069">
        <ele>110.4</ele>
        <time>2013-09-29T10:37:19Z</time>
      </trkpt>
      <trkpt lat="52.2076538" lon="21.0219618">
        <ele>111.0</ele>
        <time>2013-09-29T10:37:25Z</time>
      </trkpt>
      <trkpt lat="52.2077777" lon="21.0218737">
        <ele>111.6</ele>
        <time>2013-09-29T10:37:30Z</time>
      </trkpt>
      <trkpt lat="52.2079487" lon="21.0217332">
        <ele>112.4</ele>
        <time>2013-09-29T10:37:37Z</time>
      </trkpt>
      <trkpt lat="52.2081315" lon="21.0216578">
        <ele>113.2</ele>
        <time>2013-09-29T10:37:43Z</time>
      </trkpt>
      <trkpt lat="52.2082869" lon="21.0215876">
        <ele>113.8</ele>
        <time>2013-09-29T10:37:48Z</time>
      </trkpt>
      <trkpt lat="52.20838" lon="21.0215044">
        <ele>114.0</ele>
        <time>2013-09-29T10:37:53Z</time>
      </trkpt>
      <trkpt lat="52.2085013" lon="21.0214371">
        <ele>114.0</ele>
        <time>2013-09-29T10:37:58Z</time>
      </trkpt>
      <trkpt lat="52.2086304" lon="21.0213822">
        <ele>114.0</ele>
        <time>2013-09-29T10:38:02Z</time>
      </trkpt>
      <trkpt lat="52.2087733" lon="21.0213464">
        <ele>113.8</ele>
        <time>2013-09-29T10:38:07Z</time>
      </trkpt>
      <trkpt lat="52.2088878" lon="21.0212955">
        <ele>113.8</ele>
        <time>2013-09-29T10:38:11Z</time>
      </trkpt>
      <trkpt lat="52.2090581" lon="21.021264">
        <ele>113.6</ele>
        <time>2013-09-29T10:38:16Z</time>
      </trkpt>
      <trkpt lat="52.2091996" lon="21.0211977">
        <ele>113.6</ele>
        <time>2013-09-29T10:38:22Z</time>
      </trkpt>
      <trkpt lat="52.2093447" lon="21.0210817">
        <ele>113.8</ele>
        <time>2013-09-29T10:38:28Z</time>
      </trkpt>
      <trkpt lat="52.2094882" lon="21.0210331">
        <ele>114.2</ele>
        <time>2013-09-29T10:38:33Z</time>
      </trkpt>
      <trkpt lat="52.2096405" lon="21.0209735">
        <ele>114.2</ele>
        <time>2013-09-29T10:38:38Z</time>
      </trkpt>
      <trkpt lat="52.2097948" lon="21.0209318">
        <ele>114.0</ele>
        <time>2013-09-29T10:38:43Z</time>
      </trkpt>
      <trkpt lat="52.2099231" lon="21.0208797">
        <ele>113.6</ele>
        <time>2013-09-29T10:38:49Z</time>
      </trkpt>
      <trkpt lat="52.2100424" lon="21.0209346">
        <ele>114.2</ele>
        <time>2013-09-29T10:38:54Z</time>
      </trkpt>
      <trkpt lat="52.2101517" lon="21.0210263">
        <ele>114.8</ele>
        <time>2013-09-29T10:38:58Z</time>
      </trkpt>
      <trkpt lat="52.2102564" lon="21.0210702">
        <ele>114.6</ele>
        <time>2013-09-29T10:39:02Z</time>
      </trkpt>
      <trkpt lat="52.2103735" lon="21.0210248">
        <ele>113.4</ele>
        <time>2013-09-29T10:39:07Z</time>
      </trkpt>
      <trkpt lat="52.2105128" lon="21.0210035">
        <ele>112.4</ele>
        <time>2013-09-29T10:39:13Z</time>
      </trkpt>
      <trkpt lat="52.21069" lon="21.0209781">
        <ele>111.4</ele>
        <time>2013-09-29T10:39:20Z</time>
      </trkpt>
      <trkpt lat="52.2107929" lon="21.0209464">
        <ele>110.6</ele>
        <time>2013-09-29T10:39:24Z</time>
      </trkpt>
      <trkpt lat="52.2108954" lon="21.0209051">
        <ele>110.2</ele>
        <time>2013-09-29T10:39:28Z</time>
      </trkpt>
      <trkpt lat="52.2110665" lon="21.020873">
        <ele>110.0</ele>
        <time>2013-09-29T10:39:34Z</time>
      </trkpt>
      <trkpt lat="52.2112194" lon="21.0207791">
        <ele>109.8</ele>
        <time>2013-09-29T10:39:40Z</time>
      </trkpt>
      <trkpt lat="52.2113508" lon="21.0206725">
        <ele>109.6</ele>
        <time>2013-09-29T10:39:45Z</time>
      </trkpt>
      <trkpt lat="52.2115009" lon="21.0205648">
        <ele>109.4</ele>
        <time>2013-09-29T10:39:51Z</time>
      </trkpt>
      <trkpt lat="52.2116244" lon="21.0204517">
        <ele>109.0</ele>
        <time>2013-09-29T10:39:56Z</time>
      </trkpt>
      <trkpt lat="52.2117274" lon="21.0204689">
        <ele>109.0</ele>
        <time>2013-09-29T10:40:00Z</time>
      </trkpt>
      <trkpt lat="52.211871" lon="21.0205016">
        <ele>109.2</ele>
        <time>2013-09-29T10:40:05Z</time>
      </trkpt>
      <trkpt lat="52.2120135" lon="21.0205591">
        <ele>109.4</ele>
        <time>2013-09-29T10:40:10Z</time>
      </trkpt>
      <trkpt lat="52.2121376" lon="21.0206438">
        <ele>109.6</ele>
        <time>2013-09-29T10:40:15Z</time>
      </trkpt>
      <trkpt lat="52.2122352" lon="21.0207181">
        <ele>109.8</ele>
        <time>2013-09-29T10:40:20Z</time>
      </trkpt>
      <trkpt lat="52.2123683" lon="21.020845">
        <ele>110.0</ele>
        <time>2013-09-29T10:40:28Z</time>
      </trkpt>
      <trkpt lat="52.2124714" lon="21.0208946">
        <ele>110.2</ele>
        <time>2013-09-29T10:40:33Z</time>
      </trkpt>
      <trkpt lat="52.2125724" lon="21.0209015">
        <ele>110.4</ele>
        <time>2013-09-29T10:40:38Z</time>
      </trkpt>
      <trkpt lat="52.2126755" lon="21.020918">
        <ele>110.8</ele>
        <time>2013-09-29T10:40:43Z</time>
      </trkpt>
      <trkpt lat="52.2127195" lon="21.0209553">
        <ele>111.0</ele>
        <time>2013-09-29T10:40:45Z</time>
      </trkpt>
      <trkpt lat="52.2129095" lon="21.0210486">
        <ele>111.6</ele>
        <time>2013-09-29T10:40:51Z</time>
      </trkpt>
      <trkpt lat="52.2130473" lon="21.0211543">
        <ele>111.8</ele>
        <time>2013-09-29T10:40:55Z</time>
      </trkpt>
      <trkpt lat="52.2132198" lon="21.0212781">
        <ele>111.8</ele>
        <time>2013-09-29T10:41:01Z</time>
      </trkpt>
      <trkpt lat="52.2133929" lon="21.0213723">
        <ele>111.8</ele>
        <time>2013-09-29T10:41:06Z</time>
      </trkpt>
      <trkpt lat="52.213466" lon="21.0214164">
        <ele>112.2</ele>
        <time>2013-09-29T10:41:10Z</time>
      </trkpt>
      <trkpt lat="52.2135758" lon="21.0214909">
        <ele>112.6</ele>
        <time>2013-09-29T10:41:15Z</time>
      </trkpt>
      <trkpt lat="52.2138286" lon="21.0216018">
        <ele>113.8</ele>
        <time>2013-09-29T10:41:22Z</time>
      </trkpt>
      <trkpt lat="52.2140006" lon="21.02168">
        <ele>115.0</ele>
        <time>2013-09-29T10:41:28Z</time>
      </trkpt>
      <trkpt lat="52.2141606" lon="21.021722">
        <ele>116.0</ele>
        <time>2013-09-29T10:41:34Z</time>
      </trkpt>
      <trkpt lat="52.2142671" lon="21.0217883">
        <ele>116.6</ele>
        <time>2013-09-29T10:41:39Z</time>
      </trkpt>
      <trkpt lat="52.2143527" lon="21.021858">
        <ele>117.0</ele>
        <time>2013-09-29T10:41:44Z</time>
      </trkpt>
      <trkpt lat="52.2144378" lon="21.0219949">
        <ele>117.6</ele>
        <time>2013-09-29T10:41:49Z</time>
      </trkpt>
      <trkpt lat="52.2145258" lon="21.0220813">
        <ele>118.0</ele>
        <time>2013-09-29T10:41:54Z</time>
      </trkpt>
      <trkpt lat="52.2146506" lon="21.0221855">
        <ele>118.4</ele>
        <time>2013-09-29T10:42:00Z</time>
      </trkpt>
      <trkpt lat="52.2147763" lon="21.0222758">
        <ele>118.6</ele>
        <time>2013-09-29T10:42:05Z</time>
      </trkpt>
      <trkpt lat="52.2148359" lon="21.0223835">
        <ele>118.8</ele>
        <time>2013-09-29T10:42:09Z</time>
      </trkpt>
      <trkpt lat="52.2148786" lon="21.0224553">
        <ele>118.8</ele>
        <time>2013-09-29T10:42:12Z</time>
      </trkpt>
      <trkpt lat="52.2149619" lon="21.0225415">
        <ele>118.8</ele>
        <time>2013-09-29T10:42:16Z</time>
      </trkpt>
      <trkpt lat="52.2150049" lon="21.0225726">
        <ele>118.8</ele>
        <time>2013-09-29T10:42:18Z</time>
      </trkpt>
      <trkpt lat="52.2152992" lon="21.0226933">
        <ele>117.0</ele>
        <time>2013-09-29T10:42:26Z</time>
      </trkpt>
      <trkpt lat="52.2154821" lon="21.0227808">
        <ele>116.0</ele>
        <time>2013-09-29T10:42:31Z</time>
      </trkpt>
      <trkpt lat="52.2156136" lon="21.0228285">
        <ele>115.2</ele>
        <time>2013-09-29T10:42:36Z</time>
      </trkpt>
      <trkpt lat="52.2157358" lon="21.0228998">
        <ele>114.4</ele>
        <time>2013-09-29T10:42:41Z</time>
      </trkpt>
      <trkpt lat="52.2158664" lon="21.022972">
        <ele>113.8</ele>
        <time>2013-09-29T10:42:46Z</time>
      </trkpt>
      <trkpt lat="52.2159196" lon="21.0229994">
        <ele>114.0</ele>
        <time>2013-09-29T10:42:48Z</time>
      </trkpt>
      <trkpt lat="52.2160653" lon="21.0230547">
        <ele>114.2</ele>
        <time>2013-09-29T10:42:53Z</time>
      </trkpt>
      <trkpt lat="52.2162709" lon="21.0231651">
        <ele>114.6</ele>
        <time>2013-09-29T10:43:00Z</time>
      </trkpt>
      <trkpt lat="52.2164404" lon="21.0232108">
        <ele>115.2</ele>
        <time>2013-09-29T10:43:05Z</time>
      </trkpt>
      <trkpt lat="52.2165735" lon="21.0232455">
        <ele>115.6</ele>
        <time>2013-09-29T10:43:10Z</time>
      </trkpt>
      <trkpt lat="52.2166268" lon="21.0233009">
        <ele>115.8</ele>
        <time>2013-09-29T10:43:14Z</time>
      </trkpt>
      <trkpt lat="52.2167262" lon="21.0234045">
        <ele>115.8</ele>
        <time>2013-09-29T10:43:18Z</time>
      </trkpt>
      <trkpt lat="52.2168911" lon="21.0235045">
        <ele>115.4</ele>
        <time>2013-09-29T10:43:23Z</time>
      </trkpt>
      <trkpt lat="52.2170029" lon="21.0235708">
        <ele>115.2</ele>
        <time>2013-09-29T10:43:28Z</time>
      </trkpt>
      <trkpt lat="52.2170861" lon="21.0236107">
        <ele>115.0</ele>
        <time>2013-09-29T10:43:33Z</time>
      </trkpt>
      <trkpt lat="52.2171982" lon="21.0236578">
        <ele>114.8</ele>
        <time>2013-09-29T10:43:38Z</time>
      </trkpt>
      <trkpt lat="52.2173288" lon="21.0237086">
        <ele>114.6</ele>
        <time>2013-09-29T10:43:44Z</time>
      </trkpt>
      <trkpt lat="52.2174464" lon="21.0238064">
        <ele>114.4</ele>
        <time>2013-09-29T10:43:49Z</time>
      </trkpt>
      <trkpt lat="52.2175664" lon="21.0239233">
        <ele>114.2</ele>
        <time>2013-09-29T10:43:54Z</time>
      </trkpt>
      <trkpt lat="52.2176975" lon="21.0240417">
        <ele>114.0</ele>
        <time>2013-09-29T10:43:59Z</time>
      </trkpt>
      <trkpt lat="52.2178794" lon="21.0242053">
        <ele>113.8</ele>
        <time>2013-09-29T10:44:06Z</time>
      </trkpt>
      <trkpt lat="52.2179855" lon="21.0242722">
        <ele>113.6</ele>
        <time>2013-09-29T10:44:10Z</time>
      </trkpt>
      <trkpt lat="52.2181005" lon="21.0243255">
        <ele>113.6</ele>
        <time>2013-09-29T10:44:14Z</time>
      </trkpt>
      <trkpt lat="52.2182762" lon="21.0244507">
        <ele>113.2</ele>
        <time>2013-09-29T10:44:21Z</time>
      </trkpt>
      <trkpt lat="52.2184108" lon="21.0245364">
        <ele>112.6</ele>
        <time>2013-09-29T10:44:27Z</time>
      </trkpt>
      <trkpt lat="52.2185662" lon="21.0246247">
        <ele>111.8</ele>
        <time>2013-09-29T10:44:33Z</time>
      </trkpt>
      <trkpt lat="52.2186822" lon="21.0246995">
        <ele>111.0</ele>
        <time>2013-09-29T10:44:38Z</time>
      </trkpt>
      <trkpt lat="52.2187973" lon="21.0247786">
        <ele>110.4</ele>
        <time>2013-09-29T10:44:43Z</time>
      </trkpt>
      <trkpt lat="52.2189195" lon="21.0248643">
        <ele>109.8</ele>
        <time>2013-09-29T10:44:48Z</time>
      </trkpt>
      <trkpt lat="52.219047" lon="21.0249402">
        <ele>109.4</ele>
        <time>2013-09-29T10:44:53Z</time>
      </trkpt>
      <trkpt lat="52.2191625" lon="21.0250067">
        <ele>109.0</ele>
        <time>2013-09-29T10:44:58Z</time>
      </trkpt>
      <trkpt lat="52.2193174" lon="21.025086">
        <ele>109.6</ele>
        <time>2013-09-29T10:45:04Z</time>
      </trkpt>
      <trkpt lat="52.2194609" lon="21.0251251">
        <ele>110.2</ele>
        <time>2013-09-29T10:45:10Z</time>
      </trkpt>
      <trkpt lat="52.2196126" lon="21.0251036">
        <ele>110.8</ele>
        <time>2013-09-29T10:45:16Z</time>
      </trkpt>
      <trkpt lat="52.2197515" lon="21.0250745">
        <ele>111.4</ele>
        <time>2013-09-29T10:45:21Z</time>
      </trkpt>
      <trkpt lat="52.2199131" lon="21.0250708">
        <ele>112.2</ele>
        <time>2013-09-29T10:45:27Z</time>
      </trkpt>
      <trkpt lat="52.2200193" lon="21.0250666">
        <ele>112.6</ele>
        <time>2013-09-29T10:45:31Z</time>
      </trkpt>
      <trkpt lat="52.2201209" lon="21.025061">
        <ele>112.4</ele>
        <time>2013-09-29T10:45:35Z</time>
      </trkpt>
      <trkpt lat="52.22027" lon="21.0250088">
        <ele>112.2</ele>
        <time>2013-09-29T10:45:41Z</time>
      </trkpt>
      <trkpt lat="52.2203969" lon="21.0249645">
        <ele>112.0</ele>
        <time>2013-09-29T10:45:46Z</time>
      </trkpt>
      <trkpt lat="52.2205719" lon="21.0248699">
        <ele>112.0</ele>
        <time>2013-09-29T10:45:53Z</time>
      </trkpt>
      <trkpt lat="52.2207217" lon="21.0248269">
        <ele>111.8</ele>
        <time>2013-09-29T10:45:59Z</time>
      </trkpt>
      <trkpt lat="52.2208541" lon="21.024806">
        <ele>111.6</ele>
        <time>2013-09-29T10:46:04Z</time>
      </trkpt>
      <trkpt lat="52.2209823" lon="21.0247673">
        <ele>111.6</ele>
        <time>2013-09-29T10:46:09Z</time>
      </trkpt>
      <trkpt lat="52.2211455" lon="21.0247228">
        <ele>111.8</ele>
        <time>2013-09-29T10:46:15Z</time>
      </trkpt>
      <trkpt lat="52.2212983" lon="21.0246589">
        <ele>111.8</ele>
        <time>2013-09-29T10:46:21Z</time>
      </trkpt>
      <trkpt lat="52.2214376" lon="21.0246337">
        <ele>112.0</ele>
        <time>2013-09-29T10:46:26Z</time>
      </trkpt>
      <trkpt lat="52.2215674" lon="21.024598">
        <ele>112.0</ele>
        <time>2013-09-29T10:46:31Z</time>
      </trkpt>
      <trkpt lat="52.2217189" lon="21.0245466">
        <ele>112.2</ele>
        <time>2013-09-29T10:46:37Z</time>
      </trkpt>
      <trkpt lat="52.2218618" lon="21.0245321">
        <ele>112.8</ele>
        <time>2013-09-29T10:46:42Z</time>
      </trkpt>
      <trkpt lat="52.2219997" lon="21.0245151">
        <ele>113.2</ele>
        <time>2013-09-29T10:46:47Z</time>
      </trkpt>
      <trkpt lat="52.2221349" lon="21.024475">
        <ele>113.8</ele>
        <time>2013-09-29T10:46:52Z</time>
      </trkpt>
      <trkpt lat="52.2222933" lon="21.0244162">
        <ele>114.6</ele>
        <time>2013-09-29T10:46:58Z</time>
      </trkpt>
      <trkpt lat="52.2224405" lon="21.0243297">
        <ele>115.2</ele>
        <time>2013-09-29T10:47:04Z</time>
      </trkpt>
      <trkpt lat="52.2225829" lon="21.0243093">
        <ele>115.0</ele>
        <time>2013-09-29T10:47:09Z</time>
      </trkpt>
      <trkpt lat="52.2227487" lon="21.0242862">
        <ele>114.2</ele>
        <time>2013-09-29T10:47:15Z</time>
      </trkpt>
      <trkpt lat="52.2229222" lon="21.0242924">
        <ele>113.2</ele>
        <time>2013-09-29T10:47:20Z</time>
      </trkpt>
      <trkpt lat="52.2230842" lon="21.0242546">
        <ele>112.4</ele>
        <time>2013-09-29T10:47:26Z</time>
      </trkpt>
      <trkpt lat="52.2231885" lon="21.0242198">
        <ele>111.8</ele>
        <time>2013-09-29T10:47:30Z</time>
      </trkpt>
      <trkpt lat="52.2232646" lon="21.0241981">
        <ele>111.4</ele>
        <time>2013-09-29T10:47:33Z</time>
      </trkpt>
      <trkpt lat="52.2233847" lon="21.0241737">
        <ele>110.8</ele>
        <time>2013-09-29T10:47:38Z</time>
      </trkpt>
      <trkpt lat="52.2234107" lon="21.0241689">
        <ele>110.8</ele>
        <time>2013-09-29T10:47:39Z</time>
      </trkpt>
      <trkpt lat="52.2235527" lon="21.0241458">
        <ele>111.0</ele>
        <time>2013-09-29T10:47:45Z</time>
      </trkpt>
      <trkpt lat="52.2236806" lon="21.0241197">
        <ele>111.0</ele>
        <time>2013-09-29T10:47:50Z</time>
      </trkpt>
      <trkpt lat="52.2238122" lon="21.0241017">
        <ele>111.0</ele>
        <time>2013-09-29T10:47:55Z</time>
      </trkpt>
      <trkpt lat="52.2239992" lon="21.0240676">
        <ele>111.0</ele>
        <time>2013-09-29T10:48:02Z</time>
      </trkpt>
      <trkpt lat="52.2241425" lon="21.0240249">
        <ele>111.0</ele>
        <time>2013-09-29T10:48:08Z</time>
      </trkpt>
      <trkpt lat="52.2243043" lon="21.0239772">
        <ele>111.2</ele>
        <time>2013-09-29T10:48:14Z</time>
      </trkpt>
      <trkpt lat="52.2244291" lon="21.0239265">
        <ele>111.2</ele>
        <time>2013-09-29T10:48:19Z</time>
      </trkpt>
      <trkpt lat="52.2245276" lon="21.0238749">
        <ele>111.2</ele>
        <time>2013-09-29T10:48:23Z</time>
      </trkpt>
      <trkpt lat="52.2246622" lon="21.0238508">
        <ele>111.2</ele>
        <time>2013-09-29T10:48:28Z</time>
      </trkpt>
      <trkpt lat="52.2247721" lon="21.0238391">
        <ele>111.2</ele>
        <time>2013-09-29T10:48:32Z</time>
      </trkpt>
      <trkpt lat="52.2249309" lon="21.0238054">
        <ele>111.4</ele>
        <time>2013-09-29T10:48:38Z</time>
      </trkpt>
      <trkpt lat="52.2250927" lon="21.0237345">
        <ele>111.6</ele>
        <time>2013-09-29T10:48:43Z</time>
      </trkpt>
      <trkpt lat="52.2252278" lon="21.0236406">
        <ele>112.0</ele>
        <time>2013-09-29T10:48:49Z</time>
      </trkpt>
      <trkpt lat="52.2252547" lon="21.0236438">
        <ele>112.0</ele>
        <time>2013-09-29T10:48:50Z</time>
      </trkpt>
      <trkpt lat="52.225404" lon="21.0236162">
        <ele>112.4</ele>
        <time>2013-09-29T10:48:56Z</time>
      </trkpt>
      <trkpt lat="52.2255364" lon="21.023549">
        <ele>112.8</ele>
        <time>2013-09-29T10:49:01Z</time>
      </trkpt>
      <trkpt lat="52.2257194" lon="21.0235027">
        <ele>113.2</ele>
        <time>2013-09-29T10:49:07Z</time>
      </trkpt>
      <trkpt lat="52.2258816" lon="21.0234826">
        <ele>113.6</ele>
        <time>2013-09-29T10:49:12Z</time>
      </trkpt>
      <trkpt lat="52.2260581" lon="21.0234153">
        <ele>114.4</ele>
        <time>2013-09-29T10:49:18Z</time>
      </trkpt>
      <trkpt lat="52.2261975" lon="21.0233707">
        <ele>114.8</ele>
        <time>2013-09-29T10:49:23Z</time>
      </trkpt>
      <trkpt lat="52.2263256" lon="21.0233245">
        <ele>115.0</ele>
        <time>2013-09-29T10:49:29Z</time>
      </trkpt>
      <trkpt lat="52.2264209" lon="21.0232603">
        <ele>115.2</ele>
        <time>2013-09-29T10:49:33Z</time>
      </trkpt>
      <trkpt lat="52.2266535" lon="21.0232128">
        <ele>115.8</ele>
        <time>2013-09-29T10:49:41Z</time>
      </trkpt>
      <trkpt lat="52.2267905" lon="21.0231911">
        <ele>115.0</ele>
        <time>2013-09-29T10:49:46Z</time>
      </trkpt>
      <trkpt lat="52.2269543" lon="21.0231683">
        <ele>114.2</ele>
        <time>2013-09-29T10:49:51Z</time>
      </trkpt>
      <trkpt lat="52.2271195" lon="21.0231417">
        <ele>113.4</ele>
        <time>2013-09-29T10:49:56Z</time>
      </trkpt>
      <trkpt lat="52.2272082" lon="21.0230922">
        <ele>113.0</ele>
        <time>2013-09-29T10:50:01Z</time>
      </trkpt>
      <trkpt lat="52.2273124" lon="21.0229911">
        <ele>112.6</ele>
        <time>2013-09-29T10:50:07Z</time>
      </trkpt>
      <trkpt lat="52.2274792" lon="21.022934">
        <ele>112.0</ele>
        <time>2013-09-29T10:50:15Z</time>
      </trkpt>
      <trkpt lat="52.2276055" lon="21.0229014">
        <ele>111.6</ele>
        <time>2013-09-29T10:50:20Z</time>
      </trkpt>
      <trkpt lat="52.2277577" lon="21.0228961">
        <ele>111.0</ele>
        <time>2013-09-29T10:50:26Z</time>
      </trkpt>
      <trkpt lat="52.227892" lon="21.0229325">
        <ele>110.4</ele>
        <time>2013-09-29T10:50:30Z</time>
      </trkpt>
      <trkpt lat="52.2280852" lon="21.0229937">
        <ele>109.6</ele>
        <time>2013-09-29T10:50:36Z</time>
      </trkpt>
      <trkpt lat="52.2282298" lon="21.0230204">
        <ele>109.0</ele>
        <time>2013-09-29T10:50:41Z</time>
      </trkpt>
      <trkpt lat="52.2283674" lon="21.0230025">
        <ele>108.8</ele>
        <time>2013-09-29T10:50:46Z</time>
      </trkpt>
      <trkpt lat="52.2285072" lon="21.0229953">
        <ele>109.2</ele>
        <time>2013-09-29T10:50:51Z</time>
      </trkpt>
      <trkpt lat="52.2286639" lon="21.022944">
        <ele>109.8</ele>
        <time>2013-09-29T10:50:57Z</time>
      </trkpt>
      <trkpt lat="52.2287669" lon="21.0229171">
        <ele>110.2</ele>
        <time>2013-09-29T10:51:01Z</time>
      </trkpt>
      <trkpt lat="52.2288954" lon="21.0228713">
        <ele>110.6</ele>
        <time>2013-09-29T10:51:06Z</time>
      </trkpt>
      <trkpt lat="52.2290501" lon="21.0227735">
        <ele>111.0</ele>
        <time>2013-09-29T10:51:12Z</time>
      </trkpt>
      <trkpt lat="52.229142" lon="21.0226376">
        <ele>111.0</ele>
        <time>2013-09-29T10:51:17Z</time>
      </trkpt>
      <trkpt lat="52.229274" lon="21.0224975">
        <ele>111.6</ele>
        <time>2013-09-29T10:51:22Z</time>
      </trkpt>
      <trkpt lat="52.2293533" lon="21.0223802">
        <ele>111.8</ele>
        <time>2013-09-29T10:51:26Z</time>
      </trkpt>
      <trkpt lat="52.2294848" lon="21.0222141">
        <ele>112.0</ele>
        <time>2013-09-29T10:51:32Z</time>
      </trkpt>
      <trkpt lat="52.2295818" lon="21.0221043">
        <ele>112.0</ele>
        <time>2013-09-29T10:51:36Z</time>
      </trkpt>
      <trkpt lat="52.229702" lon="21.0220489">
        <ele>112.2</ele>
        <time>2013-09-29T10:51:41Z</time>
      </trkpt>
      <trkpt lat="52.2297304" lon="21.0220498">
        <ele>112.2</ele>
        <time>2013-09-29T10:51:42Z</time>
      </trkpt>
      <trkpt lat="52.2299304" lon="21.0219927">
        <ele>112.6</ele>
        <time>2013-09-29T10:51:49Z</time>
      </trkpt>
      <trkpt lat="52.2300464" lon="21.0218924">
        <ele>112.4</ele>
        <time>2013-09-29T10:51:54Z</time>
      </trkpt>
      <trkpt lat="52.2302107" lon="21.0217057">
        <ele>111.6</ele>
        <time>2013-09-29T10:52:01Z</time>
      </trkpt>
      <trkpt lat="52.2303039" lon="21.021564">
        <ele>111.6</ele>
        <time>2013-09-29T10:52:06Z</time>
      </trkpt>
      <trkpt lat="52.2304482" lon="21.0215152">
        <ele>112.0</ele>
        <time>2013-09-29T10:52:11Z</time>
      </trkpt>
      <trkpt lat="52.2305307" lon="21.0213406">
        <ele>112.4</ele>
        <time>2013-09-29T10:52:16Z</time>
      </trkpt>
      <trkpt lat="52.2307074" lon="21.0212288">
        <ele>113.0</ele>
        <time>2013-09-29T10:52:23Z</time>
      </trkpt>
      <trkpt lat="52.2308056" lon="21.0211134">
        <ele>113.4</ele>
        <time>2013-09-29T10:52:28Z</time>
      </trkpt>
      <trkpt lat="52.2309374" lon="21.0209968">
        <ele>113.2</ele>
        <time>2013-09-29T10:52:34Z</time>
      </trkpt>
      <trkpt lat="52.231099" lon="21.0209211">
        <ele>112.8</ele>
        <time>2013-09-29T10:52:40Z</time>
      </trkpt>
      <trkpt lat="52.2312332" lon="21.0208769">
        <ele>112.4</ele>
        <time>2013-09-29T10:52:45Z</time>
      </trkpt>
      <trkpt lat="52.2314356" lon="21.0209466">
        <ele>111.4</ele>
        <time>2013-09-29T10:52:51Z</time>
      </trkpt>
      <trkpt lat="52.2315808" lon="21.0211377">
        <ele>110.2</ele>
        <time>2013-09-29T10:52:56Z</time>
      </trkpt>
      <trkpt lat="52.2316865" lon="21.0213594">
        <ele>109.0</ele>
        <time>2013-09-29T10:53:01Z</time>
      </trkpt>
      <trkpt lat="52.2317843" lon="21.0215866">
        <ele>108.4</ele>
        <time>2013-09-29T10:53:06Z</time>
      </trkpt>
      <trkpt lat="52.2318676" lon="21.0217767">
        <ele>108.0</ele>
        <time>2013-09-29T10:53:10Z</time>
      </trkpt>
      <trkpt lat="52.231951" lon="21.0220058">
        <ele>108.0</ele>
        <time>2013-09-29T10:53:15Z</time>
      </trkpt>
      <trkpt lat="52.2320027" lon="21.0221901">
        <ele>108.0</ele>
        <time>2013-09-29T10:53:19Z</time>
      </trkpt>
      <trkpt lat="52.2320755" lon="21.0224187">
        <ele>108.0</ele>
        <time>2013-09-29T10:53:24Z</time>
      </trkpt>
      <trkpt lat="52.2321292" lon="21.0226502">
        <ele>108.2</ele>
        <time>2013-09-29T10:53:29Z</time>
      </trkpt>
      <trkpt lat="52.2322179" lon="21.0229222">
        <ele>108.6</ele>
        <time>2013-09-29T10:53:35Z</time>
      </trkpt>
      <trkpt lat="52.2322765" lon="21.0231557">
        <ele>109.0</ele>
        <time>2013-09-29T10:53:40Z</time>
      </trkpt>
      <trkpt lat="52.2323184" lon="21.0233341">
        <ele>109.2</ele>
        <time>2013-09-29T10:53:44Z</time>
      </trkpt>
      <trkpt lat="52.2323587" lon="21.0235123">
        <ele>109.0</ele>
        <time>2013-09-29T10:53:48Z</time>
      </trkpt>
      <trkpt lat="52.2324177" lon="21.0237231">
        <ele>108.8</ele>
        <time>2013-09-29T10:53:53Z</time>
      </trkpt>
      <trkpt lat="52.2324806" lon="21.0239712">
        <ele>108.4</ele>
        <time>2013-09-29T10:53:59Z</time>
      </trkpt>
      <trkpt lat="52.2325261" lon="21.0241546">
        <ele>108.0</ele>
        <time>2013-09-29T10:54:03Z</time>
      </trkpt>
      <trkpt lat="52.2326124" lon="21.0243751">
        <ele>107.8</ele>
        <time>2013-09-29T10:54:08Z</time>
      </trkpt>
      <trkpt lat="52.2326411" lon="21.0245497">
        <ele>107.6</ele>
        <time>2013-09-29T10:54:12Z</time>
      </trkpt>
      <trkpt lat="52.2327002" lon="21.0247353">
        <ele>107.6</ele>
        <time>2013-09-29T10:54:16Z</time>
      </trkpt>
      <trkpt lat="52.2327892" lon="21.0249585">
        <ele>107.8</ele>
        <time>2013-09-29T10:54:21Z</time>
      </trkpt>
      <trkpt lat="52.2328551" lon="21.025135">
        <ele>107.4</ele>
        <time>2013-09-29T10:54:25Z</time>
      </trkpt>
      <trkpt lat="52.2328939" lon="21.0253412">
        <ele>106.6</ele>
        <time>2013-09-29T10:54:30Z</time>
      </trkpt>
      <trkpt lat="52.2329167" lon="21.0255651">
        <ele>105.6</ele>
        <time>2013-09-29T10:54:35Z</time>
      </trkpt>
      <trkpt lat="52.2329706" lon="21.0258576">
        <ele>104.2</ele>
        <time>2013-09-29T10:54:41Z</time>
      </trkpt>
      <trkpt lat="52.2329768" lon="21.0259018">
        <ele>104.0</ele>
        <time>2013-09-29T10:54:42Z</time>
      </trkpt>
      <trkpt lat="52.2329833" lon="21.0260697">
        <ele>102.6</ele>
        <time>2013-09-29T10:54:46Z</time>
      </trkpt>
      <trkpt lat="52.2330126" lon="21.0264151">
        <ele>100.0</ele>
        <time>2013-09-29T10:54:54Z</time>
      </trkpt>
      <trkpt lat="52.2330569" lon="21.0266017">
        <ele>98.4</ele>
        <time>2013-09-29T10:54:58Z</time>
      </trkpt>
      <trkpt lat="52.2330948" lon="21.0268233">
        <ele>96.8</ele>
        <time>2013-09-29T10:55:03Z</time>
      </trkpt>
      <trkpt lat="52.2331063" lon="21.0268664">
        <ele>96.6</ele>
        <time>2013-09-29T10:55:04Z</time>
      </trkpt>
      <trkpt lat="52.2331325" lon="21.0270848">
        <ele>95.4</ele>
        <time>2013-09-29T10:55:09Z</time>
      </trkpt>
      <trkpt lat="52.2331336" lon="21.0271293">
        <ele>95.2</ele>
        <time>2013-09-29T10:55:10Z</time>
      </trkpt>
      <trkpt lat="52.2331664" lon="21.027352">
        <ele>93.8</ele>
        <time>2013-09-29T10:55:15Z</time>
      </trkpt>
      <trkpt lat="52.2331887" lon="21.0275237">
        <ele>93.0</ele>
        <time>2013-09-29T10:55:19Z</time>
      </trkpt>
      <trkpt lat="52.2332093" lon="21.0276558">
        <ele>92.6</ele>
        <time>2013-09-29T10:55:22Z</time>
      </trkpt>
      <trkpt lat="52.2332527" lon="21.0279029">
        <ele>91.6</ele>
        <time>2013-09-29T10:55:28Z</time>
      </trkpt>
      <trkpt lat="52.2332884" lon="21.0281179">
        <ele>90.8</ele>
        <time>2013-09-29T10:55:33Z</time>
      </trkpt>
      <trkpt lat="52.2333223" lon="21.0282933">
        <ele>90.0</ele>
        <time>2013-09-29T10:55:37Z</time>
      </trkpt>
      <trkpt lat="52.2333664" lon="21.0284757">
        <ele>89.4</ele>
        <time>2013-09-29T10:55:41Z</time>
      </trkpt>
      <trkpt lat="52.2334177" lon="21.0287">
        <ele>89.0</ele>
        <time>2013-09-29T10:55:46Z</time>
      </trkpt>
      <trkpt lat="52.2334657" lon="21.0289156">
        <ele>88.6</ele>
        <time>2013-09-29T10:55:51Z</time>
      </trkpt>
      <trkpt lat="52.2335052" lon="21.0291363">
        <ele>88.4</ele>
        <time>2013-09-29T10:55:56Z</time>
      </trkpt>
      <trkpt lat="52.2335444" lon="21.0293497">
        <ele>88.2</ele>
        <time>2013-09-29T10:56:01Z</time>
      </trkpt>
      <trkpt lat="52.233588" lon="21.0295673">
        <ele>88.0</ele>
        <time>2013-09-29T10:56:06Z</time>
      </trkpt>
      <trkpt lat="52.2336303" lon="21.0297853">
        <ele>87.8</ele>
        <time>2013-09-29T10:56:11Z</time>
      </trkpt>
      <trkpt lat="52.2336894" lon="21.0300939">
        <ele>87.6</ele>
        <time>2013-09-29T10:56:18Z</time>
      </trkpt>
      <trkpt lat="52.2337191" lon="21.0302262">
        <ele>87.6</ele>
        <time>2013-09-29T10:56:21Z</time>
      </trkpt>
      <trkpt lat="52.2337692" lon="21.0304443">
        <ele>87.4</ele>
        <time>2013-09-29T10:56:26Z</time>
      </trkpt>
      <trkpt lat="52.2338113" lon="21.0306229">
        <ele>87.2</ele>
        <time>2013-09-29T10:56:30Z</time>
      </trkpt>
      <trkpt lat="52.2338305" lon="21.0307136">
        <ele>87.2</ele>
        <time>2013-09-29T10:56:32Z</time>
      </trkpt>
      <trkpt lat="52.2339072" lon="21.0310306">
        <ele>87.4</ele>
        <time>2013-09-29T10:56:39Z</time>
      </trkpt>
      <trkpt lat="52.2339313" lon="21.0311145">
        <ele>87.4</ele>
        <time>2013-09-29T10:56:41Z</time>
      </trkpt>
      <trkpt lat="52.2340035" lon="21.0314228">
        <ele>88.0</ele>
        <time>2013-09-29T10:56:48Z</time>
      </trkpt>
      <trkpt lat="52.2340682" lon="21.0316393">
        <ele>88.4</ele>
        <time>2013-09-29T10:56:53Z</time>
      </trkpt>
      <trkpt lat="52.2341097" lon="21.0318263">
        <ele>88.4</ele>
        <time>2013-09-29T10:56:57Z</time>
      </trkpt>
      <trkpt lat="52.2341579" lon="21.0320584">
        <ele>88.4</ele>
        <time>2013-09-29T10:57:02Z</time>
      </trkpt>
      <trkpt lat="52.2341848" lon="21.0322329">
        <ele>88.2</ele>
        <time>2013-09-29T10:57:06Z</time>
      </trkpt>
      <trkpt lat="52.2342115" lon="21.0324539">
        <ele>87.8</ele>
        <time>2013-09-29T10:57:11Z</time>
      </trkpt>
      <trkpt lat="52.2342454" lon="21.0326679">
        <ele>87.4</ele>
        <time>2013-09-29T10:57:16Z</time>
      </trkpt>
      <trkpt lat="52.2342811" lon="21.0328456">
        <ele>86.8</ele>
        <time>2013-09-29T10:57:20Z</time>
      </trkpt>
      <trkpt lat="52.2343706" lon="21.033071">
        <ele>86.0</ele>
        <time>2013-09-29T10:57:25Z</time>
      </trkpt>
      <trkpt lat="52.2344706" lon="21.0333492">
        <ele>85.2</ele>
        <time>2013-09-29T10:57:31Z</time>
      </trkpt>
      <trkpt lat="52.2345288" lon="21.0335803">
        <ele>85.0</ele>
        <time>2013-09-29T10:57:36Z</time>
      </trkpt>
      <trkpt lat="52.2345194" lon="21.0338329">
        <ele>84.8</ele>
        <time>2013-09-29T10:57:42Z</time>
      </trkpt>
      <trkpt lat="52.2345464" lon="21.0340014">
        <ele>84.8</ele>
        <time>2013-09-29T10:57:46Z</time>
      </trkpt>
      <trkpt lat="52.2346037" lon="21.0342334">
        <ele>85.0</ele>
        <time>2013-09-29T10:57:51Z</time>
      </trkpt>
      <trkpt lat="52.2346614" lon="21.0344676">
        <ele>85.4</ele>
        <time>2013-09-29T10:57:56Z</time>
      </trkpt>
      <trkpt lat="52.2347116" lon="21.0346847">
        <ele>85.8</ele>
        <time>2013-09-29T10:58:01Z</time>
      </trkpt>
      <trkpt lat="52.2347572" lon="21.0349458">
        <ele>86.4</ele>
        <time>2013-09-29T10:58:07Z</time>
      </trkpt>
      <trkpt lat="52.2347934" lon="21.0351559">
        <ele>86.6</ele>
        <time>2013-09-29T10:58:12Z</time>
      </trkpt>
      <trkpt lat="52.2348251" lon="21.0354082">
        <ele>86.8</ele>
        <time>2013-09-29T10:58:18Z</time>
      </trkpt>
      <trkpt lat="52.2348593" lon="21.0355709">
        <ele>87.0</ele>
        <time>2013-09-29T10:58:22Z</time>
      </trkpt>
      <trkpt lat="52.2349109" lon="21.0357824">
        <ele>87.2</ele>
        <time>2013-09-29T10:58:27Z</time>
      </trkpt>
      <trkpt lat="52.2349823" lon="21.0360055">
        <ele>87.8</ele>
        <time>2013-09-29T10:58:32Z</time>
      </trkpt>
      <trkpt lat="52.2350432" lon="21.0362799">
        <ele>87.8</ele>
        <time>2013-09-29T10:58:38Z</time>
      </trkpt>
      <trkpt lat="52.2350654" lon="21.0364521">
        <ele>87.8</ele>
        <time>2013-09-29T10:58:42Z</time>
      </trkpt>
      <trkpt lat="52.2350815" lon="21.0366209">
        <ele>87.6</ele>
        <time>2013-09-29T10:58:46Z</time>
      </trkpt>
      <trkpt lat="52.2350965" lon="21.036794">
        <ele>87.6</ele>
        <time>2013-09-29T10:58:50Z</time>
      </trkpt>
      <trkpt lat="52.2351234" lon="21.0370285">
        <ele>87.4</ele>
        <time>2013-09-29T10:58:55Z</time>
      </trkpt>
      <trkpt lat="52.2351481" lon="21.0372431">
        <ele>87.2</ele>
        <time>2013-09-29T10:59:00Z</time>
      </trkpt>
      <trkpt lat="52.2351877" lon="21.0374482">
        <ele>87.0</ele>
        <time>2013-09-29T10:59:05Z</time>
      </trkpt>
      <trkpt lat="52.2352326" lon="21.0376534">
        <ele>85.8</ele>
        <time>2013-09-29T10:59:10Z</time>
      </trkpt>
      <trkpt lat="52.2352675" lon="21.0378656">
        <ele>84.2</ele>
        <time>2013-09-29T10:59:15Z</time>
      </trkpt>
      <trkpt lat="52.23529" lon="21.0379967">
        <ele>83.2</ele>
        <time>2013-09-29T10:59:18Z</time>
      </trkpt>
      <trkpt lat="52.2353374" lon="21.0382397">
        <ele>81.2</ele>
        <time>2013-09-29T10:59:24Z</time>
      </trkpt>
      <trkpt lat="52.2353865" lon="21.038449">
        <ele>79.2</ele>
        <time>2013-09-29T10:59:29Z</time>
      </trkpt>
      <trkpt lat="52.235427" lon="21.0386629">
        <ele>77.2</ele>
        <time>2013-09-29T10:59:34Z</time>
      </trkpt>
      <trkpt lat="52.2354745" lon="21.0388773">
        <ele>75.0</ele>
        <time>2013-09-29T10:59:39Z</time>
      </trkpt>
      <trkpt lat="52.2355356" lon="21.0391369">
        <ele>72.4</ele>
        <time>2013-09-29T10:59:45Z</time>
      </trkpt>
      <trkpt lat="52.2355832" lon="21.0393503">
        <ele>71.6</ele>
        <time>2013-09-29T10:59:50Z</time>
      </trkpt>
      <trkpt lat="52.2356464" lon="21.0396524">
        <ele>71.0</ele>
        <time>2013-09-29T10:59:57Z</time>
      </trkpt>
      <trkpt lat="52.2356941" lon="21.0398653">
        <ele>70.6</ele>
        <time>2013-09-29T11:00:02Z</time>
      </trkpt>
      <trkpt lat="52.235736" lon="21.0400818">
        <ele>70.6</ele>
        <time>2013-09-29T11:00:07Z</time>
      </trkpt>
      <trkpt lat="52.2357931" lon="21.0403553">
        <ele>71.4</ele>
        <time>2013-09-29T11:00:13Z</time>
      </trkpt>
      <trkpt lat="52.2358377" lon="21.040577">
        <ele>72.4</ele>
        <time>2013-09-29T11:00:18Z</time>
      </trkpt>
      <trkpt lat="52.2358854" lon="21.0407998">
        <ele>73.4</ele>
        <time>2013-09-29T11:00:23Z</time>
      </trkpt>
      <trkpt lat="52.2359201" lon="21.0410197">
        <ele>73.8</ele>
        <time>2013-09-29T11:00:28Z</time>
      </trkpt>
      <trkpt lat="52.2359564" lon="21.0412474">
        <ele>74.4</ele>
        <time>2013-09-29T11:00:33Z</time>
      </trkpt>
      <trkpt lat="52.2360046" lon="21.0415235">
        <ele>74.8</ele>
        <time>2013-09-29T11:00:39Z</time>
      </trkpt>
      <trkpt lat="52.236061" lon="21.0417939">
        <ele>75.4</ele>
        <time>2013-09-29T11:00:45Z</time>
      </trkpt>
      <trkpt lat="52.2360955" lon="21.0420197">
        <ele>76.0</ele>
        <time>2013-09-29T11:00:50Z</time>
      </trkpt>
      <trkpt lat="52.2361357" lon="21.042286">
        <ele>76.8</ele>
        <time>2013-09-29T11:00:56Z</time>
      </trkpt>
      <trkpt lat="52.2361651" lon="21.0424543">
        <ele>77.4</ele>
        <time>2013-09-29T11:01:00Z</time>
      </trkpt>
      <trkpt lat="52.2361945" lon="21.042676">
        <ele>77.8</ele>
        <time>2013-09-29T11:01:05Z</time>
      </trkpt>
      <trkpt lat="52.2362268" lon="21.0428418">
        <ele>78.0</ele>
        <time>2013-09-29T11:01:09Z</time>
      </trkpt>
      <trkpt lat="52.2362838" lon="21.0430982">
        <ele>78.6</ele>
        <time>2013-09-29T11:01:15Z</time>
      </trkpt>
      <trkpt lat="52.2363282" lon="21.0433142">
        <ele>79.2</ele>
        <time>2013-09-29T11:01:20Z</time>
      </trkpt>
      <trkpt lat="52.2363899" lon="21.0435976">
        <ele>80.6</ele>
        <time>2013-09-29T11:01:26Z</time>
      </trkpt>
      <trkpt lat="52.2364376" lon="21.043825">
        <ele>81.6</ele>
        <time>2013-09-29T11:01:31Z</time>
      </trkpt>
      <trkpt lat="52.2364874" lon="21.0441202">
        <ele>82.8</ele>
        <time>2013-09-29T11:01:37Z</time>
      </trkpt>
      <trkpt lat="52.2365438" lon="21.044359">
        <ele>84.2</ele>
        <time>2013-09-29T11:01:42Z</time>
      </trkpt>
      <trkpt lat="52.2365981" lon="21.0445983">
        <ele>85.6</ele>
        <time>2013-09-29T11:01:47Z</time>
      </trkpt>
      <trkpt lat="52.2366505" lon="21.0448333">
        <ele>87.0</ele>
        <time>2013-09-29T11:01:52Z</time>
      </trkpt>
      <trkpt lat="52.2367143" lon="21.0451107">
        <ele>88.0</ele>
        <time>2013-09-29T11:01:58Z</time>
      </trkpt>
      <trkpt lat="52.2367432" lon="21.0453043">
        <ele>88.2</ele>
        <time>2013-09-29T11:02:02Z</time>
      </trkpt>
      <trkpt lat="52.2367656" lon="21.0455406">
        <ele>88.6</ele>
        <time>2013-09-29T11:02:07Z</time>
      </trkpt>
      <trkpt lat="52.2368022" lon="21.0457805">
        <ele>89.0</ele>
        <time>2013-09-29T11:02:12Z</time>
      </trkpt>
      <trkpt lat="52.2367661" lon="21.0459627">
        <ele>88.6</ele>
        <time>2013-09-29T11:02:16Z</time>
      </trkpt>
      <trkpt lat="52.2366458" lon="21.046097">
        <ele>87.8</ele>
        <time>2013-09-29T11:02:21Z</time>
      </trkpt>
      <trkpt lat="52.2365138" lon="21.0461804">
        <ele>86.8</ele>
        <time>2013-09-29T11:02:26Z</time>
      </trkpt>
      <trkpt lat="52.2363589" lon="21.046286">
        <ele>85.8</ele>
        <time>2013-09-29T11:02:32Z</time>
      </trkpt>
      <trkpt lat="52.2362045" lon="21.0463855">
        <ele>84.8</ele>
        <time>2013-09-29T11:02:37Z</time>
      </trkpt>
      <trkpt lat="52.2360326" lon="21.0465179">
        <ele>83.8</ele>
        <time>2013-09-29T11:02:43Z</time>
      </trkpt>
      <trkpt lat="52.2359014" lon="21.046617">
        <ele>83.2</ele>
        <time>2013-09-29T11:02:48Z</time>
      </trkpt>
      <trkpt lat="52.2357508" lon="21.0466916">
        <ele>83.0</ele>
        <time>2013-09-29T11:02:53Z</time>
      </trkpt>
      <trkpt lat="52.2356244" lon="21.0466575">
        <ele>83.2</ele>
        <time>2013-09-29T11:02:57Z</time>
      </trkpt>
      <trkpt lat="52.2355125" lon="21.0464767">
        <ele>83.2</ele>
        <time>2013-09-29T11:03:02Z</time>
      </trkpt>
      <trkpt lat="52.2354902" lon="21.0463319">
        <ele>83.2</ele>
        <time>2013-09-29T11:03:05Z</time>
      </trkpt>
      <trkpt lat="52.2355503" lon="21.0461522">
        <ele>83.2</ele>
        <time>2013-09-29T11:03:09Z</time>
      </trkpt>
      <trkpt lat="52.2357082" lon="21.045881">
        <ele>83.6</ele>
        <time>2013-09-29T11:03:16Z</time>
      </trkpt>
      <trkpt lat="52.2357984" lon="21.0457442">
        <ele>83.8</ele>
        <time>2013-09-29T11:03:20Z</time>
      </trkpt>
      <trkpt lat="52.2358531" lon="21.0456399">
        <ele>83.8</ele>
        <time>2013-09-29T11:03:23Z</time>
      </trkpt>
      <trkpt lat="52.2359953" lon="21.045455">
        <ele>84.4</ele>
        <time>2013-09-29T11:03:29Z</time>
      </trkpt>
      <trkpt lat="52.236089" lon="21.0452796">
        <ele>84.8</ele>
        <time>2013-09-29T11:03:34Z</time>
      </trkpt>
      <trkpt lat="52.2361874" lon="21.0451329">
        <ele>85.2</ele>
        <time>2013-09-29T11:03:39Z</time>
      </trkpt>
      <trkpt lat="52.2362916" lon="21.0450262">
        <ele>85.6</ele>
        <time>2013-09-29T11:03:43Z</time>
      </trkpt>
      <trkpt lat="52.2363698" lon="21.0448719">
        <ele>85.6</ele>
        <time>2013-09-29T11:03:47Z</time>
      </trkpt>
      <trkpt lat="52.2364428" lon="21.0447351">
        <ele>85.4</ele>
        <time>2013-09-29T11:03:51Z</time>
      </trkpt>
      <trkpt lat="52.2365535" lon="21.044687">
        <ele>85.8</ele>
        <time>2013-09-29T11:03:55Z</time>
      </trkpt>
      <trkpt lat="52.236623" lon="21.0445604">
        <ele>85.6</ele>
        <time>2013-09-29T11:04:01Z</time>
      </trkpt>
      <trkpt lat="52.236749" lon="21.0444518">
        <ele>85.4</ele>
        <time>2013-09-29T11:04:06Z</time>
      </trkpt>
      <trkpt lat="52.2368873" lon="21.0443474">
        <ele>85.0</ele>
        <time>2013-09-29T11:04:11Z</time>
      </trkpt>
      <trkpt lat="52.2370307" lon="21.0442227">
        <ele>84.6</ele>
        <time>2013-09-29T11:04:16Z</time>
      </trkpt>
      <trkpt lat="52.2370598" lon="21.0442005">
        <ele>84.6</ele>
        <time>2013-09-29T11:04:17Z</time>
      </trkpt>
      <trkpt lat="52.2371748" lon="21.0440978">
        <ele>84.4</ele>
        <time>2013-09-29T11:04:21Z</time>
      </trkpt>
      <trkpt lat="52.2372747" lon="21.0440222">
        <ele>84.4</ele>
        <time>2013-09-29T11:04:24Z</time>
      </trkpt>
      <trkpt lat="52.2374092" lon="21.0438991">
        <ele>84.6</ele>
        <time>2013-09-29T11:04:28Z</time>
      </trkpt>
      <trkpt lat="52.2375902" lon="21.0437551">
        <ele>85.2</ele>
        <time>2013-09-29T11:04:34Z</time>
      </trkpt>
      <trkpt lat="52.2377311" lon="21.0436503">
        <ele>85.4</ele>
        <time>2013-09-29T11:04:39Z</time>
      </trkpt>
      <trkpt lat="52.2378086" lon="21.0436245">
        <ele>85.6</ele>
        <time>2013-09-29T11:04:42Z</time>
      </trkpt>
      <trkpt lat="52.2378772" lon="21.0437968">
        <ele>86.2</ele>
        <time>2013-09-29T11:04:46Z</time>
      </trkpt>
      <trkpt lat="52.2378901" lon="21.0440156">
        <ele>86.6</ele>
        <time>2013-09-29T11:04:50Z</time>
      </trkpt>
      <trkpt lat="52.2378927" lon="21.0443139">
        <ele>87.2</ele>
        <time>2013-09-29T11:04:56Z</time>
      </trkpt>
      <trkpt lat="52.2379155" lon="21.0446072">
        <ele>88.2</ele>
        <time>2013-09-29T11:05:02Z</time>
      </trkpt>
      <trkpt lat="52.2379331" lon="21.04485">
        <ele>89.0</ele>
        <time>2013-09-29T11:05:07Z</time>
      </trkpt>
      <trkpt lat="52.2379621" lon="21.0451157">
        <ele>89.6</ele>
        <time>2013-09-29T11:05:13Z</time>
      </trkpt>
      <trkpt lat="52.2379697" lon="21.0451509">
        <ele>89.6</ele>
        <time>2013-09-29T11:05:14Z</time>
      </trkpt>
      <trkpt lat="52.2380855" lon="21.0452593">
        <ele>89.8</ele>
        <time>2013-09-29T11:05:19Z</time>
      </trkpt>
      <trkpt lat="52.2389956" lon="21.045853">
        <ele>83.4</ele>
        <time>2013-09-29T11:05:44Z</time>
      </trkpt>
      <trkpt lat="52.2390707" lon="21.0459255">
        <ele>83.2</ele>
        <time>2013-09-29T11:05:50Z</time>
      </trkpt>
      <trkpt lat="52.2390938" lon="21.0460776">
        <ele>83.6</ele>
        <time>2013-09-29T11:05:55Z</time>
      </trkpt>
      <trkpt lat="52.2392002" lon="21.0459891">
        <ele>82.8</ele>
        <time>2013-09-29T11:06:00Z</time>
      </trkpt>
      <trkpt lat="52.2392794" lon="21.0458939">
        <ele>82.8</ele>
        <time>2013-09-29T11:06:03Z</time>
      </trkpt>
      <trkpt lat="52.2394041" lon="21.0457524">
        <ele>83.2</ele>
        <time>2013-09-29T11:06:08Z</time>
      </trkpt>
      <trkpt lat="52.239541" lon="21.0455981">
        <ele>84.2</ele>
        <time>2013-09-29T11:06:13Z</time>
      </trkpt>
      <trkpt lat="52.2396685" lon="21.0454774">
        <ele>85.0</ele>
        <time>2013-09-29T11:06:17Z</time>
      </trkpt>
      <trkpt lat="52.2397503" lon="21.0453529">
        <ele>85.4</ele>
        <time>2013-09-29T11:06:23Z</time>
      </trkpt>
    </trkseg>
  </trk>
</gpx>